<?xml version="1.0" encoding="UTF-8" standalone="no" ?>
<gpx xmlns="http://www.topografix.com/GPX/1/1" xmlns:xsi="http://www.w3.org/2001/XMLSchema-instance" xsi:schemaLocation="http://www.topografix.com/GPX/1/1 http://www.topografix.com/GPX/1/1/gpx.xsd" version="1.1" creator="VisuGPX - https://www.visugpx.com">
  <metadata>
    <name>Méaudre Villard de Lans</name>
    <desc><![CDATA[Via La Sure et Charande avec descente de la crête de la mollière.]]></desc>
  </metadata>
  <trk>
    <name><![CDATA[Méaudrelessendole on GPSies.com]]></name>
    <trkseg>
      <trkpt lat="45.13089" lon="5.52797">
        <ele>975.79687</ele>
        <time>2012-04-17T19:38:31Z</time>
      </trkpt>
      <trkpt lat="45.13094" lon="5.52795">
        <ele>976</ele>
        <time>2012-04-17T19:38:32Z</time>
      </trkpt>
      <trkpt lat="45.13098" lon="5.52795">
        <ele>976</ele>
        <time>2012-04-17T19:38:33Z</time>
      </trkpt>
      <trkpt lat="45.13102" lon="5.52799">
        <ele>976</ele>
        <time>2012-04-17T19:38:34Z</time>
      </trkpt>
      <trkpt lat="45.13109" lon="5.52793">
        <ele>976</ele>
        <time>2012-04-17T19:38:36Z</time>
      </trkpt>
      <trkpt lat="45.13124" lon="5.52784">
        <ele>976</ele>
        <time>2012-04-17T19:38:40Z</time>
      </trkpt>
      <trkpt lat="45.13141" lon="5.52773">
        <ele>976</ele>
        <time>2012-04-17T19:38:45Z</time>
      </trkpt>
      <trkpt lat="45.13145" lon="5.52763">
        <ele>976</ele>
        <time>2012-04-17T19:38:47Z</time>
      </trkpt>
      <trkpt lat="45.13147" lon="5.52756">
        <ele>976</ele>
        <time>2012-04-17T19:38:48Z</time>
      </trkpt>
      <trkpt lat="45.13152" lon="5.52743">
        <ele>977</ele>
        <time>2012-04-17T19:38:50Z</time>
      </trkpt>
      <trkpt lat="45.13169" lon="5.5269">
        <ele>977</ele>
        <time>2012-04-17T19:39:01Z</time>
      </trkpt>
      <trkpt lat="45.13173" lon="5.52672">
        <ele>978</ele>
        <time>2012-04-17T19:39:04Z</time>
      </trkpt>
      <trkpt lat="45.13177" lon="5.52647">
        <ele>979</ele>
        <time>2012-04-17T19:39:09Z</time>
      </trkpt>
      <trkpt lat="45.13188" lon="5.52619">
        <ele>979</ele>
        <time>2012-04-17T19:39:15Z</time>
      </trkpt>
      <trkpt lat="45.1319" lon="5.52612">
        <ele>979</ele>
        <time>2012-04-17T19:39:16Z</time>
      </trkpt>
      <trkpt lat="45.13197" lon="5.52612">
        <ele>979</ele>
        <time>2012-04-17T19:39:17Z</time>
      </trkpt>
      <trkpt lat="45.13201" lon="5.52612">
        <ele>979</ele>
        <time>2012-04-17T19:39:18Z</time>
      </trkpt>
      <trkpt lat="45.13212" lon="5.52604">
        <ele>979</ele>
        <time>2012-04-17T19:39:21Z</time>
      </trkpt>
      <trkpt lat="45.13227" lon="5.52593">
        <ele>979</ele>
        <time>2012-04-17T19:39:25Z</time>
      </trkpt>
      <trkpt lat="45.13246" lon="5.5258">
        <ele>980</ele>
        <time>2012-04-17T19:39:30Z</time>
      </trkpt>
      <trkpt lat="45.13261" lon="5.52567">
        <ele>979</ele>
        <time>2012-04-17T19:39:34Z</time>
      </trkpt>
      <trkpt lat="45.13298" lon="5.52531">
        <ele>979</ele>
        <time>2012-04-17T19:39:46Z</time>
      </trkpt>
      <trkpt lat="45.13325" lon="5.52501">
        <ele>980</ele>
        <time>2012-04-17T19:39:55Z</time>
      </trkpt>
      <trkpt lat="45.13358" lon="5.52464">
        <ele>977</ele>
        <time>2012-04-17T19:40:06Z</time>
      </trkpt>
      <trkpt lat="45.13383" lon="5.52441">
        <ele>977</ele>
        <time>2012-04-17T19:40:14Z</time>
      </trkpt>
      <trkpt lat="45.13392" lon="5.52432">
        <ele>977</ele>
        <time>2012-04-17T19:40:16Z</time>
      </trkpt>
      <trkpt lat="45.13424" lon="5.52406">
        <ele>978</ele>
        <time>2012-04-17T19:40:26Z</time>
      </trkpt>
      <trkpt lat="45.13437" lon="5.52397">
        <ele>978</ele>
        <time>2012-04-17T19:40:29Z</time>
      </trkpt>
      <trkpt lat="45.13444" lon="5.52391">
        <ele>979</ele>
        <time>2012-04-17T19:40:31Z</time>
      </trkpt>
      <trkpt lat="45.13461" lon="5.52381">
        <ele>979</ele>
        <time>2012-04-17T19:40:36Z</time>
      </trkpt>
      <trkpt lat="45.13484" lon="5.52378">
        <ele>980</ele>
        <time>2012-04-17T19:40:42Z</time>
      </trkpt>
      <trkpt lat="45.13495" lon="5.52376">
        <ele>980</ele>
        <time>2012-04-17T19:40:45Z</time>
      </trkpt>
      <trkpt lat="45.13501" lon="5.5237">
        <ele>980</ele>
        <time>2012-04-17T19:40:47Z</time>
      </trkpt>
      <trkpt lat="45.13516" lon="5.52359">
        <ele>980</ele>
        <time>2012-04-17T19:40:51Z</time>
      </trkpt>
      <trkpt lat="45.13538" lon="5.52346">
        <ele>979</ele>
        <time>2012-04-17T19:40:57Z</time>
      </trkpt>
      <trkpt lat="45.13559" lon="5.52338">
        <ele>979</ele>
        <time>2012-04-17T19:41:03Z</time>
      </trkpt>
      <trkpt lat="45.13583" lon="5.52331">
        <ele>977</ele>
        <time>2012-04-17T19:41:09Z</time>
      </trkpt>
      <trkpt lat="45.13615" lon="5.52321">
        <ele>980</ele>
        <time>2012-04-17T19:41:18Z</time>
      </trkpt>
      <trkpt lat="45.13639" lon="5.52314">
        <ele>980</ele>
        <time>2012-04-17T19:41:24Z</time>
      </trkpt>
      <trkpt lat="45.13667" lon="5.52314">
        <ele>980</ele>
        <time>2012-04-17T19:41:31Z</time>
      </trkpt>
      <trkpt lat="45.13688" lon="5.52316">
        <ele>981</ele>
        <time>2012-04-17T19:41:36Z</time>
      </trkpt>
      <trkpt lat="45.13705" lon="5.52308">
        <ele>980</ele>
        <time>2012-04-17T19:41:41Z</time>
      </trkpt>
      <trkpt lat="45.13716" lon="5.52299">
        <ele>980</ele>
        <time>2012-04-17T19:41:44Z</time>
      </trkpt>
      <trkpt lat="45.13727" lon="5.52286">
        <ele>980</ele>
        <time>2012-04-17T19:41:47Z</time>
      </trkpt>
      <trkpt lat="45.13735" lon="5.52282">
        <ele>980</ele>
        <time>2012-04-17T19:41:49Z</time>
      </trkpt>
      <trkpt lat="45.13748" lon="5.52278">
        <ele>979</ele>
        <time>2012-04-17T19:41:52Z</time>
      </trkpt>
      <trkpt lat="45.13772" lon="5.52273">
        <ele>979</ele>
        <time>2012-04-17T19:41:58Z</time>
      </trkpt>
      <trkpt lat="45.138" lon="5.52269">
        <ele>980</ele>
        <time>2012-04-17T19:42:05Z</time>
      </trkpt>
      <trkpt lat="45.13815" lon="5.52267">
        <ele>980</ele>
        <time>2012-04-17T19:42:09Z</time>
      </trkpt>
      <trkpt lat="45.13836" lon="5.52267">
        <ele>981</ele>
        <time>2012-04-17T19:42:14Z</time>
      </trkpt>
      <trkpt lat="45.13877" lon="5.5226">
        <ele>981</ele>
        <time>2012-04-17T19:42:25Z</time>
      </trkpt>
      <trkpt lat="45.13918" lon="5.52256">
        <ele>982</ele>
        <time>2012-04-17T19:42:36Z</time>
      </trkpt>
      <trkpt lat="45.13941" lon="5.52252">
        <ele>982</ele>
        <time>2012-04-17T19:42:42Z</time>
      </trkpt>
      <trkpt lat="45.13952" lon="5.52248">
        <ele>984</ele>
        <time>2012-04-17T19:42:45Z</time>
      </trkpt>
      <trkpt lat="45.13967" lon="5.52241">
        <ele>985</ele>
        <time>2012-04-17T19:42:49Z</time>
      </trkpt>
      <trkpt lat="45.13993" lon="5.52228">
        <ele>985</ele>
        <time>2012-04-17T19:42:56Z</time>
      </trkpt>
      <trkpt lat="45.14016" lon="5.52218">
        <ele>987</ele>
        <time>2012-04-17T19:43:02Z</time>
      </trkpt>
      <trkpt lat="45.14038" lon="5.52203">
        <ele>988</ele>
        <time>2012-04-17T19:43:08Z</time>
      </trkpt>
      <trkpt lat="45.14064" lon="5.52185">
        <ele>989</ele>
        <time>2012-04-17T19:43:15Z</time>
      </trkpt>
      <trkpt lat="45.14077" lon="5.52174">
        <ele>989</ele>
        <time>2012-04-17T19:43:19Z</time>
      </trkpt>
      <trkpt lat="45.14092" lon="5.52162">
        <ele>989</ele>
        <time>2012-04-17T19:43:23Z</time>
      </trkpt>
      <trkpt lat="45.14113" lon="5.5214">
        <ele>987</ele>
        <time>2012-04-17T19:43:30Z</time>
      </trkpt>
      <trkpt lat="45.14128" lon="5.52127">
        <ele>987</ele>
        <time>2012-04-17T19:43:34Z</time>
      </trkpt>
      <trkpt lat="45.14149" lon="5.52117">
        <ele>987</ele>
        <time>2012-04-17T19:43:40Z</time>
      </trkpt>
      <trkpt lat="45.14171" lon="5.5211">
        <ele>989</ele>
        <time>2012-04-17T19:43:46Z</time>
      </trkpt>
      <trkpt lat="45.1419" lon="5.52106">
        <ele>989</ele>
        <time>2012-04-17T19:43:51Z</time>
      </trkpt>
      <trkpt lat="45.14203" lon="5.52106">
        <ele>990</ele>
        <time>2012-04-17T19:43:54Z</time>
      </trkpt>
      <trkpt lat="45.14212" lon="5.52104">
        <ele>991</ele>
        <time>2012-04-17T19:43:56Z</time>
      </trkpt>
      <trkpt lat="45.14231" lon="5.5211">
        <ele>991</ele>
        <time>2012-04-17T19:44:01Z</time>
      </trkpt>
      <trkpt lat="45.14278" lon="5.52123">
        <ele>991</ele>
        <time>2012-04-17T19:44:14Z</time>
      </trkpt>
      <trkpt lat="45.14287" lon="5.52123">
        <ele>990</ele>
        <time>2012-04-17T19:44:16Z</time>
      </trkpt>
      <trkpt lat="45.143" lon="5.52121">
        <ele>990</ele>
        <time>2012-04-17T19:44:19Z</time>
      </trkpt>
      <trkpt lat="45.14306" lon="5.52121">
        <ele>990</ele>
        <time>2012-04-17T19:44:20Z</time>
      </trkpt>
      <trkpt lat="45.1431" lon="5.52119">
        <ele>990</ele>
        <time>2012-04-17T19:44:21Z</time>
      </trkpt>
      <trkpt lat="45.14313" lon="5.52112">
        <ele>990</ele>
        <time>2012-04-17T19:44:22Z</time>
      </trkpt>
      <trkpt lat="45.14325" lon="5.52102">
        <ele>990</ele>
        <time>2012-04-17T19:44:26Z</time>
      </trkpt>
      <trkpt lat="45.14347" lon="5.52087">
        <ele>989</ele>
        <time>2012-04-17T19:44:32Z</time>
      </trkpt>
      <trkpt lat="45.14355" lon="5.52082">
        <ele>991</ele>
        <time>2012-04-17T19:44:34Z</time>
      </trkpt>
      <trkpt lat="45.14362" lon="5.52082">
        <ele>991</ele>
        <time>2012-04-17T19:44:35Z</time>
      </trkpt>
      <trkpt lat="45.14366" lon="5.52084">
        <ele>989</ele>
        <time>2012-04-17T19:44:36Z</time>
      </trkpt>
      <trkpt lat="45.14383" lon="5.52089">
        <ele>989</ele>
        <time>2012-04-17T19:44:40Z</time>
      </trkpt>
      <trkpt lat="45.14394" lon="5.52089">
        <ele>989</ele>
        <time>2012-04-17T19:44:42Z</time>
      </trkpt>
      <trkpt lat="45.14405" lon="5.52089">
        <ele>989</ele>
        <time>2012-04-17T19:44:44Z</time>
      </trkpt>
      <trkpt lat="45.14416" lon="5.52084">
        <ele>990</ele>
        <time>2012-04-17T19:44:47Z</time>
      </trkpt>
      <trkpt lat="45.14431" lon="5.52078">
        <ele>990</ele>
        <time>2012-04-17T19:44:51Z</time>
      </trkpt>
      <trkpt lat="45.14466" lon="5.52052">
        <ele>990</ele>
        <time>2012-04-17T19:45:02Z</time>
      </trkpt>
      <trkpt lat="45.14478" lon="5.52044">
        <ele>989</ele>
        <time>2012-04-17T19:45:05Z</time>
      </trkpt>
      <trkpt lat="45.14493" lon="5.52029">
        <ele>989</ele>
        <time>2012-04-17T19:45:10Z</time>
      </trkpt>
      <trkpt lat="45.14501" lon="5.52016">
        <ele>987</ele>
        <time>2012-04-17T19:45:13Z</time>
      </trkpt>
      <trkpt lat="45.14508" lon="5.52003">
        <ele>987</ele>
        <time>2012-04-17T19:45:16Z</time>
      </trkpt>
      <trkpt lat="45.14516" lon="5.51977">
        <ele>990</ele>
        <time>2012-04-17T19:45:21Z</time>
      </trkpt>
      <trkpt lat="45.14525" lon="5.51943">
        <ele>992</ele>
        <time>2012-04-17T19:45:28Z</time>
      </trkpt>
      <trkpt lat="45.14538" lon="5.51904">
        <ele>998</ele>
        <time>2012-04-17T19:45:36Z</time>
      </trkpt>
      <trkpt lat="45.14559" lon="5.51855">
        <ele>1001</ele>
        <time>2012-04-17T19:45:47Z</time>
      </trkpt>
      <trkpt lat="45.14568" lon="5.51831">
        <ele>1005</ele>
        <time>2012-04-17T19:45:52Z</time>
      </trkpt>
      <trkpt lat="45.14574" lon="5.51816">
        <ele>1006</ele>
        <time>2012-04-17T19:45:55Z</time>
      </trkpt>
      <trkpt lat="45.14589" lon="5.5184">
        <ele>1003</ele>
        <time>2012-04-17T19:46:01Z</time>
      </trkpt>
      <trkpt lat="45.14609" lon="5.51868">
        <ele>1003</ele>
        <time>2012-04-17T19:46:08Z</time>
      </trkpt>
      <trkpt lat="45.14637" lon="5.51909">
        <ele>1003</ele>
        <time>2012-04-17T19:46:19Z</time>
      </trkpt>
      <trkpt lat="45.14673" lon="5.51954">
        <ele>1001</ele>
        <time>2012-04-17T19:46:32Z</time>
      </trkpt>
      <trkpt lat="45.14744" lon="5.52039">
        <ele>993</ele>
        <time>2012-04-17T19:46:57Z</time>
      </trkpt>
      <trkpt lat="45.1478" lon="5.5208">
        <ele>996</ele>
        <time>2012-04-17T19:47:09Z</time>
      </trkpt>
      <trkpt lat="45.14823" lon="5.52125">
        <ele>993</ele>
        <time>2012-04-17T19:47:23Z</time>
      </trkpt>
      <trkpt lat="45.14855" lon="5.52155">
        <ele>994</ele>
        <time>2012-04-17T19:47:33Z</time>
      </trkpt>
      <trkpt lat="45.14875" lon="5.52172">
        <ele>992</ele>
        <time>2012-04-17T19:47:39Z</time>
      </trkpt>
      <trkpt lat="45.14894" lon="5.52183">
        <ele>993</ele>
        <time>2012-04-17T19:47:44Z</time>
      </trkpt>
      <trkpt lat="45.14918" lon="5.52198">
        <ele>996</ele>
        <time>2012-04-17T19:47:51Z</time>
      </trkpt>
      <trkpt lat="45.1498" lon="5.52235">
        <ele>997</ele>
        <time>2012-04-17T19:48:09Z</time>
      </trkpt>
      <trkpt lat="45.15042" lon="5.52273">
        <ele>997</ele>
        <time>2012-04-17T19:48:27Z</time>
      </trkpt>
      <trkpt lat="45.15055" lon="5.52282">
        <ele>998</ele>
        <time>2012-04-17T19:48:30Z</time>
      </trkpt>
      <trkpt lat="45.15076" lon="5.52295">
        <ele>998</ele>
        <time>2012-04-17T19:48:36Z</time>
      </trkpt>
      <trkpt lat="45.15089" lon="5.52303">
        <ele>999</ele>
        <time>2012-04-17T19:48:39Z</time>
      </trkpt>
      <trkpt lat="45.15094" lon="5.52308">
        <ele>999</ele>
        <time>2012-04-17T19:48:40Z</time>
      </trkpt>
      <trkpt lat="45.15098" lon="5.52305">
        <ele>999</ele>
        <time>2012-04-17T19:48:41Z</time>
      </trkpt>
      <trkpt lat="45.15104" lon="5.52308">
        <ele>999</ele>
        <time>2012-04-17T19:48:42Z</time>
      </trkpt>
      <trkpt lat="45.15106" lon="5.52312">
        <ele>999</ele>
        <time>2012-04-17T19:48:43Z</time>
      </trkpt>
      <trkpt lat="45.15109" lon="5.52316">
        <ele>999</ele>
        <time>2012-04-17T19:48:44Z</time>
      </trkpt>
      <trkpt lat="45.15106" lon="5.52323">
        <ele>999</ele>
        <time>2012-04-17T19:48:45Z</time>
      </trkpt>
      <trkpt lat="45.15102" lon="5.52329">
        <ele>999</ele>
        <time>2012-04-17T19:48:46Z</time>
      </trkpt>
      <trkpt lat="45.15096" lon="5.52333">
        <ele>997</ele>
        <time>2012-04-17T19:48:47Z</time>
      </trkpt>
      <trkpt lat="45.15085" lon="5.52355">
        <ele>997</ele>
        <time>2012-04-17T19:48:52Z</time>
      </trkpt>
      <trkpt lat="45.15081" lon="5.5237">
        <ele>997</ele>
        <time>2012-04-17T19:48:55Z</time>
      </trkpt>
      <trkpt lat="45.15079" lon="5.52374">
        <ele>997</ele>
        <time>2012-04-17T19:48:56Z</time>
      </trkpt>
      <trkpt lat="45.15079" lon="5.52378">
        <ele>996</ele>
        <time>2012-04-17T19:48:56Z</time>
      </trkpt>
      <trkpt lat="45.15076" lon="5.52387">
        <ele>996</ele>
        <time>2012-04-17T19:48:57Z</time>
      </trkpt>
      <trkpt lat="45.15057" lon="5.52447">
        <ele>995</ele>
        <time>2012-04-17T19:49:09Z</time>
      </trkpt>
      <trkpt lat="45.1504" lon="5.52499">
        <ele>995</ele>
        <time>2012-04-17T19:49:20Z</time>
      </trkpt>
      <trkpt lat="45.15027" lon="5.52542">
        <ele>995</ele>
        <time>2012-04-17T19:49:29Z</time>
      </trkpt>
      <trkpt lat="45.15023" lon="5.52569">
        <ele>996</ele>
        <time>2012-04-17T19:49:34Z</time>
      </trkpt>
      <trkpt lat="45.15012" lon="5.52569">
        <ele>996</ele>
        <time>2012-04-17T19:49:36Z</time>
      </trkpt>
      <trkpt lat="45.15012" lon="5.52576">
        <ele>996</ele>
        <time>2012-04-17T19:49:37Z</time>
      </trkpt>
      <trkpt lat="45.1501" lon="5.52591">
        <ele>999</ele>
        <time>2012-04-17T19:49:40Z</time>
      </trkpt>
      <trkpt lat="45.15003" lon="5.52608">
        <ele>1001</ele>
        <time>2012-04-17T19:49:43Z</time>
      </trkpt>
      <trkpt lat="45.15001" lon="5.52614">
        <ele>1001</ele>
        <time>2012-04-17T19:49:44Z</time>
      </trkpt>
      <trkpt lat="45.14999" lon="5.52619">
        <ele>1002</ele>
        <time>2012-04-17T19:49:45Z</time>
      </trkpt>
      <trkpt lat="45.14997" lon="5.52623">
        <ele>1003</ele>
        <time>2012-04-17T19:49:46Z</time>
      </trkpt>
      <trkpt lat="45.14993" lon="5.52625">
        <ele>1003</ele>
        <time>2012-04-17T19:49:47Z</time>
      </trkpt>
      <trkpt lat="45.15001" lon="5.5263">
        <ele>1003</ele>
        <time>2012-04-17T19:49:49Z</time>
      </trkpt>
      <trkpt lat="45.15016" lon="5.52632">
        <ele>1003</ele>
        <time>2012-04-17T19:49:53Z</time>
      </trkpt>
      <trkpt lat="45.15025" lon="5.52636">
        <ele>1003</ele>
        <time>2012-04-17T19:49:55Z</time>
      </trkpt>
      <trkpt lat="45.15031" lon="5.52638">
        <ele>1003</ele>
        <time>2012-04-17T19:49:56Z</time>
      </trkpt>
      <trkpt lat="45.1504" lon="5.52642">
        <ele>1004</ele>
        <time>2012-04-17T19:49:58Z</time>
      </trkpt>
      <trkpt lat="45.15053" lon="5.52647">
        <ele>1004</ele>
        <time>2012-04-17T19:50:01Z</time>
      </trkpt>
      <trkpt lat="45.15059" lon="5.52647">
        <ele>1004</ele>
        <time>2012-04-17T19:50:02Z</time>
      </trkpt>
      <trkpt lat="45.15074" lon="5.52649">
        <ele>1005</ele>
        <time>2012-04-17T19:50:06Z</time>
      </trkpt>
      <trkpt lat="45.15081" lon="5.52651">
        <ele>1005</ele>
        <time>2012-04-17T19:50:07Z</time>
      </trkpt>
      <trkpt lat="45.15091" lon="5.52653">
        <ele>1006</ele>
        <time>2012-04-17T19:50:10Z</time>
      </trkpt>
      <trkpt lat="45.151" lon="5.52655">
        <ele>1006</ele>
        <time>2012-04-17T19:50:12Z</time>
      </trkpt>
      <trkpt lat="45.15113" lon="5.52662">
        <ele>1006</ele>
        <time>2012-04-17T19:50:15Z</time>
      </trkpt>
      <trkpt lat="45.15158" lon="5.52677">
        <ele>1014</ele>
        <time>2012-04-17T19:50:27Z</time>
      </trkpt>
      <trkpt lat="45.15159" lon="5.52682">
        <ele>1014.1171</ele>
        <time>2012-04-17T19:50:28Z</time>
      </trkpt>
      <trkpt lat="45.1516" lon="5.52677">
        <ele>1014</ele>
        <time>2012-04-17T19:50:28Z</time>
      </trkpt>
      <trkpt lat="45.15164" lon="5.52679">
        <ele>1014</ele>
        <time>2012-04-17T19:50:29Z</time>
      </trkpt>
      <trkpt lat="45.15173" lon="5.52681">
        <ele>1013</ele>
        <time>2012-04-17T19:50:31Z</time>
      </trkpt>
      <trkpt lat="45.15182" lon="5.52683">
        <ele>1014</ele>
        <time>2012-04-17T19:50:33Z</time>
      </trkpt>
      <trkpt lat="45.15188" lon="5.52685">
        <ele>1014</ele>
        <time>2012-04-17T19:50:34Z</time>
      </trkpt>
      <trkpt lat="45.15194" lon="5.52687">
        <ele>1014</ele>
        <time>2012-04-17T19:50:35Z</time>
      </trkpt>
      <trkpt lat="45.15203" lon="5.52687">
        <ele>1014</ele>
        <time>2012-04-17T19:50:37Z</time>
      </trkpt>
      <trkpt lat="45.15214" lon="5.5269">
        <ele>1013</ele>
        <time>2012-04-17T19:50:40Z</time>
      </trkpt>
      <trkpt lat="45.1522" lon="5.52692">
        <ele>1013</ele>
        <time>2012-04-17T19:50:41Z</time>
      </trkpt>
      <trkpt lat="45.15229" lon="5.52692">
        <ele>1012</ele>
        <time>2012-04-17T19:50:43Z</time>
      </trkpt>
      <trkpt lat="45.15252" lon="5.52698">
        <ele>1010</ele>
        <time>2012-04-17T19:50:49Z</time>
      </trkpt>
      <trkpt lat="45.1527" lon="5.52707">
        <ele>1011</ele>
        <time>2012-04-17T19:50:54Z</time>
      </trkpt>
      <trkpt lat="45.15276" lon="5.52709">
        <ele>1011</ele>
        <time>2012-04-17T19:50:55Z</time>
      </trkpt>
      <trkpt lat="45.15285" lon="5.52713">
        <ele>1012</ele>
        <time>2012-04-17T19:50:57Z</time>
      </trkpt>
      <trkpt lat="45.15291" lon="5.52717">
        <ele>1012</ele>
        <time>2012-04-17T19:50:58Z</time>
      </trkpt>
      <trkpt lat="45.15304" lon="5.52724">
        <ele>1012</ele>
        <time>2012-04-17T19:51:01Z</time>
      </trkpt>
      <trkpt lat="45.15317" lon="5.5273">
        <ele>1012</ele>
        <time>2012-04-17T19:51:04Z</time>
      </trkpt>
      <trkpt lat="45.15323" lon="5.52733">
        <ele>1011</ele>
        <time>2012-04-17T19:51:05Z</time>
      </trkpt>
      <trkpt lat="45.1533" lon="5.52735">
        <ele>1011</ele>
        <time>2012-04-17T19:51:06Z</time>
      </trkpt>
      <trkpt lat="45.15334" lon="5.52737">
        <ele>1011</ele>
        <time>2012-04-17T19:51:07Z</time>
      </trkpt>
      <trkpt lat="45.15353" lon="5.52745">
        <ele>1011</ele>
        <time>2012-04-17T19:51:12Z</time>
      </trkpt>
      <trkpt lat="45.15366" lon="5.52754">
        <ele>1018</ele>
        <time>2012-04-17T19:51:15Z</time>
      </trkpt>
      <trkpt lat="45.15373" lon="5.52758">
        <ele>1019</ele>
        <time>2012-04-17T19:51:16Z</time>
      </trkpt>
      <trkpt lat="45.15381" lon="5.52763">
        <ele>1019</ele>
        <time>2012-04-17T19:51:18Z</time>
      </trkpt>
      <trkpt lat="45.15388" lon="5.52767">
        <ele>1019</ele>
        <time>2012-04-17T19:51:19Z</time>
      </trkpt>
      <trkpt lat="45.15396" lon="5.52771">
        <ele>1020</ele>
        <time>2012-04-17T19:51:21Z</time>
      </trkpt>
      <trkpt lat="45.15413" lon="5.5278">
        <ele>1020</ele>
        <time>2012-04-17T19:51:26Z</time>
      </trkpt>
      <trkpt lat="45.15422" lon="5.52784">
        <ele>1018</ele>
        <time>2012-04-17T19:51:28Z</time>
      </trkpt>
      <trkpt lat="45.1543" lon="5.5279">
        <ele>1018</ele>
        <time>2012-04-17T19:51:30Z</time>
      </trkpt>
      <trkpt lat="45.15446" lon="5.52799">
        <ele>1018</ele>
        <time>2012-04-17T19:51:34Z</time>
      </trkpt>
      <trkpt lat="45.15458" lon="5.52805">
        <ele>1017</ele>
        <time>2012-04-17T19:51:37Z</time>
      </trkpt>
      <trkpt lat="45.15467" lon="5.5281">
        <ele>1016</ele>
        <time>2012-04-17T19:51:39Z</time>
      </trkpt>
      <trkpt lat="45.1548" lon="5.52818">
        <ele>1015</ele>
        <time>2012-04-17T19:51:42Z</time>
      </trkpt>
      <trkpt lat="45.15491" lon="5.52827">
        <ele>1014</ele>
        <time>2012-04-17T19:51:45Z</time>
      </trkpt>
      <trkpt lat="45.15499" lon="5.52833">
        <ele>1012</ele>
        <time>2012-04-17T19:51:47Z</time>
      </trkpt>
      <trkpt lat="45.15506" lon="5.52838">
        <ele>1013</ele>
        <time>2012-04-17T19:51:48Z</time>
      </trkpt>
      <trkpt lat="45.15512" lon="5.52842">
        <ele>1013</ele>
        <time>2012-04-17T19:51:49Z</time>
      </trkpt>
      <trkpt lat="45.15521" lon="5.52844">
        <ele>1013</ele>
        <time>2012-04-17T19:51:51Z</time>
      </trkpt>
      <trkpt lat="45.15529" lon="5.52848">
        <ele>1014</ele>
        <time>2012-04-17T19:51:53Z</time>
      </trkpt>
      <trkpt lat="45.15538" lon="5.52851">
        <ele>1014</ele>
        <time>2012-04-17T19:51:55Z</time>
      </trkpt>
      <trkpt lat="45.15546" lon="5.52855">
        <ele>1014</ele>
        <time>2012-04-17T19:51:57Z</time>
      </trkpt>
      <trkpt lat="45.15553" lon="5.52857">
        <ele>1014</ele>
        <time>2012-04-17T19:51:58Z</time>
      </trkpt>
      <trkpt lat="45.15572" lon="5.5287">
        <ele>1014</ele>
        <time>2012-04-17T19:52:03Z</time>
      </trkpt>
      <trkpt lat="45.15579" lon="5.52874">
        <ele>1014</ele>
        <time>2012-04-17T19:52:04Z</time>
      </trkpt>
      <trkpt lat="45.15585" lon="5.52878">
        <ele>1015</ele>
        <time>2012-04-17T19:52:05Z</time>
      </trkpt>
      <trkpt lat="45.15594" lon="5.52883">
        <ele>1015</ele>
        <time>2012-04-17T19:52:07Z</time>
      </trkpt>
      <trkpt lat="45.156" lon="5.52885">
        <ele>1015</ele>
        <time>2012-04-17T19:52:08Z</time>
      </trkpt>
      <trkpt lat="45.15606" lon="5.52887">
        <ele>1015</ele>
        <time>2012-04-17T19:52:09Z</time>
      </trkpt>
      <trkpt lat="45.15619" lon="5.52889">
        <ele>1015</ele>
        <time>2012-04-17T19:52:12Z</time>
      </trkpt>
      <trkpt lat="45.15643" lon="5.52893">
        <ele>1015</ele>
        <time>2012-04-17T19:52:18Z</time>
      </trkpt>
      <trkpt lat="45.15654" lon="5.52898">
        <ele>1016</ele>
        <time>2012-04-17T19:52:21Z</time>
      </trkpt>
      <trkpt lat="45.15664" lon="5.52904">
        <ele>1016</ele>
        <time>2012-04-17T19:52:24Z</time>
      </trkpt>
      <trkpt lat="45.15675" lon="5.52908">
        <ele>1016</ele>
        <time>2012-04-17T19:52:27Z</time>
      </trkpt>
      <trkpt lat="45.1569" lon="5.52919">
        <ele>1019</ele>
        <time>2012-04-17T19:52:31Z</time>
      </trkpt>
      <trkpt lat="45.15697" lon="5.52923">
        <ele>1020</ele>
        <time>2012-04-17T19:52:33Z</time>
      </trkpt>
      <trkpt lat="45.15705" lon="5.5293">
        <ele>1020</ele>
        <time>2012-04-17T19:52:35Z</time>
      </trkpt>
      <trkpt lat="45.15718" lon="5.52938">
        <ele>1020</ele>
        <time>2012-04-17T19:52:38Z</time>
      </trkpt>
      <trkpt lat="45.15727" lon="5.52945">
        <ele>1020</ele>
        <time>2012-04-17T19:52:40Z</time>
      </trkpt>
      <trkpt lat="45.15733" lon="5.52949">
        <ele>1020</ele>
        <time>2012-04-17T19:52:41Z</time>
      </trkpt>
      <trkpt lat="45.15739" lon="5.52954">
        <ele>1020</ele>
        <time>2012-04-17T19:52:42Z</time>
      </trkpt>
      <trkpt lat="45.15744" lon="5.52958">
        <ele>1021</ele>
        <time>2012-04-17T19:52:43Z</time>
      </trkpt>
      <trkpt lat="45.15748" lon="5.52964">
        <ele>1021</ele>
        <time>2012-04-17T19:52:44Z</time>
      </trkpt>
      <trkpt lat="45.1575" lon="5.52971">
        <ele>1020</ele>
        <time>2012-04-17T19:52:45Z</time>
      </trkpt>
      <trkpt lat="45.15752" lon="5.52977">
        <ele>1020</ele>
        <time>2012-04-17T19:52:46Z</time>
      </trkpt>
      <trkpt lat="45.15754" lon="5.52984">
        <ele>1021</ele>
        <time>2012-04-17T19:52:47Z</time>
      </trkpt>
      <trkpt lat="45.15759" lon="5.52996">
        <ele>1022</ele>
        <time>2012-04-17T19:52:49Z</time>
      </trkpt>
      <trkpt lat="45.15761" lon="5.53011">
        <ele>1023</ele>
        <time>2012-04-17T19:52:52Z</time>
      </trkpt>
      <trkpt lat="45.15765" lon="5.53022">
        <ele>1023</ele>
        <time>2012-04-17T19:52:54Z</time>
      </trkpt>
      <trkpt lat="45.15774" lon="5.53057">
        <ele>1023</ele>
        <time>2012-04-17T19:53:01Z</time>
      </trkpt>
      <trkpt lat="45.1578" lon="5.53067">
        <ele>1023</ele>
        <time>2012-04-17T19:53:03Z</time>
      </trkpt>
      <trkpt lat="45.15785" lon="5.53076">
        <ele>1023</ele>
        <time>2012-04-17T19:53:05Z</time>
      </trkpt>
      <trkpt lat="45.15789" lon="5.53084">
        <ele>1023</ele>
        <time>2012-04-17T19:53:07Z</time>
      </trkpt>
      <trkpt lat="45.15793" lon="5.53095">
        <ele>1022</ele>
        <time>2012-04-17T19:53:09Z</time>
      </trkpt>
      <trkpt lat="45.158" lon="5.53104">
        <ele>1022</ele>
        <time>2012-04-17T19:53:11Z</time>
      </trkpt>
      <trkpt lat="45.15808" lon="5.53117">
        <ele>1022</ele>
        <time>2012-04-17T19:53:14Z</time>
      </trkpt>
      <trkpt lat="45.15817" lon="5.53129">
        <ele>1022</ele>
        <time>2012-04-17T19:53:17Z</time>
      </trkpt>
      <trkpt lat="45.15827" lon="5.53142">
        <ele>1022</ele>
        <time>2012-04-17T19:53:20Z</time>
      </trkpt>
      <trkpt lat="45.1584" lon="5.53155">
        <ele>1020</ele>
        <time>2012-04-17T19:53:24Z</time>
      </trkpt>
      <trkpt lat="45.15849" lon="5.53168">
        <ele>1024</ele>
        <time>2012-04-17T19:53:27Z</time>
      </trkpt>
      <trkpt lat="45.15862" lon="5.53185">
        <ele>1025</ele>
        <time>2012-04-17T19:53:31Z</time>
      </trkpt>
      <trkpt lat="45.15875" lon="5.532">
        <ele>1026</ele>
        <time>2012-04-17T19:53:35Z</time>
      </trkpt>
      <trkpt lat="45.15885" lon="5.53215">
        <ele>1027</ele>
        <time>2012-04-17T19:53:39Z</time>
      </trkpt>
      <trkpt lat="45.15896" lon="5.53228">
        <ele>1028</ele>
        <time>2012-04-17T19:53:42Z</time>
      </trkpt>
      <trkpt lat="45.15907" lon="5.53241">
        <ele>1029</ele>
        <time>2012-04-17T19:53:45Z</time>
      </trkpt>
      <trkpt lat="45.1592" lon="5.53263">
        <ele>1030</ele>
        <time>2012-04-17T19:53:50Z</time>
      </trkpt>
      <trkpt lat="45.15926" lon="5.53273">
        <ele>1031</ele>
        <time>2012-04-17T19:53:52Z</time>
      </trkpt>
      <trkpt lat="45.15935" lon="5.5329">
        <ele>1031</ele>
        <time>2012-04-17T19:53:56Z</time>
      </trkpt>
      <trkpt lat="45.15939" lon="5.53301">
        <ele>1032</ele>
        <time>2012-04-17T19:53:58Z</time>
      </trkpt>
      <trkpt lat="45.15943" lon="5.5331">
        <ele>1032</ele>
        <time>2012-04-17T19:54:00Z</time>
      </trkpt>
      <trkpt lat="45.15945" lon="5.5332">
        <ele>1032</ele>
        <time>2012-04-17T19:54:02Z</time>
      </trkpt>
      <trkpt lat="45.15954" lon="5.53344">
        <ele>1038</ele>
        <time>2012-04-17T19:54:07Z</time>
      </trkpt>
      <trkpt lat="45.15956" lon="5.53355">
        <ele>1039</ele>
        <time>2012-04-17T19:54:09Z</time>
      </trkpt>
      <trkpt lat="45.15963" lon="5.53383">
        <ele>1040</ele>
        <time>2012-04-17T19:54:14Z</time>
      </trkpt>
      <trkpt lat="45.15965" lon="5.53391">
        <ele>1040</ele>
        <time>2012-04-17T19:54:15Z</time>
      </trkpt>
      <trkpt lat="45.15969" lon="5.534">
        <ele>1040</ele>
        <time>2012-04-17T19:54:17Z</time>
      </trkpt>
      <trkpt lat="45.15973" lon="5.53411">
        <ele>1040</ele>
        <time>2012-04-17T19:54:19Z</time>
      </trkpt>
      <trkpt lat="45.15982" lon="5.53428">
        <ele>1045</ele>
        <time>2012-04-17T19:54:23Z</time>
      </trkpt>
      <trkpt lat="45.15986" lon="5.53436">
        <ele>1046</ele>
        <time>2012-04-17T19:54:25Z</time>
      </trkpt>
      <trkpt lat="45.15991" lon="5.53445">
        <ele>1046</ele>
        <time>2012-04-17T19:54:27Z</time>
      </trkpt>
      <trkpt lat="45.15997" lon="5.53453">
        <ele>1047</ele>
        <time>2012-04-17T19:54:29Z</time>
      </trkpt>
      <trkpt lat="45.16001" lon="5.5346">
        <ele>1038</ele>
        <time>2012-04-17T19:54:30Z</time>
      </trkpt>
      <trkpt lat="45.16008" lon="5.53469">
        <ele>1038</ele>
        <time>2012-04-17T19:54:32Z</time>
      </trkpt>
      <trkpt lat="45.16014" lon="5.53477">
        <ele>1039</ele>
        <time>2012-04-17T19:54:34Z</time>
      </trkpt>
      <trkpt lat="45.16021" lon="5.53484">
        <ele>1039</ele>
        <time>2012-04-17T19:54:36Z</time>
      </trkpt>
      <trkpt lat="45.16025" lon="5.5349">
        <ele>1039</ele>
        <time>2012-04-17T19:54:37Z</time>
      </trkpt>
      <trkpt lat="45.16031" lon="5.53496">
        <ele>1038</ele>
        <time>2012-04-17T19:54:39Z</time>
      </trkpt>
      <trkpt lat="45.16038" lon="5.53505">
        <ele>1040</ele>
        <time>2012-04-17T19:54:41Z</time>
      </trkpt>
      <trkpt lat="45.16044" lon="5.53511">
        <ele>1039</ele>
        <time>2012-04-17T19:54:43Z</time>
      </trkpt>
      <trkpt lat="45.16051" lon="5.53518">
        <ele>1039</ele>
        <time>2012-04-17T19:54:45Z</time>
      </trkpt>
      <trkpt lat="45.16057" lon="5.53524">
        <ele>1039</ele>
        <time>2012-04-17T19:54:47Z</time>
      </trkpt>
      <trkpt lat="45.16063" lon="5.53526">
        <ele>1038</ele>
        <time>2012-04-17T19:54:48Z</time>
      </trkpt>
      <trkpt lat="45.16068" lon="5.53531">
        <ele>1038</ele>
        <time>2012-04-17T19:54:49Z</time>
      </trkpt>
      <trkpt lat="45.1607" lon="5.53539">
        <ele>1039</ele>
        <time>2012-04-17T19:54:50Z</time>
      </trkpt>
      <trkpt lat="45.16076" lon="5.5355">
        <ele>1039</ele>
        <time>2012-04-17T19:54:52Z</time>
      </trkpt>
      <trkpt lat="45.16085" lon="5.53563">
        <ele>1036</ele>
        <time>2012-04-17T19:54:55Z</time>
      </trkpt>
      <trkpt lat="45.16089" lon="5.53572">
        <ele>1037</ele>
        <time>2012-04-17T19:54:57Z</time>
      </trkpt>
      <trkpt lat="45.16094" lon="5.53578">
        <ele>1037</ele>
        <time>2012-04-17T19:54:58Z</time>
      </trkpt>
      <trkpt lat="45.161" lon="5.53582">
        <ele>1036</ele>
        <time>2012-04-17T19:54:59Z</time>
      </trkpt>
      <trkpt lat="45.16104" lon="5.53587">
        <ele>1039</ele>
        <time>2012-04-17T19:55:00Z</time>
      </trkpt>
      <trkpt lat="45.16115" lon="5.53597">
        <ele>1040</ele>
        <time>2012-04-17T19:55:03Z</time>
      </trkpt>
      <trkpt lat="45.16121" lon="5.53597">
        <ele>1040</ele>
        <time>2012-04-17T19:55:04Z</time>
      </trkpt>
      <trkpt lat="45.1613" lon="5.53597">
        <ele>1039</ele>
        <time>2012-04-17T19:55:06Z</time>
      </trkpt>
      <trkpt lat="45.16145" lon="5.53595">
        <ele>1039</ele>
        <time>2012-04-17T19:55:10Z</time>
      </trkpt>
      <trkpt lat="45.16162" lon="5.53593">
        <ele>1037</ele>
        <time>2012-04-17T19:55:14Z</time>
      </trkpt>
      <trkpt lat="45.16173" lon="5.53591">
        <ele>1037</ele>
        <time>2012-04-17T19:55:17Z</time>
      </trkpt>
      <trkpt lat="45.16179" lon="5.53593">
        <ele>1038</ele>
        <time>2012-04-17T19:55:18Z</time>
      </trkpt>
      <trkpt lat="45.16201" lon="5.53593">
        <ele>1040</ele>
        <time>2012-04-17T19:55:23Z</time>
      </trkpt>
      <trkpt lat="45.16207" lon="5.53591">
        <ele>1041</ele>
        <time>2012-04-17T19:55:24Z</time>
      </trkpt>
      <trkpt lat="45.16224" lon="5.53591">
        <ele>1041</ele>
        <time>2012-04-17T19:55:28Z</time>
      </trkpt>
      <trkpt lat="45.16233" lon="5.53591">
        <ele>1041</ele>
        <time>2012-04-17T19:55:30Z</time>
      </trkpt>
      <trkpt lat="45.16239" lon="5.53589">
        <ele>1041</ele>
        <time>2012-04-17T19:55:31Z</time>
      </trkpt>
      <trkpt lat="45.16248" lon="5.53589">
        <ele>1041</ele>
        <time>2012-04-17T19:55:33Z</time>
      </trkpt>
      <trkpt lat="45.16257" lon="5.53591">
        <ele>1042</ele>
        <time>2012-04-17T19:55:35Z</time>
      </trkpt>
      <trkpt lat="45.16265" lon="5.53591">
        <ele>1043</ele>
        <time>2012-04-17T19:55:37Z</time>
      </trkpt>
      <trkpt lat="45.16274" lon="5.53593">
        <ele>1044</ele>
        <time>2012-04-17T19:55:39Z</time>
      </trkpt>
      <trkpt lat="45.16289" lon="5.53595">
        <ele>1044</ele>
        <time>2012-04-17T19:55:43Z</time>
      </trkpt>
      <trkpt lat="45.16297" lon="5.53597">
        <ele>1044</ele>
        <time>2012-04-17T19:55:45Z</time>
      </trkpt>
      <trkpt lat="45.16304" lon="5.53599">
        <ele>1044</ele>
        <time>2012-04-17T19:55:46Z</time>
      </trkpt>
      <trkpt lat="45.16307" lon="5.53601">
        <ele>1044</ele>
        <time>2012-04-17T19:55:46Z</time>
      </trkpt>
      <trkpt lat="45.16312" lon="5.53604">
        <ele>1044</ele>
        <time>2012-04-17T19:55:47Z</time>
      </trkpt>
      <trkpt lat="45.16319" lon="5.53608">
        <ele>1044</ele>
        <time>2012-04-17T19:55:48Z</time>
      </trkpt>
      <trkpt lat="45.1633" lon="5.53614">
        <ele>1045</ele>
        <time>2012-04-17T19:55:51Z</time>
      </trkpt>
      <trkpt lat="45.16338" lon="5.53619">
        <ele>1044</ele>
        <time>2012-04-17T19:55:53Z</time>
      </trkpt>
      <trkpt lat="45.16342" lon="5.53625">
        <ele>1044</ele>
        <time>2012-04-17T19:55:54Z</time>
      </trkpt>
      <trkpt lat="45.16347" lon="5.53629">
        <ele>1044</ele>
        <time>2012-04-17T19:55:55Z</time>
      </trkpt>
      <trkpt lat="45.16355" lon="5.53642">
        <ele>1045</ele>
        <time>2012-04-17T19:55:58Z</time>
      </trkpt>
      <trkpt lat="45.16366" lon="5.53655">
        <ele>1045</ele>
        <time>2012-04-17T19:56:01Z</time>
      </trkpt>
      <trkpt lat="45.16375" lon="5.53664">
        <ele>1044</ele>
        <time>2012-04-17T19:56:03Z</time>
      </trkpt>
      <trkpt lat="45.16379" lon="5.53668">
        <ele>1049</ele>
        <time>2012-04-17T19:56:04Z</time>
      </trkpt>
      <trkpt lat="45.16385" lon="5.5367">
        <ele>1048</ele>
        <time>2012-04-17T19:56:05Z</time>
      </trkpt>
      <trkpt lat="45.16394" lon="5.53672">
        <ele>1048</ele>
        <time>2012-04-17T19:56:07Z</time>
      </trkpt>
      <trkpt lat="45.164" lon="5.53672">
        <ele>1047</ele>
        <time>2012-04-17T19:56:08Z</time>
      </trkpt>
      <trkpt lat="45.16413" lon="5.5367">
        <ele>1045</ele>
        <time>2012-04-17T19:56:11Z</time>
      </trkpt>
      <trkpt lat="45.1642" lon="5.5367">
        <ele>1044</ele>
        <time>2012-04-17T19:56:12Z</time>
      </trkpt>
      <trkpt lat="45.16426" lon="5.5367">
        <ele>1044</ele>
        <time>2012-04-17T19:56:13Z</time>
      </trkpt>
      <trkpt lat="45.16433" lon="5.53672">
        <ele>1044</ele>
        <time>2012-04-17T19:56:14Z</time>
      </trkpt>
      <trkpt lat="45.16441" lon="5.53677">
        <ele>1044</ele>
        <time>2012-04-17T19:56:16Z</time>
      </trkpt>
      <trkpt lat="45.16445" lon="5.53679">
        <ele>1044</ele>
        <time>2012-04-17T19:56:17Z</time>
      </trkpt>
      <trkpt lat="45.1645" lon="5.53683">
        <ele>1044</ele>
        <time>2012-04-17T19:56:18Z</time>
      </trkpt>
      <trkpt lat="45.16454" lon="5.53687">
        <ele>1044</ele>
        <time>2012-04-17T19:56:19Z</time>
      </trkpt>
      <trkpt lat="45.16458" lon="5.53692">
        <ele>1044</ele>
        <time>2012-04-17T19:56:20Z</time>
      </trkpt>
      <trkpt lat="45.16463" lon="5.53696">
        <ele>1044</ele>
        <time>2012-04-17T19:56:21Z</time>
      </trkpt>
      <trkpt lat="45.16473" lon="5.53709">
        <ele>1044</ele>
        <time>2012-04-17T19:56:24Z</time>
      </trkpt>
      <trkpt lat="45.1648" lon="5.53715">
        <ele>1044</ele>
        <time>2012-04-17T19:56:26Z</time>
      </trkpt>
      <trkpt lat="45.16484" lon="5.5372">
        <ele>1044</ele>
        <time>2012-04-17T19:56:27Z</time>
      </trkpt>
      <trkpt lat="45.16495" lon="5.53732">
        <ele>1044</ele>
        <time>2012-04-17T19:56:30Z</time>
      </trkpt>
      <trkpt lat="45.16499" lon="5.53737">
        <ele>1044</ele>
        <time>2012-04-17T19:56:31Z</time>
      </trkpt>
      <trkpt lat="45.16506" lon="5.53743">
        <ele>1044</ele>
        <time>2012-04-17T19:56:33Z</time>
      </trkpt>
      <trkpt lat="45.1651" lon="5.5375">
        <ele>1044</ele>
        <time>2012-04-17T19:56:34Z</time>
      </trkpt>
      <trkpt lat="45.16516" lon="5.53754">
        <ele>1046</ele>
        <time>2012-04-17T19:56:35Z</time>
      </trkpt>
      <trkpt lat="45.16521" lon="5.53758">
        <ele>1047</ele>
        <time>2012-04-17T19:56:36Z</time>
      </trkpt>
      <trkpt lat="45.16533" lon="5.53765">
        <ele>1048</ele>
        <time>2012-04-17T19:56:39Z</time>
      </trkpt>
      <trkpt lat="45.16561" lon="5.5378">
        <ele>1049</ele>
        <time>2012-04-17T19:56:47Z</time>
      </trkpt>
      <trkpt lat="45.1657" lon="5.5378">
        <ele>1049</ele>
        <time>2012-04-17T19:56:49Z</time>
      </trkpt>
      <trkpt lat="45.16581" lon="5.53786">
        <ele>1050</ele>
        <time>2012-04-17T19:56:52Z</time>
      </trkpt>
      <trkpt lat="45.16598" lon="5.5379">
        <ele>1050</ele>
        <time>2012-04-17T19:56:56Z</time>
      </trkpt>
      <trkpt lat="45.16613" lon="5.53795">
        <ele>1050</ele>
        <time>2012-04-17T19:57:00Z</time>
      </trkpt>
      <trkpt lat="45.16624" lon="5.53799">
        <ele>1050</ele>
        <time>2012-04-17T19:57:03Z</time>
      </trkpt>
      <trkpt lat="45.16632" lon="5.53803">
        <ele>1050</ele>
        <time>2012-04-17T19:57:05Z</time>
      </trkpt>
      <trkpt lat="45.16641" lon="5.53808">
        <ele>1050</ele>
        <time>2012-04-17T19:57:07Z</time>
      </trkpt>
      <trkpt lat="45.16647" lon="5.5381">
        <ele>1049</ele>
        <time>2012-04-17T19:57:08Z</time>
      </trkpt>
      <trkpt lat="45.16656" lon="5.53816">
        <ele>1050</ele>
        <time>2012-04-17T19:57:10Z</time>
      </trkpt>
      <trkpt lat="45.16662" lon="5.5382">
        <ele>1050</ele>
        <time>2012-04-17T19:57:11Z</time>
      </trkpt>
      <trkpt lat="45.16673" lon="5.53831">
        <ele>1048</ele>
        <time>2012-04-17T19:57:14Z</time>
      </trkpt>
      <trkpt lat="45.16679" lon="5.5384">
        <ele>1049</ele>
        <time>2012-04-17T19:57:16Z</time>
      </trkpt>
      <trkpt lat="45.16688" lon="5.53848">
        <ele>1049</ele>
        <time>2012-04-17T19:57:18Z</time>
      </trkpt>
      <trkpt lat="45.16694" lon="5.53855">
        <ele>1049</ele>
        <time>2012-04-17T19:57:20Z</time>
      </trkpt>
      <trkpt lat="45.16699" lon="5.53861">
        <ele>1049</ele>
        <time>2012-04-17T19:57:21Z</time>
      </trkpt>
      <trkpt lat="45.16705" lon="5.53868">
        <ele>1049</ele>
        <time>2012-04-17T19:57:23Z</time>
      </trkpt>
      <trkpt lat="45.16727" lon="5.53887">
        <ele>1048</ele>
        <time>2012-04-17T19:57:30Z</time>
      </trkpt>
      <trkpt lat="45.16735" lon="5.53893">
        <ele>1047</ele>
        <time>2012-04-17T19:57:32Z</time>
      </trkpt>
      <trkpt lat="45.16744" lon="5.539">
        <ele>1047</ele>
        <time>2012-04-17T19:57:34Z</time>
      </trkpt>
      <trkpt lat="45.1675" lon="5.53902">
        <ele>1043</ele>
        <time>2012-04-17T19:57:35Z</time>
      </trkpt>
      <trkpt lat="45.16754" lon="5.53904">
        <ele>1043</ele>
        <time>2012-04-17T19:57:36Z</time>
      </trkpt>
      <trkpt lat="45.16759" lon="5.53904">
        <ele>1043</ele>
        <time>2012-04-17T19:57:37Z</time>
      </trkpt>
      <trkpt lat="45.16765" lon="5.53906">
        <ele>1042</ele>
        <time>2012-04-17T19:57:38Z</time>
      </trkpt>
      <trkpt lat="45.16774" lon="5.53906">
        <ele>1042</ele>
        <time>2012-04-17T19:57:40Z</time>
      </trkpt>
      <trkpt lat="45.16791" lon="5.53902">
        <ele>1041</ele>
        <time>2012-04-17T19:57:44Z</time>
      </trkpt>
      <trkpt lat="45.16802" lon="5.539">
        <ele>1040</ele>
        <time>2012-04-17T19:57:47Z</time>
      </trkpt>
      <trkpt lat="45.16823" lon="5.53893">
        <ele>1040</ele>
        <time>2012-04-17T19:57:53Z</time>
      </trkpt>
      <trkpt lat="45.16832" lon="5.53891">
        <ele>1039</ele>
        <time>2012-04-17T19:57:55Z</time>
      </trkpt>
      <trkpt lat="45.16847" lon="5.53891">
        <ele>1038</ele>
        <time>2012-04-17T19:57:59Z</time>
      </trkpt>
      <trkpt lat="45.16853" lon="5.53891">
        <ele>1038</ele>
        <time>2012-04-17T19:58:00Z</time>
      </trkpt>
      <trkpt lat="45.16862" lon="5.53891">
        <ele>1038</ele>
        <time>2012-04-17T19:58:02Z</time>
      </trkpt>
      <trkpt lat="45.16868" lon="5.53891">
        <ele>1038</ele>
        <time>2012-04-17T19:58:03Z</time>
      </trkpt>
      <trkpt lat="45.16875" lon="5.53893">
        <ele>1038</ele>
        <time>2012-04-17T19:58:04Z</time>
      </trkpt>
      <trkpt lat="45.16881" lon="5.53896">
        <ele>1038</ele>
        <time>2012-04-17T19:58:05Z</time>
      </trkpt>
      <trkpt lat="45.1689" lon="5.539">
        <ele>1039</ele>
        <time>2012-04-17T19:58:07Z</time>
      </trkpt>
      <trkpt lat="45.169" lon="5.53902">
        <ele>1040</ele>
        <time>2012-04-17T19:58:10Z</time>
      </trkpt>
      <trkpt lat="45.16907" lon="5.53906">
        <ele>1041</ele>
        <time>2012-04-17T19:58:11Z</time>
      </trkpt>
      <trkpt lat="45.16915" lon="5.53911">
        <ele>1042</ele>
        <time>2012-04-17T19:58:13Z</time>
      </trkpt>
      <trkpt lat="45.16941" lon="5.53928">
        <ele>1045</ele>
        <time>2012-04-17T19:58:20Z</time>
      </trkpt>
      <trkpt lat="45.1695" lon="5.53934">
        <ele>1045</ele>
        <time>2012-04-17T19:58:22Z</time>
      </trkpt>
      <trkpt lat="45.16958" lon="5.53936">
        <ele>1045</ele>
        <time>2012-04-17T19:58:24Z</time>
      </trkpt>
      <trkpt lat="45.16967" lon="5.53938">
        <ele>1044</ele>
        <time>2012-04-17T19:58:26Z</time>
      </trkpt>
      <trkpt lat="45.16988" lon="5.53943">
        <ele>1043</ele>
        <time>2012-04-17T19:58:32Z</time>
      </trkpt>
      <trkpt lat="45.16999" lon="5.53947">
        <ele>1043</ele>
        <time>2012-04-17T19:58:35Z</time>
      </trkpt>
      <trkpt lat="45.17005" lon="5.53947">
        <ele>1038</ele>
        <time>2012-04-17T19:58:36Z</time>
      </trkpt>
      <trkpt lat="45.17012" lon="5.53951">
        <ele>1039</ele>
        <time>2012-04-17T19:58:37Z</time>
      </trkpt>
      <trkpt lat="45.17018" lon="5.53956">
        <ele>1039</ele>
        <time>2012-04-17T19:58:38Z</time>
      </trkpt>
      <trkpt lat="45.17023" lon="5.53958">
        <ele>1039</ele>
        <time>2012-04-17T19:58:39Z</time>
      </trkpt>
      <trkpt lat="45.17031" lon="5.53966">
        <ele>1039</ele>
        <time>2012-04-17T19:58:41Z</time>
      </trkpt>
      <trkpt lat="45.17038" lon="5.53973">
        <ele>1038</ele>
        <time>2012-04-17T19:58:43Z</time>
      </trkpt>
      <trkpt lat="45.17046" lon="5.53986">
        <ele>1038</ele>
        <time>2012-04-17T19:58:46Z</time>
      </trkpt>
      <trkpt lat="45.17063" lon="5.54011">
        <ele>1040</ele>
        <time>2012-04-17T19:58:52Z</time>
      </trkpt>
      <trkpt lat="45.1707" lon="5.5402">
        <ele>1040</ele>
        <time>2012-04-17T19:58:54Z</time>
      </trkpt>
      <trkpt lat="45.17081" lon="5.54031">
        <ele>1041</ele>
        <time>2012-04-17T19:58:57Z</time>
      </trkpt>
      <trkpt lat="45.17089" lon="5.54039">
        <ele>1039</ele>
        <time>2012-04-17T19:58:59Z</time>
      </trkpt>
      <trkpt lat="45.17093" lon="5.54044">
        <ele>1039</ele>
        <time>2012-04-17T19:59:00Z</time>
      </trkpt>
      <trkpt lat="45.17134" lon="5.54082">
        <ele>1040</ele>
        <time>2012-04-17T19:59:13Z</time>
      </trkpt>
      <trkpt lat="45.17164" lon="5.54112">
        <ele>1046</ele>
        <time>2012-04-17T19:59:23Z</time>
      </trkpt>
      <trkpt lat="45.17196" lon="5.5414">
        <ele>1043</ele>
        <time>2012-04-17T19:59:33Z</time>
      </trkpt>
      <trkpt lat="45.17235" lon="5.54172">
        <ele>1042</ele>
        <time>2012-04-17T19:59:45Z</time>
      </trkpt>
      <trkpt lat="45.1725" lon="5.54183">
        <ele>1039</ele>
        <time>2012-04-17T19:59:49Z</time>
      </trkpt>
      <trkpt lat="45.17272" lon="5.54196">
        <ele>1039</ele>
        <time>2012-04-17T19:59:55Z</time>
      </trkpt>
      <trkpt lat="45.1728" lon="5.542">
        <ele>1039</ele>
        <time>2012-04-17T19:59:57Z</time>
      </trkpt>
      <trkpt lat="45.17293" lon="5.54207">
        <ele>1039</ele>
        <time>2012-04-17T20:00:00Z</time>
      </trkpt>
      <trkpt lat="45.17302" lon="5.54209">
        <ele>1039</ele>
        <time>2012-04-17T20:00:02Z</time>
      </trkpt>
      <trkpt lat="45.17334" lon="5.54209">
        <ele>1039</ele>
        <time>2012-04-17T20:00:10Z</time>
      </trkpt>
      <trkpt lat="45.17349" lon="5.54209">
        <ele>1039</ele>
        <time>2012-04-17T20:00:14Z</time>
      </trkpt>
      <trkpt lat="45.17353" lon="5.54209">
        <ele>1039</ele>
        <time>2012-04-17T20:00:15Z</time>
      </trkpt>
      <trkpt lat="45.17364" lon="5.54211">
        <ele>1039</ele>
        <time>2012-04-17T20:00:18Z</time>
      </trkpt>
      <trkpt lat="45.17387" lon="5.54213">
        <ele>1040</ele>
        <time>2012-04-17T20:00:24Z</time>
      </trkpt>
      <trkpt lat="45.17396" lon="5.54213">
        <ele>1040</ele>
        <time>2012-04-17T20:00:26Z</time>
      </trkpt>
      <trkpt lat="45.17405" lon="5.54213">
        <ele>1040</ele>
        <time>2012-04-17T20:00:28Z</time>
      </trkpt>
      <trkpt lat="45.1742" lon="5.54211">
        <ele>1043</ele>
        <time>2012-04-17T20:00:32Z</time>
      </trkpt>
      <trkpt lat="45.1743" lon="5.54211">
        <ele>1043</ele>
        <time>2012-04-17T20:00:34Z</time>
      </trkpt>
      <trkpt lat="45.17435" lon="5.54207">
        <ele>1043</ele>
        <time>2012-04-17T20:00:35Z</time>
      </trkpt>
      <trkpt lat="45.17439" lon="5.54202">
        <ele>1043</ele>
        <time>2012-04-17T20:00:36Z</time>
      </trkpt>
      <trkpt lat="45.1745" lon="5.54202">
        <ele>1043</ele>
        <time>2012-04-17T20:00:38Z</time>
      </trkpt>
      <trkpt lat="45.17456" lon="5.54177">
        <ele>1043</ele>
        <time>2012-04-17T20:00:43Z</time>
      </trkpt>
      <trkpt lat="45.1746" lon="5.54177">
        <ele>1043</ele>
        <time>2012-04-17T20:00:44Z</time>
      </trkpt>
      <trkpt lat="45.17469" lon="5.54177">
        <ele>1044</ele>
        <time>2012-04-17T20:00:46Z</time>
      </trkpt>
      <trkpt lat="45.17473" lon="5.54177">
        <ele>1044</ele>
        <time>2012-04-17T20:00:47Z</time>
      </trkpt>
      <trkpt lat="45.17478" lon="5.54177">
        <ele>1044</ele>
        <time>2012-04-17T20:00:48Z</time>
      </trkpt>
      <trkpt lat="45.17486" lon="5.54174">
        <ele>1044</ele>
        <time>2012-04-17T20:00:50Z</time>
      </trkpt>
      <trkpt lat="45.17488" lon="5.54181">
        <ele>1044</ele>
        <time>2012-04-17T20:00:51Z</time>
      </trkpt>
      <trkpt lat="45.17493" lon="5.54185">
        <ele>1044</ele>
        <time>2012-04-17T20:00:52Z</time>
      </trkpt>
      <trkpt lat="45.17499" lon="5.54189">
        <ele>1044</ele>
        <time>2012-04-17T20:00:53Z</time>
      </trkpt>
      <trkpt lat="45.17503" lon="5.54192">
        <ele>1045</ele>
        <time>2012-04-17T20:00:54Z</time>
      </trkpt>
      <trkpt lat="45.17508" lon="5.54196">
        <ele>1045</ele>
        <time>2012-04-17T20:00:55Z</time>
      </trkpt>
      <trkpt lat="45.17518" lon="5.54198">
        <ele>1045</ele>
        <time>2012-04-17T20:00:58Z</time>
      </trkpt>
      <trkpt lat="45.17523" lon="5.54198">
        <ele>1045</ele>
        <time>2012-04-17T20:00:59Z</time>
      </trkpt>
      <trkpt lat="45.17529" lon="5.54198">
        <ele>1044</ele>
        <time>2012-04-17T20:01:00Z</time>
      </trkpt>
      <trkpt lat="45.17548" lon="5.54207">
        <ele>1044</ele>
        <time>2012-04-17T20:01:05Z</time>
      </trkpt>
      <trkpt lat="45.17557" lon="5.54211">
        <ele>1045</ele>
        <time>2012-04-17T20:01:07Z</time>
      </trkpt>
      <trkpt lat="45.17566" lon="5.54211">
        <ele>1045</ele>
        <time>2012-04-17T20:01:09Z</time>
      </trkpt>
      <trkpt lat="45.17572" lon="5.54211">
        <ele>1045</ele>
        <time>2012-04-17T20:01:10Z</time>
      </trkpt>
      <trkpt lat="45.17578" lon="5.54213">
        <ele>1045</ele>
        <time>2012-04-17T20:01:11Z</time>
      </trkpt>
      <trkpt lat="45.17585" lon="5.54213">
        <ele>1045</ele>
        <time>2012-04-17T20:01:12Z</time>
      </trkpt>
      <trkpt lat="45.17593" lon="5.54213">
        <ele>1045</ele>
        <time>2012-04-17T20:01:14Z</time>
      </trkpt>
      <trkpt lat="45.17606" lon="5.54213">
        <ele>1045</ele>
        <time>2012-04-17T20:01:17Z</time>
      </trkpt>
      <trkpt lat="45.17619" lon="5.54215">
        <ele>1045</ele>
        <time>2012-04-17T20:01:20Z</time>
      </trkpt>
      <trkpt lat="45.17628" lon="5.54217">
        <ele>1045</ele>
        <time>2012-04-17T20:01:22Z</time>
      </trkpt>
      <trkpt lat="45.17636" lon="5.5422">
        <ele>1045</ele>
        <time>2012-04-17T20:01:24Z</time>
      </trkpt>
      <trkpt lat="45.17651" lon="5.54224">
        <ele>1046</ele>
        <time>2012-04-17T20:01:28Z</time>
      </trkpt>
      <trkpt lat="45.17671" lon="5.54228">
        <ele>1046</ele>
        <time>2012-04-17T20:01:33Z</time>
      </trkpt>
      <trkpt lat="45.17701" lon="5.54241">
        <ele>1046</ele>
        <time>2012-04-17T20:01:41Z</time>
      </trkpt>
      <trkpt lat="45.17726" lon="5.5425">
        <ele>1047</ele>
        <time>2012-04-17T20:01:48Z</time>
      </trkpt>
      <trkpt lat="45.17744" lon="5.54258">
        <ele>1047</ele>
        <time>2012-04-17T20:01:53Z</time>
      </trkpt>
      <trkpt lat="45.17769" lon="5.54275">
        <ele>1047</ele>
        <time>2012-04-17T20:02:00Z</time>
      </trkpt>
      <trkpt lat="45.17806" lon="5.54299">
        <ele>1047</ele>
        <time>2012-04-17T20:02:11Z</time>
      </trkpt>
      <trkpt lat="45.17812" lon="5.54301">
        <ele>1047</ele>
        <time>2012-04-17T20:02:12Z</time>
      </trkpt>
      <trkpt lat="45.17832" lon="5.54312">
        <ele>1047</ele>
        <time>2012-04-17T20:02:17Z</time>
      </trkpt>
      <trkpt lat="45.17872" lon="5.54333">
        <ele>1048</ele>
        <time>2012-04-17T20:02:29Z</time>
      </trkpt>
      <trkpt lat="45.17907" lon="5.54353">
        <ele>1050</ele>
        <time>2012-04-17T20:02:39Z</time>
      </trkpt>
      <trkpt lat="45.17926" lon="5.54361">
        <ele>1052</ele>
        <time>2012-04-17T20:02:44Z</time>
      </trkpt>
      <trkpt lat="45.17935" lon="5.54365">
        <ele>1052</ele>
        <time>2012-04-17T20:02:46Z</time>
      </trkpt>
      <trkpt lat="45.17941" lon="5.5437">
        <ele>1052</ele>
        <time>2012-04-17T20:02:47Z</time>
      </trkpt>
      <trkpt lat="45.17956" lon="5.54374">
        <ele>1053</ele>
        <time>2012-04-17T20:02:51Z</time>
      </trkpt>
      <trkpt lat="45.17973" lon="5.5438">
        <ele>1053</ele>
        <time>2012-04-17T20:02:55Z</time>
      </trkpt>
      <trkpt lat="45.17988" lon="5.54387">
        <ele>1054</ele>
        <time>2012-04-17T20:02:59Z</time>
      </trkpt>
      <trkpt lat="45.17995" lon="5.54389">
        <ele>1054</ele>
        <time>2012-04-17T20:03:00Z</time>
      </trkpt>
      <trkpt lat="45.18018" lon="5.54395">
        <ele>1055</ele>
        <time>2012-04-17T20:03:06Z</time>
      </trkpt>
      <trkpt lat="45.18044" lon="5.54402">
        <ele>1055</ele>
        <time>2012-04-17T20:03:13Z</time>
      </trkpt>
      <trkpt lat="45.18063" lon="5.54408">
        <ele>1056</ele>
        <time>2012-04-17T20:03:18Z</time>
      </trkpt>
      <trkpt lat="45.18096" lon="5.54426">
        <ele>1058</ele>
        <time>2012-04-17T20:03:27Z</time>
      </trkpt>
      <trkpt lat="45.18119" lon="5.54438">
        <ele>1060</ele>
        <time>2012-04-17T20:03:34Z</time>
      </trkpt>
      <trkpt lat="45.18143" lon="5.54449">
        <ele>1061</ele>
        <time>2012-04-17T20:03:40Z</time>
      </trkpt>
      <trkpt lat="45.1816" lon="5.54453">
        <ele>1061</ele>
        <time>2012-04-17T20:03:44Z</time>
      </trkpt>
      <trkpt lat="45.18188" lon="5.54453">
        <ele>1065</ele>
        <time>2012-04-17T20:03:51Z</time>
      </trkpt>
      <trkpt lat="45.18218" lon="5.54451">
        <ele>1066</ele>
        <time>2012-04-17T20:03:59Z</time>
      </trkpt>
      <trkpt lat="45.18229" lon="5.54449">
        <ele>1066</ele>
        <time>2012-04-17T20:04:02Z</time>
      </trkpt>
      <trkpt lat="45.18246" lon="5.54447">
        <ele>1067</ele>
        <time>2012-04-17T20:04:06Z</time>
      </trkpt>
      <trkpt lat="45.18274" lon="5.54447">
        <ele>1071</ele>
        <time>2012-04-17T20:04:13Z</time>
      </trkpt>
      <trkpt lat="45.18278" lon="5.54456">
        <ele>1071</ele>
        <time>2012-04-17T20:04:15Z</time>
      </trkpt>
      <trkpt lat="45.18284" lon="5.54481">
        <ele>1072</ele>
        <time>2012-04-17T20:04:20Z</time>
      </trkpt>
      <trkpt lat="45.18295" lon="5.54507">
        <ele>1073</ele>
        <time>2012-04-17T20:04:25Z</time>
      </trkpt>
      <trkpt lat="45.18299" lon="5.54522">
        <ele>1073</ele>
        <time>2012-04-17T20:04:28Z</time>
      </trkpt>
      <trkpt lat="45.18299" lon="5.54535">
        <ele>1073</ele>
        <time>2012-04-17T20:04:30Z</time>
      </trkpt>
      <trkpt lat="45.18299" lon="5.54552">
        <ele>1073</ele>
        <time>2012-04-17T20:04:33Z</time>
      </trkpt>
      <trkpt lat="45.18299" lon="5.54561">
        <ele>1073</ele>
        <time>2012-04-17T20:04:34Z</time>
      </trkpt>
      <trkpt lat="45.18304" lon="5.54582">
        <ele>1074</ele>
        <time>2012-04-17T20:04:38Z</time>
      </trkpt>
      <trkpt lat="45.18308" lon="5.54604">
        <ele>1074</ele>
        <time>2012-04-17T20:04:42Z</time>
      </trkpt>
      <trkpt lat="45.1831" lon="5.54612">
        <ele>1074</ele>
        <time>2012-04-17T20:04:43Z</time>
      </trkpt>
      <trkpt lat="45.1831" lon="5.54619">
        <ele>1074</ele>
        <time>2012-04-17T20:04:44Z</time>
      </trkpt>
      <trkpt lat="45.18291" lon="5.54664">
        <ele>1074</ele>
        <time>2012-04-17T20:04:54Z</time>
      </trkpt>
      <trkpt lat="45.18276" lon="5.5469">
        <ele>1074</ele>
        <time>2012-04-17T20:05:00Z</time>
      </trkpt>
      <trkpt lat="45.18233" lon="5.54769">
        <ele>1069</ele>
        <time>2012-04-17T20:05:19Z</time>
      </trkpt>
      <trkpt lat="45.18235" lon="5.54775">
        <ele>1069</ele>
        <time>2012-04-17T20:05:20Z</time>
      </trkpt>
      <trkpt lat="45.18254" lon="5.54797">
        <ele>1072</ele>
        <time>2012-04-17T20:05:26Z</time>
      </trkpt>
      <trkpt lat="45.18263" lon="5.54801">
        <ele>1072</ele>
        <time>2012-04-17T20:05:28Z</time>
      </trkpt>
      <trkpt lat="45.18267" lon="5.54805">
        <ele>1072</ele>
        <time>2012-04-17T20:05:29Z</time>
      </trkpt>
      <trkpt lat="45.18267" lon="5.5481">
        <ele>1072</ele>
        <time>2012-04-17T20:05:29Z</time>
      </trkpt>
      <trkpt lat="45.18267" lon="5.54816">
        <ele>1072</ele>
        <time>2012-04-17T20:05:30Z</time>
      </trkpt>
      <trkpt lat="45.18267" lon="5.5482">
        <ele>1072</ele>
        <time>2012-04-17T20:05:30Z</time>
      </trkpt>
      <trkpt lat="45.18267" lon="5.54827">
        <ele>1071</ele>
        <time>2012-04-17T20:05:31Z</time>
      </trkpt>
      <trkpt lat="45.18267" lon="5.54833">
        <ele>1071</ele>
        <time>2012-04-17T20:05:32Z</time>
      </trkpt>
      <trkpt lat="45.18271" lon="5.54835">
        <ele>1072</ele>
        <time>2012-04-17T20:05:33Z</time>
      </trkpt>
      <trkpt lat="45.18276" lon="5.54835">
        <ele>1072</ele>
        <time>2012-04-17T20:05:34Z</time>
      </trkpt>
      <trkpt lat="45.18293" lon="5.54835">
        <ele>1073</ele>
        <time>2012-04-17T20:05:38Z</time>
      </trkpt>
      <trkpt lat="45.18302" lon="5.54838">
        <ele>1074</ele>
        <time>2012-04-17T20:05:40Z</time>
      </trkpt>
      <trkpt lat="45.18314" lon="5.54842">
        <ele>1075</ele>
        <time>2012-04-17T20:05:43Z</time>
      </trkpt>
      <trkpt lat="45.18323" lon="5.54848">
        <ele>1075</ele>
        <time>2012-04-17T20:05:45Z</time>
      </trkpt>
      <trkpt lat="45.18325" lon="5.54855">
        <ele>1075</ele>
        <time>2012-04-17T20:05:46Z</time>
      </trkpt>
      <trkpt lat="45.18325" lon="5.54861">
        <ele>1075</ele>
        <time>2012-04-17T20:05:47Z</time>
      </trkpt>
      <trkpt lat="45.18329" lon="5.54868">
        <ele>1075</ele>
        <time>2012-04-17T20:05:48Z</time>
      </trkpt>
      <trkpt lat="45.18338" lon="5.54874">
        <ele>1081</ele>
        <time>2012-04-17T20:05:50Z</time>
      </trkpt>
      <trkpt lat="45.18366" lon="5.54885">
        <ele>1082</ele>
        <time>2012-04-17T20:05:58Z</time>
      </trkpt>
      <trkpt lat="45.18385" lon="5.54889">
        <ele>1084</ele>
        <time>2012-04-17T20:06:03Z</time>
      </trkpt>
      <trkpt lat="45.1842" lon="5.54904">
        <ele>1092</ele>
        <time>2012-04-17T20:06:12Z</time>
      </trkpt>
      <trkpt lat="45.1843" lon="5.54917">
        <ele>1097</ele>
        <time>2012-04-17T20:06:15Z</time>
      </trkpt>
      <trkpt lat="45.18445" lon="5.54928">
        <ele>1099</ele>
        <time>2012-04-17T20:06:19Z</time>
      </trkpt>
      <trkpt lat="45.18456" lon="5.54941">
        <ele>1100</ele>
        <time>2012-04-17T20:06:22Z</time>
      </trkpt>
      <trkpt lat="45.1846" lon="5.54951">
        <ele>1101</ele>
        <time>2012-04-17T20:06:24Z</time>
      </trkpt>
      <trkpt lat="45.18465" lon="5.54966">
        <ele>1102</ele>
        <time>2012-04-17T20:06:27Z</time>
      </trkpt>
      <trkpt lat="45.18469" lon="5.54983">
        <ele>1104</ele>
        <time>2012-04-17T20:06:30Z</time>
      </trkpt>
      <trkpt lat="45.18471" lon="5.55041">
        <ele>1112</ele>
        <time>2012-04-17T20:06:41Z</time>
      </trkpt>
      <trkpt lat="45.18475" lon="5.55054">
        <ele>1113</ele>
        <time>2012-04-17T20:06:43Z</time>
      </trkpt>
      <trkpt lat="45.18482" lon="5.55065">
        <ele>1115</ele>
        <time>2012-04-17T20:06:45Z</time>
      </trkpt>
      <trkpt lat="45.18497" lon="5.55082">
        <ele>1120</ele>
        <time>2012-04-17T20:06:50Z</time>
      </trkpt>
      <trkpt lat="45.1851" lon="5.55093">
        <ele>1122</ele>
        <time>2012-04-17T20:06:54Z</time>
      </trkpt>
      <trkpt lat="45.18523" lon="5.55104">
        <ele>1123</ele>
        <time>2012-04-17T20:06:58Z</time>
      </trkpt>
      <trkpt lat="45.18531" lon="5.55119">
        <ele>1124</ele>
        <time>2012-04-17T20:07:01Z</time>
      </trkpt>
      <trkpt lat="45.18531" lon="5.55123">
        <ele>1124</ele>
        <time>2012-04-17T20:07:01Z</time>
      </trkpt>
      <trkpt lat="45.1854" lon="5.55157">
        <ele>1127</ele>
        <time>2012-04-17T20:07:08Z</time>
      </trkpt>
      <trkpt lat="45.18542" lon="5.55166">
        <ele>1127</ele>
        <time>2012-04-17T20:07:09Z</time>
      </trkpt>
      <trkpt lat="45.18548" lon="5.55211">
        <ele>1134</ele>
        <time>2012-04-17T20:07:17Z</time>
      </trkpt>
      <trkpt lat="45.18603" lon="5.55486">
        <ele>1125.4531</ele>
        <time>2012-04-17T20:08:13Z</time>
      </trkpt>
      <trkpt lat="45.18611" lon="5.55486">
        <ele>1141</ele>
        <time>2012-04-17T20:08:15Z</time>
      </trkpt>
      <trkpt lat="45.18626" lon="5.55492">
        <ele>1142</ele>
        <time>2012-04-17T20:08:19Z</time>
      </trkpt>
      <trkpt lat="45.18636" lon="5.55498">
        <ele>1143</ele>
        <time>2012-04-17T20:08:22Z</time>
      </trkpt>
      <trkpt lat="45.18666" lon="5.55531">
        <ele>1145</ele>
        <time>2012-04-17T20:08:32Z</time>
      </trkpt>
      <trkpt lat="45.18686" lon="5.55546">
        <ele>1153</ele>
        <time>2012-04-17T20:08:38Z</time>
      </trkpt>
      <trkpt lat="45.1869" lon="5.55552">
        <ele>1153</ele>
        <time>2012-04-17T20:08:39Z</time>
      </trkpt>
      <trkpt lat="45.18735" lon="5.55582">
        <ele>1158</ele>
        <time>2012-04-17T20:08:52Z</time>
      </trkpt>
      <trkpt lat="45.18754" lon="5.55604">
        <ele>1164</ele>
        <time>2012-04-17T20:08:58Z</time>
      </trkpt>
      <trkpt lat="45.18769" lon="5.55621">
        <ele>1165</ele>
        <time>2012-04-17T20:09:03Z</time>
      </trkpt>
      <trkpt lat="45.18791" lon="5.55646">
        <ele>1166</ele>
        <time>2012-04-17T20:09:10Z</time>
      </trkpt>
      <trkpt lat="45.18812" lon="5.55672">
        <ele>1165</ele>
        <time>2012-04-17T20:09:17Z</time>
      </trkpt>
      <trkpt lat="45.18834" lon="5.55702">
        <ele>1167</ele>
        <time>2012-04-17T20:09:25Z</time>
      </trkpt>
      <trkpt lat="45.18868" lon="5.55764">
        <ele>1164</ele>
        <time>2012-04-17T20:09:40Z</time>
      </trkpt>
      <trkpt lat="45.18894" lon="5.55803">
        <ele>1165</ele>
        <time>2012-04-17T20:09:50Z</time>
      </trkpt>
      <trkpt lat="45.18913" lon="5.55825">
        <ele>1168</ele>
        <time>2012-04-17T20:09:56Z</time>
      </trkpt>
      <trkpt lat="45.18928" lon="5.55855">
        <ele>1174</ele>
        <time>2012-04-17T20:10:03Z</time>
      </trkpt>
      <trkpt lat="45.18943" lon="5.5588">
        <ele>1176</ele>
        <time>2012-04-17T20:10:09Z</time>
      </trkpt>
      <trkpt lat="45.18969" lon="5.55915">
        <ele>1180</ele>
        <time>2012-04-17T20:10:18Z</time>
      </trkpt>
      <trkpt lat="45.18992" lon="5.55934">
        <ele>1181</ele>
        <time>2012-04-17T20:10:25Z</time>
      </trkpt>
      <trkpt lat="45.19018" lon="5.55951">
        <ele>1189</ele>
        <time>2012-04-17T20:10:32Z</time>
      </trkpt>
      <trkpt lat="45.19044" lon="5.55966">
        <ele>1191</ele>
        <time>2012-04-17T20:10:39Z</time>
      </trkpt>
      <trkpt lat="45.1907" lon="5.55985">
        <ele>1195</ele>
        <time>2012-04-17T20:10:47Z</time>
      </trkpt>
      <trkpt lat="45.19095" lon="5.56007">
        <ele>1200</ele>
        <time>2012-04-17T20:10:55Z</time>
      </trkpt>
      <trkpt lat="45.19117" lon="5.5602">
        <ele>1200</ele>
        <time>2012-04-17T20:11:01Z</time>
      </trkpt>
      <trkpt lat="45.19143" lon="5.56033">
        <ele>1202</ele>
        <time>2012-04-17T20:11:08Z</time>
      </trkpt>
      <trkpt lat="45.19168" lon="5.56048">
        <ele>1209</ele>
        <time>2012-04-17T20:11:15Z</time>
      </trkpt>
      <trkpt lat="45.1919" lon="5.56063">
        <ele>1209</ele>
        <time>2012-04-17T20:11:21Z</time>
      </trkpt>
      <trkpt lat="45.19213" lon="5.56078">
        <ele>1211</ele>
        <time>2012-04-17T20:11:28Z</time>
      </trkpt>
      <trkpt lat="45.19231" lon="5.56088">
        <ele>1212</ele>
        <time>2012-04-17T20:11:33Z</time>
      </trkpt>
      <trkpt lat="45.1925" lon="5.56104">
        <ele>1212</ele>
        <time>2012-04-17T20:11:39Z</time>
      </trkpt>
      <trkpt lat="45.19274" lon="5.56125">
        <ele>1217</ele>
        <time>2012-04-17T20:11:46Z</time>
      </trkpt>
      <trkpt lat="45.19301" lon="5.56153">
        <ele>1218</ele>
        <time>2012-04-17T20:11:55Z</time>
      </trkpt>
      <trkpt lat="45.19331" lon="5.56187">
        <ele>1214</ele>
        <time>2012-04-17T20:12:05Z</time>
      </trkpt>
      <trkpt lat="45.19344" lon="5.562">
        <ele>1221</ele>
        <time>2012-04-17T20:12:09Z</time>
      </trkpt>
      <trkpt lat="45.19366" lon="5.56217">
        <ele>1220</ele>
        <time>2012-04-17T20:12:15Z</time>
      </trkpt>
      <trkpt lat="45.19374" lon="5.56222">
        <ele>1221</ele>
        <time>2012-04-17T20:12:17Z</time>
      </trkpt>
      <trkpt lat="45.19383" lon="5.56224">
        <ele>1221</ele>
        <time>2012-04-17T20:12:19Z</time>
      </trkpt>
      <trkpt lat="45.19389" lon="5.56226">
        <ele>1222</ele>
        <time>2012-04-17T20:12:20Z</time>
      </trkpt>
      <trkpt lat="45.19396" lon="5.56225">
        <ele>1222</ele>
        <time>2012-04-17T20:12:21Z</time>
      </trkpt>
      <trkpt lat="45.194" lon="5.56224">
        <ele>1223</ele>
        <time>2012-04-17T20:12:22Z</time>
      </trkpt>
      <trkpt lat="45.19409" lon="5.56224">
        <ele>1223</ele>
        <time>2012-04-17T20:12:24Z</time>
      </trkpt>
      <trkpt lat="45.19432" lon="5.56222">
        <ele>1230</ele>
        <time>2012-04-17T20:12:30Z</time>
      </trkpt>
      <trkpt lat="45.19462" lon="5.56215">
        <ele>1232</ele>
        <time>2012-04-17T20:12:38Z</time>
      </trkpt>
      <trkpt lat="45.19471" lon="5.56215">
        <ele>1232</ele>
        <time>2012-04-17T20:12:40Z</time>
      </trkpt>
      <trkpt lat="45.19482" lon="5.56217">
        <ele>1232</ele>
        <time>2012-04-17T20:12:43Z</time>
      </trkpt>
      <trkpt lat="45.19495" lon="5.56219">
        <ele>1233</ele>
        <time>2012-04-17T20:12:46Z</time>
      </trkpt>
      <trkpt lat="45.1951" lon="5.56224">
        <ele>1240</ele>
        <time>2012-04-17T20:12:50Z</time>
      </trkpt>
      <trkpt lat="45.19518" lon="5.56228">
        <ele>1240</ele>
        <time>2012-04-17T20:12:52Z</time>
      </trkpt>
      <trkpt lat="45.19533" lon="5.56234">
        <ele>1242</ele>
        <time>2012-04-17T20:12:56Z</time>
      </trkpt>
      <trkpt lat="45.19548" lon="5.56243">
        <ele>1244</ele>
        <time>2012-04-17T20:13:00Z</time>
      </trkpt>
      <trkpt lat="45.19557" lon="5.56254">
        <ele>1239</ele>
        <time>2012-04-17T20:13:03Z</time>
      </trkpt>
      <trkpt lat="45.19576" lon="5.56267">
        <ele>1241</ele>
        <time>2012-04-17T20:13:08Z</time>
      </trkpt>
      <trkpt lat="45.19587" lon="5.56272">
        <ele>1249</ele>
        <time>2012-04-17T20:13:11Z</time>
      </trkpt>
      <trkpt lat="45.19606" lon="5.56282">
        <ele>1250</ele>
        <time>2012-04-17T20:13:16Z</time>
      </trkpt>
      <trkpt lat="45.19615" lon="5.56284">
        <ele>1251</ele>
        <time>2012-04-17T20:13:18Z</time>
      </trkpt>
      <trkpt lat="45.1963" lon="5.56282">
        <ele>1252</ele>
        <time>2012-04-17T20:13:22Z</time>
      </trkpt>
      <trkpt lat="45.19653" lon="5.56299">
        <ele>1253</ele>
        <time>2012-04-17T20:13:29Z</time>
      </trkpt>
      <trkpt lat="45.19668" lon="5.56299">
        <ele>1262</ele>
        <time>2012-04-17T20:13:33Z</time>
      </trkpt>
      <trkpt lat="45.19677" lon="5.56299">
        <ele>1262</ele>
        <time>2012-04-17T20:13:35Z</time>
      </trkpt>
      <trkpt lat="45.19692" lon="5.56299">
        <ele>1263</ele>
        <time>2012-04-17T20:13:39Z</time>
      </trkpt>
      <trkpt lat="45.19703" lon="5.56294">
        <ele>1264</ele>
        <time>2012-04-17T20:13:42Z</time>
      </trkpt>
      <trkpt lat="45.19716" lon="5.56288">
        <ele>1265</ele>
        <time>2012-04-17T20:13:45Z</time>
      </trkpt>
      <trkpt lat="45.19728" lon="5.56277">
        <ele>1267</ele>
        <time>2012-04-17T20:13:49Z</time>
      </trkpt>
      <trkpt lat="45.1975" lon="5.56258">
        <ele>1272</ele>
        <time>2012-04-17T20:13:56Z</time>
      </trkpt>
      <trkpt lat="45.19756" lon="5.56247">
        <ele>1275</ele>
        <time>2012-04-17T20:13:58Z</time>
      </trkpt>
      <trkpt lat="45.19771" lon="5.56232">
        <ele>1275</ele>
        <time>2012-04-17T20:14:03Z</time>
      </trkpt>
      <trkpt lat="45.19786" lon="5.56215">
        <ele>1275</ele>
        <time>2012-04-17T20:14:08Z</time>
      </trkpt>
      <trkpt lat="45.19791" lon="5.56213">
        <ele>1275</ele>
        <time>2012-04-17T20:14:09Z</time>
      </trkpt>
      <trkpt lat="45.19821" lon="5.56183">
        <ele>1275</ele>
        <time>2012-04-17T20:14:19Z</time>
      </trkpt>
      <trkpt lat="45.19846" lon="5.56166">
        <ele>1274</ele>
        <time>2012-04-17T20:14:26Z</time>
      </trkpt>
      <trkpt lat="45.19866" lon="5.56151">
        <ele>1272</ele>
        <time>2012-04-17T20:14:32Z</time>
      </trkpt>
      <trkpt lat="45.19934" lon="5.56099">
        <ele>1273</ele>
        <time>2012-04-17T20:14:53Z</time>
      </trkpt>
      <trkpt lat="45.19941" lon="5.56095">
        <ele>1274</ele>
        <time>2012-04-17T20:14:54Z</time>
      </trkpt>
      <trkpt lat="45.19947" lon="5.56091">
        <ele>1274</ele>
        <time>2012-04-17T20:14:55Z</time>
      </trkpt>
      <trkpt lat="45.19967" lon="5.56084">
        <ele>1274</ele>
        <time>2012-04-17T20:15:00Z</time>
      </trkpt>
      <trkpt lat="45.19988" lon="5.5608">
        <ele>1274</ele>
        <time>2012-04-17T20:15:06Z</time>
      </trkpt>
      <trkpt lat="45.19999" lon="5.5608">
        <ele>1275</ele>
        <time>2012-04-17T20:15:08Z</time>
      </trkpt>
      <trkpt lat="45.20022" lon="5.56082">
        <ele>1274</ele>
        <time>2012-04-17T20:15:14Z</time>
      </trkpt>
      <trkpt lat="45.20035" lon="5.56082">
        <ele>1274</ele>
        <time>2012-04-17T20:15:17Z</time>
      </trkpt>
      <trkpt lat="45.2005" lon="5.56078">
        <ele>1274</ele>
        <time>2012-04-17T20:15:21Z</time>
      </trkpt>
      <trkpt lat="45.20072" lon="5.56067">
        <ele>1276</ele>
        <time>2012-04-17T20:15:27Z</time>
      </trkpt>
      <trkpt lat="45.201" lon="5.56065">
        <ele>1277</ele>
        <time>2012-04-17T20:15:34Z</time>
      </trkpt>
      <trkpt lat="45.2013" lon="5.56063">
        <ele>1277</ele>
        <time>2012-04-17T20:15:42Z</time>
      </trkpt>
      <trkpt lat="45.20205" lon="5.56058">
        <ele>1277</ele>
        <time>2012-04-17T20:16:02Z</time>
      </trkpt>
      <trkpt lat="45.20216" lon="5.56058">
        <ele>1277</ele>
        <time>2012-04-17T20:16:05Z</time>
      </trkpt>
      <trkpt lat="45.20243" lon="5.56056">
        <ele>1277</ele>
        <time>2012-04-17T20:16:12Z</time>
      </trkpt>
      <trkpt lat="45.2025" lon="5.56056">
        <ele>1277</ele>
        <time>2012-04-17T20:16:13Z</time>
      </trkpt>
      <trkpt lat="45.20284" lon="5.56054">
        <ele>1278</ele>
        <time>2012-04-17T20:16:22Z</time>
      </trkpt>
      <trkpt lat="45.20312" lon="5.56048">
        <ele>1278</ele>
        <time>2012-04-17T20:16:29Z</time>
      </trkpt>
      <trkpt lat="45.20319" lon="5.56043">
        <ele>1278</ele>
        <time>2012-04-17T20:16:30Z</time>
      </trkpt>
      <trkpt lat="45.20353" lon="5.56033">
        <ele>1281</ele>
        <time>2012-04-17T20:16:39Z</time>
      </trkpt>
      <trkpt lat="45.20364" lon="5.56031">
        <ele>1281</ele>
        <time>2012-04-17T20:16:42Z</time>
      </trkpt>
      <trkpt lat="45.20385" lon="5.56028">
        <ele>1282</ele>
        <time>2012-04-17T20:16:47Z</time>
      </trkpt>
      <trkpt lat="45.20398" lon="5.56031">
        <ele>1282</ele>
        <time>2012-04-17T20:16:50Z</time>
      </trkpt>
      <trkpt lat="45.20404" lon="5.56031">
        <ele>1282</ele>
        <time>2012-04-17T20:16:51Z</time>
      </trkpt>
      <trkpt lat="45.20419" lon="5.56028">
        <ele>1285</ele>
        <time>2012-04-17T20:16:55Z</time>
      </trkpt>
      <trkpt lat="45.20437" lon="5.56024">
        <ele>1285</ele>
        <time>2012-04-17T20:16:59Z</time>
      </trkpt>
      <trkpt lat="45.20454" lon="5.5602">
        <ele>1286</ele>
        <time>2012-04-17T20:17:03Z</time>
      </trkpt>
      <trkpt lat="45.20484" lon="5.56005">
        <ele>1283</ele>
        <time>2012-04-17T20:17:11Z</time>
      </trkpt>
      <trkpt lat="45.2049" lon="5.56005">
        <ele>1282</ele>
        <time>2012-04-17T20:17:12Z</time>
      </trkpt>
      <trkpt lat="45.20503" lon="5.56001">
        <ele>1280</ele>
        <time>2012-04-17T20:17:15Z</time>
      </trkpt>
      <trkpt lat="45.20533" lon="5.55985">
        <ele>1282</ele>
        <time>2012-04-17T20:17:23Z</time>
      </trkpt>
      <trkpt lat="45.20552" lon="5.55975">
        <ele>1283</ele>
        <time>2012-04-17T20:17:28Z</time>
      </trkpt>
      <trkpt lat="45.2058" lon="5.55962">
        <ele>1283</ele>
        <time>2012-04-17T20:17:36Z</time>
      </trkpt>
      <trkpt lat="45.20597" lon="5.55957">
        <ele>1287</ele>
        <time>2012-04-17T20:17:40Z</time>
      </trkpt>
      <trkpt lat="45.2061" lon="5.55953">
        <ele>1287</ele>
        <time>2012-04-17T20:17:43Z</time>
      </trkpt>
      <trkpt lat="45.20617" lon="5.55951">
        <ele>1287</ele>
        <time>2012-04-17T20:17:44Z</time>
      </trkpt>
      <trkpt lat="45.20634" lon="5.55943">
        <ele>1287</ele>
        <time>2012-04-17T20:17:49Z</time>
      </trkpt>
      <trkpt lat="45.20655" lon="5.55925">
        <ele>1286</ele>
        <time>2012-04-17T20:17:55Z</time>
      </trkpt>
      <trkpt lat="45.20664" lon="5.55915">
        <ele>1285</ele>
        <time>2012-04-17T20:17:58Z</time>
      </trkpt>
      <trkpt lat="45.20673" lon="5.559">
        <ele>1286</ele>
        <time>2012-04-17T20:18:01Z</time>
      </trkpt>
      <trkpt lat="45.20683" lon="5.55889">
        <ele>1286</ele>
        <time>2012-04-17T20:18:04Z</time>
      </trkpt>
      <trkpt lat="45.20698" lon="5.55878">
        <ele>1286</ele>
        <time>2012-04-17T20:18:08Z</time>
      </trkpt>
      <trkpt lat="45.20711" lon="5.55867">
        <ele>1286</ele>
        <time>2012-04-17T20:18:12Z</time>
      </trkpt>
      <trkpt lat="45.20728" lon="5.55865">
        <ele>1286</ele>
        <time>2012-04-17T20:18:16Z</time>
      </trkpt>
      <trkpt lat="45.20752" lon="5.55863">
        <ele>1287</ele>
        <time>2012-04-17T20:18:22Z</time>
      </trkpt>
      <trkpt lat="45.20761" lon="5.55863">
        <ele>1287</ele>
        <time>2012-04-17T20:18:24Z</time>
      </trkpt>
      <trkpt lat="45.20775" lon="5.55869">
        <ele>1288</ele>
        <time>2012-04-17T20:18:28Z</time>
      </trkpt>
      <trkpt lat="45.20808" lon="5.55867">
        <ele>1288</ele>
        <time>2012-04-17T20:18:37Z</time>
      </trkpt>
      <trkpt lat="45.20872" lon="5.55872">
        <ele>1291</ele>
        <time>2012-04-17T20:18:54Z</time>
      </trkpt>
      <trkpt lat="45.20891" lon="5.55874">
        <ele>1292</ele>
        <time>2012-04-17T20:18:59Z</time>
      </trkpt>
      <trkpt lat="45.20904" lon="5.55878">
        <ele>1293</ele>
        <time>2012-04-17T20:19:02Z</time>
      </trkpt>
      <trkpt lat="45.2093" lon="5.55887">
        <ele>1296</ele>
        <time>2012-04-17T20:19:09Z</time>
      </trkpt>
      <trkpt lat="45.20939" lon="5.55893">
        <ele>1296</ele>
        <time>2012-04-17T20:19:11Z</time>
      </trkpt>
      <trkpt lat="45.20954" lon="5.55904">
        <ele>1296</ele>
        <time>2012-04-17T20:19:15Z</time>
      </trkpt>
      <trkpt lat="45.20959" lon="5.55909">
        <ele>1296</ele>
        <time>2012-04-17T20:19:16Z</time>
      </trkpt>
      <trkpt lat="45.20967" lon="5.55917">
        <ele>1301</ele>
        <time>2012-04-17T20:19:18Z</time>
      </trkpt>
      <trkpt lat="45.20982" lon="5.55928">
        <ele>1301</ele>
        <time>2012-04-17T20:19:22Z</time>
      </trkpt>
      <trkpt lat="45.2099" lon="5.55932">
        <ele>1301</ele>
        <time>2012-04-17T20:19:24Z</time>
      </trkpt>
      <trkpt lat="45.21003" lon="5.55934">
        <ele>1301</ele>
        <time>2012-04-17T20:19:27Z</time>
      </trkpt>
      <trkpt lat="45.21016" lon="5.55934">
        <ele>1301</ele>
        <time>2012-04-17T20:19:30Z</time>
      </trkpt>
      <trkpt lat="45.21029" lon="5.55932">
        <ele>1302</ele>
        <time>2012-04-17T20:19:33Z</time>
      </trkpt>
      <trkpt lat="45.2104" lon="5.55928">
        <ele>1302</ele>
        <time>2012-04-17T20:19:36Z</time>
      </trkpt>
      <trkpt lat="45.21057" lon="5.55915">
        <ele>1298</ele>
        <time>2012-04-17T20:19:41Z</time>
      </trkpt>
      <trkpt lat="45.21067" lon="5.55913">
        <ele>1298</ele>
        <time>2012-04-17T20:19:44Z</time>
      </trkpt>
      <trkpt lat="45.21082" lon="5.55913">
        <ele>1298</ele>
        <time>2012-04-17T20:19:48Z</time>
      </trkpt>
      <trkpt lat="45.21095" lon="5.55917">
        <ele>1299</ele>
        <time>2012-04-17T20:19:51Z</time>
      </trkpt>
      <trkpt lat="45.21108" lon="5.55925">
        <ele>1300</ele>
        <time>2012-04-17T20:19:54Z</time>
      </trkpt>
      <trkpt lat="45.21123" lon="5.5593">
        <ele>1301</ele>
        <time>2012-04-17T20:19:58Z</time>
      </trkpt>
      <trkpt lat="45.21132" lon="5.55932">
        <ele>1301</ele>
        <time>2012-04-17T20:20:00Z</time>
      </trkpt>
      <trkpt lat="45.21147" lon="5.55943">
        <ele>1301</ele>
        <time>2012-04-17T20:20:04Z</time>
      </trkpt>
      <trkpt lat="45.21162" lon="5.55951">
        <ele>1301</ele>
        <time>2012-04-17T20:20:08Z</time>
      </trkpt>
      <trkpt lat="45.21175" lon="5.55958">
        <ele>1301</ele>
        <time>2012-04-17T20:20:11Z</time>
      </trkpt>
      <trkpt lat="45.21183" lon="5.55958">
        <ele>1301</ele>
        <time>2012-04-17T20:20:13Z</time>
      </trkpt>
      <trkpt lat="45.212" lon="5.55964">
        <ele>1301</ele>
        <time>2012-04-17T20:20:17Z</time>
      </trkpt>
      <trkpt lat="45.21211" lon="5.55973">
        <ele>1301</ele>
        <time>2012-04-17T20:20:20Z</time>
      </trkpt>
      <trkpt lat="45.2122" lon="5.55979">
        <ele>1301</ele>
        <time>2012-04-17T20:20:22Z</time>
      </trkpt>
      <trkpt lat="45.21233" lon="5.55985">
        <ele>1301</ele>
        <time>2012-04-17T20:20:25Z</time>
      </trkpt>
      <trkpt lat="45.21239" lon="5.55992">
        <ele>1301</ele>
        <time>2012-04-17T20:20:27Z</time>
      </trkpt>
      <trkpt lat="45.21246" lon="5.55994">
        <ele>1301</ele>
        <time>2012-04-17T20:20:28Z</time>
      </trkpt>
      <trkpt lat="45.21265" lon="5.56007">
        <ele>1302</ele>
        <time>2012-04-17T20:20:33Z</time>
      </trkpt>
      <trkpt lat="45.21278" lon="5.56011">
        <ele>1303</ele>
        <time>2012-04-17T20:20:36Z</time>
      </trkpt>
      <trkpt lat="45.21276" lon="5.55996">
        <ele>1302</ele>
        <time>2012-04-17T20:20:39Z</time>
      </trkpt>
      <trkpt lat="45.21276" lon="5.55985">
        <ele>1302</ele>
        <time>2012-04-17T20:20:41Z</time>
      </trkpt>
      <trkpt lat="45.21321" lon="5.56005">
        <ele>1302</ele>
        <time>2012-04-17T20:20:54Z</time>
      </trkpt>
      <trkpt lat="45.21333" lon="5.56009">
        <ele>1301</ele>
        <time>2012-04-17T20:20:57Z</time>
      </trkpt>
      <trkpt lat="45.21338" lon="5.56011">
        <ele>1301</ele>
        <time>2012-04-17T20:20:58Z</time>
      </trkpt>
      <trkpt lat="45.21349" lon="5.56011">
        <ele>1300</ele>
        <time>2012-04-17T20:21:00Z</time>
      </trkpt>
      <trkpt lat="45.21411" lon="5.56011">
        <ele>1298</ele>
        <time>2012-04-17T20:21:17Z</time>
      </trkpt>
      <trkpt lat="45.21447" lon="5.56007">
        <ele>1297</ele>
        <time>2012-04-17T20:21:27Z</time>
      </trkpt>
      <trkpt lat="45.2158" lon="5.55998">
        <ele>1298</ele>
        <time>2012-04-17T20:22:04Z</time>
      </trkpt>
      <trkpt lat="45.21617" lon="5.55996">
        <ele>1302</ele>
        <time>2012-04-17T20:22:14Z</time>
      </trkpt>
      <trkpt lat="45.2164" lon="5.55996">
        <ele>1303</ele>
        <time>2012-04-17T20:22:20Z</time>
      </trkpt>
      <trkpt lat="45.21664" lon="5.55998">
        <ele>1304</ele>
        <time>2012-04-17T20:22:26Z</time>
      </trkpt>
      <trkpt lat="45.21698" lon="5.56005">
        <ele>1304</ele>
        <time>2012-04-17T20:22:35Z</time>
      </trkpt>
      <trkpt lat="45.21778" lon="5.56018">
        <ele>1300</ele>
        <time>2012-04-17T20:22:57Z</time>
      </trkpt>
      <trkpt lat="45.21795" lon="5.5602">
        <ele>1300</ele>
        <time>2012-04-17T20:23:01Z</time>
      </trkpt>
      <trkpt lat="45.21806" lon="5.56022">
        <ele>1299</ele>
        <time>2012-04-17T20:23:04Z</time>
      </trkpt>
      <trkpt lat="45.21812" lon="5.56024">
        <ele>1299</ele>
        <time>2012-04-17T20:23:05Z</time>
      </trkpt>
      <trkpt lat="45.21818" lon="5.56026">
        <ele>1299</ele>
        <time>2012-04-17T20:23:06Z</time>
      </trkpt>
      <trkpt lat="45.21821" lon="5.56031">
        <ele>1299</ele>
        <time>2012-04-17T20:23:07Z</time>
      </trkpt>
      <trkpt lat="45.21827" lon="5.56046">
        <ele>1299</ele>
        <time>2012-04-17T20:23:10Z</time>
      </trkpt>
      <trkpt lat="45.21831" lon="5.56058">
        <ele>1299</ele>
        <time>2012-04-17T20:23:12Z</time>
      </trkpt>
      <trkpt lat="45.2184" lon="5.56086">
        <ele>1299</ele>
        <time>2012-04-17T20:23:17Z</time>
      </trkpt>
      <trkpt lat="45.21846" lon="5.56104">
        <ele>1301</ele>
        <time>2012-04-17T20:23:20Z</time>
      </trkpt>
      <trkpt lat="45.21861" lon="5.56129">
        <ele>1303</ele>
        <time>2012-04-17T20:23:26Z</time>
      </trkpt>
      <trkpt lat="45.21885" lon="5.5617">
        <ele>1306</ele>
        <time>2012-04-17T20:23:36Z</time>
      </trkpt>
      <trkpt lat="45.21894" lon="5.56185">
        <ele>1306</ele>
        <time>2012-04-17T20:23:39Z</time>
      </trkpt>
      <trkpt lat="45.2196" lon="5.56299">
        <ele>1312</ele>
        <time>2012-04-17T20:24:07Z</time>
      </trkpt>
      <trkpt lat="45.21973" lon="5.56327">
        <ele>1313</ele>
        <time>2012-04-17T20:24:13Z</time>
      </trkpt>
      <trkpt lat="45.21994" lon="5.56382">
        <ele>1321</ele>
        <time>2012-04-17T20:24:25Z</time>
      </trkpt>
      <trkpt lat="45.22003" lon="5.564">
        <ele>1318</ele>
        <time>2012-04-17T20:24:29Z</time>
      </trkpt>
      <trkpt lat="45.22009" lon="5.5641">
        <ele>1319</ele>
        <time>2012-04-17T20:24:31Z</time>
      </trkpt>
      <trkpt lat="45.22014" lon="5.56419">
        <ele>1321</ele>
        <time>2012-04-17T20:24:33Z</time>
      </trkpt>
      <trkpt lat="45.22035" lon="5.56447">
        <ele>1322</ele>
        <time>2012-04-17T20:24:41Z</time>
      </trkpt>
      <trkpt lat="45.22039" lon="5.56458">
        <ele>1322</ele>
        <time>2012-04-17T20:24:43Z</time>
      </trkpt>
      <trkpt lat="45.22052" lon="5.56488">
        <ele>1322</ele>
        <time>2012-04-17T20:24:49Z</time>
      </trkpt>
      <trkpt lat="45.22065" lon="5.5652">
        <ele>1327</ele>
        <time>2012-04-17T20:24:56Z</time>
      </trkpt>
      <trkpt lat="45.22069" lon="5.56535">
        <ele>1328</ele>
        <time>2012-04-17T20:24:59Z</time>
      </trkpt>
      <trkpt lat="45.22074" lon="5.56552">
        <ele>1328</ele>
        <time>2012-04-17T20:25:02Z</time>
      </trkpt>
      <trkpt lat="45.2208" lon="5.56591">
        <ele>1328</ele>
        <time>2012-04-17T20:25:09Z</time>
      </trkpt>
      <trkpt lat="45.22085" lon="5.56621">
        <ele>1327</ele>
        <time>2012-04-17T20:25:15Z</time>
      </trkpt>
      <trkpt lat="45.22085" lon="5.56629">
        <ele>1327</ele>
        <time>2012-04-17T20:25:16Z</time>
      </trkpt>
      <trkpt lat="45.22085" lon="5.56634">
        <ele>1328</ele>
        <time>2012-04-17T20:25:16Z</time>
      </trkpt>
      <trkpt lat="45.22082" lon="5.5664">
        <ele>1332</ele>
        <time>2012-04-17T20:25:17Z</time>
      </trkpt>
      <trkpt lat="45.22078" lon="5.56646">
        <ele>1331</ele>
        <time>2012-04-17T20:25:18Z</time>
      </trkpt>
      <trkpt lat="45.22076" lon="5.56657">
        <ele>1330</ele>
        <time>2012-04-17T20:25:20Z</time>
      </trkpt>
      <trkpt lat="45.22069" lon="5.56672">
        <ele>1331</ele>
        <time>2012-04-17T20:25:23Z</time>
      </trkpt>
      <trkpt lat="45.22052" lon="5.567">
        <ele>1335</ele>
        <time>2012-04-17T20:25:30Z</time>
      </trkpt>
      <trkpt lat="45.22039" lon="5.56726">
        <ele>1337</ele>
        <time>2012-04-17T20:25:36Z</time>
      </trkpt>
      <trkpt lat="45.22031" lon="5.56745">
        <ele>1338</ele>
        <time>2012-04-17T20:25:40Z</time>
      </trkpt>
      <trkpt lat="45.22018" lon="5.56794">
        <ele>1341</ele>
        <time>2012-04-17T20:25:50Z</time>
      </trkpt>
      <trkpt lat="45.22014" lon="5.56814">
        <ele>1342</ele>
        <time>2012-04-17T20:25:53Z</time>
      </trkpt>
      <trkpt lat="45.22003" lon="5.56837">
        <ele>1345</ele>
        <time>2012-04-17T20:25:58Z</time>
      </trkpt>
      <trkpt lat="45.21988" lon="5.56865">
        <ele>1349</ele>
        <time>2012-04-17T20:26:04Z</time>
      </trkpt>
      <trkpt lat="45.21979" lon="5.5688">
        <ele>1350</ele>
        <time>2012-04-17T20:26:07Z</time>
      </trkpt>
      <trkpt lat="45.21975" lon="5.56885">
        <ele>1350</ele>
        <time>2012-04-17T20:26:08Z</time>
      </trkpt>
      <trkpt lat="45.21969" lon="5.56891">
        <ele>1350</ele>
        <time>2012-04-17T20:26:10Z</time>
      </trkpt>
      <trkpt lat="45.21954" lon="5.56891">
        <ele>1350</ele>
        <time>2012-04-17T20:26:14Z</time>
      </trkpt>
      <trkpt lat="45.21939" lon="5.56887">
        <ele>1350</ele>
        <time>2012-04-17T20:26:18Z</time>
      </trkpt>
      <trkpt lat="45.21934" lon="5.56889">
        <ele>1350</ele>
        <time>2012-04-17T20:26:19Z</time>
      </trkpt>
      <trkpt lat="45.21924" lon="5.56895">
        <ele>1350</ele>
        <time>2012-04-17T20:26:22Z</time>
      </trkpt>
      <trkpt lat="45.21919" lon="5.56902">
        <ele>1350</ele>
        <time>2012-04-17T20:26:23Z</time>
      </trkpt>
      <trkpt lat="45.21915" lon="5.56908">
        <ele>1350</ele>
        <time>2012-04-17T20:26:24Z</time>
      </trkpt>
      <trkpt lat="45.21913" lon="5.56919">
        <ele>1351</ele>
        <time>2012-04-17T20:26:26Z</time>
      </trkpt>
      <trkpt lat="45.21913" lon="5.5693">
        <ele>1351</ele>
        <time>2012-04-17T20:26:28Z</time>
      </trkpt>
      <trkpt lat="45.21913" lon="5.56936">
        <ele>1351</ele>
        <time>2012-04-17T20:26:29Z</time>
      </trkpt>
      <trkpt lat="45.21915" lon="5.56943">
        <ele>1351</ele>
        <time>2012-04-17T20:26:30Z</time>
      </trkpt>
      <trkpt lat="45.21919" lon="5.56947">
        <ele>1355</ele>
        <time>2012-04-17T20:26:31Z</time>
      </trkpt>
      <trkpt lat="45.21926" lon="5.56949">
        <ele>1355</ele>
        <time>2012-04-17T20:26:32Z</time>
      </trkpt>
      <trkpt lat="45.21932" lon="5.56949">
        <ele>1355</ele>
        <time>2012-04-17T20:26:33Z</time>
      </trkpt>
      <trkpt lat="45.21964" lon="5.56945">
        <ele>1356</ele>
        <time>2012-04-17T20:26:41Z</time>
      </trkpt>
      <trkpt lat="45.21982" lon="5.56945">
        <ele>1356</ele>
        <time>2012-04-17T20:26:45Z</time>
      </trkpt>
      <trkpt lat="45.21988" lon="5.56947">
        <ele>1356</ele>
        <time>2012-04-17T20:26:46Z</time>
      </trkpt>
      <trkpt lat="45.21994" lon="5.56951">
        <ele>1357</ele>
        <time>2012-04-17T20:26:47Z</time>
      </trkpt>
      <trkpt lat="45.21999" lon="5.56953">
        <ele>1357</ele>
        <time>2012-04-17T20:26:48Z</time>
      </trkpt>
      <trkpt lat="45.22001" lon="5.5696">
        <ele>1359</ele>
        <time>2012-04-17T20:26:49Z</time>
      </trkpt>
      <trkpt lat="45.22003" lon="5.56966">
        <ele>1360</ele>
        <time>2012-04-17T20:26:50Z</time>
      </trkpt>
      <trkpt lat="45.22005" lon="5.56973">
        <ele>1361</ele>
        <time>2012-04-17T20:26:51Z</time>
      </trkpt>
      <trkpt lat="45.22005" lon="5.56988">
        <ele>1362</ele>
        <time>2012-04-17T20:26:53Z</time>
      </trkpt>
      <trkpt lat="45.22003" lon="5.56994">
        <ele>1363</ele>
        <time>2012-04-17T20:26:54Z</time>
      </trkpt>
      <trkpt lat="45.22001" lon="5.57003">
        <ele>1365</ele>
        <time>2012-04-17T20:26:55Z</time>
      </trkpt>
      <trkpt lat="45.21999" lon="5.5702">
        <ele>1363</ele>
        <time>2012-04-17T20:26:58Z</time>
      </trkpt>
      <trkpt lat="45.21997" lon="5.57037">
        <ele>1362</ele>
        <time>2012-04-17T20:27:01Z</time>
      </trkpt>
      <trkpt lat="45.21999" lon="5.57045">
        <ele>1363</ele>
        <time>2012-04-17T20:27:02Z</time>
      </trkpt>
      <trkpt lat="45.22001" lon="5.57055">
        <ele>1369</ele>
        <time>2012-04-17T20:27:03Z</time>
      </trkpt>
      <trkpt lat="45.22005" lon="5.57065">
        <ele>1368</ele>
        <time>2012-04-17T20:27:05Z</time>
      </trkpt>
      <trkpt lat="45.22014" lon="5.57078">
        <ele>1369</ele>
        <time>2012-04-17T20:27:08Z</time>
      </trkpt>
      <trkpt lat="45.22016" lon="5.57084">
        <ele>1369</ele>
        <time>2012-04-17T20:27:09Z</time>
      </trkpt>
      <trkpt lat="45.22016" lon="5.57088">
        <ele>1369</ele>
        <time>2012-04-17T20:27:09Z</time>
      </trkpt>
      <trkpt lat="45.22016" lon="5.57093">
        <ele>1369</ele>
        <time>2012-04-17T20:27:09Z</time>
      </trkpt>
      <trkpt lat="45.22016" lon="5.57103">
        <ele>1370</ele>
        <time>2012-04-17T20:27:11Z</time>
      </trkpt>
      <trkpt lat="45.22001" lon="5.57131">
        <ele>1368</ele>
        <time>2012-04-17T20:27:17Z</time>
      </trkpt>
      <trkpt lat="45.21999" lon="5.57138">
        <ele>1360</ele>
        <time>2012-04-17T20:27:18Z</time>
      </trkpt>
      <trkpt lat="45.21999" lon="5.57144">
        <ele>1360</ele>
        <time>2012-04-17T20:27:19Z</time>
      </trkpt>
      <trkpt lat="45.22001" lon="5.57153">
        <ele>1366</ele>
        <time>2012-04-17T20:27:20Z</time>
      </trkpt>
      <trkpt lat="45.22003" lon="5.57161">
        <ele>1364</ele>
        <time>2012-04-17T20:27:21Z</time>
      </trkpt>
      <trkpt lat="45.22018" lon="5.57198">
        <ele>1364</ele>
        <time>2012-04-17T20:27:29Z</time>
      </trkpt>
      <trkpt lat="45.22024" lon="5.57211">
        <ele>1364</ele>
        <time>2012-04-17T20:27:32Z</time>
      </trkpt>
      <trkpt lat="45.22029" lon="5.57221">
        <ele>1364</ele>
        <time>2012-04-17T20:27:34Z</time>
      </trkpt>
      <trkpt lat="45.22035" lon="5.57234">
        <ele>1364</ele>
        <time>2012-04-17T20:27:37Z</time>
      </trkpt>
      <trkpt lat="45.22039" lon="5.57239">
        <ele>1365</ele>
        <time>2012-04-17T20:27:38Z</time>
      </trkpt>
      <trkpt lat="45.22044" lon="5.57241">
        <ele>1366</ele>
        <time>2012-04-17T20:27:39Z</time>
      </trkpt>
      <trkpt lat="45.22048" lon="5.57241">
        <ele>1366</ele>
        <time>2012-04-17T20:27:40Z</time>
      </trkpt>
      <trkpt lat="45.22052" lon="5.57241">
        <ele>1367</ele>
        <time>2012-04-17T20:27:41Z</time>
      </trkpt>
      <trkpt lat="45.22061" lon="5.57234">
        <ele>1368</ele>
        <time>2012-04-17T20:27:43Z</time>
      </trkpt>
      <trkpt lat="45.22065" lon="5.57232">
        <ele>1369</ele>
        <time>2012-04-17T20:27:44Z</time>
      </trkpt>
      <trkpt lat="45.22074" lon="5.57215">
        <ele>1369</ele>
        <time>2012-04-17T20:27:48Z</time>
      </trkpt>
      <trkpt lat="45.22082" lon="5.57206">
        <ele>1370</ele>
        <time>2012-04-17T20:27:50Z</time>
      </trkpt>
      <trkpt lat="45.22087" lon="5.57198">
        <ele>1378</ele>
        <time>2012-04-17T20:27:52Z</time>
      </trkpt>
      <trkpt lat="45.22091" lon="5.57194">
        <ele>1378</ele>
        <time>2012-04-17T20:27:53Z</time>
      </trkpt>
      <trkpt lat="45.22097" lon="5.57191">
        <ele>1379</ele>
        <time>2012-04-17T20:27:54Z</time>
      </trkpt>
      <trkpt lat="45.22102" lon="5.57191">
        <ele>1379</ele>
        <time>2012-04-17T20:27:55Z</time>
      </trkpt>
      <trkpt lat="45.22106" lon="5.57196">
        <ele>1379</ele>
        <time>2012-04-17T20:27:56Z</time>
      </trkpt>
      <trkpt lat="45.2211" lon="5.57202">
        <ele>1379</ele>
        <time>2012-04-17T20:27:57Z</time>
      </trkpt>
      <trkpt lat="45.22121" lon="5.57226">
        <ele>1379</ele>
        <time>2012-04-17T20:28:02Z</time>
      </trkpt>
      <trkpt lat="45.22142" lon="5.57264">
        <ele>1381</ele>
        <time>2012-04-17T20:28:11Z</time>
      </trkpt>
      <trkpt lat="45.22151" lon="5.57273">
        <ele>1382</ele>
        <time>2012-04-17T20:28:13Z</time>
      </trkpt>
      <trkpt lat="45.22157" lon="5.57282">
        <ele>1382</ele>
        <time>2012-04-17T20:28:15Z</time>
      </trkpt>
      <trkpt lat="45.22175" lon="5.57292">
        <ele>1388</ele>
        <time>2012-04-17T20:28:20Z</time>
      </trkpt>
      <trkpt lat="45.22179" lon="5.57294">
        <ele>1388</ele>
        <time>2012-04-17T20:28:21Z</time>
      </trkpt>
      <trkpt lat="45.22194" lon="5.57294">
        <ele>1388</ele>
        <time>2012-04-17T20:28:25Z</time>
      </trkpt>
      <trkpt lat="45.2225" lon="5.57292">
        <ele>1390</ele>
        <time>2012-04-17T20:28:40Z</time>
      </trkpt>
      <trkpt lat="45.22258" lon="5.5729">
        <ele>1392</ele>
        <time>2012-04-17T20:28:42Z</time>
      </trkpt>
      <trkpt lat="45.22306" lon="5.57269">
        <ele>1392</ele>
        <time>2012-04-17T20:28:55Z</time>
      </trkpt>
      <trkpt lat="45.22316" lon="5.57262">
        <ele>1392</ele>
        <time>2012-04-17T20:28:58Z</time>
      </trkpt>
      <trkpt lat="45.22323" lon="5.57256">
        <ele>1391</ele>
        <time>2012-04-17T20:29:00Z</time>
      </trkpt>
      <trkpt lat="45.22357" lon="5.57224">
        <ele>1393</ele>
        <time>2012-04-17T20:29:11Z</time>
      </trkpt>
      <trkpt lat="45.22363" lon="5.57219">
        <ele>1393</ele>
        <time>2012-04-17T20:29:12Z</time>
      </trkpt>
      <trkpt lat="45.22368" lon="5.57219">
        <ele>1393</ele>
        <time>2012-04-17T20:29:13Z</time>
      </trkpt>
      <trkpt lat="45.22372" lon="5.57219">
        <ele>1394</ele>
        <time>2012-04-17T20:29:14Z</time>
      </trkpt>
      <trkpt lat="45.22394" lon="5.57232">
        <ele>1397</ele>
        <time>2012-04-17T20:29:20Z</time>
      </trkpt>
      <trkpt lat="45.22398" lon="5.57234">
        <ele>1397</ele>
        <time>2012-04-17T20:29:21Z</time>
      </trkpt>
      <trkpt lat="45.22404" lon="5.57232">
        <ele>1398</ele>
        <time>2012-04-17T20:29:22Z</time>
      </trkpt>
      <trkpt lat="45.22413" lon="5.57228">
        <ele>1398</ele>
        <time>2012-04-17T20:29:24Z</time>
      </trkpt>
      <trkpt lat="45.22421" lon="5.57221">
        <ele>1405</ele>
        <time>2012-04-17T20:29:26Z</time>
      </trkpt>
      <trkpt lat="45.22426" lon="5.57215">
        <ele>1404</ele>
        <time>2012-04-17T20:29:27Z</time>
      </trkpt>
      <trkpt lat="45.22441" lon="5.57191">
        <ele>1404</ele>
        <time>2012-04-17T20:29:33Z</time>
      </trkpt>
      <trkpt lat="45.22451" lon="5.57176">
        <ele>1404</ele>
        <time>2012-04-17T20:29:37Z</time>
      </trkpt>
      <trkpt lat="45.22458" lon="5.5717">
        <ele>1404</ele>
        <time>2012-04-17T20:29:39Z</time>
      </trkpt>
      <trkpt lat="45.22464" lon="5.57164">
        <ele>1397</ele>
        <time>2012-04-17T20:29:41Z</time>
      </trkpt>
      <trkpt lat="45.22471" lon="5.57161">
        <ele>1398</ele>
        <time>2012-04-17T20:29:42Z</time>
      </trkpt>
      <trkpt lat="45.22488" lon="5.57157">
        <ele>1400</ele>
        <time>2012-04-17T20:29:46Z</time>
      </trkpt>
      <trkpt lat="45.22509" lon="5.57157">
        <ele>1404</ele>
        <time>2012-04-17T20:29:51Z</time>
      </trkpt>
      <trkpt lat="45.22518" lon="5.57157">
        <ele>1403</ele>
        <time>2012-04-17T20:29:53Z</time>
      </trkpt>
      <trkpt lat="45.22539" lon="5.57159">
        <ele>1404</ele>
        <time>2012-04-17T20:29:58Z</time>
      </trkpt>
      <trkpt lat="45.22548" lon="5.57164">
        <ele>1404</ele>
        <time>2012-04-17T20:30:00Z</time>
      </trkpt>
      <trkpt lat="45.22569" lon="5.57176">
        <ele>1413</ele>
        <time>2012-04-17T20:30:06Z</time>
      </trkpt>
      <trkpt lat="45.2258" lon="5.57189">
        <ele>1414</ele>
        <time>2012-04-17T20:30:09Z</time>
      </trkpt>
      <trkpt lat="45.22584" lon="5.57198">
        <ele>1418</ele>
        <time>2012-04-17T20:30:11Z</time>
      </trkpt>
      <trkpt lat="45.22587" lon="5.57206">
        <ele>1419</ele>
        <time>2012-04-17T20:30:12Z</time>
      </trkpt>
      <trkpt lat="45.22589" lon="5.57219">
        <ele>1420</ele>
        <time>2012-04-17T20:30:14Z</time>
      </trkpt>
      <trkpt lat="45.22591" lon="5.57243">
        <ele>1422</ele>
        <time>2012-04-17T20:30:18Z</time>
      </trkpt>
      <trkpt lat="45.22593" lon="5.57258">
        <ele>1425</ele>
        <time>2012-04-17T20:30:21Z</time>
      </trkpt>
      <trkpt lat="45.22595" lon="5.57269">
        <ele>1426</ele>
        <time>2012-04-17T20:30:23Z</time>
      </trkpt>
      <trkpt lat="45.22599" lon="5.57277">
        <ele>1427</ele>
        <time>2012-04-17T20:30:25Z</time>
      </trkpt>
      <trkpt lat="45.22604" lon="5.57284">
        <ele>1428</ele>
        <time>2012-04-17T20:30:26Z</time>
      </trkpt>
      <trkpt lat="45.22608" lon="5.5729">
        <ele>1428</ele>
        <time>2012-04-17T20:30:27Z</time>
      </trkpt>
      <trkpt lat="45.22617" lon="5.57294">
        <ele>1428</ele>
        <time>2012-04-17T20:30:29Z</time>
      </trkpt>
      <trkpt lat="45.2264" lon="5.57309">
        <ele>1429</ele>
        <time>2012-04-17T20:30:36Z</time>
      </trkpt>
      <trkpt lat="45.22662" lon="5.57329">
        <ele>1430</ele>
        <time>2012-04-17T20:30:43Z</time>
      </trkpt>
      <trkpt lat="45.22681" lon="5.57344">
        <ele>1428</ele>
        <time>2012-04-17T20:30:49Z</time>
      </trkpt>
      <trkpt lat="45.227" lon="5.57354">
        <ele>1427</ele>
        <time>2012-04-17T20:30:54Z</time>
      </trkpt>
      <trkpt lat="45.22739" lon="5.57376">
        <ele>1425</ele>
        <time>2012-04-17T20:31:05Z</time>
      </trkpt>
      <trkpt lat="45.22765" lon="5.57391">
        <ele>1424</ele>
        <time>2012-04-17T20:31:12Z</time>
      </trkpt>
      <trkpt lat="45.22799" lon="5.57406">
        <ele>1424</ele>
        <time>2012-04-17T20:31:21Z</time>
      </trkpt>
      <trkpt lat="45.22818" lon="5.57412">
        <ele>1423</ele>
        <time>2012-04-17T20:31:26Z</time>
      </trkpt>
      <trkpt lat="45.22825" lon="5.57419">
        <ele>1420</ele>
        <time>2012-04-17T20:31:28Z</time>
      </trkpt>
      <trkpt lat="45.22842" lon="5.57425">
        <ele>1422</ele>
        <time>2012-04-17T20:31:32Z</time>
      </trkpt>
      <trkpt lat="45.22848" lon="5.57423">
        <ele>1422</ele>
        <time>2012-04-17T20:31:33Z</time>
      </trkpt>
      <trkpt lat="45.22896" lon="5.57425">
        <ele>1425</ele>
        <time>2012-04-17T20:31:46Z</time>
      </trkpt>
      <trkpt lat="45.22906" lon="5.57423">
        <ele>1427</ele>
        <time>2012-04-17T20:31:49Z</time>
      </trkpt>
      <trkpt lat="45.22926" lon="5.57419">
        <ele>1430</ele>
        <time>2012-04-17T20:31:54Z</time>
      </trkpt>
      <trkpt lat="45.22947" lon="5.57417">
        <ele>1431</ele>
        <time>2012-04-17T20:31:59Z</time>
      </trkpt>
      <trkpt lat="45.22962" lon="5.57417">
        <ele>1432</ele>
        <time>2012-04-17T20:32:03Z</time>
      </trkpt>
      <trkpt lat="45.22966" lon="5.57419">
        <ele>1432</ele>
        <time>2012-04-17T20:32:04Z</time>
      </trkpt>
      <trkpt lat="45.2299" lon="5.57425">
        <ele>1434</ele>
        <time>2012-04-17T20:32:10Z</time>
      </trkpt>
      <trkpt lat="45.22996" lon="5.57425">
        <ele>1434</ele>
        <time>2012-04-17T20:32:11Z</time>
      </trkpt>
      <trkpt lat="45.23005" lon="5.57423">
        <ele>1438</ele>
        <time>2012-04-17T20:32:13Z</time>
      </trkpt>
      <trkpt lat="45.23014" lon="5.57417">
        <ele>1438</ele>
        <time>2012-04-17T20:32:15Z</time>
      </trkpt>
      <trkpt lat="45.2302" lon="5.57415">
        <ele>1444</ele>
        <time>2012-04-17T20:32:16Z</time>
      </trkpt>
      <trkpt lat="45.23027" lon="5.57415">
        <ele>1445</ele>
        <time>2012-04-17T20:32:17Z</time>
      </trkpt>
      <trkpt lat="45.23031" lon="5.57415">
        <ele>1446</ele>
        <time>2012-04-17T20:32:18Z</time>
      </trkpt>
      <trkpt lat="45.23044" lon="5.57419">
        <ele>1443</ele>
        <time>2012-04-17T20:32:21Z</time>
      </trkpt>
      <trkpt lat="45.23059" lon="5.57423">
        <ele>1445</ele>
        <time>2012-04-17T20:32:25Z</time>
      </trkpt>
      <trkpt lat="45.23063" lon="5.57427">
        <ele>1445</ele>
        <time>2012-04-17T20:32:26Z</time>
      </trkpt>
      <trkpt lat="45.23076" lon="5.57447">
        <ele>1445</ele>
        <time>2012-04-17T20:32:31Z</time>
      </trkpt>
      <trkpt lat="45.23089" lon="5.57477">
        <ele>1452</ele>
        <time>2012-04-17T20:32:37Z</time>
      </trkpt>
      <trkpt lat="45.23093" lon="5.57492">
        <ele>1450</ele>
        <time>2012-04-17T20:32:40Z</time>
      </trkpt>
      <trkpt lat="45.23095" lon="5.57513">
        <ele>1452</ele>
        <time>2012-04-17T20:32:44Z</time>
      </trkpt>
      <trkpt lat="45.23095" lon="5.57552">
        <ele>1456</ele>
        <time>2012-04-17T20:32:51Z</time>
      </trkpt>
      <trkpt lat="45.23093" lon="5.57601">
        <ele>1459</ele>
        <time>2012-04-17T20:33:00Z</time>
      </trkpt>
      <trkpt lat="45.23093" lon="5.5761">
        <ele>1460</ele>
        <time>2012-04-17T20:33:01Z</time>
      </trkpt>
      <trkpt lat="45.23095" lon="5.57616">
        <ele>1461</ele>
        <time>2012-04-17T20:33:02Z</time>
      </trkpt>
      <trkpt lat="45.23097" lon="5.57623">
        <ele>1461</ele>
        <time>2012-04-17T20:33:03Z</time>
      </trkpt>
      <trkpt lat="45.23102" lon="5.57627">
        <ele>1462</ele>
        <time>2012-04-17T20:33:04Z</time>
      </trkpt>
      <trkpt lat="45.23106" lon="5.57631">
        <ele>1462</ele>
        <time>2012-04-17T20:33:05Z</time>
      </trkpt>
      <trkpt lat="45.23114" lon="5.57631">
        <ele>1463</ele>
        <time>2012-04-17T20:33:07Z</time>
      </trkpt>
      <trkpt lat="45.23121" lon="5.57629">
        <ele>1463</ele>
        <time>2012-04-17T20:33:08Z</time>
      </trkpt>
      <trkpt lat="45.23129" lon="5.57616">
        <ele>1464</ele>
        <time>2012-04-17T20:33:11Z</time>
      </trkpt>
      <trkpt lat="45.23136" lon="5.57586">
        <ele>1464</ele>
        <time>2012-04-17T20:33:17Z</time>
      </trkpt>
      <trkpt lat="45.23142" lon="5.57569">
        <ele>1461</ele>
        <time>2012-04-17T20:33:20Z</time>
      </trkpt>
      <trkpt lat="45.23151" lon="5.57552">
        <ele>1461</ele>
        <time>2012-04-17T20:33:24Z</time>
      </trkpt>
      <trkpt lat="45.23155" lon="5.57545">
        <ele>1461</ele>
        <time>2012-04-17T20:33:25Z</time>
      </trkpt>
      <trkpt lat="45.2316" lon="5.57537">
        <ele>1460</ele>
        <time>2012-04-17T20:33:27Z</time>
      </trkpt>
      <trkpt lat="45.23166" lon="5.57533">
        <ele>1461</ele>
        <time>2012-04-17T20:33:28Z</time>
      </trkpt>
      <trkpt lat="45.23179" lon="5.57522">
        <ele>1469</ele>
        <time>2012-04-17T20:33:32Z</time>
      </trkpt>
      <trkpt lat="45.23192" lon="5.57511">
        <ele>1469</ele>
        <time>2012-04-17T20:33:36Z</time>
      </trkpt>
      <trkpt lat="45.23198" lon="5.57505">
        <ele>1470</ele>
        <time>2012-04-17T20:33:38Z</time>
      </trkpt>
      <trkpt lat="45.2322" lon="5.57483">
        <ele>1471</ele>
        <time>2012-04-17T20:33:45Z</time>
      </trkpt>
      <trkpt lat="45.23226" lon="5.57479">
        <ele>1471</ele>
        <time>2012-04-17T20:33:46Z</time>
      </trkpt>
      <trkpt lat="45.2323" lon="5.57477">
        <ele>1471</ele>
        <time>2012-04-17T20:33:47Z</time>
      </trkpt>
      <trkpt lat="45.23237" lon="5.57473">
        <ele>1472</ele>
        <time>2012-04-17T20:33:48Z</time>
      </trkpt>
      <trkpt lat="45.23263" lon="5.57477">
        <ele>1479</ele>
        <time>2012-04-17T20:33:55Z</time>
      </trkpt>
      <trkpt lat="45.23275" lon="5.57483">
        <ele>1479</ele>
        <time>2012-04-17T20:33:58Z</time>
      </trkpt>
      <trkpt lat="45.23286" lon="5.57488">
        <ele>1480</ele>
        <time>2012-04-17T20:34:01Z</time>
      </trkpt>
      <trkpt lat="45.23297" lon="5.57494">
        <ele>1480</ele>
        <time>2012-04-17T20:34:04Z</time>
      </trkpt>
      <trkpt lat="45.23327" lon="5.57511">
        <ele>1480</ele>
        <time>2012-04-17T20:34:13Z</time>
      </trkpt>
      <trkpt lat="45.23344" lon="5.57524">
        <ele>1483</ele>
        <time>2012-04-17T20:34:18Z</time>
      </trkpt>
      <trkpt lat="45.2337" lon="5.57537">
        <ele>1484</ele>
        <time>2012-04-17T20:34:25Z</time>
      </trkpt>
      <trkpt lat="45.23385" lon="5.57541">
        <ele>1484</ele>
        <time>2012-04-17T20:34:29Z</time>
      </trkpt>
      <trkpt lat="45.23398" lon="5.57543">
        <ele>1485</ele>
        <time>2012-04-17T20:34:32Z</time>
      </trkpt>
      <trkpt lat="45.2343" lon="5.57552">
        <ele>1493</ele>
        <time>2012-04-17T20:34:41Z</time>
      </trkpt>
      <trkpt lat="45.23445" lon="5.57565">
        <ele>1493</ele>
        <time>2012-04-17T20:34:45Z</time>
      </trkpt>
      <trkpt lat="45.23454" lon="5.57571">
        <ele>1494</ele>
        <time>2012-04-17T20:34:47Z</time>
      </trkpt>
      <trkpt lat="45.23475" lon="5.57578">
        <ele>1497</ele>
        <time>2012-04-17T20:34:53Z</time>
      </trkpt>
      <trkpt lat="45.23486" lon="5.5758">
        <ele>1498</ele>
        <time>2012-04-17T20:34:56Z</time>
      </trkpt>
      <trkpt lat="45.23496" lon="5.57584">
        <ele>1498</ele>
        <time>2012-04-17T20:34:59Z</time>
      </trkpt>
      <trkpt lat="45.23505" lon="5.57586">
        <ele>1500</ele>
        <time>2012-04-17T20:35:01Z</time>
      </trkpt>
      <trkpt lat="45.2351" lon="5.57594">
        <ele>1501</ele>
        <time>2012-04-17T20:35:03Z</time>
      </trkpt>
      <trkpt lat="45.23514" lon="5.57601">
        <ele>1502</ele>
        <time>2012-04-17T20:35:04Z</time>
      </trkpt>
      <trkpt lat="45.23516" lon="5.57606">
        <ele>1502</ele>
        <time>2012-04-17T20:35:05Z</time>
      </trkpt>
      <trkpt lat="45.2352" lon="5.57608">
        <ele>1502</ele>
        <time>2012-04-17T20:35:06Z</time>
      </trkpt>
      <trkpt lat="45.23522" lon="5.57616">
        <ele>1502</ele>
        <time>2012-04-17T20:35:07Z</time>
      </trkpt>
      <trkpt lat="45.23526" lon="5.57636">
        <ele>1501</ele>
        <time>2012-04-17T20:35:10Z</time>
      </trkpt>
      <trkpt lat="45.23529" lon="5.5764">
        <ele>1501</ele>
        <time>2012-04-17T20:35:11Z</time>
      </trkpt>
      <trkpt lat="45.23533" lon="5.57644">
        <ele>1501</ele>
        <time>2012-04-17T20:35:12Z</time>
      </trkpt>
      <trkpt lat="45.23537" lon="5.57648">
        <ele>1501</ele>
        <time>2012-04-17T20:35:13Z</time>
      </trkpt>
      <trkpt lat="45.23541" lon="5.57659">
        <ele>1501</ele>
        <time>2012-04-17T20:35:15Z</time>
      </trkpt>
      <trkpt lat="45.23554" lon="5.57657">
        <ele>1503</ele>
        <time>2012-04-17T20:35:18Z</time>
      </trkpt>
      <trkpt lat="45.23565" lon="5.57657">
        <ele>1503</ele>
        <time>2012-04-17T20:35:20Z</time>
      </trkpt>
      <trkpt lat="45.23593" lon="5.57685">
        <ele>1504</ele>
        <time>2012-04-17T20:35:29Z</time>
      </trkpt>
      <trkpt lat="45.23614" lon="5.57691">
        <ele>1505</ele>
        <time>2012-04-17T20:35:35Z</time>
      </trkpt>
      <trkpt lat="45.23627" lon="5.57706">
        <ele>1506</ele>
        <time>2012-04-17T20:35:39Z</time>
      </trkpt>
      <trkpt lat="45.23638" lon="5.57709">
        <ele>1507</ele>
        <time>2012-04-17T20:35:42Z</time>
      </trkpt>
      <trkpt lat="45.23647" lon="5.57702">
        <ele>1508</ele>
        <time>2012-04-17T20:35:44Z</time>
      </trkpt>
      <trkpt lat="45.23655" lon="5.57696">
        <ele>1509</ele>
        <time>2012-04-17T20:35:46Z</time>
      </trkpt>
      <trkpt lat="45.23664" lon="5.57694">
        <ele>1510</ele>
        <time>2012-04-17T20:35:48Z</time>
      </trkpt>
      <trkpt lat="45.23672" lon="5.57696">
        <ele>1518</ele>
        <time>2012-04-17T20:35:50Z</time>
      </trkpt>
      <trkpt lat="45.23685" lon="5.57698">
        <ele>1518</ele>
        <time>2012-04-17T20:35:53Z</time>
      </trkpt>
      <trkpt lat="45.23696" lon="5.57696">
        <ele>1519</ele>
        <time>2012-04-17T20:35:56Z</time>
      </trkpt>
      <trkpt lat="45.23705" lon="5.57696">
        <ele>1519</ele>
        <time>2012-04-17T20:35:58Z</time>
      </trkpt>
      <trkpt lat="45.23711" lon="5.57702">
        <ele>1519</ele>
        <time>2012-04-17T20:36:00Z</time>
      </trkpt>
      <trkpt lat="45.23724" lon="5.57706">
        <ele>1520</ele>
        <time>2012-04-17T20:36:03Z</time>
      </trkpt>
      <trkpt lat="45.23735" lon="5.57709">
        <ele>1520</ele>
        <time>2012-04-17T20:36:06Z</time>
      </trkpt>
      <trkpt lat="45.23756" lon="5.57719">
        <ele>1526</ele>
        <time>2012-04-17T20:36:12Z</time>
      </trkpt>
      <trkpt lat="45.23767" lon="5.57732">
        <ele>1525</ele>
        <time>2012-04-17T20:36:15Z</time>
      </trkpt>
      <trkpt lat="45.23782" lon="5.57734">
        <ele>1526</ele>
        <time>2012-04-17T20:36:19Z</time>
      </trkpt>
      <trkpt lat="45.2379" lon="5.5773">
        <ele>1526</ele>
        <time>2012-04-17T20:36:21Z</time>
      </trkpt>
      <trkpt lat="45.23801" lon="5.5773">
        <ele>1527</ele>
        <time>2012-04-17T20:36:23Z</time>
      </trkpt>
      <trkpt lat="45.23805" lon="5.57741">
        <ele>1526</ele>
        <time>2012-04-17T20:36:25Z</time>
      </trkpt>
      <trkpt lat="45.23818" lon="5.57743">
        <ele>1525</ele>
        <time>2012-04-17T20:36:28Z</time>
      </trkpt>
      <trkpt lat="45.23833" lon="5.57747">
        <ele>1524</ele>
        <time>2012-04-17T20:36:32Z</time>
      </trkpt>
      <trkpt lat="45.23848" lon="5.57756">
        <ele>1519</ele>
        <time>2012-04-17T20:36:36Z</time>
      </trkpt>
      <trkpt lat="45.2387" lon="5.57758">
        <ele>1518</ele>
        <time>2012-04-17T20:36:41Z</time>
      </trkpt>
      <trkpt lat="45.23881" lon="5.5776">
        <ele>1519</ele>
        <time>2012-04-17T20:36:44Z</time>
      </trkpt>
      <trkpt lat="45.23887" lon="5.57762">
        <ele>1519</ele>
        <time>2012-04-17T20:36:45Z</time>
      </trkpt>
      <trkpt lat="45.23893" lon="5.57771">
        <ele>1518</ele>
        <time>2012-04-17T20:36:47Z</time>
      </trkpt>
      <trkpt lat="45.23896" lon="5.57784">
        <ele>1517</ele>
        <time>2012-04-17T20:36:49Z</time>
      </trkpt>
      <trkpt lat="45.23893" lon="5.57797">
        <ele>1514</ele>
        <time>2012-04-17T20:36:51Z</time>
      </trkpt>
      <trkpt lat="45.23896" lon="5.57805">
        <ele>1513</ele>
        <time>2012-04-17T20:36:52Z</time>
      </trkpt>
      <trkpt lat="45.239" lon="5.57809">
        <ele>1512</ele>
        <time>2012-04-17T20:36:53Z</time>
      </trkpt>
      <trkpt lat="45.23913" lon="5.57812">
        <ele>1512</ele>
        <time>2012-04-17T20:36:56Z</time>
      </trkpt>
      <trkpt lat="45.23932" lon="5.57812">
        <ele>1511</ele>
        <time>2012-04-17T20:37:01Z</time>
      </trkpt>
      <trkpt lat="45.23949" lon="5.57803">
        <ele>1512</ele>
        <time>2012-04-17T20:37:06Z</time>
      </trkpt>
      <trkpt lat="45.23954" lon="5.57799">
        <ele>1512</ele>
        <time>2012-04-17T20:37:07Z</time>
      </trkpt>
      <trkpt lat="45.23962" lon="5.57792">
        <ele>1513</ele>
        <time>2012-04-17T20:37:09Z</time>
      </trkpt>
      <trkpt lat="45.23973" lon="5.57781">
        <ele>1514</ele>
        <time>2012-04-17T20:37:12Z</time>
      </trkpt>
      <trkpt lat="45.23979" lon="5.57769">
        <ele>1516</ele>
        <time>2012-04-17T20:37:15Z</time>
      </trkpt>
      <trkpt lat="45.23988" lon="5.57758">
        <ele>1518</ele>
        <time>2012-04-17T20:37:18Z</time>
      </trkpt>
      <trkpt lat="45.23996" lon="5.57751">
        <ele>1520</ele>
        <time>2012-04-17T20:37:20Z</time>
      </trkpt>
      <trkpt lat="45.24007" lon="5.57745">
        <ele>1524</ele>
        <time>2012-04-17T20:37:23Z</time>
      </trkpt>
      <trkpt lat="45.24016" lon="5.57747">
        <ele>1526</ele>
        <time>2012-04-17T20:37:25Z</time>
      </trkpt>
      <trkpt lat="45.24024" lon="5.57756">
        <ele>1516</ele>
        <time>2012-04-17T20:37:27Z</time>
      </trkpt>
      <trkpt lat="45.24035" lon="5.57766">
        <ele>1515</ele>
        <time>2012-04-17T20:37:30Z</time>
      </trkpt>
      <trkpt lat="45.24048" lon="5.57775">
        <ele>1515</ele>
        <time>2012-04-17T20:37:33Z</time>
      </trkpt>
      <trkpt lat="45.24061" lon="5.57781">
        <ele>1515</ele>
        <time>2012-04-17T20:37:36Z</time>
      </trkpt>
      <trkpt lat="45.24071" lon="5.57799">
        <ele>1511</ele>
        <time>2012-04-17T20:37:40Z</time>
      </trkpt>
      <trkpt lat="45.24091" lon="5.57814">
        <ele>1514</ele>
        <time>2012-04-17T20:37:46Z</time>
      </trkpt>
      <trkpt lat="45.24106" lon="5.57824">
        <ele>1515</ele>
        <time>2012-04-17T20:37:50Z</time>
      </trkpt>
      <trkpt lat="45.24117" lon="5.57833">
        <ele>1517</ele>
        <time>2012-04-17T20:37:53Z</time>
      </trkpt>
      <trkpt lat="45.24127" lon="5.57846">
        <ele>1507</ele>
        <time>2012-04-17T20:37:56Z</time>
      </trkpt>
      <trkpt lat="45.24136" lon="5.57854">
        <ele>1507</ele>
        <time>2012-04-17T20:37:58Z</time>
      </trkpt>
      <trkpt lat="45.24142" lon="5.57863">
        <ele>1507</ele>
        <time>2012-04-17T20:38:00Z</time>
      </trkpt>
      <trkpt lat="45.24147" lon="5.57872">
        <ele>1507</ele>
        <time>2012-04-17T20:38:02Z</time>
      </trkpt>
      <trkpt lat="45.24157" lon="5.57882">
        <ele>1506</ele>
        <time>2012-04-17T20:38:05Z</time>
      </trkpt>
      <trkpt lat="45.24166" lon="5.57887">
        <ele>1507</ele>
        <time>2012-04-17T20:38:07Z</time>
      </trkpt>
      <trkpt lat="45.24174" lon="5.57893">
        <ele>1519</ele>
        <time>2012-04-17T20:38:09Z</time>
      </trkpt>
      <trkpt lat="45.24179" lon="5.579">
        <ele>1518</ele>
        <time>2012-04-17T20:38:10Z</time>
      </trkpt>
      <trkpt lat="45.24185" lon="5.5791">
        <ele>1518</ele>
        <time>2012-04-17T20:38:12Z</time>
      </trkpt>
      <trkpt lat="45.24187" lon="5.57921">
        <ele>1517</ele>
        <time>2012-04-17T20:38:14Z</time>
      </trkpt>
      <trkpt lat="45.24187" lon="5.57927">
        <ele>1518</ele>
        <time>2012-04-17T20:38:15Z</time>
      </trkpt>
      <trkpt lat="45.24183" lon="5.57949">
        <ele>1520</ele>
        <time>2012-04-17T20:38:19Z</time>
      </trkpt>
      <trkpt lat="45.24179" lon="5.57979">
        <ele>1518</ele>
        <time>2012-04-17T20:38:24Z</time>
      </trkpt>
      <trkpt lat="45.24174" lon="5.58">
        <ele>1515</ele>
        <time>2012-04-17T20:38:28Z</time>
      </trkpt>
      <trkpt lat="45.2417" lon="5.5802">
        <ele>1521</ele>
        <time>2012-04-17T20:38:31Z</time>
      </trkpt>
      <trkpt lat="45.24168" lon="5.58039">
        <ele>1525</ele>
        <time>2012-04-17T20:38:34Z</time>
      </trkpt>
      <trkpt lat="45.24166" lon="5.58058">
        <ele>1507</ele>
        <time>2012-04-17T20:38:37Z</time>
      </trkpt>
      <trkpt lat="45.24157" lon="5.58073">
        <ele>1510</ele>
        <time>2012-04-17T20:38:40Z</time>
      </trkpt>
      <trkpt lat="45.24151" lon="5.58093">
        <ele>1512</ele>
        <time>2012-04-17T20:38:44Z</time>
      </trkpt>
      <trkpt lat="45.24148" lon="5.58109">
        <ele>1511</ele>
        <time>2012-04-17T20:38:47Z</time>
      </trkpt>
      <trkpt lat="45.24142" lon="5.58136">
        <ele>1511</ele>
        <time>2012-04-17T20:38:52Z</time>
      </trkpt>
      <trkpt lat="45.24134" lon="5.58153">
        <ele>1511</ele>
        <time>2012-04-17T20:38:56Z</time>
      </trkpt>
      <trkpt lat="45.24127" lon="5.58168">
        <ele>1513</ele>
        <time>2012-04-17T20:38:59Z</time>
      </trkpt>
      <trkpt lat="45.24127" lon="5.58183">
        <ele>1513</ele>
        <time>2012-04-17T20:39:01Z</time>
      </trkpt>
      <trkpt lat="45.24125" lon="5.58206">
        <ele>1513</ele>
        <time>2012-04-17T20:39:05Z</time>
      </trkpt>
      <trkpt lat="45.24127" lon="5.58224">
        <ele>1514</ele>
        <time>2012-04-17T20:39:08Z</time>
      </trkpt>
      <trkpt lat="45.24129" lon="5.58234">
        <ele>1515</ele>
        <time>2012-04-17T20:39:10Z</time>
      </trkpt>
      <trkpt lat="45.24127" lon="5.58249">
        <ele>1514</ele>
        <time>2012-04-17T20:39:12Z</time>
      </trkpt>
      <trkpt lat="45.24127" lon="5.58266">
        <ele>1514</ele>
        <time>2012-04-17T20:39:15Z</time>
      </trkpt>
      <trkpt lat="45.24127" lon="5.58281">
        <ele>1514</ele>
        <time>2012-04-17T20:39:17Z</time>
      </trkpt>
      <trkpt lat="45.24125" lon="5.58296">
        <ele>1513</ele>
        <time>2012-04-17T20:39:19Z</time>
      </trkpt>
      <trkpt lat="45.24127" lon="5.58312">
        <ele>1514</ele>
        <time>2012-04-17T20:39:21Z</time>
      </trkpt>
      <trkpt lat="45.24132" lon="5.58327">
        <ele>1515</ele>
        <time>2012-04-17T20:39:24Z</time>
      </trkpt>
      <trkpt lat="45.24134" lon="5.58337">
        <ele>1514</ele>
        <time>2012-04-17T20:39:26Z</time>
      </trkpt>
      <trkpt lat="45.2414" lon="5.5835">
        <ele>1516</ele>
        <time>2012-04-17T20:39:29Z</time>
      </trkpt>
      <trkpt lat="45.24144" lon="5.58363">
        <ele>1515</ele>
        <time>2012-04-17T20:39:31Z</time>
      </trkpt>
      <trkpt lat="45.24144" lon="5.58378">
        <ele>1514</ele>
        <time>2012-04-17T20:39:33Z</time>
      </trkpt>
      <trkpt lat="45.24144" lon="5.58402">
        <ele>1515</ele>
        <time>2012-04-17T20:39:37Z</time>
      </trkpt>
      <trkpt lat="45.2414" lon="5.58427">
        <ele>1516</ele>
        <time>2012-04-17T20:39:42Z</time>
      </trkpt>
      <trkpt lat="45.24138" lon="5.58442">
        <ele>1516</ele>
        <time>2012-04-17T20:39:44Z</time>
      </trkpt>
      <trkpt lat="45.24136" lon="5.58449">
        <ele>1516</ele>
        <time>2012-04-17T20:39:45Z</time>
      </trkpt>
      <trkpt lat="45.24129" lon="5.58462">
        <ele>1515</ele>
        <time>2012-04-17T20:39:48Z</time>
      </trkpt>
      <trkpt lat="45.24123" lon="5.58481">
        <ele>1515</ele>
        <time>2012-04-17T20:39:52Z</time>
      </trkpt>
      <trkpt lat="45.24119" lon="5.58496">
        <ele>1515</ele>
        <time>2012-04-17T20:39:55Z</time>
      </trkpt>
      <trkpt lat="45.2411" lon="5.58502">
        <ele>1521</ele>
        <time>2012-04-17T20:39:57Z</time>
      </trkpt>
      <trkpt lat="45.24099" lon="5.58505">
        <ele>1517</ele>
        <time>2012-04-17T20:40:00Z</time>
      </trkpt>
      <trkpt lat="45.24087" lon="5.58509">
        <ele>1513</ele>
        <time>2012-04-17T20:40:03Z</time>
      </trkpt>
      <trkpt lat="45.24074" lon="5.58511">
        <ele>1510</ele>
        <time>2012-04-17T20:40:06Z</time>
      </trkpt>
      <trkpt lat="45.24063" lon="5.58511">
        <ele>1511</ele>
        <time>2012-04-17T20:40:08Z</time>
      </trkpt>
      <trkpt lat="45.24052" lon="5.58511">
        <ele>1511</ele>
        <time>2012-04-17T20:40:10Z</time>
      </trkpt>
      <trkpt lat="45.24033" lon="5.58507">
        <ele>1510</ele>
        <time>2012-04-17T20:40:15Z</time>
      </trkpt>
      <trkpt lat="45.2402" lon="5.58507">
        <ele>1508</ele>
        <time>2012-04-17T20:40:18Z</time>
      </trkpt>
      <trkpt lat="45.24001" lon="5.58511">
        <ele>1505</ele>
        <time>2012-04-17T20:40:23Z</time>
      </trkpt>
      <trkpt lat="45.23977" lon="5.58528">
        <ele>1503</ele>
        <time>2012-04-17T20:40:30Z</time>
      </trkpt>
      <trkpt lat="45.23962" lon="5.58541">
        <ele>1504</ele>
        <time>2012-04-17T20:40:34Z</time>
      </trkpt>
      <trkpt lat="45.23943" lon="5.5856">
        <ele>1505</ele>
        <time>2012-04-17T20:40:40Z</time>
      </trkpt>
      <trkpt lat="45.2393" lon="5.58573">
        <ele>1506</ele>
        <time>2012-04-17T20:40:44Z</time>
      </trkpt>
      <trkpt lat="45.23913" lon="5.58584">
        <ele>1510</ele>
        <time>2012-04-17T20:40:49Z</time>
      </trkpt>
      <trkpt lat="45.23896" lon="5.58593">
        <ele>1513</ele>
        <time>2012-04-17T20:40:54Z</time>
      </trkpt>
      <trkpt lat="45.23881" lon="5.5861">
        <ele>1514</ele>
        <time>2012-04-17T20:40:59Z</time>
      </trkpt>
      <trkpt lat="45.23844" lon="5.58614">
        <ele>1512</ele>
        <time>2012-04-17T20:41:09Z</time>
      </trkpt>
      <trkpt lat="45.2382" lon="5.58629">
        <ele>1506</ele>
        <time>2012-04-17T20:41:16Z</time>
      </trkpt>
      <trkpt lat="45.23795" lon="5.58661">
        <ele>1508</ele>
        <time>2012-04-17T20:41:25Z</time>
      </trkpt>
      <trkpt lat="45.23775" lon="5.58698">
        <ele>1521</ele>
        <time>2012-04-17T20:41:34Z</time>
      </trkpt>
      <trkpt lat="45.23767" lon="5.58713">
        <ele>1522</ele>
        <time>2012-04-17T20:41:37Z</time>
      </trkpt>
      <trkpt lat="45.2376" lon="5.58743">
        <ele>1522</ele>
        <time>2012-04-17T20:41:43Z</time>
      </trkpt>
      <trkpt lat="45.23756" lon="5.58779">
        <ele>1530</ele>
        <time>2012-04-17T20:41:50Z</time>
      </trkpt>
      <trkpt lat="45.23758" lon="5.58809">
        <ele>1532</ele>
        <time>2012-04-17T20:41:55Z</time>
      </trkpt>
      <trkpt lat="45.23763" lon="5.58826">
        <ele>1531</ele>
        <time>2012-04-17T20:41:58Z</time>
      </trkpt>
      <trkpt lat="45.23769" lon="5.58846">
        <ele>1535</ele>
        <time>2012-04-17T20:42:02Z</time>
      </trkpt>
      <trkpt lat="45.23771" lon="5.58861">
        <ele>1537</ele>
        <time>2012-04-17T20:42:04Z</time>
      </trkpt>
      <trkpt lat="45.23767" lon="5.58887">
        <ele>1538</ele>
        <time>2012-04-17T20:42:09Z</time>
      </trkpt>
      <trkpt lat="45.23754" lon="5.58906">
        <ele>1538</ele>
        <time>2012-04-17T20:42:14Z</time>
      </trkpt>
      <trkpt lat="45.23711" lon="5.58947">
        <ele>1534</ele>
        <time>2012-04-17T20:42:28Z</time>
      </trkpt>
      <trkpt lat="45.23692" lon="5.58975">
        <ele>1535</ele>
        <time>2012-04-17T20:42:35Z</time>
      </trkpt>
      <trkpt lat="45.23672" lon="5.58992">
        <ele>1537</ele>
        <time>2012-04-17T20:42:41Z</time>
      </trkpt>
      <trkpt lat="45.23657" lon="5.58998">
        <ele>1532</ele>
        <time>2012-04-17T20:42:45Z</time>
      </trkpt>
      <trkpt lat="45.23649" lon="5.59007">
        <ele>1538</ele>
        <time>2012-04-17T20:42:47Z</time>
      </trkpt>
      <trkpt lat="45.2364" lon="5.5903">
        <ele>1539</ele>
        <time>2012-04-17T20:42:52Z</time>
      </trkpt>
      <trkpt lat="45.23627" lon="5.59043">
        <ele>1539</ele>
        <time>2012-04-17T20:42:56Z</time>
      </trkpt>
      <trkpt lat="45.23608" lon="5.59047">
        <ele>1539</ele>
        <time>2012-04-17T20:43:01Z</time>
      </trkpt>
      <trkpt lat="45.23593" lon="5.5906">
        <ele>1541</ele>
        <time>2012-04-17T20:43:05Z</time>
      </trkpt>
      <trkpt lat="45.23582" lon="5.5908">
        <ele>1544</ele>
        <time>2012-04-17T20:43:09Z</time>
      </trkpt>
      <trkpt lat="45.2358" lon="5.5909">
        <ele>1547</ele>
        <time>2012-04-17T20:43:11Z</time>
      </trkpt>
      <trkpt lat="45.23584" lon="5.59095">
        <ele>1549</ele>
        <time>2012-04-17T20:43:12Z</time>
      </trkpt>
      <trkpt lat="45.23591" lon="5.59095">
        <ele>1549</ele>
        <time>2012-04-17T20:43:13Z</time>
      </trkpt>
      <trkpt lat="45.23597" lon="5.59093">
        <ele>1549</ele>
        <time>2012-04-17T20:43:14Z</time>
      </trkpt>
      <trkpt lat="45.23612" lon="5.59088">
        <ele>1550</ele>
        <time>2012-04-17T20:43:18Z</time>
      </trkpt>
      <trkpt lat="45.23632" lon="5.59088">
        <ele>1551</ele>
        <time>2012-04-17T20:43:23Z</time>
      </trkpt>
      <trkpt lat="45.2364" lon="5.5909">
        <ele>1551</ele>
        <time>2012-04-17T20:43:25Z</time>
      </trkpt>
      <trkpt lat="45.23642" lon="5.59097">
        <ele>1551</ele>
        <time>2012-04-17T20:43:26Z</time>
      </trkpt>
      <trkpt lat="45.23642" lon="5.59112">
        <ele>1552</ele>
        <time>2012-04-17T20:43:28Z</time>
      </trkpt>
      <trkpt lat="45.23642" lon="5.59123">
        <ele>1552</ele>
        <time>2012-04-17T20:43:30Z</time>
      </trkpt>
      <trkpt lat="45.23636" lon="5.59127">
        <ele>1552</ele>
        <time>2012-04-17T20:43:31Z</time>
      </trkpt>
      <trkpt lat="45.23617" lon="5.59131">
        <ele>1553</ele>
        <time>2012-04-17T20:43:36Z</time>
      </trkpt>
      <trkpt lat="45.23602" lon="5.59144">
        <ele>1555</ele>
        <time>2012-04-17T20:43:40Z</time>
      </trkpt>
      <trkpt lat="45.23589" lon="5.59161">
        <ele>1559</ele>
        <time>2012-04-17T20:43:44Z</time>
      </trkpt>
      <trkpt lat="45.23576" lon="5.59172">
        <ele>1563</ele>
        <time>2012-04-17T20:43:48Z</time>
      </trkpt>
      <trkpt lat="45.23567" lon="5.59174">
        <ele>1564</ele>
        <time>2012-04-17T20:43:50Z</time>
      </trkpt>
      <trkpt lat="45.23563" lon="5.59183">
        <ele>1564</ele>
        <time>2012-04-17T20:43:52Z</time>
      </trkpt>
      <trkpt lat="45.23565" lon="5.59189">
        <ele>1565</ele>
        <time>2012-04-17T20:43:53Z</time>
      </trkpt>
      <trkpt lat="45.23576" lon="5.59189">
        <ele>1565</ele>
        <time>2012-04-17T20:43:55Z</time>
      </trkpt>
      <trkpt lat="45.23582" lon="5.59189">
        <ele>1564</ele>
        <time>2012-04-17T20:43:56Z</time>
      </trkpt>
      <trkpt lat="45.23589" lon="5.592">
        <ele>1563</ele>
        <time>2012-04-17T20:43:58Z</time>
      </trkpt>
      <trkpt lat="45.23589" lon="5.59208">
        <ele>1564</ele>
        <time>2012-04-17T20:43:59Z</time>
      </trkpt>
      <trkpt lat="45.23584" lon="5.59219">
        <ele>1565</ele>
        <time>2012-04-17T20:44:01Z</time>
      </trkpt>
      <trkpt lat="45.23567" lon="5.59241">
        <ele>1569</ele>
        <time>2012-04-17T20:44:07Z</time>
      </trkpt>
      <trkpt lat="45.23557" lon="5.59247">
        <ele>1569</ele>
        <time>2012-04-17T20:44:10Z</time>
      </trkpt>
      <trkpt lat="45.23539" lon="5.59247">
        <ele>1569</ele>
        <time>2012-04-17T20:44:14Z</time>
      </trkpt>
      <trkpt lat="45.23526" lon="5.59243">
        <ele>1569</ele>
        <time>2012-04-17T20:44:17Z</time>
      </trkpt>
      <trkpt lat="45.23518" lon="5.59249">
        <ele>1570</ele>
        <time>2012-04-17T20:44:19Z</time>
      </trkpt>
      <trkpt lat="45.23514" lon="5.59256">
        <ele>1575</ele>
        <time>2012-04-17T20:44:20Z</time>
      </trkpt>
      <trkpt lat="45.23503" lon="5.59269">
        <ele>1575</ele>
        <time>2012-04-17T20:44:23Z</time>
      </trkpt>
      <trkpt lat="45.23484" lon="5.59264">
        <ele>1576</ele>
        <time>2012-04-17T20:44:28Z</time>
      </trkpt>
      <trkpt lat="45.23477" lon="5.59264">
        <ele>1577</ele>
        <time>2012-04-17T20:44:29Z</time>
      </trkpt>
      <trkpt lat="45.23464" lon="5.59264">
        <ele>1577</ele>
        <time>2012-04-17T20:44:32Z</time>
      </trkpt>
      <trkpt lat="45.23456" lon="5.59262">
        <ele>1577</ele>
        <time>2012-04-17T20:44:34Z</time>
      </trkpt>
      <trkpt lat="45.23441" lon="5.59247">
        <ele>1572</ele>
        <time>2012-04-17T20:44:39Z</time>
      </trkpt>
      <trkpt lat="45.23426" lon="5.59232">
        <ele>1572</ele>
        <time>2012-04-17T20:44:44Z</time>
      </trkpt>
      <trkpt lat="45.23417" lon="5.5923">
        <ele>1572</ele>
        <time>2012-04-17T20:44:46Z</time>
      </trkpt>
      <trkpt lat="45.23402" lon="5.59234">
        <ele>1573</ele>
        <time>2012-04-17T20:44:50Z</time>
      </trkpt>
      <trkpt lat="45.23391" lon="5.59243">
        <ele>1573</ele>
        <time>2012-04-17T20:44:53Z</time>
      </trkpt>
      <trkpt lat="45.23379" lon="5.59248">
        <ele>1573</ele>
        <time>2012-04-17T20:44:56Z</time>
      </trkpt>
      <trkpt lat="45.23379" lon="5.59283">
        <ele>1576.2031</ele>
        <time>2012-04-17T20:45:02Z</time>
      </trkpt>
      <trkpt lat="45.23537" lon="5.59419">
        <ele>1585.6523</ele>
        <time>2012-04-17T20:45:53Z</time>
      </trkpt>
      <trkpt lat="45.23535" lon="5.59425">
        <ele>1592</ele>
        <time>2012-04-17T20:45:54Z</time>
      </trkpt>
      <trkpt lat="45.23548" lon="5.59444">
        <ele>1593</ele>
        <time>2012-04-17T20:45:59Z</time>
      </trkpt>
      <trkpt lat="45.23561" lon="5.5947">
        <ele>1594</ele>
        <time>2012-04-17T20:46:05Z</time>
      </trkpt>
      <trkpt lat="45.23548" lon="5.59485">
        <ele>1595</ele>
        <time>2012-04-17T20:46:09Z</time>
      </trkpt>
      <trkpt lat="45.23505" lon="5.595">
        <ele>1606</ele>
        <time>2012-04-17T20:46:21Z</time>
      </trkpt>
      <trkpt lat="45.23516" lon="5.5952">
        <ele>1606</ele>
        <time>2012-04-17T20:46:25Z</time>
      </trkpt>
      <trkpt lat="45.23533" lon="5.5953">
        <ele>1606</ele>
        <time>2012-04-17T20:46:30Z</time>
      </trkpt>
      <trkpt lat="45.23533" lon="5.59547">
        <ele>1607</ele>
        <time>2012-04-17T20:46:33Z</time>
      </trkpt>
      <trkpt lat="45.23539" lon="5.59565">
        <ele>1608</ele>
        <time>2012-04-17T20:46:36Z</time>
      </trkpt>
      <trkpt lat="45.23546" lon="5.59578">
        <ele>1607</ele>
        <time>2012-04-17T20:46:39Z</time>
      </trkpt>
      <trkpt lat="45.2355" lon="5.59586">
        <ele>1597</ele>
        <time>2012-04-17T20:46:41Z</time>
      </trkpt>
      <trkpt lat="45.2355" lon="5.5959">
        <ele>1596</ele>
        <time>2012-04-17T20:46:41Z</time>
      </trkpt>
      <trkpt lat="45.2355" lon="5.59597">
        <ele>1595</ele>
        <time>2012-04-17T20:46:42Z</time>
      </trkpt>
      <trkpt lat="45.23548" lon="5.59616">
        <ele>1591</ele>
        <time>2012-04-17T20:46:45Z</time>
      </trkpt>
      <trkpt lat="45.23544" lon="5.59623">
        <ele>1590</ele>
        <time>2012-04-17T20:46:46Z</time>
      </trkpt>
      <trkpt lat="45.23544" lon="5.59627">
        <ele>1589</ele>
        <time>2012-04-17T20:46:46Z</time>
      </trkpt>
      <trkpt lat="45.23541" lon="5.59635">
        <ele>1588</ele>
        <time>2012-04-17T20:46:47Z</time>
      </trkpt>
      <trkpt lat="45.23533" lon="5.5965">
        <ele>1592</ele>
        <time>2012-04-17T20:46:50Z</time>
      </trkpt>
      <trkpt lat="45.23531" lon="5.59655">
        <ele>1594</ele>
        <time>2012-04-17T20:46:51Z</time>
      </trkpt>
      <trkpt lat="45.23531" lon="5.59672">
        <ele>1555</ele>
        <time>2012-04-17T20:46:54Z</time>
      </trkpt>
      <trkpt lat="45.23533" lon="5.59693">
        <ele>1541</ele>
        <time>2012-04-17T20:46:58Z</time>
      </trkpt>
      <trkpt lat="45.23537" lon="5.59702">
        <ele>1532</ele>
        <time>2012-04-17T20:47:00Z</time>
      </trkpt>
      <trkpt lat="45.23539" lon="5.59708">
        <ele>1526</ele>
        <time>2012-04-17T20:47:01Z</time>
      </trkpt>
      <trkpt lat="45.23539" lon="5.59717">
        <ele>1522</ele>
        <time>2012-04-17T20:47:02Z</time>
      </trkpt>
      <trkpt lat="45.23535" lon="5.59732">
        <ele>1522</ele>
        <time>2012-04-17T20:47:05Z</time>
      </trkpt>
      <trkpt lat="45.23533" lon="5.59735">
        <ele>1526</ele>
        <time>2012-04-17T20:47:05Z</time>
      </trkpt>
      <trkpt lat="45.23529" lon="5.59745">
        <ele>1531</ele>
        <time>2012-04-17T20:47:07Z</time>
      </trkpt>
      <trkpt lat="45.23524" lon="5.59751">
        <ele>1487</ele>
        <time>2012-04-17T20:47:08Z</time>
      </trkpt>
      <trkpt lat="45.23524" lon="5.59762">
        <ele>1479</ele>
        <time>2012-04-17T20:47:10Z</time>
      </trkpt>
      <trkpt lat="45.23524" lon="5.59766">
        <ele>1474</ele>
        <time>2012-04-17T20:47:10Z</time>
      </trkpt>
      <trkpt lat="45.23522" lon="5.59777">
        <ele>1463</ele>
        <time>2012-04-17T20:47:12Z</time>
      </trkpt>
      <trkpt lat="45.23518" lon="5.59781">
        <ele>1462</ele>
        <time>2012-04-17T20:47:13Z</time>
      </trkpt>
      <trkpt lat="45.23516" lon="5.59786">
        <ele>1458</ele>
        <time>2012-04-17T20:47:14Z</time>
      </trkpt>
      <trkpt lat="45.23516" lon="5.59799">
        <ele>1442</ele>
        <time>2012-04-17T20:47:16Z</time>
      </trkpt>
      <trkpt lat="45.23511" lon="5.59805">
        <ele>1437</ele>
        <time>2012-04-17T20:47:17Z</time>
      </trkpt>
      <trkpt lat="45.23507" lon="5.59811">
        <ele>1432</ele>
        <time>2012-04-17T20:47:18Z</time>
      </trkpt>
      <trkpt lat="45.23499" lon="5.59818">
        <ele>1484</ele>
        <time>2012-04-17T20:47:20Z</time>
      </trkpt>
      <trkpt lat="45.23494" lon="5.5982">
        <ele>1481</ele>
        <time>2012-04-17T20:47:21Z</time>
      </trkpt>
      <trkpt lat="45.23484" lon="5.59826">
        <ele>1493</ele>
        <time>2012-04-17T20:47:24Z</time>
      </trkpt>
      <trkpt lat="45.23475" lon="5.59824">
        <ele>1517</ele>
        <time>2012-04-17T20:47:26Z</time>
      </trkpt>
      <trkpt lat="45.23471" lon="5.59824">
        <ele>1526</ele>
        <time>2012-04-17T20:47:27Z</time>
      </trkpt>
      <trkpt lat="45.23469" lon="5.59829">
        <ele>1528</ele>
        <time>2012-04-17T20:47:28Z</time>
      </trkpt>
      <trkpt lat="45.23466" lon="5.59839">
        <ele>1452</ele>
        <time>2012-04-17T20:47:30Z</time>
      </trkpt>
      <trkpt lat="45.23445" lon="5.59841">
        <ele>1490</ele>
        <time>2012-04-17T20:47:35Z</time>
      </trkpt>
      <trkpt lat="45.23436" lon="5.59844">
        <ele>1509</ele>
        <time>2012-04-17T20:47:37Z</time>
      </trkpt>
      <trkpt lat="45.2343" lon="5.59844">
        <ele>1528</ele>
        <time>2012-04-17T20:47:38Z</time>
      </trkpt>
      <trkpt lat="45.23421" lon="5.59844">
        <ele>1553</ele>
        <time>2012-04-17T20:47:40Z</time>
      </trkpt>
      <trkpt lat="45.23417" lon="5.59841">
        <ele>1569</ele>
        <time>2012-04-17T20:47:41Z</time>
      </trkpt>
      <trkpt lat="45.23413" lon="5.59846">
        <ele>1588</ele>
        <time>2012-04-17T20:47:42Z</time>
      </trkpt>
      <trkpt lat="45.23406" lon="5.59846">
        <ele>1583</ele>
        <time>2012-04-17T20:47:43Z</time>
      </trkpt>
      <trkpt lat="45.23402" lon="5.59837">
        <ele>1588</ele>
        <time>2012-04-17T20:47:45Z</time>
      </trkpt>
      <trkpt lat="45.23393" lon="5.59833">
        <ele>1624</ele>
        <time>2012-04-17T20:47:47Z</time>
      </trkpt>
      <trkpt lat="45.23387" lon="5.59833">
        <ele>1624</ele>
        <time>2012-04-17T20:47:48Z</time>
      </trkpt>
      <trkpt lat="45.23385" lon="5.59829">
        <ele>1624</ele>
        <time>2012-04-17T20:47:49Z</time>
      </trkpt>
      <trkpt lat="45.23381" lon="5.59824">
        <ele>1624</ele>
        <time>2012-04-17T20:47:50Z</time>
      </trkpt>
      <trkpt lat="45.23378" lon="5.5982">
        <ele>1624</ele>
        <time>2012-04-17T20:47:51Z</time>
      </trkpt>
      <trkpt lat="45.23376" lon="5.59816">
        <ele>1624</ele>
        <time>2012-04-17T20:47:52Z</time>
      </trkpt>
      <trkpt lat="45.23376" lon="5.59809">
        <ele>1624</ele>
        <time>2012-04-17T20:47:53Z</time>
      </trkpt>
      <trkpt lat="45.23368" lon="5.59796">
        <ele>1624</ele>
        <time>2012-04-17T20:47:56Z</time>
      </trkpt>
      <trkpt lat="45.23357" lon="5.59779">
        <ele>1625</ele>
        <time>2012-04-17T20:48:00Z</time>
      </trkpt>
      <trkpt lat="45.23348" lon="5.59758">
        <ele>1626</ele>
        <time>2012-04-17T20:48:04Z</time>
      </trkpt>
      <trkpt lat="45.23344" lon="5.59753">
        <ele>1626</ele>
        <time>2012-04-17T20:48:05Z</time>
      </trkpt>
      <trkpt lat="45.23342" lon="5.59749">
        <ele>1627</ele>
        <time>2012-04-17T20:48:06Z</time>
      </trkpt>
      <trkpt lat="45.2334" lon="5.59743">
        <ele>1627</ele>
        <time>2012-04-17T20:48:07Z</time>
      </trkpt>
      <trkpt lat="45.23335" lon="5.59736">
        <ele>1628</ele>
        <time>2012-04-17T20:48:08Z</time>
      </trkpt>
      <trkpt lat="45.23323" lon="5.59723">
        <ele>1624</ele>
        <time>2012-04-17T20:48:12Z</time>
      </trkpt>
      <trkpt lat="45.2332" lon="5.59719">
        <ele>1623</ele>
        <time>2012-04-17T20:48:13Z</time>
      </trkpt>
      <trkpt lat="45.23318" lon="5.59713">
        <ele>1623</ele>
        <time>2012-04-17T20:48:14Z</time>
      </trkpt>
      <trkpt lat="45.23316" lon="5.59687">
        <ele>1624</ele>
        <time>2012-04-17T20:48:19Z</time>
      </trkpt>
      <trkpt lat="45.23314" lon="5.59676">
        <ele>1624</ele>
        <time>2012-04-17T20:48:21Z</time>
      </trkpt>
      <trkpt lat="45.23314" lon="5.5967">
        <ele>1625</ele>
        <time>2012-04-17T20:48:22Z</time>
      </trkpt>
      <trkpt lat="45.23308" lon="5.59659">
        <ele>1624</ele>
        <time>2012-04-17T20:48:24Z</time>
      </trkpt>
      <trkpt lat="45.23303" lon="5.59657">
        <ele>1624</ele>
        <time>2012-04-17T20:48:25Z</time>
      </trkpt>
      <trkpt lat="45.23293" lon="5.59648">
        <ele>1623</ele>
        <time>2012-04-17T20:48:28Z</time>
      </trkpt>
      <trkpt lat="45.23286" lon="5.59644">
        <ele>1622</ele>
        <time>2012-04-17T20:48:29Z</time>
      </trkpt>
      <trkpt lat="45.23269" lon="5.59627">
        <ele>1622</ele>
        <time>2012-04-17T20:48:34Z</time>
      </trkpt>
      <trkpt lat="45.23256" lon="5.59618">
        <ele>1621</ele>
        <time>2012-04-17T20:48:37Z</time>
      </trkpt>
      <trkpt lat="45.23252" lon="5.5961">
        <ele>1621</ele>
        <time>2012-04-17T20:48:39Z</time>
      </trkpt>
      <trkpt lat="45.23243" lon="5.59603">
        <ele>1617</ele>
        <time>2012-04-17T20:48:41Z</time>
      </trkpt>
      <trkpt lat="45.23237" lon="5.59595">
        <ele>1618</ele>
        <time>2012-04-17T20:48:43Z</time>
      </trkpt>
      <trkpt lat="45.23232" lon="5.59595">
        <ele>1617</ele>
        <time>2012-04-17T20:48:44Z</time>
      </trkpt>
      <trkpt lat="45.2323" lon="5.5959">
        <ele>1617</ele>
        <time>2012-04-17T20:48:45Z</time>
      </trkpt>
      <trkpt lat="45.23228" lon="5.59582">
        <ele>1618</ele>
        <time>2012-04-17T20:48:46Z</time>
      </trkpt>
      <trkpt lat="45.23222" lon="5.59571">
        <ele>1618</ele>
        <time>2012-04-17T20:48:48Z</time>
      </trkpt>
      <trkpt lat="45.23217" lon="5.59567">
        <ele>1618</ele>
        <time>2012-04-17T20:48:49Z</time>
      </trkpt>
      <trkpt lat="45.23213" lon="5.5956">
        <ele>1618</ele>
        <time>2012-04-17T20:48:50Z</time>
      </trkpt>
      <trkpt lat="45.23194" lon="5.59543">
        <ele>1617</ele>
        <time>2012-04-17T20:48:56Z</time>
      </trkpt>
      <trkpt lat="45.2319" lon="5.59539">
        <ele>1617</ele>
        <time>2012-04-17T20:48:57Z</time>
      </trkpt>
      <trkpt lat="45.23177" lon="5.59535">
        <ele>1617</ele>
        <time>2012-04-17T20:49:00Z</time>
      </trkpt>
      <trkpt lat="45.2317" lon="5.59528">
        <ele>1617</ele>
        <time>2012-04-17T20:49:02Z</time>
      </trkpt>
      <trkpt lat="45.23166" lon="5.59526">
        <ele>1614</ele>
        <time>2012-04-17T20:49:03Z</time>
      </trkpt>
      <trkpt lat="45.23157" lon="5.59522">
        <ele>1614</ele>
        <time>2012-04-17T20:49:05Z</time>
      </trkpt>
      <trkpt lat="45.23155" lon="5.59515">
        <ele>1614</ele>
        <time>2012-04-17T20:49:06Z</time>
      </trkpt>
      <trkpt lat="45.23151" lon="5.59505">
        <ele>1614</ele>
        <time>2012-04-17T20:49:08Z</time>
      </trkpt>
      <trkpt lat="45.23147" lon="5.59492">
        <ele>1614</ele>
        <time>2012-04-17T20:49:10Z</time>
      </trkpt>
      <trkpt lat="45.2314" lon="5.59481">
        <ele>1613</ele>
        <time>2012-04-17T20:49:12Z</time>
      </trkpt>
      <trkpt lat="45.23136" lon="5.59468">
        <ele>1612</ele>
        <time>2012-04-17T20:49:14Z</time>
      </trkpt>
      <trkpt lat="45.23129" lon="5.59455">
        <ele>1611</ele>
        <time>2012-04-17T20:49:17Z</time>
      </trkpt>
      <trkpt lat="45.23119" lon="5.59434">
        <ele>1610</ele>
        <time>2012-04-17T20:49:22Z</time>
      </trkpt>
      <trkpt lat="45.23117" lon="5.59429">
        <ele>1610</ele>
        <time>2012-04-17T20:49:23Z</time>
      </trkpt>
      <trkpt lat="45.23112" lon="5.59425">
        <ele>1610</ele>
        <time>2012-04-17T20:49:24Z</time>
      </trkpt>
      <trkpt lat="45.23108" lon="5.59423">
        <ele>1610</ele>
        <time>2012-04-17T20:49:25Z</time>
      </trkpt>
      <trkpt lat="45.23099" lon="5.59421">
        <ele>1610</ele>
        <time>2012-04-17T20:49:27Z</time>
      </trkpt>
      <trkpt lat="45.23093" lon="5.59417">
        <ele>1607</ele>
        <time>2012-04-17T20:49:28Z</time>
      </trkpt>
      <trkpt lat="45.23065" lon="5.59408">
        <ele>1608</ele>
        <time>2012-04-17T20:49:35Z</time>
      </trkpt>
      <trkpt lat="45.23057" lon="5.59406">
        <ele>1608</ele>
        <time>2012-04-17T20:49:37Z</time>
      </trkpt>
      <trkpt lat="45.2305" lon="5.59406">
        <ele>1609</ele>
        <time>2012-04-17T20:49:38Z</time>
      </trkpt>
      <trkpt lat="45.23042" lon="5.59404">
        <ele>1609</ele>
        <time>2012-04-17T20:49:40Z</time>
      </trkpt>
      <trkpt lat="45.23035" lon="5.59399">
        <ele>1609</ele>
        <time>2012-04-17T20:49:41Z</time>
      </trkpt>
      <trkpt lat="45.23027" lon="5.59393">
        <ele>1609</ele>
        <time>2012-04-17T20:49:43Z</time>
      </trkpt>
      <trkpt lat="45.23007" lon="5.59378">
        <ele>1609</ele>
        <time>2012-04-17T20:49:49Z</time>
      </trkpt>
      <trkpt lat="45.23003" lon="5.59372">
        <ele>1609</ele>
        <time>2012-04-17T20:49:50Z</time>
      </trkpt>
      <trkpt lat="45.23001" lon="5.59367">
        <ele>1609</ele>
        <time>2012-04-17T20:49:51Z</time>
      </trkpt>
      <trkpt lat="45.22999" lon="5.59363">
        <ele>1611</ele>
        <time>2012-04-17T20:49:52Z</time>
      </trkpt>
      <trkpt lat="45.2299" lon="5.59361">
        <ele>1611</ele>
        <time>2012-04-17T20:49:54Z</time>
      </trkpt>
      <trkpt lat="45.22981" lon="5.59363">
        <ele>1611</ele>
        <time>2012-04-17T20:49:56Z</time>
      </trkpt>
      <trkpt lat="45.22975" lon="5.59365">
        <ele>1611</ele>
        <time>2012-04-17T20:49:57Z</time>
      </trkpt>
      <trkpt lat="45.22966" lon="5.59363">
        <ele>1611</ele>
        <time>2012-04-17T20:49:59Z</time>
      </trkpt>
      <trkpt lat="45.2296" lon="5.59356">
        <ele>1611</ele>
        <time>2012-04-17T20:50:01Z</time>
      </trkpt>
      <trkpt lat="45.22943" lon="5.59354">
        <ele>1611</ele>
        <time>2012-04-17T20:50:05Z</time>
      </trkpt>
      <trkpt lat="45.22936" lon="5.59354">
        <ele>1611</ele>
        <time>2012-04-17T20:50:06Z</time>
      </trkpt>
      <trkpt lat="45.22926" lon="5.59361">
        <ele>1611</ele>
        <time>2012-04-17T20:50:09Z</time>
      </trkpt>
      <trkpt lat="45.22919" lon="5.59365">
        <ele>1611</ele>
        <time>2012-04-17T20:50:10Z</time>
      </trkpt>
      <trkpt lat="45.22919" lon="5.59369">
        <ele>1611</ele>
        <time>2012-04-17T20:50:10Z</time>
      </trkpt>
      <trkpt lat="45.22913" lon="5.59372">
        <ele>1612</ele>
        <time>2012-04-17T20:50:11Z</time>
      </trkpt>
      <trkpt lat="45.22908" lon="5.59374">
        <ele>1612</ele>
        <time>2012-04-17T20:50:12Z</time>
      </trkpt>
      <trkpt lat="45.22902" lon="5.5938">
        <ele>1612</ele>
        <time>2012-04-17T20:50:14Z</time>
      </trkpt>
      <trkpt lat="45.22896" lon="5.59382">
        <ele>1612</ele>
        <time>2012-04-17T20:50:15Z</time>
      </trkpt>
      <trkpt lat="45.22887" lon="5.59384">
        <ele>1612</ele>
        <time>2012-04-17T20:50:17Z</time>
      </trkpt>
      <trkpt lat="45.22881" lon="5.59384">
        <ele>1612</ele>
        <time>2012-04-17T20:50:18Z</time>
      </trkpt>
      <trkpt lat="45.22874" lon="5.59384">
        <ele>1613</ele>
        <time>2012-04-17T20:50:19Z</time>
      </trkpt>
      <trkpt lat="45.22866" lon="5.59387">
        <ele>1613</ele>
        <time>2012-04-17T20:50:21Z</time>
      </trkpt>
      <trkpt lat="45.22855" lon="5.59384">
        <ele>1613</ele>
        <time>2012-04-17T20:50:24Z</time>
      </trkpt>
      <trkpt lat="45.22848" lon="5.59382">
        <ele>1613</ele>
        <time>2012-04-17T20:50:25Z</time>
      </trkpt>
      <trkpt lat="45.22842" lon="5.5938">
        <ele>1613</ele>
        <time>2012-04-17T20:50:26Z</time>
      </trkpt>
      <trkpt lat="45.22838" lon="5.59378">
        <ele>1613</ele>
        <time>2012-04-17T20:50:27Z</time>
      </trkpt>
      <trkpt lat="45.22823" lon="5.59395">
        <ele>1612</ele>
        <time>2012-04-17T20:50:32Z</time>
      </trkpt>
      <trkpt lat="45.22818" lon="5.59395">
        <ele>1612</ele>
        <time>2012-04-17T20:50:33Z</time>
      </trkpt>
      <trkpt lat="45.22803" lon="5.59374">
        <ele>1612</ele>
        <time>2012-04-17T20:50:38Z</time>
      </trkpt>
      <trkpt lat="45.22799" lon="5.59374">
        <ele>1612</ele>
        <time>2012-04-17T20:50:39Z</time>
      </trkpt>
      <trkpt lat="45.2279" lon="5.59374">
        <ele>1612</ele>
        <time>2012-04-17T20:50:41Z</time>
      </trkpt>
      <trkpt lat="45.22784" lon="5.59369">
        <ele>1612</ele>
        <time>2012-04-17T20:50:42Z</time>
      </trkpt>
      <trkpt lat="45.22778" lon="5.59359">
        <ele>1612</ele>
        <time>2012-04-17T20:50:44Z</time>
      </trkpt>
      <trkpt lat="45.22773" lon="5.59356">
        <ele>1612</ele>
        <time>2012-04-17T20:50:45Z</time>
      </trkpt>
      <trkpt lat="45.22769" lon="5.59354">
        <ele>1612</ele>
        <time>2012-04-17T20:50:46Z</time>
      </trkpt>
      <trkpt lat="45.22756" lon="5.59356">
        <ele>1612</ele>
        <time>2012-04-17T20:50:49Z</time>
      </trkpt>
      <trkpt lat="45.22745" lon="5.59361">
        <ele>1610</ele>
        <time>2012-04-17T20:50:52Z</time>
      </trkpt>
      <trkpt lat="45.22733" lon="5.59363">
        <ele>1610</ele>
        <time>2012-04-17T20:50:55Z</time>
      </trkpt>
      <trkpt lat="45.22728" lon="5.59363">
        <ele>1610</ele>
        <time>2012-04-17T20:50:56Z</time>
      </trkpt>
      <trkpt lat="45.22711" lon="5.59365">
        <ele>1610</ele>
        <time>2012-04-17T20:51:00Z</time>
      </trkpt>
      <trkpt lat="45.22705" lon="5.59367">
        <ele>1610</ele>
        <time>2012-04-17T20:51:01Z</time>
      </trkpt>
      <trkpt lat="45.22692" lon="5.59372">
        <ele>1610</ele>
        <time>2012-04-17T20:51:04Z</time>
      </trkpt>
      <trkpt lat="45.22679" lon="5.59374">
        <ele>1610</ele>
        <time>2012-04-17T20:51:07Z</time>
      </trkpt>
      <trkpt lat="45.22666" lon="5.59376">
        <ele>1611</ele>
        <time>2012-04-17T20:51:10Z</time>
      </trkpt>
      <trkpt lat="45.22655" lon="5.59376">
        <ele>1611</ele>
        <time>2012-04-17T20:51:12Z</time>
      </trkpt>
      <trkpt lat="45.22651" lon="5.59378">
        <ele>1611</ele>
        <time>2012-04-17T20:51:13Z</time>
      </trkpt>
      <trkpt lat="45.22642" lon="5.59389">
        <ele>1611</ele>
        <time>2012-04-17T20:51:16Z</time>
      </trkpt>
      <trkpt lat="45.22634" lon="5.59395">
        <ele>1611</ele>
        <time>2012-04-17T20:51:18Z</time>
      </trkpt>
      <trkpt lat="45.22625" lon="5.59397">
        <ele>1611</ele>
        <time>2012-04-17T20:51:20Z</time>
      </trkpt>
      <trkpt lat="45.22619" lon="5.59397">
        <ele>1611</ele>
        <time>2012-04-17T20:51:21Z</time>
      </trkpt>
      <trkpt lat="45.2261" lon="5.59393">
        <ele>1611</ele>
        <time>2012-04-17T20:51:23Z</time>
      </trkpt>
      <trkpt lat="45.22595" lon="5.59391">
        <ele>1611</ele>
        <time>2012-04-17T20:51:27Z</time>
      </trkpt>
      <trkpt lat="45.22587" lon="5.59389">
        <ele>1611</ele>
        <time>2012-04-17T20:51:29Z</time>
      </trkpt>
      <trkpt lat="45.22578" lon="5.59387">
        <ele>1613</ele>
        <time>2012-04-17T20:51:31Z</time>
      </trkpt>
      <trkpt lat="45.22563" lon="5.59389">
        <ele>1613</ele>
        <time>2012-04-17T20:51:35Z</time>
      </trkpt>
      <trkpt lat="45.22552" lon="5.59393">
        <ele>1613</ele>
        <time>2012-04-17T20:51:38Z</time>
      </trkpt>
      <trkpt lat="45.22533" lon="5.59395">
        <ele>1613</ele>
        <time>2012-04-17T20:51:43Z</time>
      </trkpt>
      <trkpt lat="45.22522" lon="5.59393">
        <ele>1613</ele>
        <time>2012-04-17T20:51:46Z</time>
      </trkpt>
      <trkpt lat="45.22514" lon="5.59389">
        <ele>1613</ele>
        <time>2012-04-17T20:51:48Z</time>
      </trkpt>
      <trkpt lat="45.22494" lon="5.59382">
        <ele>1615</ele>
        <time>2012-04-17T20:51:53Z</time>
      </trkpt>
      <trkpt lat="45.22479" lon="5.59384">
        <ele>1615</ele>
        <time>2012-04-17T20:51:57Z</time>
      </trkpt>
      <trkpt lat="45.22453" lon="5.59384">
        <ele>1616</ele>
        <time>2012-04-17T20:52:04Z</time>
      </trkpt>
      <trkpt lat="45.22434" lon="5.59382">
        <ele>1616</ele>
        <time>2012-04-17T20:52:09Z</time>
      </trkpt>
      <trkpt lat="45.22428" lon="5.5938">
        <ele>1616</ele>
        <time>2012-04-17T20:52:10Z</time>
      </trkpt>
      <trkpt lat="45.22424" lon="5.59376">
        <ele>1617</ele>
        <time>2012-04-17T20:52:11Z</time>
      </trkpt>
      <trkpt lat="45.22406" lon="5.59369">
        <ele>1618</ele>
        <time>2012-04-17T20:52:15Z</time>
      </trkpt>
      <trkpt lat="45.22398" lon="5.59367">
        <ele>1618</ele>
        <time>2012-04-17T20:52:17Z</time>
      </trkpt>
      <trkpt lat="45.22383" lon="5.59369">
        <ele>1618</ele>
        <time>2012-04-17T20:52:21Z</time>
      </trkpt>
      <trkpt lat="45.22372" lon="5.59372">
        <ele>1619</ele>
        <time>2012-04-17T20:52:24Z</time>
      </trkpt>
      <trkpt lat="45.22359" lon="5.59376">
        <ele>1619</ele>
        <time>2012-04-17T20:52:27Z</time>
      </trkpt>
      <trkpt lat="45.22353" lon="5.59374">
        <ele>1619</ele>
        <time>2012-04-17T20:52:28Z</time>
      </trkpt>
      <trkpt lat="45.22346" lon="5.59372">
        <ele>1619</ele>
        <time>2012-04-17T20:52:29Z</time>
      </trkpt>
      <trkpt lat="45.2234" lon="5.59372">
        <ele>1619</ele>
        <time>2012-04-17T20:52:30Z</time>
      </trkpt>
      <trkpt lat="45.22333" lon="5.59369">
        <ele>1619</ele>
        <time>2012-04-17T20:52:31Z</time>
      </trkpt>
      <trkpt lat="45.22327" lon="5.59363">
        <ele>1621</ele>
        <time>2012-04-17T20:52:33Z</time>
      </trkpt>
      <trkpt lat="45.22321" lon="5.59354">
        <ele>1621</ele>
        <time>2012-04-17T20:52:35Z</time>
      </trkpt>
      <trkpt lat="45.22308" lon="5.59339">
        <ele>1621</ele>
        <time>2012-04-17T20:52:39Z</time>
      </trkpt>
      <trkpt lat="45.22299" lon="5.59333">
        <ele>1619</ele>
        <time>2012-04-17T20:52:41Z</time>
      </trkpt>
      <trkpt lat="45.22295" lon="5.59324">
        <ele>1619</ele>
        <time>2012-04-17T20:52:43Z</time>
      </trkpt>
      <trkpt lat="45.22284" lon="5.59314">
        <ele>1619</ele>
        <time>2012-04-17T20:52:46Z</time>
      </trkpt>
      <trkpt lat="45.2228" lon="5.59305">
        <ele>1619</ele>
        <time>2012-04-17T20:52:48Z</time>
      </trkpt>
      <trkpt lat="45.22275" lon="5.59301">
        <ele>1618</ele>
        <time>2012-04-17T20:52:49Z</time>
      </trkpt>
      <trkpt lat="45.22256" lon="5.59294">
        <ele>1618</ele>
        <time>2012-04-17T20:52:54Z</time>
      </trkpt>
      <trkpt lat="45.22243" lon="5.59288">
        <ele>1617</ele>
        <time>2012-04-17T20:52:57Z</time>
      </trkpt>
      <trkpt lat="45.22222" lon="5.59271">
        <ele>1616</ele>
        <time>2012-04-17T20:53:03Z</time>
      </trkpt>
      <trkpt lat="45.222" lon="5.59245">
        <ele>1609</ele>
        <time>2012-04-17T20:53:10Z</time>
      </trkpt>
      <trkpt lat="45.22194" lon="5.59241">
        <ele>1609</ele>
        <time>2012-04-17T20:53:11Z</time>
      </trkpt>
      <trkpt lat="45.22188" lon="5.59236">
        <ele>1608</ele>
        <time>2012-04-17T20:53:12Z</time>
      </trkpt>
      <trkpt lat="45.22179" lon="5.59228">
        <ele>1608</ele>
        <time>2012-04-17T20:53:14Z</time>
      </trkpt>
      <trkpt lat="45.22157" lon="5.59238">
        <ele>1607</ele>
        <time>2012-04-17T20:53:20Z</time>
      </trkpt>
      <trkpt lat="45.22151" lon="5.59241">
        <ele>1607</ele>
        <time>2012-04-17T20:53:21Z</time>
      </trkpt>
      <trkpt lat="45.22127" lon="5.59247">
        <ele>1606</ele>
        <time>2012-04-17T20:53:27Z</time>
      </trkpt>
      <trkpt lat="45.22117" lon="5.59247">
        <ele>1606</ele>
        <time>2012-04-17T20:53:29Z</time>
      </trkpt>
      <trkpt lat="45.22108" lon="5.59247">
        <ele>1607</ele>
        <time>2012-04-17T20:53:31Z</time>
      </trkpt>
      <trkpt lat="45.22067" lon="5.59241">
        <ele>1605</ele>
        <time>2012-04-17T20:53:42Z</time>
      </trkpt>
      <trkpt lat="45.22052" lon="5.59241">
        <ele>1604</ele>
        <time>2012-04-17T20:53:46Z</time>
      </trkpt>
      <trkpt lat="45.22046" lon="5.59241">
        <ele>1603</ele>
        <time>2012-04-17T20:53:47Z</time>
      </trkpt>
      <trkpt lat="45.22037" lon="5.59243">
        <ele>1603</ele>
        <time>2012-04-17T20:53:49Z</time>
      </trkpt>
      <trkpt lat="45.21997" lon="5.59258">
        <ele>1605</ele>
        <time>2012-04-17T20:54:00Z</time>
      </trkpt>
      <trkpt lat="45.2199" lon="5.5926">
        <ele>1606</ele>
        <time>2012-04-17T20:54:01Z</time>
      </trkpt>
      <trkpt lat="45.21984" lon="5.5926">
        <ele>1606</ele>
        <time>2012-04-17T20:54:02Z</time>
      </trkpt>
      <trkpt lat="45.21958" lon="5.59256">
        <ele>1605</ele>
        <time>2012-04-17T20:54:09Z</time>
      </trkpt>
      <trkpt lat="45.21949" lon="5.59256">
        <ele>1604</ele>
        <time>2012-04-17T20:54:11Z</time>
      </trkpt>
      <trkpt lat="45.21943" lon="5.59258">
        <ele>1603</ele>
        <time>2012-04-17T20:54:12Z</time>
      </trkpt>
      <trkpt lat="45.21932" lon="5.59262">
        <ele>1602</ele>
        <time>2012-04-17T20:54:15Z</time>
      </trkpt>
      <trkpt lat="45.21926" lon="5.59266">
        <ele>1602</ele>
        <time>2012-04-17T20:54:16Z</time>
      </trkpt>
      <trkpt lat="45.219" lon="5.59266">
        <ele>1600</ele>
        <time>2012-04-17T20:54:23Z</time>
      </trkpt>
      <trkpt lat="45.21872" lon="5.59266">
        <ele>1600</ele>
        <time>2012-04-17T20:54:30Z</time>
      </trkpt>
      <trkpt lat="45.21838" lon="5.59266">
        <ele>1599</ele>
        <time>2012-04-17T20:54:39Z</time>
      </trkpt>
      <trkpt lat="45.21823" lon="5.59271">
        <ele>1597</ele>
        <time>2012-04-17T20:54:43Z</time>
      </trkpt>
      <trkpt lat="45.21816" lon="5.59275">
        <ele>1597</ele>
        <time>2012-04-17T20:54:44Z</time>
      </trkpt>
      <trkpt lat="45.21812" lon="5.59277">
        <ele>1597</ele>
        <time>2012-04-17T20:54:45Z</time>
      </trkpt>
      <trkpt lat="45.21803" lon="5.59294">
        <ele>1597</ele>
        <time>2012-04-17T20:54:49Z</time>
      </trkpt>
      <trkpt lat="45.21793" lon="5.59322">
        <ele>1597</ele>
        <time>2012-04-17T20:54:55Z</time>
      </trkpt>
      <trkpt lat="45.21788" lon="5.59337">
        <ele>1595</ele>
        <time>2012-04-17T20:54:58Z</time>
      </trkpt>
      <trkpt lat="45.21776" lon="5.59359">
        <ele>1594</ele>
        <time>2012-04-17T20:55:03Z</time>
      </trkpt>
      <trkpt lat="45.21763" lon="5.5938">
        <ele>1592</ele>
        <time>2012-04-17T20:55:08Z</time>
      </trkpt>
      <trkpt lat="45.21757" lon="5.59391">
        <ele>1592</ele>
        <time>2012-04-17T20:55:10Z</time>
      </trkpt>
      <trkpt lat="45.2175" lon="5.59404">
        <ele>1590</ele>
        <time>2012-04-17T20:55:13Z</time>
      </trkpt>
      <trkpt lat="45.21745" lon="5.59408">
        <ele>1590</ele>
        <time>2012-04-17T20:55:14Z</time>
      </trkpt>
      <trkpt lat="45.21741" lon="5.5941">
        <ele>1590</ele>
        <time>2012-04-17T20:55:15Z</time>
      </trkpt>
      <trkpt lat="45.21735" lon="5.59414">
        <ele>1591</ele>
        <time>2012-04-17T20:55:16Z</time>
      </trkpt>
      <trkpt lat="45.21713" lon="5.59425">
        <ele>1590</ele>
        <time>2012-04-17T20:55:22Z</time>
      </trkpt>
      <trkpt lat="45.21703" lon="5.59419">
        <ele>1591</ele>
        <time>2012-04-17T20:55:25Z</time>
      </trkpt>
      <trkpt lat="45.21679" lon="5.59404">
        <ele>1595</ele>
        <time>2012-04-17T20:55:32Z</time>
      </trkpt>
      <trkpt lat="45.2167" lon="5.59399">
        <ele>1595</ele>
        <time>2012-04-17T20:55:34Z</time>
      </trkpt>
      <trkpt lat="45.21668" lon="5.59395">
        <ele>1595</ele>
        <time>2012-04-17T20:55:35Z</time>
      </trkpt>
      <trkpt lat="45.21664" lon="5.59389">
        <ele>1604</ele>
        <time>2012-04-17T20:55:36Z</time>
      </trkpt>
      <trkpt lat="45.21662" lon="5.59372">
        <ele>1605</ele>
        <time>2012-04-17T20:55:39Z</time>
      </trkpt>
      <trkpt lat="45.21662" lon="5.59365">
        <ele>1605</ele>
        <time>2012-04-17T20:55:40Z</time>
      </trkpt>
      <trkpt lat="45.21662" lon="5.59356">
        <ele>1605</ele>
        <time>2012-04-17T20:55:41Z</time>
      </trkpt>
      <trkpt lat="45.21664" lon="5.5935">
        <ele>1604</ele>
        <time>2012-04-17T20:55:42Z</time>
      </trkpt>
      <trkpt lat="45.21664" lon="5.59344">
        <ele>1603</ele>
        <time>2012-04-17T20:55:43Z</time>
      </trkpt>
      <trkpt lat="45.2166" lon="5.59333">
        <ele>1604</ele>
        <time>2012-04-17T20:55:45Z</time>
      </trkpt>
      <trkpt lat="45.2166" lon="5.59329">
        <ele>1604</ele>
        <time>2012-04-17T20:55:45Z</time>
      </trkpt>
      <trkpt lat="45.2166" lon="5.5932">
        <ele>1605</ele>
        <time>2012-04-17T20:55:46Z</time>
      </trkpt>
      <trkpt lat="45.21662" lon="5.59305">
        <ele>1607</ele>
        <time>2012-04-17T20:55:49Z</time>
      </trkpt>
      <trkpt lat="45.21662" lon="5.59299">
        <ele>1607</ele>
        <time>2012-04-17T20:55:50Z</time>
      </trkpt>
      <trkpt lat="45.2166" lon="5.59288">
        <ele>1607</ele>
        <time>2012-04-17T20:55:52Z</time>
      </trkpt>
      <trkpt lat="45.21655" lon="5.59279">
        <ele>1607</ele>
        <time>2012-04-17T20:55:54Z</time>
      </trkpt>
      <trkpt lat="45.21649" lon="5.59273">
        <ele>1607</ele>
        <time>2012-04-17T20:55:56Z</time>
      </trkpt>
      <trkpt lat="45.21645" lon="5.59266">
        <ele>1608</ele>
        <time>2012-04-17T20:55:57Z</time>
      </trkpt>
      <trkpt lat="45.21636" lon="5.59245">
        <ele>1608</ele>
        <time>2012-04-17T20:56:01Z</time>
      </trkpt>
      <trkpt lat="45.21621" lon="5.59219">
        <ele>1610</ele>
        <time>2012-04-17T20:56:07Z</time>
      </trkpt>
      <trkpt lat="45.216" lon="5.59191">
        <ele>1611</ele>
        <time>2012-04-17T20:56:15Z</time>
      </trkpt>
      <trkpt lat="45.21593" lon="5.59185">
        <ele>1611</ele>
        <time>2012-04-17T20:56:17Z</time>
      </trkpt>
      <trkpt lat="45.21578" lon="5.59168">
        <ele>1615</ele>
        <time>2012-04-17T20:56:22Z</time>
      </trkpt>
      <trkpt lat="45.21572" lon="5.59161">
        <ele>1616</ele>
        <time>2012-04-17T20:56:24Z</time>
      </trkpt>
      <trkpt lat="45.21565" lon="5.59159">
        <ele>1617</ele>
        <time>2012-04-17T20:56:25Z</time>
      </trkpt>
      <trkpt lat="45.21548" lon="5.59161">
        <ele>1619</ele>
        <time>2012-04-17T20:56:29Z</time>
      </trkpt>
      <trkpt lat="45.21544" lon="5.59159">
        <ele>1619</ele>
        <time>2012-04-17T20:56:30Z</time>
      </trkpt>
      <trkpt lat="45.21514" lon="5.5915">
        <ele>1621</ele>
        <time>2012-04-17T20:56:38Z</time>
      </trkpt>
      <trkpt lat="45.21509" lon="5.5915">
        <ele>1621</ele>
        <time>2012-04-17T20:56:39Z</time>
      </trkpt>
      <trkpt lat="45.21505" lon="5.59153">
        <ele>1621</ele>
        <time>2012-04-17T20:56:40Z</time>
      </trkpt>
      <trkpt lat="45.21501" lon="5.59155">
        <ele>1621</ele>
        <time>2012-04-17T20:56:41Z</time>
      </trkpt>
      <trkpt lat="45.21494" lon="5.59163">
        <ele>1623</ele>
        <time>2012-04-17T20:56:43Z</time>
      </trkpt>
      <trkpt lat="45.21486" lon="5.59161">
        <ele>1624</ele>
        <time>2012-04-17T20:56:45Z</time>
      </trkpt>
      <trkpt lat="45.21467" lon="5.59144">
        <ele>1626</ele>
        <time>2012-04-17T20:56:51Z</time>
      </trkpt>
      <trkpt lat="45.21449" lon="5.5912">
        <ele>1626</ele>
        <time>2012-04-17T20:56:57Z</time>
      </trkpt>
      <trkpt lat="45.21436" lon="5.59097">
        <ele>1627</ele>
        <time>2012-04-17T20:57:02Z</time>
      </trkpt>
      <trkpt lat="45.21428" lon="5.59088">
        <ele>1627</ele>
        <time>2012-04-17T20:57:04Z</time>
      </trkpt>
      <trkpt lat="45.21419" lon="5.59082">
        <ele>1627</ele>
        <time>2012-04-17T20:57:06Z</time>
      </trkpt>
      <trkpt lat="45.21409" lon="5.59075">
        <ele>1628</ele>
        <time>2012-04-17T20:57:09Z</time>
      </trkpt>
      <trkpt lat="45.21398" lon="5.59069">
        <ele>1628</ele>
        <time>2012-04-17T20:57:12Z</time>
      </trkpt>
      <trkpt lat="45.21357" lon="5.59032">
        <ele>1630</ele>
        <time>2012-04-17T20:57:25Z</time>
      </trkpt>
      <trkpt lat="45.21351" lon="5.59026">
        <ele>1630</ele>
        <time>2012-04-17T20:57:27Z</time>
      </trkpt>
      <trkpt lat="45.21341" lon="5.59016">
        <ele>1631</ele>
        <time>2012-04-17T20:57:30Z</time>
      </trkpt>
      <trkpt lat="45.21338" lon="5.59013">
        <ele>1631</ele>
        <time>2012-04-17T20:57:30Z</time>
      </trkpt>
      <trkpt lat="45.21329" lon="5.59007">
        <ele>1632</ele>
        <time>2012-04-17T20:57:32Z</time>
      </trkpt>
      <trkpt lat="45.21318" lon="5.59">
        <ele>1633</ele>
        <time>2012-04-17T20:57:35Z</time>
      </trkpt>
      <trkpt lat="45.21316" lon="5.58996">
        <ele>1634</ele>
        <time>2012-04-17T20:57:36Z</time>
      </trkpt>
      <trkpt lat="45.21301" lon="5.59002">
        <ele>1633</ele>
        <time>2012-04-17T20:57:40Z</time>
      </trkpt>
      <trkpt lat="45.21291" lon="5.59009">
        <ele>1634</ele>
        <time>2012-04-17T20:57:43Z</time>
      </trkpt>
      <trkpt lat="45.21271" lon="5.5902">
        <ele>1635</ele>
        <time>2012-04-17T20:57:48Z</time>
      </trkpt>
      <trkpt lat="45.21258" lon="5.59022">
        <ele>1635</ele>
        <time>2012-04-17T20:57:51Z</time>
      </trkpt>
      <trkpt lat="45.21237" lon="5.59028">
        <ele>1636</ele>
        <time>2012-04-17T20:57:57Z</time>
      </trkpt>
      <trkpt lat="45.21224" lon="5.5903">
        <ele>1636</ele>
        <time>2012-04-17T20:58:00Z</time>
      </trkpt>
      <trkpt lat="45.21207" lon="5.5903">
        <ele>1636</ele>
        <time>2012-04-17T20:58:04Z</time>
      </trkpt>
      <trkpt lat="45.21179" lon="5.59026">
        <ele>1637</ele>
        <time>2012-04-17T20:58:11Z</time>
      </trkpt>
      <trkpt lat="45.2116" lon="5.5902">
        <ele>1635</ele>
        <time>2012-04-17T20:58:16Z</time>
      </trkpt>
      <trkpt lat="45.21143" lon="5.59011">
        <ele>1634</ele>
        <time>2012-04-17T20:58:21Z</time>
      </trkpt>
      <trkpt lat="45.21127" lon="5.58998">
        <ele>1635</ele>
        <time>2012-04-17T20:58:25Z</time>
      </trkpt>
      <trkpt lat="45.21121" lon="5.58987">
        <ele>1634</ele>
        <time>2012-04-17T20:58:27Z</time>
      </trkpt>
      <trkpt lat="45.21119" lon="5.58975">
        <ele>1634</ele>
        <time>2012-04-17T20:58:29Z</time>
      </trkpt>
      <trkpt lat="45.21119" lon="5.58964">
        <ele>1634</ele>
        <time>2012-04-17T20:58:31Z</time>
      </trkpt>
      <trkpt lat="45.21117" lon="5.58957">
        <ele>1634</ele>
        <time>2012-04-17T20:58:32Z</time>
      </trkpt>
      <trkpt lat="45.21115" lon="5.58953">
        <ele>1634</ele>
        <time>2012-04-17T20:58:33Z</time>
      </trkpt>
      <trkpt lat="45.21108" lon="5.58953">
        <ele>1633</ele>
        <time>2012-04-17T20:58:34Z</time>
      </trkpt>
      <trkpt lat="45.21102" lon="5.58955">
        <ele>1633</ele>
        <time>2012-04-17T20:58:35Z</time>
      </trkpt>
      <trkpt lat="45.21097" lon="5.58962">
        <ele>1633</ele>
        <time>2012-04-17T20:58:36Z</time>
      </trkpt>
      <trkpt lat="45.21089" lon="5.5897">
        <ele>1632</ele>
        <time>2012-04-17T20:58:38Z</time>
      </trkpt>
      <trkpt lat="45.21085" lon="5.58979">
        <ele>1632</ele>
        <time>2012-04-17T20:58:40Z</time>
      </trkpt>
      <trkpt lat="45.2108" lon="5.58994">
        <ele>1627</ele>
        <time>2012-04-17T20:58:43Z</time>
      </trkpt>
      <trkpt lat="45.21076" lon="5.59005">
        <ele>1628</ele>
        <time>2012-04-17T20:58:45Z</time>
      </trkpt>
      <trkpt lat="45.21072" lon="5.59011">
        <ele>1627</ele>
        <time>2012-04-17T20:58:46Z</time>
      </trkpt>
      <trkpt lat="45.2107" lon="5.59017">
        <ele>1627</ele>
        <time>2012-04-17T20:58:47Z</time>
      </trkpt>
      <trkpt lat="45.21057" lon="5.59039">
        <ele>1626</ele>
        <time>2012-04-17T20:58:52Z</time>
      </trkpt>
      <trkpt lat="45.21044" lon="5.59054">
        <ele>1626</ele>
        <time>2012-04-17T20:58:56Z</time>
      </trkpt>
      <trkpt lat="45.2104" lon="5.5906">
        <ele>1626</ele>
        <time>2012-04-17T20:58:57Z</time>
      </trkpt>
      <trkpt lat="45.21033" lon="5.59063">
        <ele>1626</ele>
        <time>2012-04-17T20:58:58Z</time>
      </trkpt>
      <trkpt lat="45.21018" lon="5.59067">
        <ele>1626</ele>
        <time>2012-04-17T20:59:02Z</time>
      </trkpt>
      <trkpt lat="45.21014" lon="5.59071">
        <ele>1626</ele>
        <time>2012-04-17T20:59:03Z</time>
      </trkpt>
      <trkpt lat="45.21009" lon="5.59078">
        <ele>1626</ele>
        <time>2012-04-17T20:59:04Z</time>
      </trkpt>
      <trkpt lat="45.21007" lon="5.59082">
        <ele>1626</ele>
        <time>2012-04-17T20:59:05Z</time>
      </trkpt>
      <trkpt lat="45.21007" lon="5.5909">
        <ele>1626</ele>
        <time>2012-04-17T20:59:06Z</time>
      </trkpt>
      <trkpt lat="45.21003" lon="5.59108">
        <ele>1626</ele>
        <time>2012-04-17T20:59:09Z</time>
      </trkpt>
      <trkpt lat="45.21001" lon="5.59129">
        <ele>1625</ele>
        <time>2012-04-17T20:59:13Z</time>
      </trkpt>
      <trkpt lat="45.21001" lon="5.5915">
        <ele>1624</ele>
        <time>2012-04-17T20:59:17Z</time>
      </trkpt>
      <trkpt lat="45.20999" lon="5.59166">
        <ele>1624</ele>
        <time>2012-04-17T20:59:20Z</time>
      </trkpt>
      <trkpt lat="45.20999" lon="5.59183">
        <ele>1622</ele>
        <time>2012-04-17T20:59:23Z</time>
      </trkpt>
      <trkpt lat="45.20997" lon="5.59191">
        <ele>1622</ele>
        <time>2012-04-17T20:59:24Z</time>
      </trkpt>
      <trkpt lat="45.20992" lon="5.59193">
        <ele>1622</ele>
        <time>2012-04-17T20:59:25Z</time>
      </trkpt>
      <trkpt lat="45.20988" lon="5.59193">
        <ele>1621</ele>
        <time>2012-04-17T20:59:26Z</time>
      </trkpt>
      <trkpt lat="45.20982" lon="5.59189">
        <ele>1621</ele>
        <time>2012-04-17T20:59:27Z</time>
      </trkpt>
      <trkpt lat="45.20977" lon="5.59183">
        <ele>1622</ele>
        <time>2012-04-17T20:59:28Z</time>
      </trkpt>
      <trkpt lat="45.20971" lon="5.59178">
        <ele>1621</ele>
        <time>2012-04-17T20:59:29Z</time>
      </trkpt>
      <trkpt lat="45.20949" lon="5.59183">
        <ele>1621</ele>
        <time>2012-04-17T20:59:35Z</time>
      </trkpt>
      <trkpt lat="45.20941" lon="5.59181">
        <ele>1621</ele>
        <time>2012-04-17T20:59:37Z</time>
      </trkpt>
      <trkpt lat="45.20937" lon="5.59174">
        <ele>1621</ele>
        <time>2012-04-17T20:59:38Z</time>
      </trkpt>
      <trkpt lat="45.20928" lon="5.59166">
        <ele>1623</ele>
        <time>2012-04-17T20:59:40Z</time>
      </trkpt>
      <trkpt lat="45.20921" lon="5.59155">
        <ele>1623</ele>
        <time>2012-04-17T20:59:42Z</time>
      </trkpt>
      <trkpt lat="45.20904" lon="5.59131">
        <ele>1623</ele>
        <time>2012-04-17T20:59:48Z</time>
      </trkpt>
      <trkpt lat="45.209" lon="5.59129">
        <ele>1623</ele>
        <time>2012-04-17T20:59:49Z</time>
      </trkpt>
      <trkpt lat="45.20879" lon="5.59118">
        <ele>1623</ele>
        <time>2012-04-17T20:59:55Z</time>
      </trkpt>
      <trkpt lat="45.20872" lon="5.59118">
        <ele>1623</ele>
        <time>2012-04-17T20:59:56Z</time>
      </trkpt>
      <trkpt lat="45.20861" lon="5.5911">
        <ele>1623</ele>
        <time>2012-04-17T20:59:59Z</time>
      </trkpt>
      <trkpt lat="45.20857" lon="5.5911">
        <ele>1623</ele>
        <time>2012-04-17T21:00:00Z</time>
      </trkpt>
      <trkpt lat="45.20851" lon="5.5911">
        <ele>1623</ele>
        <time>2012-04-17T21:00:01Z</time>
      </trkpt>
      <trkpt lat="45.20844" lon="5.59114">
        <ele>1623</ele>
        <time>2012-04-17T21:00:02Z</time>
      </trkpt>
      <trkpt lat="45.20823" lon="5.59133">
        <ele>1623</ele>
        <time>2012-04-17T21:00:09Z</time>
      </trkpt>
      <trkpt lat="45.20806" lon="5.59142">
        <ele>1623</ele>
        <time>2012-04-17T21:00:14Z</time>
      </trkpt>
      <trkpt lat="45.20791" lon="5.59153">
        <ele>1623</ele>
        <time>2012-04-17T21:00:18Z</time>
      </trkpt>
      <trkpt lat="45.2078" lon="5.59155">
        <ele>1623</ele>
        <time>2012-04-17T21:00:21Z</time>
      </trkpt>
      <trkpt lat="45.20765" lon="5.59157">
        <ele>1623</ele>
        <time>2012-04-17T21:00:25Z</time>
      </trkpt>
      <trkpt lat="45.2075" lon="5.59159">
        <ele>1623</ele>
        <time>2012-04-17T21:00:29Z</time>
      </trkpt>
      <trkpt lat="45.20739" lon="5.59163">
        <ele>1623</ele>
        <time>2012-04-17T21:00:32Z</time>
      </trkpt>
      <trkpt lat="45.20728" lon="5.5917">
        <ele>1622</ele>
        <time>2012-04-17T21:00:35Z</time>
      </trkpt>
      <trkpt lat="45.20724" lon="5.59176">
        <ele>1622</ele>
        <time>2012-04-17T21:00:36Z</time>
      </trkpt>
      <trkpt lat="45.20722" lon="5.59183">
        <ele>1622</ele>
        <time>2012-04-17T21:00:37Z</time>
      </trkpt>
      <trkpt lat="45.20713" lon="5.59204">
        <ele>1622</ele>
        <time>2012-04-17T21:00:41Z</time>
      </trkpt>
      <trkpt lat="45.20709" lon="5.59213">
        <ele>1621</ele>
        <time>2012-04-17T21:00:43Z</time>
      </trkpt>
      <trkpt lat="45.20703" lon="5.59219">
        <ele>1621</ele>
        <time>2012-04-17T21:00:45Z</time>
      </trkpt>
      <trkpt lat="45.20698" lon="5.59221">
        <ele>1621</ele>
        <time>2012-04-17T21:00:46Z</time>
      </trkpt>
      <trkpt lat="45.20692" lon="5.59221">
        <ele>1621</ele>
        <time>2012-04-17T21:00:47Z</time>
      </trkpt>
      <trkpt lat="45.20685" lon="5.59221">
        <ele>1621</ele>
        <time>2012-04-17T21:00:48Z</time>
      </trkpt>
      <trkpt lat="45.20677" lon="5.59221">
        <ele>1621</ele>
        <time>2012-04-17T21:00:50Z</time>
      </trkpt>
      <trkpt lat="45.20664" lon="5.59217">
        <ele>1623</ele>
        <time>2012-04-17T21:00:53Z</time>
      </trkpt>
      <trkpt lat="45.20659" lon="5.59217">
        <ele>1623</ele>
        <time>2012-04-17T21:00:54Z</time>
      </trkpt>
      <trkpt lat="45.2064" lon="5.59215">
        <ele>1624</ele>
        <time>2012-04-17T21:00:59Z</time>
      </trkpt>
      <trkpt lat="45.20621" lon="5.59217">
        <ele>1624</ele>
        <time>2012-04-17T21:01:04Z</time>
      </trkpt>
      <trkpt lat="45.20613" lon="5.59219">
        <ele>1625</ele>
        <time>2012-04-17T21:01:06Z</time>
      </trkpt>
      <trkpt lat="45.20606" lon="5.59221">
        <ele>1625</ele>
        <time>2012-04-17T21:01:07Z</time>
      </trkpt>
      <trkpt lat="45.20597" lon="5.59226">
        <ele>1625</ele>
        <time>2012-04-17T21:01:09Z</time>
      </trkpt>
      <trkpt lat="45.20591" lon="5.59232">
        <ele>1625</ele>
        <time>2012-04-17T21:01:11Z</time>
      </trkpt>
      <trkpt lat="45.20578" lon="5.59243">
        <ele>1626</ele>
        <time>2012-04-17T21:01:15Z</time>
      </trkpt>
      <trkpt lat="45.20546" lon="5.59264">
        <ele>1626</ele>
        <time>2012-04-17T21:01:24Z</time>
      </trkpt>
      <trkpt lat="45.20516" lon="5.59281">
        <ele>1626</ele>
        <time>2012-04-17T21:01:33Z</time>
      </trkpt>
      <trkpt lat="45.20512" lon="5.59286">
        <ele>1626</ele>
        <time>2012-04-17T21:01:34Z</time>
      </trkpt>
      <trkpt lat="45.20499" lon="5.59296">
        <ele>1627</ele>
        <time>2012-04-17T21:01:38Z</time>
      </trkpt>
      <trkpt lat="45.20488" lon="5.59305">
        <ele>1626</ele>
        <time>2012-04-17T21:01:41Z</time>
      </trkpt>
      <trkpt lat="45.20473" lon="5.59311">
        <ele>1626</ele>
        <time>2012-04-17T21:01:45Z</time>
      </trkpt>
      <trkpt lat="45.20464" lon="5.59311">
        <ele>1626</ele>
        <time>2012-04-17T21:01:47Z</time>
      </trkpt>
      <trkpt lat="45.20458" lon="5.59311">
        <ele>1626</ele>
        <time>2012-04-17T21:01:48Z</time>
      </trkpt>
      <trkpt lat="45.20452" lon="5.59307">
        <ele>1626</ele>
        <time>2012-04-17T21:01:49Z</time>
      </trkpt>
      <trkpt lat="45.20447" lon="5.59307">
        <ele>1626</ele>
        <time>2012-04-17T21:01:50Z</time>
      </trkpt>
      <trkpt lat="45.20441" lon="5.59309">
        <ele>1626</ele>
        <time>2012-04-17T21:01:51Z</time>
      </trkpt>
      <trkpt lat="45.20432" lon="5.59309">
        <ele>1626</ele>
        <time>2012-04-17T21:01:53Z</time>
      </trkpt>
      <trkpt lat="45.20385" lon="5.59307">
        <ele>1627</ele>
        <time>2012-04-17T21:02:06Z</time>
      </trkpt>
      <trkpt lat="45.20366" lon="5.59296">
        <ele>1627</ele>
        <time>2012-04-17T21:02:11Z</time>
      </trkpt>
      <trkpt lat="45.20336" lon="5.59286">
        <ele>1628</ele>
        <time>2012-04-17T21:02:19Z</time>
      </trkpt>
      <trkpt lat="45.20323" lon="5.59284">
        <ele>1629</ele>
        <time>2012-04-17T21:02:22Z</time>
      </trkpt>
      <trkpt lat="45.20291" lon="5.59279">
        <ele>1629</ele>
        <time>2012-04-17T21:02:30Z</time>
      </trkpt>
      <trkpt lat="45.20252" lon="5.59264">
        <ele>1632</ele>
        <time>2012-04-17T21:02:41Z</time>
      </trkpt>
      <trkpt lat="45.20246" lon="5.59262">
        <ele>1632</ele>
        <time>2012-04-17T21:02:42Z</time>
      </trkpt>
      <trkpt lat="45.20239" lon="5.59258">
        <ele>1632</ele>
        <time>2012-04-17T21:02:43Z</time>
      </trkpt>
      <trkpt lat="45.20226" lon="5.59251">
        <ele>1631</ele>
        <time>2012-04-17T21:02:46Z</time>
      </trkpt>
      <trkpt lat="45.20218" lon="5.59249">
        <ele>1635</ele>
        <time>2012-04-17T21:02:48Z</time>
      </trkpt>
      <trkpt lat="45.20211" lon="5.59249">
        <ele>1635</ele>
        <time>2012-04-17T21:02:49Z</time>
      </trkpt>
      <trkpt lat="45.20168" lon="5.59249">
        <ele>1634</ele>
        <time>2012-04-17T21:03:00Z</time>
      </trkpt>
      <trkpt lat="45.20158" lon="5.59247">
        <ele>1634</ele>
        <time>2012-04-17T21:03:03Z</time>
      </trkpt>
      <trkpt lat="45.20151" lon="5.59245">
        <ele>1634</ele>
        <time>2012-04-17T21:03:04Z</time>
      </trkpt>
      <trkpt lat="45.20147" lon="5.59243">
        <ele>1634</ele>
        <time>2012-04-17T21:03:05Z</time>
      </trkpt>
      <trkpt lat="45.20125" lon="5.59228">
        <ele>1633</ele>
        <time>2012-04-17T21:03:11Z</time>
      </trkpt>
      <trkpt lat="45.20117" lon="5.59223">
        <ele>1633</ele>
        <time>2012-04-17T21:03:13Z</time>
      </trkpt>
      <trkpt lat="45.20113" lon="5.59223">
        <ele>1633</ele>
        <time>2012-04-17T21:03:14Z</time>
      </trkpt>
      <trkpt lat="45.20095" lon="5.59223">
        <ele>1632</ele>
        <time>2012-04-17T21:03:18Z</time>
      </trkpt>
      <trkpt lat="45.20078" lon="5.59223">
        <ele>1630</ele>
        <time>2012-04-17T21:03:22Z</time>
      </trkpt>
      <trkpt lat="45.20048" lon="5.59211">
        <ele>1630</ele>
        <time>2012-04-17T21:03:30Z</time>
      </trkpt>
      <trkpt lat="45.20035" lon="5.59208">
        <ele>1630</ele>
        <time>2012-04-17T21:03:33Z</time>
      </trkpt>
      <trkpt lat="45.2002" lon="5.59202">
        <ele>1630</ele>
        <time>2012-04-17T21:03:37Z</time>
      </trkpt>
      <trkpt lat="45.20004" lon="5.59198">
        <ele>1631</ele>
        <time>2012-04-17T21:03:41Z</time>
      </trkpt>
      <trkpt lat="45.19992" lon="5.59196">
        <ele>1630</ele>
        <time>2012-04-17T21:03:44Z</time>
      </trkpt>
      <trkpt lat="45.19973" lon="5.59193">
        <ele>1630</ele>
        <time>2012-04-17T21:03:49Z</time>
      </trkpt>
      <trkpt lat="45.19947" lon="5.59193">
        <ele>1630</ele>
        <time>2012-04-17T21:03:56Z</time>
      </trkpt>
      <trkpt lat="45.19934" lon="5.59191">
        <ele>1630</ele>
        <time>2012-04-17T21:03:59Z</time>
      </trkpt>
      <trkpt lat="45.19922" lon="5.59189">
        <ele>1630</ele>
        <time>2012-04-17T21:04:02Z</time>
      </trkpt>
      <trkpt lat="45.19894" lon="5.59183">
        <ele>1630</ele>
        <time>2012-04-17T21:04:09Z</time>
      </trkpt>
      <trkpt lat="45.19877" lon="5.59183">
        <ele>1630</ele>
        <time>2012-04-17T21:04:13Z</time>
      </trkpt>
      <trkpt lat="45.19868" lon="5.59185">
        <ele>1630</ele>
        <time>2012-04-17T21:04:15Z</time>
      </trkpt>
      <trkpt lat="45.19855" lon="5.59191">
        <ele>1631</ele>
        <time>2012-04-17T21:04:18Z</time>
      </trkpt>
      <trkpt lat="45.19849" lon="5.59193">
        <ele>1631</ele>
        <time>2012-04-17T21:04:19Z</time>
      </trkpt>
      <trkpt lat="45.19838" lon="5.59196">
        <ele>1631</ele>
        <time>2012-04-17T21:04:22Z</time>
      </trkpt>
      <trkpt lat="45.19834" lon="5.59191">
        <ele>1631</ele>
        <time>2012-04-17T21:04:23Z</time>
      </trkpt>
      <trkpt lat="45.19823" lon="5.59187">
        <ele>1633</ele>
        <time>2012-04-17T21:04:26Z</time>
      </trkpt>
      <trkpt lat="45.19812" lon="5.59185">
        <ele>1633</ele>
        <time>2012-04-17T21:04:29Z</time>
      </trkpt>
      <trkpt lat="45.19806" lon="5.59183">
        <ele>1633</ele>
        <time>2012-04-17T21:04:30Z</time>
      </trkpt>
      <trkpt lat="45.19801" lon="5.59183">
        <ele>1633</ele>
        <time>2012-04-17T21:04:31Z</time>
      </trkpt>
      <trkpt lat="45.19795" lon="5.59185">
        <ele>1633</ele>
        <time>2012-04-17T21:04:32Z</time>
      </trkpt>
      <trkpt lat="45.19784" lon="5.59196">
        <ele>1633</ele>
        <time>2012-04-17T21:04:35Z</time>
      </trkpt>
      <trkpt lat="45.1978" lon="5.59196">
        <ele>1634</ele>
        <time>2012-04-17T21:04:36Z</time>
      </trkpt>
      <trkpt lat="45.19758" lon="5.59196">
        <ele>1634</ele>
        <time>2012-04-17T21:04:41Z</time>
      </trkpt>
      <trkpt lat="45.19748" lon="5.59193">
        <ele>1638</ele>
        <time>2012-04-17T21:04:44Z</time>
      </trkpt>
      <trkpt lat="45.19726" lon="5.59187">
        <ele>1639</ele>
        <time>2012-04-17T21:04:50Z</time>
      </trkpt>
      <trkpt lat="45.19716" lon="5.59181">
        <ele>1640</ele>
        <time>2012-04-17T21:04:53Z</time>
      </trkpt>
      <trkpt lat="45.19698" lon="5.59176">
        <ele>1642</ele>
        <time>2012-04-17T21:04:57Z</time>
      </trkpt>
      <trkpt lat="45.19677" lon="5.59172">
        <ele>1647</ele>
        <time>2012-04-17T21:05:03Z</time>
      </trkpt>
      <trkpt lat="45.19653" lon="5.59168">
        <ele>1649</ele>
        <time>2012-04-17T21:05:09Z</time>
      </trkpt>
      <trkpt lat="45.19636" lon="5.59168">
        <ele>1648</ele>
        <time>2012-04-17T21:05:13Z</time>
      </trkpt>
      <trkpt lat="45.1963" lon="5.59168">
        <ele>1648</ele>
        <time>2012-04-17T21:05:14Z</time>
      </trkpt>
      <trkpt lat="45.19615" lon="5.5917">
        <ele>1649</ele>
        <time>2012-04-17T21:05:18Z</time>
      </trkpt>
      <trkpt lat="45.19606" lon="5.5917">
        <ele>1650</ele>
        <time>2012-04-17T21:05:20Z</time>
      </trkpt>
      <trkpt lat="45.19598" lon="5.59172">
        <ele>1652</ele>
        <time>2012-04-17T21:05:22Z</time>
      </trkpt>
      <trkpt lat="45.19574" lon="5.59185">
        <ele>1654</ele>
        <time>2012-04-17T21:05:29Z</time>
      </trkpt>
      <trkpt lat="45.19563" lon="5.59187">
        <ele>1654</ele>
        <time>2012-04-17T21:05:32Z</time>
      </trkpt>
      <trkpt lat="45.19542" lon="5.59189">
        <ele>1654</ele>
        <time>2012-04-17T21:05:37Z</time>
      </trkpt>
      <trkpt lat="45.19527" lon="5.59193">
        <ele>1654</ele>
        <time>2012-04-17T21:05:41Z</time>
      </trkpt>
      <trkpt lat="45.19512" lon="5.59196">
        <ele>1655</ele>
        <time>2012-04-17T21:05:45Z</time>
      </trkpt>
      <trkpt lat="45.19497" lon="5.59196">
        <ele>1656</ele>
        <time>2012-04-17T21:05:49Z</time>
      </trkpt>
      <trkpt lat="45.1949" lon="5.59198">
        <ele>1656</ele>
        <time>2012-04-17T21:05:50Z</time>
      </trkpt>
      <trkpt lat="45.19456" lon="5.59226">
        <ele>1655</ele>
        <time>2012-04-17T21:06:00Z</time>
      </trkpt>
      <trkpt lat="45.19443" lon="5.59234">
        <ele>1655</ele>
        <time>2012-04-17T21:06:03Z</time>
      </trkpt>
      <trkpt lat="45.19439" lon="5.59238">
        <ele>1655</ele>
        <time>2012-04-17T21:06:04Z</time>
      </trkpt>
      <trkpt lat="45.1943" lon="5.59243">
        <ele>1655</ele>
        <time>2012-04-17T21:06:06Z</time>
      </trkpt>
      <trkpt lat="45.19415" lon="5.59245">
        <ele>1653</ele>
        <time>2012-04-17T21:06:10Z</time>
      </trkpt>
      <trkpt lat="45.19398" lon="5.59247">
        <ele>1651</ele>
        <time>2012-04-17T21:06:14Z</time>
      </trkpt>
      <trkpt lat="45.19392" lon="5.59249">
        <ele>1650</ele>
        <time>2012-04-17T21:06:15Z</time>
      </trkpt>
      <trkpt lat="45.19385" lon="5.59251">
        <ele>1645</ele>
        <time>2012-04-17T21:06:16Z</time>
      </trkpt>
      <trkpt lat="45.19368" lon="5.59247">
        <ele>1647</ele>
        <time>2012-04-17T21:06:20Z</time>
      </trkpt>
      <trkpt lat="45.19355" lon="5.59245">
        <ele>1646</ele>
        <time>2012-04-17T21:06:23Z</time>
      </trkpt>
      <trkpt lat="45.19342" lon="5.59243">
        <ele>1646</ele>
        <time>2012-04-17T21:06:26Z</time>
      </trkpt>
      <trkpt lat="45.19329" lon="5.59241">
        <ele>1643</ele>
        <time>2012-04-17T21:06:29Z</time>
      </trkpt>
      <trkpt lat="45.19323" lon="5.59238">
        <ele>1643</ele>
        <time>2012-04-17T21:06:30Z</time>
      </trkpt>
      <trkpt lat="45.19299" lon="5.59228">
        <ele>1641</ele>
        <time>2012-04-17T21:06:36Z</time>
      </trkpt>
      <trkpt lat="45.19291" lon="5.59226">
        <ele>1641</ele>
        <time>2012-04-17T21:06:38Z</time>
      </trkpt>
      <trkpt lat="45.19276" lon="5.59226">
        <ele>1641</ele>
        <time>2012-04-17T21:06:42Z</time>
      </trkpt>
      <trkpt lat="45.19256" lon="5.59219">
        <ele>1640</ele>
        <time>2012-04-17T21:06:47Z</time>
      </trkpt>
      <trkpt lat="45.19244" lon="5.59215">
        <ele>1642</ele>
        <time>2012-04-17T21:06:50Z</time>
      </trkpt>
      <trkpt lat="45.19233" lon="5.59215">
        <ele>1642</ele>
        <time>2012-04-17T21:06:52Z</time>
      </trkpt>
      <trkpt lat="45.19222" lon="5.59211">
        <ele>1642</ele>
        <time>2012-04-17T21:06:55Z</time>
      </trkpt>
      <trkpt lat="45.19218" lon="5.59211">
        <ele>1642</ele>
        <time>2012-04-17T21:06:56Z</time>
      </trkpt>
      <trkpt lat="45.19188" lon="5.592">
        <ele>1645</ele>
        <time>2012-04-17T21:07:04Z</time>
      </trkpt>
      <trkpt lat="45.19151" lon="5.59189">
        <ele>1651</ele>
        <time>2012-04-17T21:07:14Z</time>
      </trkpt>
      <trkpt lat="45.19136" lon="5.59185">
        <ele>1652</ele>
        <time>2012-04-17T21:07:18Z</time>
      </trkpt>
      <trkpt lat="45.19119" lon="5.59176">
        <ele>1654</ele>
        <time>2012-04-17T21:07:23Z</time>
      </trkpt>
      <trkpt lat="45.19113" lon="5.5917">
        <ele>1656</ele>
        <time>2012-04-17T21:07:25Z</time>
      </trkpt>
      <trkpt lat="45.19108" lon="5.59168">
        <ele>1657</ele>
        <time>2012-04-17T21:07:26Z</time>
      </trkpt>
      <trkpt lat="45.19089" lon="5.59168">
        <ele>1665</ele>
        <time>2012-04-17T21:07:31Z</time>
      </trkpt>
      <trkpt lat="45.1908" lon="5.59163">
        <ele>1670</ele>
        <time>2012-04-17T21:07:33Z</time>
      </trkpt>
      <trkpt lat="45.19072" lon="5.59157">
        <ele>1672</ele>
        <time>2012-04-17T21:07:35Z</time>
      </trkpt>
      <trkpt lat="45.19063" lon="5.59153">
        <ele>1673</ele>
        <time>2012-04-17T21:07:37Z</time>
      </trkpt>
      <trkpt lat="45.19046" lon="5.5915">
        <ele>1674</ele>
        <time>2012-04-17T21:07:41Z</time>
      </trkpt>
      <trkpt lat="45.19038" lon="5.59148">
        <ele>1675</ele>
        <time>2012-04-17T21:07:43Z</time>
      </trkpt>
      <trkpt lat="45.19033" lon="5.59144">
        <ele>1675</ele>
        <time>2012-04-17T21:07:44Z</time>
      </trkpt>
      <trkpt lat="45.19025" lon="5.5914">
        <ele>1676</ele>
        <time>2012-04-17T21:07:46Z</time>
      </trkpt>
      <trkpt lat="45.19007" lon="5.59138">
        <ele>1676</ele>
        <time>2012-04-17T21:07:50Z</time>
      </trkpt>
      <trkpt lat="45.18984" lon="5.5914">
        <ele>1681</ele>
        <time>2012-04-17T21:07:56Z</time>
      </trkpt>
      <trkpt lat="45.18975" lon="5.59138">
        <ele>1682</ele>
        <time>2012-04-17T21:07:58Z</time>
      </trkpt>
      <trkpt lat="45.18958" lon="5.59138">
        <ele>1683</ele>
        <time>2012-04-17T21:08:02Z</time>
      </trkpt>
      <trkpt lat="45.18932" lon="5.59138">
        <ele>1684</ele>
        <time>2012-04-17T21:08:09Z</time>
      </trkpt>
      <trkpt lat="45.18913" lon="5.59142">
        <ele>1687</ele>
        <time>2012-04-17T21:08:14Z</time>
      </trkpt>
      <trkpt lat="45.18907" lon="5.59144">
        <ele>1687</ele>
        <time>2012-04-17T21:08:15Z</time>
      </trkpt>
      <trkpt lat="45.18892" lon="5.59144">
        <ele>1688</ele>
        <time>2012-04-17T21:08:19Z</time>
      </trkpt>
      <trkpt lat="45.18874" lon="5.59146">
        <ele>1689</ele>
        <time>2012-04-17T21:08:23Z</time>
      </trkpt>
      <trkpt lat="45.1887" lon="5.59144">
        <ele>1689</ele>
        <time>2012-04-17T21:08:24Z</time>
      </trkpt>
      <trkpt lat="45.18864" lon="5.59138">
        <ele>1690</ele>
        <time>2012-04-17T21:08:26Z</time>
      </trkpt>
      <trkpt lat="45.18857" lon="5.59135">
        <ele>1690</ele>
        <time>2012-04-17T21:08:27Z</time>
      </trkpt>
      <trkpt lat="45.18851" lon="5.5914">
        <ele>1690</ele>
        <time>2012-04-17T21:08:28Z</time>
      </trkpt>
      <trkpt lat="45.18823" lon="5.59148">
        <ele>1694</ele>
        <time>2012-04-17T21:08:35Z</time>
      </trkpt>
      <trkpt lat="45.18819" lon="5.59153">
        <ele>1693</ele>
        <time>2012-04-17T21:08:36Z</time>
      </trkpt>
      <trkpt lat="45.18814" lon="5.59155">
        <ele>1694</ele>
        <time>2012-04-17T21:08:37Z</time>
      </trkpt>
      <trkpt lat="45.18791" lon="5.59185">
        <ele>1684</ele>
        <time>2012-04-17T21:08:45Z</time>
      </trkpt>
      <trkpt lat="45.18776" lon="5.59191">
        <ele>1686</ele>
        <time>2012-04-17T21:08:49Z</time>
      </trkpt>
      <trkpt lat="45.18761" lon="5.59196">
        <ele>1688</ele>
        <time>2012-04-17T21:08:53Z</time>
      </trkpt>
      <trkpt lat="45.18752" lon="5.592">
        <ele>1687</ele>
        <time>2012-04-17T21:08:55Z</time>
      </trkpt>
      <trkpt lat="45.18748" lon="5.59202">
        <ele>1699</ele>
        <time>2012-04-17T21:08:56Z</time>
      </trkpt>
      <trkpt lat="45.18739" lon="5.59213">
        <ele>1697</ele>
        <time>2012-04-17T21:08:59Z</time>
      </trkpt>
      <trkpt lat="45.18722" lon="5.59226">
        <ele>1696</ele>
        <time>2012-04-17T21:09:04Z</time>
      </trkpt>
      <trkpt lat="45.1869" lon="5.59264">
        <ele>1678</ele>
        <time>2012-04-17T21:09:15Z</time>
      </trkpt>
      <trkpt lat="45.18686" lon="5.59264">
        <ele>1679</ele>
        <time>2012-04-17T21:09:16Z</time>
      </trkpt>
      <trkpt lat="45.18673" lon="5.59258">
        <ele>1687</ele>
        <time>2012-04-17T21:09:19Z</time>
      </trkpt>
      <trkpt lat="45.18664" lon="5.59253">
        <ele>1691</ele>
        <time>2012-04-17T21:09:21Z</time>
      </trkpt>
      <trkpt lat="45.18653" lon="5.59247">
        <ele>1695</ele>
        <time>2012-04-17T21:09:24Z</time>
      </trkpt>
      <trkpt lat="45.18647" lon="5.59241">
        <ele>1695</ele>
        <time>2012-04-17T21:09:26Z</time>
      </trkpt>
      <trkpt lat="45.18638" lon="5.59232">
        <ele>1695</ele>
        <time>2012-04-17T21:09:28Z</time>
      </trkpt>
      <trkpt lat="45.18634" lon="5.59225">
        <ele>1695</ele>
        <time>2012-04-17T21:09:29Z</time>
      </trkpt>
      <trkpt lat="45.18628" lon="5.59217">
        <ele>1695</ele>
        <time>2012-04-17T21:09:31Z</time>
      </trkpt>
      <trkpt lat="45.18608" lon="5.59185">
        <ele>1698</ele>
        <time>2012-04-17T21:09:39Z</time>
      </trkpt>
      <trkpt lat="45.186" lon="5.59174">
        <ele>1700</ele>
        <time>2012-04-17T21:09:42Z</time>
      </trkpt>
      <trkpt lat="45.18593" lon="5.5917">
        <ele>1701</ele>
        <time>2012-04-17T21:09:43Z</time>
      </trkpt>
      <trkpt lat="45.18587" lon="5.59168">
        <ele>1703</ele>
        <time>2012-04-17T21:09:44Z</time>
      </trkpt>
      <trkpt lat="45.18583" lon="5.59166">
        <ele>1703</ele>
        <time>2012-04-17T21:09:45Z</time>
      </trkpt>
      <trkpt lat="45.18576" lon="5.59159">
        <ele>1699</ele>
        <time>2012-04-17T21:09:47Z</time>
      </trkpt>
      <trkpt lat="45.1857" lon="5.59146">
        <ele>1696</ele>
        <time>2012-04-17T21:09:50Z</time>
      </trkpt>
      <trkpt lat="45.18568" lon="5.59142">
        <ele>1696</ele>
        <time>2012-04-17T21:09:51Z</time>
      </trkpt>
      <trkpt lat="45.18572" lon="5.59133">
        <ele>1697</ele>
        <time>2012-04-17T21:09:53Z</time>
      </trkpt>
      <trkpt lat="45.1857" lon="5.59129">
        <ele>1696</ele>
        <time>2012-04-17T21:09:54Z</time>
      </trkpt>
      <trkpt lat="45.18568" lon="5.59125">
        <ele>1697</ele>
        <time>2012-04-17T21:09:55Z</time>
      </trkpt>
      <trkpt lat="45.18565" lon="5.5912">
        <ele>1697</ele>
        <time>2012-04-17T21:09:56Z</time>
      </trkpt>
      <trkpt lat="45.1855" lon="5.59112">
        <ele>1695</ele>
        <time>2012-04-17T21:10:00Z</time>
      </trkpt>
      <trkpt lat="45.18542" lon="5.59101">
        <ele>1694</ele>
        <time>2012-04-17T21:10:03Z</time>
      </trkpt>
      <trkpt lat="45.18529" lon="5.5908">
        <ele>1700</ele>
        <time>2012-04-17T21:10:08Z</time>
      </trkpt>
      <trkpt lat="45.18523" lon="5.59073">
        <ele>1699</ele>
        <time>2012-04-17T21:10:10Z</time>
      </trkpt>
      <trkpt lat="45.18512" lon="5.59058">
        <ele>1699</ele>
        <time>2012-04-17T21:10:14Z</time>
      </trkpt>
      <trkpt lat="45.18505" lon="5.59047">
        <ele>1700</ele>
        <time>2012-04-17T21:10:16Z</time>
      </trkpt>
      <trkpt lat="45.18501" lon="5.59043">
        <ele>1701</ele>
        <time>2012-04-17T21:10:17Z</time>
      </trkpt>
      <trkpt lat="45.18497" lon="5.59041">
        <ele>1682</ele>
        <time>2012-04-17T21:10:18Z</time>
      </trkpt>
      <trkpt lat="45.1849" lon="5.59039">
        <ele>1682</ele>
        <time>2012-04-17T21:10:19Z</time>
      </trkpt>
      <trkpt lat="45.18484" lon="5.5903">
        <ele>1682</ele>
        <time>2012-04-17T21:10:21Z</time>
      </trkpt>
      <trkpt lat="45.18482" lon="5.5902">
        <ele>1684</ele>
        <time>2012-04-17T21:10:23Z</time>
      </trkpt>
      <trkpt lat="45.1848" lon="5.59007">
        <ele>1686</ele>
        <time>2012-04-17T21:10:25Z</time>
      </trkpt>
      <trkpt lat="45.18477" lon="5.58996">
        <ele>1693</ele>
        <time>2012-04-17T21:10:27Z</time>
      </trkpt>
      <trkpt lat="45.18475" lon="5.58992">
        <ele>1692</ele>
        <time>2012-04-17T21:10:28Z</time>
      </trkpt>
      <trkpt lat="45.18471" lon="5.58985">
        <ele>1691</ele>
        <time>2012-04-17T21:10:29Z</time>
      </trkpt>
      <trkpt lat="45.1845" lon="5.58962">
        <ele>1688</ele>
        <time>2012-04-17T21:10:36Z</time>
      </trkpt>
      <trkpt lat="45.18437" lon="5.58949">
        <ele>1687</ele>
        <time>2012-04-17T21:10:40Z</time>
      </trkpt>
      <trkpt lat="45.18432" lon="5.5894">
        <ele>1687</ele>
        <time>2012-04-17T21:10:42Z</time>
      </trkpt>
      <trkpt lat="45.18424" lon="5.58929">
        <ele>1687</ele>
        <time>2012-04-17T21:10:45Z</time>
      </trkpt>
      <trkpt lat="45.18422" lon="5.58923">
        <ele>1687</ele>
        <time>2012-04-17T21:10:46Z</time>
      </trkpt>
      <trkpt lat="45.18417" lon="5.58919">
        <ele>1686</ele>
        <time>2012-04-17T21:10:47Z</time>
      </trkpt>
      <trkpt lat="45.18413" lon="5.58917">
        <ele>1685</ele>
        <time>2012-04-17T21:10:48Z</time>
      </trkpt>
      <trkpt lat="45.18407" lon="5.58912">
        <ele>1682</ele>
        <time>2012-04-17T21:10:49Z</time>
      </trkpt>
      <trkpt lat="45.184" lon="5.58908">
        <ele>1680</ele>
        <time>2012-04-17T21:10:50Z</time>
      </trkpt>
      <trkpt lat="45.18387" lon="5.58897">
        <ele>1677</ele>
        <time>2012-04-17T21:10:54Z</time>
      </trkpt>
      <trkpt lat="45.18372" lon="5.58874">
        <ele>1676</ele>
        <time>2012-04-17T21:11:00Z</time>
      </trkpt>
      <trkpt lat="45.18368" lon="5.58867">
        <ele>1676</ele>
        <time>2012-04-17T21:11:01Z</time>
      </trkpt>
      <trkpt lat="45.18364" lon="5.58854">
        <ele>1676</ele>
        <time>2012-04-17T21:11:03Z</time>
      </trkpt>
      <trkpt lat="45.18359" lon="5.5885">
        <ele>1676</ele>
        <time>2012-04-17T21:11:04Z</time>
      </trkpt>
      <trkpt lat="45.18353" lon="5.58846">
        <ele>1676</ele>
        <time>2012-04-17T21:11:05Z</time>
      </trkpt>
      <trkpt lat="45.18351" lon="5.58842">
        <ele>1676</ele>
        <time>2012-04-17T21:11:06Z</time>
      </trkpt>
      <trkpt lat="45.1834" lon="5.58826">
        <ele>1678</ele>
        <time>2012-04-17T21:11:10Z</time>
      </trkpt>
      <trkpt lat="45.18336" lon="5.58822">
        <ele>1678</ele>
        <time>2012-04-17T21:11:11Z</time>
      </trkpt>
      <trkpt lat="45.18329" lon="5.58814">
        <ele>1672</ele>
        <time>2012-04-17T21:11:13Z</time>
      </trkpt>
      <trkpt lat="45.18321" lon="5.58809">
        <ele>1671</ele>
        <time>2012-04-17T21:11:15Z</time>
      </trkpt>
      <trkpt lat="45.18297" lon="5.58805">
        <ele>1667</ele>
        <time>2012-04-17T21:11:21Z</time>
      </trkpt>
      <trkpt lat="45.18267" lon="5.58792">
        <ele>1665</ele>
        <time>2012-04-17T21:11:29Z</time>
      </trkpt>
      <trkpt lat="45.18261" lon="5.58788">
        <ele>1665</ele>
        <time>2012-04-17T21:11:30Z</time>
      </trkpt>
      <trkpt lat="45.18256" lon="5.58781">
        <ele>1665</ele>
        <time>2012-04-17T21:11:31Z</time>
      </trkpt>
      <trkpt lat="45.18248" lon="5.58764">
        <ele>1659</ele>
        <time>2012-04-17T21:11:35Z</time>
      </trkpt>
      <trkpt lat="45.18244" lon="5.5876">
        <ele>1660</ele>
        <time>2012-04-17T21:11:36Z</time>
      </trkpt>
      <trkpt lat="45.18237" lon="5.58756">
        <ele>1659</ele>
        <time>2012-04-17T21:11:37Z</time>
      </trkpt>
      <trkpt lat="45.18216" lon="5.58749">
        <ele>1661</ele>
        <time>2012-04-17T21:11:43Z</time>
      </trkpt>
      <trkpt lat="45.18196" lon="5.58734">
        <ele>1659</ele>
        <time>2012-04-17T21:11:49Z</time>
      </trkpt>
      <trkpt lat="45.18184" lon="5.58723">
        <ele>1659</ele>
        <time>2012-04-17T21:11:53Z</time>
      </trkpt>
      <trkpt lat="45.18168" lon="5.58717">
        <ele>1659</ele>
        <time>2012-04-17T21:11:57Z</time>
      </trkpt>
      <trkpt lat="45.18162" lon="5.58713">
        <ele>1654</ele>
        <time>2012-04-17T21:11:58Z</time>
      </trkpt>
      <trkpt lat="45.18151" lon="5.58702">
        <ele>1655</ele>
        <time>2012-04-17T21:12:01Z</time>
      </trkpt>
      <trkpt lat="45.18145" lon="5.58696">
        <ele>1656</ele>
        <time>2012-04-17T21:12:03Z</time>
      </trkpt>
      <trkpt lat="45.18138" lon="5.58691">
        <ele>1656</ele>
        <time>2012-04-17T21:12:04Z</time>
      </trkpt>
      <trkpt lat="45.18132" lon="5.58689">
        <ele>1656</ele>
        <time>2012-04-17T21:12:05Z</time>
      </trkpt>
      <trkpt lat="45.18113" lon="5.58687">
        <ele>1656</ele>
        <time>2012-04-17T21:12:10Z</time>
      </trkpt>
      <trkpt lat="45.18106" lon="5.58683">
        <ele>1657</ele>
        <time>2012-04-17T21:12:11Z</time>
      </trkpt>
      <trkpt lat="45.18098" lon="5.58678">
        <ele>1659</ele>
        <time>2012-04-17T21:12:13Z</time>
      </trkpt>
      <trkpt lat="45.18074" lon="5.58655">
        <ele>1663</ele>
        <time>2012-04-17T21:12:21Z</time>
      </trkpt>
      <trkpt lat="45.18068" lon="5.58651">
        <ele>1662</ele>
        <time>2012-04-17T21:12:22Z</time>
      </trkpt>
      <trkpt lat="45.18038" lon="5.58631">
        <ele>1658</ele>
        <time>2012-04-17T21:12:31Z</time>
      </trkpt>
      <trkpt lat="45.18027" lon="5.58623">
        <ele>1658</ele>
        <time>2012-04-17T21:12:34Z</time>
      </trkpt>
      <trkpt lat="45.18008" lon="5.58613">
        <ele>1657</ele>
        <time>2012-04-17T21:12:39Z</time>
      </trkpt>
      <trkpt lat="45.18005" lon="5.58612">
        <ele>1657</ele>
        <time>2012-04-17T21:12:39Z</time>
      </trkpt>
      <trkpt lat="45.17995" lon="5.58608">
        <ele>1652</ele>
        <time>2012-04-17T21:12:42Z</time>
      </trkpt>
      <trkpt lat="45.17978" lon="5.58603">
        <ele>1651</ele>
        <time>2012-04-17T21:12:46Z</time>
      </trkpt>
      <trkpt lat="45.17956" lon="5.5859">
        <ele>1651</ele>
        <time>2012-04-17T21:12:52Z</time>
      </trkpt>
      <trkpt lat="45.17947" lon="5.58588">
        <ele>1652</ele>
        <time>2012-04-17T21:12:54Z</time>
      </trkpt>
      <trkpt lat="45.17941" lon="5.58584">
        <ele>1653</ele>
        <time>2012-04-17T21:12:55Z</time>
      </trkpt>
      <trkpt lat="45.17937" lon="5.58582">
        <ele>1658</ele>
        <time>2012-04-17T21:12:56Z</time>
      </trkpt>
      <trkpt lat="45.1793" lon="5.5858">
        <ele>1658</ele>
        <time>2012-04-17T21:12:57Z</time>
      </trkpt>
      <trkpt lat="45.17926" lon="5.58582">
        <ele>1659</ele>
        <time>2012-04-17T21:12:58Z</time>
      </trkpt>
      <trkpt lat="45.17917" lon="5.5858">
        <ele>1659</ele>
        <time>2012-04-17T21:13:00Z</time>
      </trkpt>
      <trkpt lat="45.17911" lon="5.5858">
        <ele>1660</ele>
        <time>2012-04-17T21:13:01Z</time>
      </trkpt>
      <trkpt lat="45.17905" lon="5.5858">
        <ele>1661</ele>
        <time>2012-04-17T21:13:02Z</time>
      </trkpt>
      <trkpt lat="45.17896" lon="5.5858">
        <ele>1662</ele>
        <time>2012-04-17T21:13:04Z</time>
      </trkpt>
      <trkpt lat="45.1789" lon="5.5858">
        <ele>1663</ele>
        <time>2012-04-17T21:13:05Z</time>
      </trkpt>
      <trkpt lat="45.17885" lon="5.58575">
        <ele>1663</ele>
        <time>2012-04-17T21:13:06Z</time>
      </trkpt>
      <trkpt lat="45.17883" lon="5.58571">
        <ele>1664</ele>
        <time>2012-04-17T21:13:07Z</time>
      </trkpt>
      <trkpt lat="45.17877" lon="5.58571">
        <ele>1664</ele>
        <time>2012-04-17T21:13:08Z</time>
      </trkpt>
      <trkpt lat="45.17872" lon="5.58571">
        <ele>1664</ele>
        <time>2012-04-17T21:13:09Z</time>
      </trkpt>
      <trkpt lat="45.17868" lon="5.58573">
        <ele>1665</ele>
        <time>2012-04-17T21:13:10Z</time>
      </trkpt>
      <trkpt lat="45.17864" lon="5.58575">
        <ele>1665</ele>
        <time>2012-04-17T21:13:11Z</time>
      </trkpt>
      <trkpt lat="45.17864" lon="5.5858">
        <ele>1665</ele>
        <time>2012-04-17T21:13:11Z</time>
      </trkpt>
      <trkpt lat="45.17862" lon="5.58586">
        <ele>1657</ele>
        <time>2012-04-17T21:13:12Z</time>
      </trkpt>
      <trkpt lat="45.17857" lon="5.58593">
        <ele>1657</ele>
        <time>2012-04-17T21:13:13Z</time>
      </trkpt>
      <trkpt lat="45.17853" lon="5.58599">
        <ele>1657</ele>
        <time>2012-04-17T21:13:14Z</time>
      </trkpt>
      <trkpt lat="45.17847" lon="5.58605">
        <ele>1657</ele>
        <time>2012-04-17T21:13:16Z</time>
      </trkpt>
      <trkpt lat="45.1784" lon="5.5861">
        <ele>1656</ele>
        <time>2012-04-17T21:13:17Z</time>
      </trkpt>
      <trkpt lat="45.17836" lon="5.58612">
        <ele>1656</ele>
        <time>2012-04-17T21:13:18Z</time>
      </trkpt>
      <trkpt lat="45.17827" lon="5.58614">
        <ele>1662</ele>
        <time>2012-04-17T21:13:20Z</time>
      </trkpt>
      <trkpt lat="45.17821" lon="5.58616">
        <ele>1661</ele>
        <time>2012-04-17T21:13:21Z</time>
      </trkpt>
      <trkpt lat="45.17814" lon="5.5862">
        <ele>1661</ele>
        <time>2012-04-17T21:13:22Z</time>
      </trkpt>
      <trkpt lat="45.17808" lon="5.58625">
        <ele>1660</ele>
        <time>2012-04-17T21:13:23Z</time>
      </trkpt>
      <trkpt lat="45.17802" lon="5.58629">
        <ele>1660</ele>
        <time>2012-04-17T21:13:24Z</time>
      </trkpt>
      <trkpt lat="45.17793" lon="5.58631">
        <ele>1660</ele>
        <time>2012-04-17T21:13:26Z</time>
      </trkpt>
      <trkpt lat="45.17789" lon="5.58633">
        <ele>1660</ele>
        <time>2012-04-17T21:13:27Z</time>
      </trkpt>
      <trkpt lat="45.17784" lon="5.58638">
        <ele>1660</ele>
        <time>2012-04-17T21:13:28Z</time>
      </trkpt>
      <trkpt lat="45.1778" lon="5.58642">
        <ele>1660</ele>
        <time>2012-04-17T21:13:29Z</time>
      </trkpt>
      <trkpt lat="45.17774" lon="5.58644">
        <ele>1660</ele>
        <time>2012-04-17T21:13:30Z</time>
      </trkpt>
      <trkpt lat="45.17769" lon="5.58642">
        <ele>1660</ele>
        <time>2012-04-17T21:13:31Z</time>
      </trkpt>
      <trkpt lat="45.17763" lon="5.5864">
        <ele>1661</ele>
        <time>2012-04-17T21:13:32Z</time>
      </trkpt>
      <trkpt lat="45.17759" lon="5.58638">
        <ele>1661</ele>
        <time>2012-04-17T21:13:33Z</time>
      </trkpt>
      <trkpt lat="45.17752" lon="5.5864">
        <ele>1661</ele>
        <time>2012-04-17T21:13:34Z</time>
      </trkpt>
      <trkpt lat="45.17746" lon="5.58642">
        <ele>1666</ele>
        <time>2012-04-17T21:13:35Z</time>
      </trkpt>
      <trkpt lat="45.17741" lon="5.58642">
        <ele>1666</ele>
        <time>2012-04-17T21:13:36Z</time>
      </trkpt>
      <trkpt lat="45.17735" lon="5.58642">
        <ele>1667</ele>
        <time>2012-04-17T21:13:37Z</time>
      </trkpt>
      <trkpt lat="45.17729" lon="5.58644">
        <ele>1667</ele>
        <time>2012-04-17T21:13:38Z</time>
      </trkpt>
      <trkpt lat="45.17722" lon="5.58646">
        <ele>1668</ele>
        <time>2012-04-17T21:13:39Z</time>
      </trkpt>
      <trkpt lat="45.17718" lon="5.58646">
        <ele>1668</ele>
        <time>2012-04-17T21:13:40Z</time>
      </trkpt>
      <trkpt lat="45.17711" lon="5.58648">
        <ele>1669</ele>
        <time>2012-04-17T21:13:41Z</time>
      </trkpt>
      <trkpt lat="45.17705" lon="5.58651">
        <ele>1669</ele>
        <time>2012-04-17T21:13:42Z</time>
      </trkpt>
      <trkpt lat="45.17669" lon="5.58648">
        <ele>1670</ele>
        <time>2012-04-17T21:13:52Z</time>
      </trkpt>
      <trkpt lat="45.17662" lon="5.58646">
        <ele>1672</ele>
        <time>2012-04-17T21:13:53Z</time>
      </trkpt>
      <trkpt lat="45.17658" lon="5.58642">
        <ele>1672</ele>
        <time>2012-04-17T21:13:54Z</time>
      </trkpt>
      <trkpt lat="45.17654" lon="5.5864">
        <ele>1673</ele>
        <time>2012-04-17T21:13:55Z</time>
      </trkpt>
      <trkpt lat="45.17649" lon="5.58636">
        <ele>1673</ele>
        <time>2012-04-17T21:13:56Z</time>
      </trkpt>
      <trkpt lat="45.17643" lon="5.58633">
        <ele>1673</ele>
        <time>2012-04-17T21:13:57Z</time>
      </trkpt>
      <trkpt lat="45.17636" lon="5.58631">
        <ele>1673</ele>
        <time>2012-04-17T21:13:58Z</time>
      </trkpt>
      <trkpt lat="45.17628" lon="5.58627">
        <ele>1674</ele>
        <time>2012-04-17T21:14:00Z</time>
      </trkpt>
      <trkpt lat="45.17617" lon="5.5862">
        <ele>1674</ele>
        <time>2012-04-17T21:14:03Z</time>
      </trkpt>
      <trkpt lat="45.17604" lon="5.58614">
        <ele>1676</ele>
        <time>2012-04-17T21:14:06Z</time>
      </trkpt>
      <trkpt lat="45.176" lon="5.58612">
        <ele>1676</ele>
        <time>2012-04-17T21:14:07Z</time>
      </trkpt>
      <trkpt lat="45.17548" lon="5.5858">
        <ele>1681</ele>
        <time>2012-04-17T21:14:22Z</time>
      </trkpt>
      <trkpt lat="45.17544" lon="5.58578">
        <ele>1681</ele>
        <time>2012-04-17T21:14:23Z</time>
      </trkpt>
      <trkpt lat="45.17535" lon="5.58575">
        <ele>1680</ele>
        <time>2012-04-17T21:14:25Z</time>
      </trkpt>
      <trkpt lat="45.17531" lon="5.58571">
        <ele>1680</ele>
        <time>2012-04-17T21:14:26Z</time>
      </trkpt>
      <trkpt lat="45.17527" lon="5.58565">
        <ele>1679</ele>
        <time>2012-04-17T21:14:27Z</time>
      </trkpt>
      <trkpt lat="45.17523" lon="5.5856">
        <ele>1679</ele>
        <time>2012-04-17T21:14:28Z</time>
      </trkpt>
      <trkpt lat="45.17518" lon="5.58554">
        <ele>1680</ele>
        <time>2012-04-17T21:14:29Z</time>
      </trkpt>
      <trkpt lat="45.17512" lon="5.5855">
        <ele>1680</ele>
        <time>2012-04-17T21:14:30Z</time>
      </trkpt>
      <trkpt lat="45.17508" lon="5.58548">
        <ele>1680</ele>
        <time>2012-04-17T21:14:31Z</time>
      </trkpt>
      <trkpt lat="45.17501" lon="5.58548">
        <ele>1680</ele>
        <time>2012-04-17T21:14:32Z</time>
      </trkpt>
      <trkpt lat="45.17495" lon="5.58548">
        <ele>1673</ele>
        <time>2012-04-17T21:14:33Z</time>
      </trkpt>
      <trkpt lat="45.17488" lon="5.5855">
        <ele>1672</ele>
        <time>2012-04-17T21:14:34Z</time>
      </trkpt>
      <trkpt lat="45.17482" lon="5.58552">
        <ele>1672</ele>
        <time>2012-04-17T21:14:35Z</time>
      </trkpt>
      <trkpt lat="45.17478" lon="5.58552">
        <ele>1671</ele>
        <time>2012-04-17T21:14:36Z</time>
      </trkpt>
      <trkpt lat="45.17471" lon="5.58552">
        <ele>1671</ele>
        <time>2012-04-17T21:14:37Z</time>
      </trkpt>
      <trkpt lat="45.17465" lon="5.58548">
        <ele>1671</ele>
        <time>2012-04-17T21:14:38Z</time>
      </trkpt>
      <trkpt lat="45.17458" lon="5.58545">
        <ele>1670</ele>
        <time>2012-04-17T21:14:39Z</time>
      </trkpt>
      <trkpt lat="45.17452" lon="5.58543">
        <ele>1670</ele>
        <time>2012-04-17T21:14:40Z</time>
      </trkpt>
      <trkpt lat="45.17445" lon="5.58541">
        <ele>1670</ele>
        <time>2012-04-17T21:14:41Z</time>
      </trkpt>
      <trkpt lat="45.17441" lon="5.58537">
        <ele>1670</ele>
        <time>2012-04-17T21:14:42Z</time>
      </trkpt>
      <trkpt lat="45.17437" lon="5.58535">
        <ele>1670</ele>
        <time>2012-04-17T21:14:43Z</time>
      </trkpt>
      <trkpt lat="45.17432" lon="5.58533">
        <ele>1670</ele>
        <time>2012-04-17T21:14:44Z</time>
      </trkpt>
      <trkpt lat="45.17426" lon="5.58526">
        <ele>1671</ele>
        <time>2012-04-17T21:14:46Z</time>
      </trkpt>
      <trkpt lat="45.17424" lon="5.58522">
        <ele>1672</ele>
        <time>2012-04-17T21:14:47Z</time>
      </trkpt>
      <trkpt lat="45.17417" lon="5.58517">
        <ele>1672</ele>
        <time>2012-04-17T21:14:48Z</time>
      </trkpt>
      <trkpt lat="45.17411" lon="5.58513">
        <ele>1663</ele>
        <time>2012-04-17T21:14:49Z</time>
      </trkpt>
      <trkpt lat="45.17407" lon="5.58507">
        <ele>1665</ele>
        <time>2012-04-17T21:14:50Z</time>
      </trkpt>
      <trkpt lat="45.17402" lon="5.58502">
        <ele>1663</ele>
        <time>2012-04-17T21:14:51Z</time>
      </trkpt>
      <trkpt lat="45.17396" lon="5.58498">
        <ele>1668</ele>
        <time>2012-04-17T21:14:52Z</time>
      </trkpt>
      <trkpt lat="45.17392" lon="5.58494">
        <ele>1667</ele>
        <time>2012-04-17T21:14:53Z</time>
      </trkpt>
      <trkpt lat="45.17381" lon="5.58483">
        <ele>1665</ele>
        <time>2012-04-17T21:14:56Z</time>
      </trkpt>
      <trkpt lat="45.17377" lon="5.58479">
        <ele>1664</ele>
        <time>2012-04-17T21:14:57Z</time>
      </trkpt>
      <trkpt lat="45.1737" lon="5.58475">
        <ele>1663</ele>
        <time>2012-04-17T21:14:58Z</time>
      </trkpt>
      <trkpt lat="45.17366" lon="5.5847">
        <ele>1663</ele>
        <time>2012-04-17T21:14:59Z</time>
      </trkpt>
      <trkpt lat="45.17362" lon="5.58468">
        <ele>1662</ele>
        <time>2012-04-17T21:15:00Z</time>
      </trkpt>
      <trkpt lat="45.17357" lon="5.58466">
        <ele>1662</ele>
        <time>2012-04-17T21:15:01Z</time>
      </trkpt>
      <trkpt lat="45.17347" lon="5.58466">
        <ele>1660</ele>
        <time>2012-04-17T21:15:03Z</time>
      </trkpt>
      <trkpt lat="45.1734" lon="5.58464">
        <ele>1660</ele>
        <time>2012-04-17T21:15:04Z</time>
      </trkpt>
      <trkpt lat="45.17336" lon="5.58462">
        <ele>1660</ele>
        <time>2012-04-17T21:15:05Z</time>
      </trkpt>
      <trkpt lat="45.17332" lon="5.58457">
        <ele>1647</ele>
        <time>2012-04-17T21:15:06Z</time>
      </trkpt>
      <trkpt lat="45.17327" lon="5.58455">
        <ele>1647</ele>
        <time>2012-04-17T21:15:07Z</time>
      </trkpt>
      <trkpt lat="45.17324" lon="5.58453">
        <ele>1647</ele>
        <time>2012-04-17T21:15:08Z</time>
      </trkpt>
      <trkpt lat="45.17321" lon="5.58451">
        <ele>1647</ele>
        <time>2012-04-17T21:15:08Z</time>
      </trkpt>
      <trkpt lat="45.17319" lon="5.58445">
        <ele>1648</ele>
        <time>2012-04-17T21:15:09Z</time>
      </trkpt>
      <trkpt lat="45.17317" lon="5.58438">
        <ele>1649</ele>
        <time>2012-04-17T21:15:10Z</time>
      </trkpt>
      <trkpt lat="45.17312" lon="5.58434">
        <ele>1649</ele>
        <time>2012-04-17T21:15:11Z</time>
      </trkpt>
      <trkpt lat="45.17306" lon="5.58423">
        <ele>1649</ele>
        <time>2012-04-17T21:15:13Z</time>
      </trkpt>
      <trkpt lat="45.17302" lon="5.58412">
        <ele>1654</ele>
        <time>2012-04-17T21:15:15Z</time>
      </trkpt>
      <trkpt lat="45.17299" lon="5.58402">
        <ele>1653</ele>
        <time>2012-04-17T21:15:17Z</time>
      </trkpt>
      <trkpt lat="45.17295" lon="5.58395">
        <ele>1652</ele>
        <time>2012-04-17T21:15:18Z</time>
      </trkpt>
      <trkpt lat="45.17293" lon="5.58391">
        <ele>1652</ele>
        <time>2012-04-17T21:15:19Z</time>
      </trkpt>
      <trkpt lat="45.17289" lon="5.58391">
        <ele>1652</ele>
        <time>2012-04-17T21:15:20Z</time>
      </trkpt>
      <trkpt lat="45.17282" lon="5.58393">
        <ele>1651</ele>
        <time>2012-04-17T21:15:21Z</time>
      </trkpt>
      <trkpt lat="45.17278" lon="5.58395">
        <ele>1650</ele>
        <time>2012-04-17T21:15:22Z</time>
      </trkpt>
      <trkpt lat="45.17274" lon="5.58395">
        <ele>1650</ele>
        <time>2012-04-17T21:15:23Z</time>
      </trkpt>
      <trkpt lat="45.17267" lon="5.58397">
        <ele>1649</ele>
        <time>2012-04-17T21:15:24Z</time>
      </trkpt>
      <trkpt lat="45.17263" lon="5.58397">
        <ele>1648</ele>
        <time>2012-04-17T21:15:25Z</time>
      </trkpt>
      <trkpt lat="45.17259" lon="5.58397">
        <ele>1648</ele>
        <time>2012-04-17T21:15:26Z</time>
      </trkpt>
      <trkpt lat="45.17254" lon="5.58395">
        <ele>1648</ele>
        <time>2012-04-17T21:15:27Z</time>
      </trkpt>
      <trkpt lat="45.1725" lon="5.58393">
        <ele>1648</ele>
        <time>2012-04-17T21:15:28Z</time>
      </trkpt>
      <trkpt lat="45.17244" lon="5.58389">
        <ele>1637</ele>
        <time>2012-04-17T21:15:29Z</time>
      </trkpt>
      <trkpt lat="45.17231" lon="5.58384">
        <ele>1636</ele>
        <time>2012-04-17T21:15:32Z</time>
      </trkpt>
      <trkpt lat="45.17224" lon="5.58384">
        <ele>1636</ele>
        <time>2012-04-17T21:15:33Z</time>
      </trkpt>
      <trkpt lat="45.17218" lon="5.58384">
        <ele>1635</ele>
        <time>2012-04-17T21:15:34Z</time>
      </trkpt>
      <trkpt lat="45.17214" lon="5.58387">
        <ele>1634</ele>
        <time>2012-04-17T21:15:35Z</time>
      </trkpt>
      <trkpt lat="45.17207" lon="5.58389">
        <ele>1634</ele>
        <time>2012-04-17T21:15:36Z</time>
      </trkpt>
      <trkpt lat="45.17194" lon="5.58393">
        <ele>1632</ele>
        <time>2012-04-17T21:15:39Z</time>
      </trkpt>
      <trkpt lat="45.17181" lon="5.58395">
        <ele>1631</ele>
        <time>2012-04-17T21:15:42Z</time>
      </trkpt>
      <trkpt lat="45.17175" lon="5.58395">
        <ele>1630</ele>
        <time>2012-04-17T21:15:43Z</time>
      </trkpt>
      <trkpt lat="45.17169" lon="5.58395">
        <ele>1630</ele>
        <time>2012-04-17T21:15:44Z</time>
      </trkpt>
      <trkpt lat="45.17164" lon="5.58395">
        <ele>1625</ele>
        <time>2012-04-17T21:15:45Z</time>
      </trkpt>
      <trkpt lat="45.1716" lon="5.58391">
        <ele>1625</ele>
        <time>2012-04-17T21:15:46Z</time>
      </trkpt>
      <trkpt lat="45.17156" lon="5.58389">
        <ele>1625</ele>
        <time>2012-04-17T21:15:47Z</time>
      </trkpt>
      <trkpt lat="45.17151" lon="5.58384">
        <ele>1625</ele>
        <time>2012-04-17T21:15:48Z</time>
      </trkpt>
      <trkpt lat="45.17145" lon="5.5838">
        <ele>1625</ele>
        <time>2012-04-17T21:15:49Z</time>
      </trkpt>
      <trkpt lat="45.17139" lon="5.5838">
        <ele>1625</ele>
        <time>2012-04-17T21:15:50Z</time>
      </trkpt>
      <trkpt lat="45.17134" lon="5.58378">
        <ele>1626</ele>
        <time>2012-04-17T21:15:51Z</time>
      </trkpt>
      <trkpt lat="45.1713" lon="5.58378">
        <ele>1626</ele>
        <time>2012-04-17T21:15:52Z</time>
      </trkpt>
      <trkpt lat="45.17126" lon="5.58376">
        <ele>1626</ele>
        <time>2012-04-17T21:15:53Z</time>
      </trkpt>
      <trkpt lat="45.17119" lon="5.58374">
        <ele>1626</ele>
        <time>2012-04-17T21:15:54Z</time>
      </trkpt>
      <trkpt lat="45.17115" lon="5.58369">
        <ele>1626</ele>
        <time>2012-04-17T21:15:55Z</time>
      </trkpt>
      <trkpt lat="45.171" lon="5.58367">
        <ele>1627</ele>
        <time>2012-04-17T21:15:59Z</time>
      </trkpt>
      <trkpt lat="45.17085" lon="5.58363">
        <ele>1628</ele>
        <time>2012-04-17T21:16:03Z</time>
      </trkpt>
      <trkpt lat="45.17078" lon="5.58361">
        <ele>1634</ele>
        <time>2012-04-17T21:16:04Z</time>
      </trkpt>
      <trkpt lat="45.17074" lon="5.58359">
        <ele>1635</ele>
        <time>2012-04-17T21:16:05Z</time>
      </trkpt>
      <trkpt lat="45.17068" lon="5.58359">
        <ele>1635</ele>
        <time>2012-04-17T21:16:06Z</time>
      </trkpt>
      <trkpt lat="45.17059" lon="5.58352">
        <ele>1636</ele>
        <time>2012-04-17T21:16:08Z</time>
      </trkpt>
      <trkpt lat="45.17051" lon="5.58352">
        <ele>1637</ele>
        <time>2012-04-17T21:16:10Z</time>
      </trkpt>
      <trkpt lat="45.17046" lon="5.5835">
        <ele>1638</ele>
        <time>2012-04-17T21:16:11Z</time>
      </trkpt>
      <trkpt lat="45.17033" lon="5.5835">
        <ele>1639</ele>
        <time>2012-04-17T21:16:14Z</time>
      </trkpt>
      <trkpt lat="45.17027" lon="5.5835">
        <ele>1641</ele>
        <time>2012-04-17T21:16:15Z</time>
      </trkpt>
      <trkpt lat="45.17012" lon="5.58354">
        <ele>1642</ele>
        <time>2012-04-17T21:16:19Z</time>
      </trkpt>
      <trkpt lat="45.17003" lon="5.58357">
        <ele>1643</ele>
        <time>2012-04-17T21:16:21Z</time>
      </trkpt>
      <trkpt lat="45.16997" lon="5.58361">
        <ele>1648</ele>
        <time>2012-04-17T21:16:22Z</time>
      </trkpt>
      <trkpt lat="45.16993" lon="5.58363">
        <ele>1648</ele>
        <time>2012-04-17T21:16:23Z</time>
      </trkpt>
      <trkpt lat="45.16988" lon="5.58367">
        <ele>1648</ele>
        <time>2012-04-17T21:16:24Z</time>
      </trkpt>
      <trkpt lat="45.16984" lon="5.58372">
        <ele>1648</ele>
        <time>2012-04-17T21:16:25Z</time>
      </trkpt>
      <trkpt lat="45.1698" lon="5.58376">
        <ele>1647</ele>
        <time>2012-04-17T21:16:26Z</time>
      </trkpt>
      <trkpt lat="45.16975" lon="5.58376">
        <ele>1647</ele>
        <time>2012-04-17T21:16:27Z</time>
      </trkpt>
      <trkpt lat="45.16971" lon="5.58376">
        <ele>1648</ele>
        <time>2012-04-17T21:16:28Z</time>
      </trkpt>
      <trkpt lat="45.16956" lon="5.58374">
        <ele>1648</ele>
        <time>2012-04-17T21:16:32Z</time>
      </trkpt>
      <trkpt lat="45.16926" lon="5.58365">
        <ele>1649</ele>
        <time>2012-04-17T21:16:40Z</time>
      </trkpt>
      <trkpt lat="45.16909" lon="5.58359">
        <ele>1647</ele>
        <time>2012-04-17T21:16:44Z</time>
      </trkpt>
      <trkpt lat="45.16892" lon="5.58354">
        <ele>1646</ele>
        <time>2012-04-17T21:16:48Z</time>
      </trkpt>
      <trkpt lat="45.16875" lon="5.5835">
        <ele>1645</ele>
        <time>2012-04-17T21:16:52Z</time>
      </trkpt>
      <trkpt lat="45.16855" lon="5.58342">
        <ele>1646</ele>
        <time>2012-04-17T21:16:57Z</time>
      </trkpt>
      <trkpt lat="45.16845" lon="5.58339">
        <ele>1647</ele>
        <time>2012-04-17T21:17:00Z</time>
      </trkpt>
      <trkpt lat="45.16832" lon="5.58335">
        <ele>1647</ele>
        <time>2012-04-17T21:17:03Z</time>
      </trkpt>
      <trkpt lat="45.16821" lon="5.58335">
        <ele>1642</ele>
        <time>2012-04-17T21:17:05Z</time>
      </trkpt>
      <trkpt lat="45.16815" lon="5.58337">
        <ele>1640</ele>
        <time>2012-04-17T21:17:06Z</time>
      </trkpt>
      <trkpt lat="45.16808" lon="5.58337">
        <ele>1638</ele>
        <time>2012-04-17T21:17:07Z</time>
      </trkpt>
      <trkpt lat="45.16795" lon="5.58335">
        <ele>1636</ele>
        <time>2012-04-17T21:17:10Z</time>
      </trkpt>
      <trkpt lat="45.16772" lon="5.58324">
        <ele>1640</ele>
        <time>2012-04-17T21:17:16Z</time>
      </trkpt>
      <trkpt lat="45.16763" lon="5.5832">
        <ele>1640</ele>
        <time>2012-04-17T21:17:18Z</time>
      </trkpt>
      <trkpt lat="45.16757" lon="5.58318">
        <ele>1640</ele>
        <time>2012-04-17T21:17:19Z</time>
      </trkpt>
      <trkpt lat="45.16735" lon="5.58316">
        <ele>1640</ele>
        <time>2012-04-17T21:17:24Z</time>
      </trkpt>
      <trkpt lat="45.16727" lon="5.58316">
        <ele>1640</ele>
        <time>2012-04-17T21:17:26Z</time>
      </trkpt>
      <trkpt lat="45.1672" lon="5.58314">
        <ele>1640</ele>
        <time>2012-04-17T21:17:27Z</time>
      </trkpt>
      <trkpt lat="45.16714" lon="5.58314">
        <ele>1640</ele>
        <time>2012-04-17T21:17:28Z</time>
      </trkpt>
      <trkpt lat="45.16707" lon="5.58312">
        <ele>1640</ele>
        <time>2012-04-17T21:17:29Z</time>
      </trkpt>
      <trkpt lat="45.16701" lon="5.58309">
        <ele>1640</ele>
        <time>2012-04-17T21:17:30Z</time>
      </trkpt>
      <trkpt lat="45.16684" lon="5.58305">
        <ele>1640</ele>
        <time>2012-04-17T21:17:34Z</time>
      </trkpt>
      <trkpt lat="45.16671" lon="5.58303">
        <ele>1640</ele>
        <time>2012-04-17T21:17:37Z</time>
      </trkpt>
      <trkpt lat="45.1666" lon="5.58299">
        <ele>1641</ele>
        <time>2012-04-17T21:17:40Z</time>
      </trkpt>
      <trkpt lat="45.16649" lon="5.58296">
        <ele>1641</ele>
        <time>2012-04-17T21:17:43Z</time>
      </trkpt>
      <trkpt lat="45.16636" lon="5.58292">
        <ele>1641</ele>
        <time>2012-04-17T21:17:46Z</time>
      </trkpt>
      <trkpt lat="45.16609" lon="5.58284">
        <ele>1643</ele>
        <time>2012-04-17T21:17:53Z</time>
      </trkpt>
      <trkpt lat="45.16598" lon="5.58281">
        <ele>1643</ele>
        <time>2012-04-17T21:17:56Z</time>
      </trkpt>
      <trkpt lat="45.16589" lon="5.58279">
        <ele>1644</ele>
        <time>2012-04-17T21:17:58Z</time>
      </trkpt>
      <trkpt lat="45.16576" lon="5.58275">
        <ele>1643</ele>
        <time>2012-04-17T21:18:01Z</time>
      </trkpt>
      <trkpt lat="45.16561" lon="5.58269">
        <ele>1643</ele>
        <time>2012-04-17T21:18:05Z</time>
      </trkpt>
      <trkpt lat="45.16542" lon="5.5826">
        <ele>1643</ele>
        <time>2012-04-17T21:18:10Z</time>
      </trkpt>
      <trkpt lat="45.16529" lon="5.58258">
        <ele>1643</ele>
        <time>2012-04-17T21:18:13Z</time>
      </trkpt>
      <trkpt lat="45.16523" lon="5.58256">
        <ele>1643</ele>
        <time>2012-04-17T21:18:14Z</time>
      </trkpt>
      <trkpt lat="45.16514" lon="5.58254">
        <ele>1644</ele>
        <time>2012-04-17T21:18:16Z</time>
      </trkpt>
      <trkpt lat="45.16508" lon="5.58251">
        <ele>1646</ele>
        <time>2012-04-17T21:18:17Z</time>
      </trkpt>
      <trkpt lat="45.16501" lon="5.58249">
        <ele>1648</ele>
        <time>2012-04-17T21:18:18Z</time>
      </trkpt>
      <trkpt lat="45.16495" lon="5.58245">
        <ele>1647</ele>
        <time>2012-04-17T21:18:19Z</time>
      </trkpt>
      <trkpt lat="45.16475" lon="5.58234">
        <ele>1646</ele>
        <time>2012-04-17T21:18:24Z</time>
      </trkpt>
      <trkpt lat="45.16465" lon="5.58228">
        <ele>1645</ele>
        <time>2012-04-17T21:18:27Z</time>
      </trkpt>
      <trkpt lat="45.16456" lon="5.58219">
        <ele>1645</ele>
        <time>2012-04-17T21:18:29Z</time>
      </trkpt>
      <trkpt lat="45.16439" lon="5.58204">
        <ele>1645</ele>
        <time>2012-04-17T21:18:34Z</time>
      </trkpt>
      <trkpt lat="45.1642" lon="5.58181">
        <ele>1648</ele>
        <time>2012-04-17T21:18:41Z</time>
      </trkpt>
      <trkpt lat="45.16405" lon="5.58161">
        <ele>1647</ele>
        <time>2012-04-17T21:18:46Z</time>
      </trkpt>
      <trkpt lat="45.16396" lon="5.58146">
        <ele>1646</ele>
        <time>2012-04-17T21:18:49Z</time>
      </trkpt>
      <trkpt lat="45.16392" lon="5.5814">
        <ele>1645</ele>
        <time>2012-04-17T21:18:50Z</time>
      </trkpt>
      <trkpt lat="45.16387" lon="5.58133">
        <ele>1645</ele>
        <time>2012-04-17T21:18:51Z</time>
      </trkpt>
      <trkpt lat="45.16383" lon="5.58127">
        <ele>1645</ele>
        <time>2012-04-17T21:18:52Z</time>
      </trkpt>
      <trkpt lat="45.16381" lon="5.58114">
        <ele>1646</ele>
        <time>2012-04-17T21:18:54Z</time>
      </trkpt>
      <trkpt lat="45.16377" lon="5.5811">
        <ele>1646</ele>
        <time>2012-04-17T21:18:55Z</time>
      </trkpt>
      <trkpt lat="45.16372" lon="5.58103">
        <ele>1647</ele>
        <time>2012-04-17T21:18:56Z</time>
      </trkpt>
      <trkpt lat="45.16368" lon="5.58099">
        <ele>1647</ele>
        <time>2012-04-17T21:18:57Z</time>
      </trkpt>
      <trkpt lat="45.16362" lon="5.58095">
        <ele>1648</ele>
        <time>2012-04-17T21:18:58Z</time>
      </trkpt>
      <trkpt lat="45.16357" lon="5.5809">
        <ele>1650</ele>
        <time>2012-04-17T21:18:59Z</time>
      </trkpt>
      <trkpt lat="45.16349" lon="5.58088">
        <ele>1652</ele>
        <time>2012-04-17T21:19:01Z</time>
      </trkpt>
      <trkpt lat="45.16342" lon="5.58086">
        <ele>1654</ele>
        <time>2012-04-17T21:19:02Z</time>
      </trkpt>
      <trkpt lat="45.1633" lon="5.5808">
        <ele>1659</ele>
        <time>2012-04-17T21:19:05Z</time>
      </trkpt>
      <trkpt lat="45.16321" lon="5.58075">
        <ele>1658</ele>
        <time>2012-04-17T21:19:07Z</time>
      </trkpt>
      <trkpt lat="45.16315" lon="5.58071">
        <ele>1658</ele>
        <time>2012-04-17T21:19:08Z</time>
      </trkpt>
      <trkpt lat="45.16312" lon="5.58067">
        <ele>1658</ele>
        <time>2012-04-17T21:19:09Z</time>
      </trkpt>
      <trkpt lat="45.16276" lon="5.58058">
        <ele>1658</ele>
        <time>2012-04-17T21:19:19Z</time>
      </trkpt>
      <trkpt lat="45.16224" lon="5.5805">
        <ele>1659</ele>
        <time>2012-04-17T21:19:33Z</time>
      </trkpt>
      <trkpt lat="45.16149" lon="5.58035">
        <ele>1659</ele>
        <time>2012-04-17T21:19:54Z</time>
      </trkpt>
      <trkpt lat="45.16076" lon="5.58018">
        <ele>1657</ele>
        <time>2012-04-17T21:20:14Z</time>
      </trkpt>
      <trkpt lat="45.15997" lon="5.57996">
        <ele>1654</ele>
        <time>2012-04-17T21:20:36Z</time>
      </trkpt>
      <trkpt lat="45.15943" lon="5.57981">
        <ele>1652</ele>
        <time>2012-04-17T21:20:51Z</time>
      </trkpt>
      <trkpt lat="45.15913" lon="5.57945">
        <ele>1651</ele>
        <time>2012-04-17T21:21:01Z</time>
      </trkpt>
      <trkpt lat="45.15883" lon="5.57917">
        <ele>1651</ele>
        <time>2012-04-17T21:21:10Z</time>
      </trkpt>
      <trkpt lat="45.15838" lon="5.57897">
        <ele>1650</ele>
        <time>2012-04-17T21:21:23Z</time>
      </trkpt>
      <trkpt lat="45.15767" lon="5.57882">
        <ele>1645</ele>
        <time>2012-04-17T21:21:42Z</time>
      </trkpt>
      <trkpt lat="45.15701" lon="5.57867">
        <ele>1640</ele>
        <time>2012-04-17T21:22:00Z</time>
      </trkpt>
      <trkpt lat="45.15654" lon="5.57846">
        <ele>1637</ele>
        <time>2012-04-17T21:22:13Z</time>
      </trkpt>
      <trkpt lat="45.15634" lon="5.57833">
        <ele>1634</ele>
        <time>2012-04-17T21:22:18Z</time>
      </trkpt>
      <trkpt lat="45.15606" lon="5.57829">
        <ele>1632</ele>
        <time>2012-04-17T21:22:25Z</time>
      </trkpt>
      <trkpt lat="45.15568" lon="5.57835">
        <ele>1630</ele>
        <time>2012-04-17T21:22:35Z</time>
      </trkpt>
      <trkpt lat="45.15555" lon="5.57831">
        <ele>1630</ele>
        <time>2012-04-17T21:22:38Z</time>
      </trkpt>
      <trkpt lat="45.15542" lon="5.57829">
        <ele>1630</ele>
        <time>2012-04-17T21:22:41Z</time>
      </trkpt>
      <trkpt lat="45.15518" lon="5.57803">
        <ele>1630</ele>
        <time>2012-04-17T21:22:49Z</time>
      </trkpt>
      <trkpt lat="45.15484" lon="5.57781">
        <ele>1631</ele>
        <time>2012-04-17T21:22:59Z</time>
      </trkpt>
      <trkpt lat="45.1548" lon="5.57781">
        <ele>1631</ele>
        <time>2012-04-17T21:23:00Z</time>
      </trkpt>
      <trkpt lat="45.15473" lon="5.57779">
        <ele>1631</ele>
        <time>2012-04-17T21:23:01Z</time>
      </trkpt>
      <trkpt lat="45.15469" lon="5.57779">
        <ele>1631</ele>
        <time>2012-04-17T21:23:02Z</time>
      </trkpt>
      <trkpt lat="45.15463" lon="5.57779">
        <ele>1631</ele>
        <time>2012-04-17T21:23:03Z</time>
      </trkpt>
      <trkpt lat="45.15458" lon="5.57781">
        <ele>1631</ele>
        <time>2012-04-17T21:23:04Z</time>
      </trkpt>
      <trkpt lat="45.15454" lon="5.57781">
        <ele>1630</ele>
        <time>2012-04-17T21:23:05Z</time>
      </trkpt>
      <trkpt lat="45.15441" lon="5.57784">
        <ele>1630</ele>
        <time>2012-04-17T21:23:08Z</time>
      </trkpt>
      <trkpt lat="45.15435" lon="5.57786">
        <ele>1630</ele>
        <time>2012-04-17T21:23:09Z</time>
      </trkpt>
      <trkpt lat="45.1543" lon="5.57786">
        <ele>1630</ele>
        <time>2012-04-17T21:23:10Z</time>
      </trkpt>
      <trkpt lat="45.15418" lon="5.5779">
        <ele>1630</ele>
        <time>2012-04-17T21:23:13Z</time>
      </trkpt>
      <trkpt lat="45.15413" lon="5.57792">
        <ele>1627</ele>
        <time>2012-04-17T21:23:14Z</time>
      </trkpt>
      <trkpt lat="45.15409" lon="5.57792">
        <ele>1627</ele>
        <time>2012-04-17T21:23:15Z</time>
      </trkpt>
      <trkpt lat="45.15403" lon="5.57792">
        <ele>1626</ele>
        <time>2012-04-17T21:23:16Z</time>
      </trkpt>
      <trkpt lat="45.15396" lon="5.57792">
        <ele>1626</ele>
        <time>2012-04-17T21:23:17Z</time>
      </trkpt>
      <trkpt lat="45.15385" lon="5.57792">
        <ele>1626</ele>
        <time>2012-04-17T21:23:19Z</time>
      </trkpt>
      <trkpt lat="45.15381" lon="5.5779">
        <ele>1625</ele>
        <time>2012-04-17T21:23:20Z</time>
      </trkpt>
      <trkpt lat="45.15375" lon="5.5779">
        <ele>1625</ele>
        <time>2012-04-17T21:23:21Z</time>
      </trkpt>
      <trkpt lat="45.1537" lon="5.57788">
        <ele>1625</ele>
        <time>2012-04-17T21:23:22Z</time>
      </trkpt>
      <trkpt lat="45.15366" lon="5.57786">
        <ele>1625</ele>
        <time>2012-04-17T21:23:23Z</time>
      </trkpt>
      <trkpt lat="45.15355" lon="5.57779">
        <ele>1624</ele>
        <time>2012-04-17T21:23:26Z</time>
      </trkpt>
      <trkpt lat="45.15349" lon="5.57777">
        <ele>1624</ele>
        <time>2012-04-17T21:23:27Z</time>
      </trkpt>
      <trkpt lat="45.15345" lon="5.57775">
        <ele>1624</ele>
        <time>2012-04-17T21:23:28Z</time>
      </trkpt>
      <trkpt lat="45.15332" lon="5.57769">
        <ele>1619</ele>
        <time>2012-04-17T21:23:31Z</time>
      </trkpt>
      <trkpt lat="45.15327" lon="5.57766">
        <ele>1619</ele>
        <time>2012-04-17T21:23:32Z</time>
      </trkpt>
      <trkpt lat="45.15319" lon="5.57762">
        <ele>1618</ele>
        <time>2012-04-17T21:23:34Z</time>
      </trkpt>
      <trkpt lat="45.15315" lon="5.57762">
        <ele>1618</ele>
        <time>2012-04-17T21:23:35Z</time>
      </trkpt>
      <trkpt lat="45.1531" lon="5.5776">
        <ele>1618</ele>
        <time>2012-04-17T21:23:36Z</time>
      </trkpt>
      <trkpt lat="45.15306" lon="5.57758">
        <ele>1617</ele>
        <time>2012-04-17T21:23:37Z</time>
      </trkpt>
      <trkpt lat="45.15302" lon="5.57758">
        <ele>1617</ele>
        <time>2012-04-17T21:23:38Z</time>
      </trkpt>
      <trkpt lat="45.15295" lon="5.57756">
        <ele>1616</ele>
        <time>2012-04-17T21:23:39Z</time>
      </trkpt>
      <trkpt lat="45.15282" lon="5.57756">
        <ele>1615</ele>
        <time>2012-04-17T21:23:42Z</time>
      </trkpt>
      <trkpt lat="45.15267" lon="5.57751">
        <ele>1615</ele>
        <time>2012-04-17T21:23:46Z</time>
      </trkpt>
      <trkpt lat="45.15182" lon="5.57713">
        <ele>1605</ele>
        <time>2012-04-17T21:24:11Z</time>
      </trkpt>
      <trkpt lat="45.15175" lon="5.57709">
        <ele>1605</ele>
        <time>2012-04-17T21:24:12Z</time>
      </trkpt>
      <trkpt lat="45.15171" lon="5.57706">
        <ele>1604</ele>
        <time>2012-04-17T21:24:13Z</time>
      </trkpt>
      <trkpt lat="45.15164" lon="5.577">
        <ele>1596</ele>
        <time>2012-04-17T21:24:15Z</time>
      </trkpt>
      <trkpt lat="45.1516" lon="5.57698">
        <ele>1596</ele>
        <time>2012-04-17T21:24:16Z</time>
      </trkpt>
      <trkpt lat="45.15156" lon="5.57696">
        <ele>1596</ele>
        <time>2012-04-17T21:24:17Z</time>
      </trkpt>
      <trkpt lat="45.15152" lon="5.57696">
        <ele>1595</ele>
        <time>2012-04-17T21:24:18Z</time>
      </trkpt>
      <trkpt lat="45.15147" lon="5.57694">
        <ele>1595</ele>
        <time>2012-04-17T21:24:19Z</time>
      </trkpt>
      <trkpt lat="45.15143" lon="5.57689">
        <ele>1595</ele>
        <time>2012-04-17T21:24:20Z</time>
      </trkpt>
      <trkpt lat="45.15139" lon="5.57687">
        <ele>1595</ele>
        <time>2012-04-17T21:24:21Z</time>
      </trkpt>
      <trkpt lat="45.15134" lon="5.57685">
        <ele>1594</ele>
        <time>2012-04-17T21:24:22Z</time>
      </trkpt>
      <trkpt lat="45.1513" lon="5.57683">
        <ele>1594</ele>
        <time>2012-04-17T21:24:23Z</time>
      </trkpt>
      <trkpt lat="45.15126" lon="5.57681">
        <ele>1593</ele>
        <time>2012-04-17T21:24:24Z</time>
      </trkpt>
      <trkpt lat="45.15115" lon="5.57676">
        <ele>1592</ele>
        <time>2012-04-17T21:24:27Z</time>
      </trkpt>
      <trkpt lat="45.15111" lon="5.57676">
        <ele>1591</ele>
        <time>2012-04-17T21:24:28Z</time>
      </trkpt>
      <trkpt lat="45.15106" lon="5.57676">
        <ele>1591</ele>
        <time>2012-04-17T21:24:29Z</time>
      </trkpt>
      <trkpt lat="45.15102" lon="5.57676">
        <ele>1590</ele>
        <time>2012-04-17T21:24:30Z</time>
      </trkpt>
      <trkpt lat="45.15089" lon="5.57676">
        <ele>1588</ele>
        <time>2012-04-17T21:24:33Z</time>
      </trkpt>
      <trkpt lat="45.15083" lon="5.57676">
        <ele>1584</ele>
        <time>2012-04-17T21:24:34Z</time>
      </trkpt>
      <trkpt lat="45.15079" lon="5.57676">
        <ele>1584</ele>
        <time>2012-04-17T21:24:35Z</time>
      </trkpt>
      <trkpt lat="45.15074" lon="5.57678">
        <ele>1584</ele>
        <time>2012-04-17T21:24:36Z</time>
      </trkpt>
      <trkpt lat="45.15068" lon="5.57678">
        <ele>1583</ele>
        <time>2012-04-17T21:24:37Z</time>
      </trkpt>
      <trkpt lat="45.15064" lon="5.57681">
        <ele>1583</ele>
        <time>2012-04-17T21:24:38Z</time>
      </trkpt>
      <trkpt lat="45.15059" lon="5.57683">
        <ele>1582</ele>
        <time>2012-04-17T21:24:39Z</time>
      </trkpt>
      <trkpt lat="45.15055" lon="5.57685">
        <ele>1582</ele>
        <time>2012-04-17T21:24:40Z</time>
      </trkpt>
      <trkpt lat="45.15046" lon="5.57687">
        <ele>1581</ele>
        <time>2012-04-17T21:24:42Z</time>
      </trkpt>
      <trkpt lat="45.15042" lon="5.57687">
        <ele>1581</ele>
        <time>2012-04-17T21:24:43Z</time>
      </trkpt>
      <trkpt lat="45.15036" lon="5.57687">
        <ele>1581</ele>
        <time>2012-04-17T21:24:44Z</time>
      </trkpt>
      <trkpt lat="45.15031" lon="5.57685">
        <ele>1580</ele>
        <time>2012-04-17T21:24:45Z</time>
      </trkpt>
      <trkpt lat="45.15027" lon="5.57685">
        <ele>1580</ele>
        <time>2012-04-17T21:24:46Z</time>
      </trkpt>
      <trkpt lat="45.15023" lon="5.57685">
        <ele>1580</ele>
        <time>2012-04-17T21:24:47Z</time>
      </trkpt>
      <trkpt lat="45.15014" lon="5.57685">
        <ele>1580</ele>
        <time>2012-04-17T21:24:49Z</time>
      </trkpt>
      <trkpt lat="45.15006" lon="5.57687">
        <ele>1580</ele>
        <time>2012-04-17T21:24:51Z</time>
      </trkpt>
      <trkpt lat="45.14982" lon="5.57687">
        <ele>1575</ele>
        <time>2012-04-17T21:24:57Z</time>
      </trkpt>
      <trkpt lat="45.14976" lon="5.57687">
        <ele>1575</ele>
        <time>2012-04-17T21:24:58Z</time>
      </trkpt>
      <trkpt lat="45.14971" lon="5.57687">
        <ele>1574</ele>
        <time>2012-04-17T21:24:59Z</time>
      </trkpt>
      <trkpt lat="45.14967" lon="5.57687">
        <ele>1574</ele>
        <time>2012-04-17T21:25:00Z</time>
      </trkpt>
      <trkpt lat="45.14963" lon="5.57685">
        <ele>1574</ele>
        <time>2012-04-17T21:25:01Z</time>
      </trkpt>
      <trkpt lat="45.14961" lon="5.57681">
        <ele>1574</ele>
        <time>2012-04-17T21:25:02Z</time>
      </trkpt>
      <trkpt lat="45.14956" lon="5.57674">
        <ele>1574</ele>
        <time>2012-04-17T21:25:03Z</time>
      </trkpt>
      <trkpt lat="45.14952" lon="5.5767">
        <ele>1574</ele>
        <time>2012-04-17T21:25:04Z</time>
      </trkpt>
      <trkpt lat="45.14948" lon="5.57666">
        <ele>1577</ele>
        <time>2012-04-17T21:25:05Z</time>
      </trkpt>
      <trkpt lat="45.14939" lon="5.57661">
        <ele>1577</ele>
        <time>2012-04-17T21:25:07Z</time>
      </trkpt>
      <trkpt lat="45.14926" lon="5.57657">
        <ele>1577</ele>
        <time>2012-04-17T21:25:10Z</time>
      </trkpt>
      <trkpt lat="45.1492" lon="5.57657">
        <ele>1577</ele>
        <time>2012-04-17T21:25:11Z</time>
      </trkpt>
      <trkpt lat="45.14916" lon="5.57655">
        <ele>1575</ele>
        <time>2012-04-17T21:25:12Z</time>
      </trkpt>
      <trkpt lat="45.14907" lon="5.57655">
        <ele>1574</ele>
        <time>2012-04-17T21:25:14Z</time>
      </trkpt>
      <trkpt lat="45.14903" lon="5.57653">
        <ele>1574</ele>
        <time>2012-04-17T21:25:15Z</time>
      </trkpt>
      <trkpt lat="45.14896" lon="5.57651">
        <ele>1573</ele>
        <time>2012-04-17T21:25:16Z</time>
      </trkpt>
      <trkpt lat="45.1489" lon="5.57648">
        <ele>1572</ele>
        <time>2012-04-17T21:25:17Z</time>
      </trkpt>
      <trkpt lat="45.14885" lon="5.57646">
        <ele>1572</ele>
        <time>2012-04-17T21:25:18Z</time>
      </trkpt>
      <trkpt lat="45.14881" lon="5.57644">
        <ele>1572</ele>
        <time>2012-04-17T21:25:19Z</time>
      </trkpt>
      <trkpt lat="45.14877" lon="5.57644">
        <ele>1571</ele>
        <time>2012-04-17T21:25:20Z</time>
      </trkpt>
      <trkpt lat="45.14875" lon="5.5764">
        <ele>1571</ele>
        <time>2012-04-17T21:25:21Z</time>
      </trkpt>
      <trkpt lat="45.14862" lon="5.57631">
        <ele>1570</ele>
        <time>2012-04-17T21:25:24Z</time>
      </trkpt>
      <trkpt lat="45.14858" lon="5.57625">
        <ele>1570</ele>
        <time>2012-04-17T21:25:25Z</time>
      </trkpt>
      <trkpt lat="45.14855" lon="5.57621">
        <ele>1570</ele>
        <time>2012-04-17T21:25:26Z</time>
      </trkpt>
      <trkpt lat="45.14853" lon="5.57616">
        <ele>1570</ele>
        <time>2012-04-17T21:25:27Z</time>
      </trkpt>
      <trkpt lat="45.14851" lon="5.57612">
        <ele>1570</ele>
        <time>2012-04-17T21:25:28Z</time>
      </trkpt>
      <trkpt lat="45.14849" lon="5.57606">
        <ele>1570</ele>
        <time>2012-04-17T21:25:29Z</time>
      </trkpt>
      <trkpt lat="45.14847" lon="5.57601">
        <ele>1570</ele>
        <time>2012-04-17T21:25:30Z</time>
      </trkpt>
      <trkpt lat="45.14843" lon="5.57595">
        <ele>1569</ele>
        <time>2012-04-17T21:25:31Z</time>
      </trkpt>
      <trkpt lat="45.14834" lon="5.57593">
        <ele>1569</ele>
        <time>2012-04-17T21:25:33Z</time>
      </trkpt>
      <trkpt lat="45.14825" lon="5.57593">
        <ele>1566</ele>
        <time>2012-04-17T21:25:35Z</time>
      </trkpt>
      <trkpt lat="45.14819" lon="5.57593">
        <ele>1565</ele>
        <time>2012-04-17T21:25:36Z</time>
      </trkpt>
      <trkpt lat="45.14813" lon="5.57591">
        <ele>1565</ele>
        <time>2012-04-17T21:25:37Z</time>
      </trkpt>
      <trkpt lat="45.14804" lon="5.57588">
        <ele>1564</ele>
        <time>2012-04-17T21:25:39Z</time>
      </trkpt>
      <trkpt lat="45.14789" lon="5.57586">
        <ele>1563</ele>
        <time>2012-04-17T21:25:43Z</time>
      </trkpt>
      <trkpt lat="45.14774" lon="5.5758">
        <ele>1561</ele>
        <time>2012-04-17T21:25:47Z</time>
      </trkpt>
      <trkpt lat="45.14757" lon="5.57576">
        <ele>1561</ele>
        <time>2012-04-17T21:25:51Z</time>
      </trkpt>
      <trkpt lat="45.14752" lon="5.57573">
        <ele>1560</ele>
        <time>2012-04-17T21:25:52Z</time>
      </trkpt>
      <trkpt lat="45.14742" lon="5.57573">
        <ele>1559</ele>
        <time>2012-04-17T21:25:54Z</time>
      </trkpt>
      <trkpt lat="45.14735" lon="5.57571">
        <ele>1559</ele>
        <time>2012-04-17T21:25:55Z</time>
      </trkpt>
      <trkpt lat="45.14729" lon="5.57571">
        <ele>1559</ele>
        <time>2012-04-17T21:25:56Z</time>
      </trkpt>
      <trkpt lat="45.14722" lon="5.57571">
        <ele>1558</ele>
        <time>2012-04-17T21:25:57Z</time>
      </trkpt>
      <trkpt lat="45.14718" lon="5.57571">
        <ele>1558</ele>
        <time>2012-04-17T21:25:58Z</time>
      </trkpt>
      <trkpt lat="45.14714" lon="5.57573">
        <ele>1558</ele>
        <time>2012-04-17T21:25:59Z</time>
      </trkpt>
      <trkpt lat="45.1471" lon="5.57573">
        <ele>1558</ele>
        <time>2012-04-17T21:26:00Z</time>
      </trkpt>
      <trkpt lat="45.14705" lon="5.57576">
        <ele>1558</ele>
        <time>2012-04-17T21:26:01Z</time>
      </trkpt>
      <trkpt lat="45.14697" lon="5.57576">
        <ele>1558</ele>
        <time>2012-04-17T21:26:03Z</time>
      </trkpt>
      <trkpt lat="45.1469" lon="5.57573">
        <ele>1558</ele>
        <time>2012-04-17T21:26:04Z</time>
      </trkpt>
      <trkpt lat="45.14686" lon="5.57573">
        <ele>1558</ele>
        <time>2012-04-17T21:26:05Z</time>
      </trkpt>
      <trkpt lat="45.14682" lon="5.57573">
        <ele>1558</ele>
        <time>2012-04-17T21:26:06Z</time>
      </trkpt>
      <trkpt lat="45.14677" lon="5.57571">
        <ele>1558</ele>
        <time>2012-04-17T21:26:07Z</time>
      </trkpt>
      <trkpt lat="45.14673" lon="5.57567">
        <ele>1558</ele>
        <time>2012-04-17T21:26:08Z</time>
      </trkpt>
      <trkpt lat="45.14669" lon="5.57565">
        <ele>1558</ele>
        <time>2012-04-17T21:26:09Z</time>
      </trkpt>
      <trkpt lat="45.14662" lon="5.57563">
        <ele>1555</ele>
        <time>2012-04-17T21:26:10Z</time>
      </trkpt>
      <trkpt lat="45.14647" lon="5.57563">
        <ele>1555</ele>
        <time>2012-04-17T21:26:14Z</time>
      </trkpt>
      <trkpt lat="45.14639" lon="5.57565">
        <ele>1554</ele>
        <time>2012-04-17T21:26:16Z</time>
      </trkpt>
      <trkpt lat="45.14557" lon="5.57539">
        <ele>1545</ele>
        <time>2012-04-17T21:26:39Z</time>
      </trkpt>
      <trkpt lat="45.14493" lon="5.57522">
        <ele>1537</ele>
        <time>2012-04-17T21:26:57Z</time>
      </trkpt>
      <trkpt lat="45.14435" lon="5.57524">
        <ele>1533</ele>
        <time>2012-04-17T21:27:13Z</time>
      </trkpt>
      <trkpt lat="45.14376" lon="5.5754">
        <ele>1523</ele>
        <time>2012-04-17T21:27:29Z</time>
      </trkpt>
      <trkpt lat="45.14343" lon="5.5755">
        <ele>1521</ele>
        <time>2012-04-17T21:27:38Z</time>
      </trkpt>
      <trkpt lat="45.14285" lon="5.57554">
        <ele>1510</ele>
        <time>2012-04-17T21:27:54Z</time>
      </trkpt>
      <trkpt lat="45.14257" lon="5.57545">
        <ele>1509</ele>
        <time>2012-04-17T21:28:01Z</time>
      </trkpt>
      <trkpt lat="45.14248" lon="5.57539">
        <ele>1501</ele>
        <time>2012-04-17T21:28:03Z</time>
      </trkpt>
      <trkpt lat="45.14242" lon="5.57535">
        <ele>1501</ele>
        <time>2012-04-17T21:28:04Z</time>
      </trkpt>
      <trkpt lat="45.14235" lon="5.5753">
        <ele>1501</ele>
        <time>2012-04-17T21:28:05Z</time>
      </trkpt>
      <trkpt lat="45.14229" lon="5.57524">
        <ele>1501</ele>
        <time>2012-04-17T21:28:07Z</time>
      </trkpt>
      <trkpt lat="45.14216" lon="5.57511">
        <ele>1500</ele>
        <time>2012-04-17T21:28:11Z</time>
      </trkpt>
      <trkpt lat="45.14212" lon="5.57505">
        <ele>1500</ele>
        <time>2012-04-17T21:28:12Z</time>
      </trkpt>
      <trkpt lat="45.141" lon="5.57475">
        <ele>1494</ele>
        <time>2012-04-17T21:28:43Z</time>
      </trkpt>
      <trkpt lat="45.14096" lon="5.57473">
        <ele>1494</ele>
        <time>2012-04-17T21:28:44Z</time>
      </trkpt>
      <trkpt lat="45.14089" lon="5.5747">
        <ele>1494</ele>
        <time>2012-04-17T21:28:45Z</time>
      </trkpt>
      <trkpt lat="45.14085" lon="5.57466">
        <ele>1494</ele>
        <time>2012-04-17T21:28:46Z</time>
      </trkpt>
      <trkpt lat="45.14081" lon="5.57466">
        <ele>1488</ele>
        <time>2012-04-17T21:28:47Z</time>
      </trkpt>
      <trkpt lat="45.14074" lon="5.5746">
        <ele>1488</ele>
        <time>2012-04-17T21:28:49Z</time>
      </trkpt>
      <trkpt lat="45.1407" lon="5.57457">
        <ele>1487</ele>
        <time>2012-04-17T21:28:50Z</time>
      </trkpt>
      <trkpt lat="45.14066" lon="5.57455">
        <ele>1487</ele>
        <time>2012-04-17T21:28:51Z</time>
      </trkpt>
      <trkpt lat="45.14059" lon="5.57453">
        <ele>1487</ele>
        <time>2012-04-17T21:28:52Z</time>
      </trkpt>
      <trkpt lat="45.14051" lon="5.57447">
        <ele>1486</ele>
        <time>2012-04-17T21:28:54Z</time>
      </trkpt>
      <trkpt lat="45.14046" lon="5.57445">
        <ele>1486</ele>
        <time>2012-04-17T21:28:55Z</time>
      </trkpt>
      <trkpt lat="45.14042" lon="5.57445">
        <ele>1486</ele>
        <time>2012-04-17T21:28:56Z</time>
      </trkpt>
      <trkpt lat="45.14034" lon="5.57442">
        <ele>1485</ele>
        <time>2012-04-17T21:28:58Z</time>
      </trkpt>
      <trkpt lat="45.14029" lon="5.5744">
        <ele>1485</ele>
        <time>2012-04-17T21:28:59Z</time>
      </trkpt>
      <trkpt lat="45.14025" lon="5.57438">
        <ele>1485</ele>
        <time>2012-04-17T21:29:00Z</time>
      </trkpt>
      <trkpt lat="45.14021" lon="5.57436">
        <ele>1485</ele>
        <time>2012-04-17T21:29:01Z</time>
      </trkpt>
      <trkpt lat="45.1401" lon="5.57434">
        <ele>1485</ele>
        <time>2012-04-17T21:29:04Z</time>
      </trkpt>
      <trkpt lat="45.14006" lon="5.57434">
        <ele>1485</ele>
        <time>2012-04-17T21:29:05Z</time>
      </trkpt>
      <trkpt lat="45.14001" lon="5.57432">
        <ele>1485</ele>
        <time>2012-04-17T21:29:06Z</time>
      </trkpt>
      <trkpt lat="45.13997" lon="5.57432">
        <ele>1477</ele>
        <time>2012-04-17T21:29:07Z</time>
      </trkpt>
      <trkpt lat="45.13989" lon="5.5743">
        <ele>1476</ele>
        <time>2012-04-17T21:29:09Z</time>
      </trkpt>
      <trkpt lat="45.13984" lon="5.57427">
        <ele>1475</ele>
        <time>2012-04-17T21:29:10Z</time>
      </trkpt>
      <trkpt lat="45.1398" lon="5.57427">
        <ele>1474</ele>
        <time>2012-04-17T21:29:11Z</time>
      </trkpt>
      <trkpt lat="45.13976" lon="5.57425">
        <ele>1473</ele>
        <time>2012-04-17T21:29:12Z</time>
      </trkpt>
      <trkpt lat="45.13971" lon="5.57425">
        <ele>1472</ele>
        <time>2012-04-17T21:29:13Z</time>
      </trkpt>
      <trkpt lat="45.13967" lon="5.57425">
        <ele>1471</ele>
        <time>2012-04-17T21:29:14Z</time>
      </trkpt>
      <trkpt lat="45.13963" lon="5.57427">
        <ele>1470</ele>
        <time>2012-04-17T21:29:15Z</time>
      </trkpt>
      <trkpt lat="45.13956" lon="5.5743">
        <ele>1469</ele>
        <time>2012-04-17T21:29:16Z</time>
      </trkpt>
      <trkpt lat="45.13952" lon="5.57432">
        <ele>1468</ele>
        <time>2012-04-17T21:29:17Z</time>
      </trkpt>
      <trkpt lat="45.13946" lon="5.57432">
        <ele>1467</ele>
        <time>2012-04-17T21:29:18Z</time>
      </trkpt>
      <trkpt lat="45.13939" lon="5.5743">
        <ele>1467</ele>
        <time>2012-04-17T21:29:19Z</time>
      </trkpt>
      <trkpt lat="45.13933" lon="5.5743">
        <ele>1467</ele>
        <time>2012-04-17T21:29:20Z</time>
      </trkpt>
      <trkpt lat="45.13926" lon="5.5743">
        <ele>1467</ele>
        <time>2012-04-17T21:29:21Z</time>
      </trkpt>
      <trkpt lat="45.13922" lon="5.5743">
        <ele>1466</ele>
        <time>2012-04-17T21:29:22Z</time>
      </trkpt>
      <trkpt lat="45.13916" lon="5.57427">
        <ele>1458</ele>
        <time>2012-04-17T21:29:23Z</time>
      </trkpt>
      <trkpt lat="45.13909" lon="5.57425">
        <ele>1458</ele>
        <time>2012-04-17T21:29:24Z</time>
      </trkpt>
      <trkpt lat="45.13901" lon="5.57421">
        <ele>1455</ele>
        <time>2012-04-17T21:29:26Z</time>
      </trkpt>
      <trkpt lat="45.13894" lon="5.57419">
        <ele>1452</ele>
        <time>2012-04-17T21:29:27Z</time>
      </trkpt>
      <trkpt lat="45.1389" lon="5.57417">
        <ele>1451</ele>
        <time>2012-04-17T21:29:28Z</time>
      </trkpt>
      <trkpt lat="45.13886" lon="5.57417">
        <ele>1449</ele>
        <time>2012-04-17T21:29:29Z</time>
      </trkpt>
      <trkpt lat="45.13879" lon="5.57415">
        <ele>1461</ele>
        <time>2012-04-17T21:29:30Z</time>
      </trkpt>
      <trkpt lat="45.13868" lon="5.57408">
        <ele>1459</ele>
        <time>2012-04-17T21:29:33Z</time>
      </trkpt>
      <trkpt lat="45.13862" lon="5.57404">
        <ele>1458</ele>
        <time>2012-04-17T21:29:34Z</time>
      </trkpt>
      <trkpt lat="45.13855" lon="5.57402">
        <ele>1457</ele>
        <time>2012-04-17T21:29:35Z</time>
      </trkpt>
      <trkpt lat="45.13817" lon="5.57412">
        <ele>1446</ele>
        <time>2012-04-17T21:29:45Z</time>
      </trkpt>
      <trkpt lat="45.1378" lon="5.57406">
        <ele>1441</ele>
        <time>2012-04-17T21:29:55Z</time>
      </trkpt>
      <trkpt lat="45.13765" lon="5.57387">
        <ele>1441</ele>
        <time>2012-04-17T21:30:00Z</time>
      </trkpt>
      <trkpt lat="45.13759" lon="5.57352">
        <ele>1442</ele>
        <time>2012-04-17T21:30:06Z</time>
      </trkpt>
      <trkpt lat="45.13744" lon="5.57324">
        <ele>1437</ele>
        <time>2012-04-17T21:30:12Z</time>
      </trkpt>
      <trkpt lat="45.13699" lon="5.5729">
        <ele>1431</ele>
        <time>2012-04-17T21:30:26Z</time>
      </trkpt>
      <trkpt lat="45.13604" lon="5.57228">
        <ele>1415</ele>
        <time>2012-04-17T21:30:54Z</time>
      </trkpt>
      <trkpt lat="45.13516" lon="5.57172">
        <ele>1401</ele>
        <time>2012-04-17T21:31:20Z</time>
      </trkpt>
      <trkpt lat="45.13456" lon="5.57097">
        <ele>1390</ele>
        <time>2012-04-17T21:31:42Z</time>
      </trkpt>
      <trkpt lat="45.13398" lon="5.57041">
        <ele>1378</ele>
        <time>2012-04-17T21:32:01Z</time>
      </trkpt>
      <trkpt lat="45.13343" lon="5.56951">
        <ele>1365</ele>
        <time>2012-04-17T21:32:24Z</time>
      </trkpt>
      <trkpt lat="45.13319" lon="5.56885">
        <ele>1352</ele>
        <time>2012-04-17T21:32:38Z</time>
      </trkpt>
      <trkpt lat="45.13283" lon="5.56756">
        <ele>1334</ele>
        <time>2012-04-17T21:33:05Z</time>
      </trkpt>
      <trkpt lat="45.13246" lon="5.56679">
        <ele>1314</ele>
        <time>2012-04-17T21:33:23Z</time>
      </trkpt>
      <trkpt lat="45.1321" lon="5.56638">
        <ele>1306</ele>
        <time>2012-04-17T21:33:35Z</time>
      </trkpt>
      <trkpt lat="45.13143" lon="5.56629">
        <ele>1303</ele>
        <time>2012-04-17T21:33:53Z</time>
      </trkpt>
      <trkpt lat="45.13124" lon="5.56537">
        <ele>1291</ele>
        <time>2012-04-17T21:34:11Z</time>
      </trkpt>
      <trkpt lat="45.13109" lon="5.56393">
        <ele>1272</ele>
        <time>2012-04-17T21:34:39Z</time>
      </trkpt>
      <trkpt lat="45.13109" lon="5.56264">
        <ele>1255</ele>
        <time>2012-04-17T21:35:04Z</time>
      </trkpt>
      <trkpt lat="45.13104" lon="5.56249">
        <ele>1247</ele>
        <time>2012-04-17T21:35:07Z</time>
      </trkpt>
      <trkpt lat="45.131" lon="5.56237">
        <ele>1247</ele>
        <time>2012-04-17T21:35:09Z</time>
      </trkpt>
      <trkpt lat="45.13094" lon="5.56219">
        <ele>1246</ele>
        <time>2012-04-17T21:35:12Z</time>
      </trkpt>
      <trkpt lat="45.13089" lon="5.56215">
        <ele>1245</ele>
        <time>2012-04-17T21:35:13Z</time>
      </trkpt>
      <trkpt lat="45.13083" lon="5.56207">
        <ele>1247</ele>
        <time>2012-04-17T21:35:15Z</time>
      </trkpt>
      <trkpt lat="45.13079" lon="5.56196">
        <ele>1246</ele>
        <time>2012-04-17T21:35:17Z</time>
      </trkpt>
      <trkpt lat="45.13079" lon="5.56183">
        <ele>1244</ele>
        <time>2012-04-17T21:35:19Z</time>
      </trkpt>
      <trkpt lat="45.13077" lon="5.56166">
        <ele>1239</ele>
        <time>2012-04-17T21:35:22Z</time>
      </trkpt>
      <trkpt lat="45.13077" lon="5.56149">
        <ele>1239</ele>
        <time>2012-04-17T21:35:25Z</time>
      </trkpt>
      <trkpt lat="45.13077" lon="5.56134">
        <ele>1239</ele>
        <time>2012-04-17T21:35:27Z</time>
      </trkpt>
      <trkpt lat="45.13077" lon="5.56121">
        <ele>1238</ele>
        <time>2012-04-17T21:35:29Z</time>
      </trkpt>
      <trkpt lat="45.13074" lon="5.56104">
        <ele>1237</ele>
        <time>2012-04-17T21:35:32Z</time>
      </trkpt>
      <trkpt lat="45.13072" lon="5.56088">
        <ele>1236</ele>
        <time>2012-04-17T21:35:35Z</time>
      </trkpt>
      <trkpt lat="45.13068" lon="5.56073">
        <ele>1233</ele>
        <time>2012-04-17T21:35:38Z</time>
      </trkpt>
      <trkpt lat="45.13062" lon="5.56056">
        <ele>1232</ele>
        <time>2012-04-17T21:35:41Z</time>
      </trkpt>
      <trkpt lat="45.13055" lon="5.56037">
        <ele>1231</ele>
        <time>2012-04-17T21:35:45Z</time>
      </trkpt>
      <trkpt lat="45.13051" lon="5.56028">
        <ele>1230</ele>
        <time>2012-04-17T21:35:47Z</time>
      </trkpt>
      <trkpt lat="45.13049" lon="5.56022">
        <ele>1230</ele>
        <time>2012-04-17T21:35:48Z</time>
      </trkpt>
      <trkpt lat="45.13049" lon="5.56013">
        <ele>1230</ele>
        <time>2012-04-17T21:35:49Z</time>
      </trkpt>
      <trkpt lat="45.13049" lon="5.56005">
        <ele>1230</ele>
        <time>2012-04-17T21:35:50Z</time>
      </trkpt>
      <trkpt lat="45.13049" lon="5.55973">
        <ele>1229</ele>
        <time>2012-04-17T21:35:56Z</time>
      </trkpt>
      <trkpt lat="45.13042" lon="5.55975">
        <ele>1229</ele>
        <time>2012-04-17T21:35:57Z</time>
      </trkpt>
      <trkpt lat="45.13034" lon="5.55979">
        <ele>1229</ele>
        <time>2012-04-17T21:35:59Z</time>
      </trkpt>
      <trkpt lat="45.13025" lon="5.55981">
        <ele>1229</ele>
        <time>2012-04-17T21:36:01Z</time>
      </trkpt>
      <trkpt lat="45.13014" lon="5.55983">
        <ele>1228</ele>
        <time>2012-04-17T21:36:04Z</time>
      </trkpt>
      <trkpt lat="45.13012" lon="5.5597">
        <ele>1229</ele>
        <time>2012-04-17T21:36:06Z</time>
      </trkpt>
      <trkpt lat="45.13006" lon="5.55958">
        <ele>1230</ele>
        <time>2012-04-17T21:36:09Z</time>
      </trkpt>
      <trkpt lat="45.12991" lon="5.55934">
        <ele>1233</ele>
        <time>2012-04-17T21:36:15Z</time>
      </trkpt>
      <trkpt lat="45.12986" lon="5.55928">
        <ele>1234</ele>
        <time>2012-04-17T21:36:16Z</time>
      </trkpt>
      <trkpt lat="45.1298" lon="5.55921">
        <ele>1234</ele>
        <time>2012-04-17T21:36:18Z</time>
      </trkpt>
      <trkpt lat="45.12971" lon="5.55913">
        <ele>1238</ele>
        <time>2012-04-17T21:36:20Z</time>
      </trkpt>
      <trkpt lat="45.12963" lon="5.55908">
        <ele>1238</ele>
        <time>2012-04-17T21:36:22Z</time>
      </trkpt>
      <trkpt lat="45.12948" lon="5.55898">
        <ele>1238</ele>
        <time>2012-04-17T21:36:26Z</time>
      </trkpt>
      <trkpt lat="45.12944" lon="5.55893">
        <ele>1238</ele>
        <time>2012-04-17T21:36:27Z</time>
      </trkpt>
      <trkpt lat="45.12929" lon="5.55891">
        <ele>1237</ele>
        <time>2012-04-17T21:36:31Z</time>
      </trkpt>
      <trkpt lat="45.12922" lon="5.55889">
        <ele>1237</ele>
        <time>2012-04-17T21:36:32Z</time>
      </trkpt>
      <trkpt lat="45.12914" lon="5.55887">
        <ele>1234</ele>
        <time>2012-04-17T21:36:34Z</time>
      </trkpt>
      <trkpt lat="45.12898" lon="5.55887">
        <ele>1234</ele>
        <time>2012-04-17T21:36:38Z</time>
      </trkpt>
      <trkpt lat="45.12886" lon="5.55887">
        <ele>1234</ele>
        <time>2012-04-17T21:36:41Z</time>
      </trkpt>
      <trkpt lat="45.12877" lon="5.55887">
        <ele>1233</ele>
        <time>2012-04-17T21:36:43Z</time>
      </trkpt>
      <trkpt lat="45.12868" lon="5.55887">
        <ele>1233</ele>
        <time>2012-04-17T21:36:45Z</time>
      </trkpt>
      <trkpt lat="45.12862" lon="5.55885">
        <ele>1233</ele>
        <time>2012-04-17T21:36:46Z</time>
      </trkpt>
      <trkpt lat="45.12851" lon="5.55878">
        <ele>1233</ele>
        <time>2012-04-17T21:36:49Z</time>
      </trkpt>
      <trkpt lat="45.12832" lon="5.55863">
        <ele>1228</ele>
        <time>2012-04-17T21:36:55Z</time>
      </trkpt>
      <trkpt lat="45.12828" lon="5.55861">
        <ele>1228</ele>
        <time>2012-04-17T21:36:56Z</time>
      </trkpt>
      <trkpt lat="45.12821" lon="5.55861">
        <ele>1228</ele>
        <time>2012-04-17T21:36:57Z</time>
      </trkpt>
      <trkpt lat="45.12813" lon="5.55859">
        <ele>1228</ele>
        <time>2012-04-17T21:36:59Z</time>
      </trkpt>
      <trkpt lat="45.12806" lon="5.55859">
        <ele>1227</ele>
        <time>2012-04-17T21:37:00Z</time>
      </trkpt>
      <trkpt lat="45.12798" lon="5.55852">
        <ele>1227</ele>
        <time>2012-04-17T21:37:02Z</time>
      </trkpt>
      <trkpt lat="45.12791" lon="5.55846">
        <ele>1226</ele>
        <time>2012-04-17T21:37:04Z</time>
      </trkpt>
      <trkpt lat="45.12787" lon="5.55842">
        <ele>1226</ele>
        <time>2012-04-17T21:37:05Z</time>
      </trkpt>
      <trkpt lat="45.12778" lon="5.55835">
        <ele>1226</ele>
        <time>2012-04-17T21:37:07Z</time>
      </trkpt>
      <trkpt lat="45.12772" lon="5.55833">
        <ele>1230</ele>
        <time>2012-04-17T21:37:08Z</time>
      </trkpt>
      <trkpt lat="45.12761" lon="5.55827">
        <ele>1228</ele>
        <time>2012-04-17T21:37:11Z</time>
      </trkpt>
      <trkpt lat="45.12748" lon="5.5582">
        <ele>1226</ele>
        <time>2012-04-17T21:37:14Z</time>
      </trkpt>
      <trkpt lat="45.12738" lon="5.55816">
        <ele>1226</ele>
        <time>2012-04-17T21:37:17Z</time>
      </trkpt>
      <trkpt lat="45.12729" lon="5.5581">
        <ele>1227</ele>
        <time>2012-04-17T21:37:19Z</time>
      </trkpt>
      <trkpt lat="45.12719" lon="5.55806">
        <ele>1227</ele>
        <time>2012-04-17T21:37:21Z</time>
      </trkpt>
      <trkpt lat="45.12712" lon="5.55801">
        <ele>1227</ele>
        <time>2012-04-17T21:37:23Z</time>
      </trkpt>
      <trkpt lat="45.12703" lon="5.55795">
        <ele>1227</ele>
        <time>2012-04-17T21:37:25Z</time>
      </trkpt>
      <trkpt lat="45.12695" lon="5.55786">
        <ele>1228</ele>
        <time>2012-04-17T21:37:27Z</time>
      </trkpt>
      <trkpt lat="45.12688" lon="5.55779">
        <ele>1228</ele>
        <time>2012-04-17T21:37:29Z</time>
      </trkpt>
      <trkpt lat="45.12682" lon="5.55773">
        <ele>1228</ele>
        <time>2012-04-17T21:37:31Z</time>
      </trkpt>
      <trkpt lat="45.12675" lon="5.55769">
        <ele>1229</ele>
        <time>2012-04-17T21:37:32Z</time>
      </trkpt>
      <trkpt lat="45.12669" lon="5.55767">
        <ele>1229</ele>
        <time>2012-04-17T21:37:33Z</time>
      </trkpt>
      <trkpt lat="45.12662" lon="5.55767">
        <ele>1230</ele>
        <time>2012-04-17T21:37:34Z</time>
      </trkpt>
      <trkpt lat="45.12654" lon="5.55769">
        <ele>1229</ele>
        <time>2012-04-17T21:37:36Z</time>
      </trkpt>
      <trkpt lat="45.12643" lon="5.55773">
        <ele>1229</ele>
        <time>2012-04-17T21:37:39Z</time>
      </trkpt>
      <trkpt lat="45.12635" lon="5.55779">
        <ele>1229</ele>
        <time>2012-04-17T21:37:41Z</time>
      </trkpt>
      <trkpt lat="45.12628" lon="5.55784">
        <ele>1229</ele>
        <time>2012-04-17T21:37:42Z</time>
      </trkpt>
      <trkpt lat="45.1262" lon="5.5579">
        <ele>1229</ele>
        <time>2012-04-17T21:37:44Z</time>
      </trkpt>
      <trkpt lat="45.12613" lon="5.55797">
        <ele>1229</ele>
        <time>2012-04-17T21:37:46Z</time>
      </trkpt>
      <trkpt lat="45.12596" lon="5.55827">
        <ele>1228</ele>
        <time>2012-04-17T21:37:53Z</time>
      </trkpt>
      <trkpt lat="45.12555" lon="5.55833">
        <ele>1229</ele>
        <time>2012-04-17T21:38:04Z</time>
      </trkpt>
      <trkpt lat="45.12532" lon="5.55829">
        <ele>1228</ele>
        <time>2012-04-17T21:38:10Z</time>
      </trkpt>
      <trkpt lat="45.12502" lon="5.55801">
        <ele>1229</ele>
        <time>2012-04-17T21:38:19Z</time>
      </trkpt>
      <trkpt lat="45.12461" lon="5.55741">
        <ele>1228</ele>
        <time>2012-04-17T21:38:35Z</time>
      </trkpt>
      <trkpt lat="45.12446" lon="5.5573">
        <ele>1227</ele>
        <time>2012-04-17T21:38:39Z</time>
      </trkpt>
      <trkpt lat="45.12394" lon="5.55734">
        <ele>1222</ele>
        <time>2012-04-17T21:38:53Z</time>
      </trkpt>
      <trkpt lat="45.12368" lon="5.55749">
        <ele>1221</ele>
        <time>2012-04-17T21:39:00Z</time>
      </trkpt>
      <trkpt lat="45.12345" lon="5.5576">
        <ele>1217</ele>
        <time>2012-04-17T21:39:06Z</time>
      </trkpt>
      <trkpt lat="45.12319" lon="5.55754">
        <ele>1215</ele>
        <time>2012-04-17T21:39:13Z</time>
      </trkpt>
      <trkpt lat="45.12299" lon="5.55734">
        <ele>1216</ele>
        <time>2012-04-17T21:39:19Z</time>
      </trkpt>
      <trkpt lat="45.12289" lon="5.55724">
        <ele>1215</ele>
        <time>2012-04-17T21:39:22Z</time>
      </trkpt>
      <trkpt lat="45.12263" lon="5.55683">
        <ele>1214</ele>
        <time>2012-04-17T21:39:32Z</time>
      </trkpt>
      <trkpt lat="45.12253" lon="5.55657">
        <ele>1214</ele>
        <time>2012-04-17T21:39:37Z</time>
      </trkpt>
      <trkpt lat="45.1224" lon="5.55606">
        <ele>1214</ele>
        <time>2012-04-17T21:39:47Z</time>
      </trkpt>
      <trkpt lat="45.12182" lon="5.55644">
        <ele>1211</ele>
        <time>2012-04-17T21:40:04Z</time>
      </trkpt>
      <trkpt lat="45.12122" lon="5.55713">
        <ele>1204</ele>
        <time>2012-04-17T21:40:25Z</time>
      </trkpt>
      <trkpt lat="45.12118" lon="5.5572">
        <ele>1204</ele>
        <time>2012-04-17T21:40:26Z</time>
      </trkpt>
      <trkpt lat="45.12079" lon="5.55784">
        <ele>1203</ele>
        <time>2012-04-17T21:40:42Z</time>
      </trkpt>
      <trkpt lat="45.12072" lon="5.5579">
        <ele>1202</ele>
        <time>2012-04-17T21:40:44Z</time>
      </trkpt>
      <trkpt lat="45.12066" lon="5.55792">
        <ele>1202</ele>
        <time>2012-04-17T21:40:45Z</time>
      </trkpt>
      <trkpt lat="45.12062" lon="5.55799">
        <ele>1202</ele>
        <time>2012-04-17T21:40:46Z</time>
      </trkpt>
      <trkpt lat="45.12059" lon="5.55805">
        <ele>1202</ele>
        <time>2012-04-17T21:40:47Z</time>
      </trkpt>
      <trkpt lat="45.12042" lon="5.5579">
        <ele>1202</ele>
        <time>2012-04-17T21:40:52Z</time>
      </trkpt>
      <trkpt lat="45.12032" lon="5.55779">
        <ele>1202</ele>
        <time>2012-04-17T21:40:55Z</time>
      </trkpt>
      <trkpt lat="45.12012" lon="5.5576">
        <ele>1203</ele>
        <time>2012-04-17T21:41:01Z</time>
      </trkpt>
      <trkpt lat="45.11982" lon="5.55722">
        <ele>1205</ele>
        <time>2012-04-17T21:41:12Z</time>
      </trkpt>
      <trkpt lat="45.11963" lon="5.55674">
        <ele>1207</ele>
        <time>2012-04-17T21:41:22Z</time>
      </trkpt>
      <trkpt lat="45.11961" lon="5.55631">
        <ele>1214</ele>
        <time>2012-04-17T21:41:30Z</time>
      </trkpt>
      <trkpt lat="45.11946" lon="5.55601">
        <ele>1215</ele>
        <time>2012-04-17T21:41:37Z</time>
      </trkpt>
      <trkpt lat="45.11931" lon="5.55574">
        <ele>1221</ele>
        <time>2012-04-17T21:41:43Z</time>
      </trkpt>
      <trkpt lat="45.11924" lon="5.55531">
        <ele>1227</ele>
        <time>2012-04-17T21:41:51Z</time>
      </trkpt>
      <trkpt lat="45.11914" lon="5.55481">
        <ele>1231</ele>
        <time>2012-04-17T21:42:01Z</time>
      </trkpt>
      <trkpt lat="45.11896" lon="5.55443">
        <ele>1233</ele>
        <time>2012-04-17T21:42:09Z</time>
      </trkpt>
      <trkpt lat="45.11851" lon="5.55402">
        <ele>1236</ele>
        <time>2012-04-17T21:42:23Z</time>
      </trkpt>
      <trkpt lat="45.11811" lon="5.55329">
        <ele>1239</ele>
        <time>2012-04-17T21:42:41Z</time>
      </trkpt>
      <trkpt lat="45.11808" lon="5.55254">
        <ele>1242</ele>
        <time>2012-04-17T21:42:55Z</time>
      </trkpt>
      <trkpt lat="45.11804" lon="5.5523">
        <ele>1248</ele>
        <time>2012-04-17T21:42:59Z</time>
      </trkpt>
      <trkpt lat="45.118" lon="5.55226">
        <ele>1248</ele>
        <time>2012-04-17T21:43:00Z</time>
      </trkpt>
      <trkpt lat="45.11787" lon="5.5523">
        <ele>1248</ele>
        <time>2012-04-17T21:43:03Z</time>
      </trkpt>
      <trkpt lat="45.11772" lon="5.55252">
        <ele>1241</ele>
        <time>2012-04-17T21:43:08Z</time>
      </trkpt>
      <trkpt lat="45.11744" lon="5.55269">
        <ele>1238</ele>
        <time>2012-04-17T21:43:16Z</time>
      </trkpt>
      <trkpt lat="45.11712" lon="5.55273">
        <ele>1236</ele>
        <time>2012-04-17T21:43:24Z</time>
      </trkpt>
      <trkpt lat="45.11693" lon="5.55271">
        <ele>1236</ele>
        <time>2012-04-17T21:43:29Z</time>
      </trkpt>
      <trkpt lat="45.11675" lon="5.5526">
        <ele>1238</ele>
        <time>2012-04-17T21:43:34Z</time>
      </trkpt>
      <trkpt lat="45.11656" lon="5.55222">
        <ele>1243</ele>
        <time>2012-04-17T21:43:43Z</time>
      </trkpt>
      <trkpt lat="45.11637" lon="5.55181">
        <ele>1246</ele>
        <time>2012-04-17T21:43:52Z</time>
      </trkpt>
      <trkpt lat="45.11628" lon="5.55123">
        <ele>1254</ele>
        <time>2012-04-17T21:44:03Z</time>
      </trkpt>
      <trkpt lat="45.11624" lon="5.55022">
        <ele>1263</ele>
        <time>2012-04-17T21:44:22Z</time>
      </trkpt>
      <trkpt lat="45.11622" lon="5.54876">
        <ele>1269</ele>
        <time>2012-04-17T21:44:50Z</time>
      </trkpt>
      <trkpt lat="45.11605" lon="5.5488">
        <ele>1269</ele>
        <time>2012-04-17T21:44:54Z</time>
      </trkpt>
      <trkpt lat="45.11587" lon="5.54883">
        <ele>1269</ele>
        <time>2012-04-17T21:44:58Z</time>
      </trkpt>
      <trkpt lat="45.11579" lon="5.54883">
        <ele>1270</ele>
        <time>2012-04-17T21:45:00Z</time>
      </trkpt>
      <trkpt lat="45.1157" lon="5.5488">
        <ele>1270</ele>
        <time>2012-04-17T21:45:02Z</time>
      </trkpt>
      <trkpt lat="45.11562" lon="5.54876">
        <ele>1270</ele>
        <time>2012-04-17T21:45:04Z</time>
      </trkpt>
      <trkpt lat="45.11547" lon="5.54868">
        <ele>1270</ele>
        <time>2012-04-17T21:45:08Z</time>
      </trkpt>
      <trkpt lat="45.11536" lon="5.54861">
        <ele>1271</ele>
        <time>2012-04-17T21:45:11Z</time>
      </trkpt>
      <trkpt lat="45.11521" lon="5.54853">
        <ele>1272</ele>
        <time>2012-04-17T21:45:15Z</time>
      </trkpt>
      <trkpt lat="45.11504" lon="5.5484">
        <ele>1275</ele>
        <time>2012-04-17T21:45:20Z</time>
      </trkpt>
      <trkpt lat="45.11493" lon="5.54831">
        <ele>1275</ele>
        <time>2012-04-17T21:45:23Z</time>
      </trkpt>
      <trkpt lat="45.11489" lon="5.54829">
        <ele>1274</ele>
        <time>2012-04-17T21:45:24Z</time>
      </trkpt>
      <trkpt lat="45.11482" lon="5.54825">
        <ele>1274</ele>
        <time>2012-04-17T21:45:25Z</time>
      </trkpt>
      <trkpt lat="45.11474" lon="5.5482">
        <ele>1273</ele>
        <time>2012-04-17T21:45:27Z</time>
      </trkpt>
      <trkpt lat="45.11461" lon="5.54818">
        <ele>1272</ele>
        <time>2012-04-17T21:45:30Z</time>
      </trkpt>
      <trkpt lat="45.11448" lon="5.54814">
        <ele>1272</ele>
        <time>2012-04-17T21:45:33Z</time>
      </trkpt>
      <trkpt lat="45.11422" lon="5.54807">
        <ele>1272</ele>
        <time>2012-04-17T21:45:40Z</time>
      </trkpt>
      <trkpt lat="45.11405" lon="5.54801">
        <ele>1270</ele>
        <time>2012-04-17T21:45:44Z</time>
      </trkpt>
      <trkpt lat="45.11388" lon="5.54799">
        <ele>1270</ele>
        <time>2012-04-17T21:45:48Z</time>
      </trkpt>
      <trkpt lat="45.11358" lon="5.54797">
        <ele>1269</ele>
        <time>2012-04-17T21:45:56Z</time>
      </trkpt>
      <trkpt lat="45.11343" lon="5.54797">
        <ele>1269</ele>
        <time>2012-04-17T21:46:00Z</time>
      </trkpt>
      <trkpt lat="45.11315" lon="5.54797">
        <ele>1266</ele>
        <time>2012-04-17T21:46:07Z</time>
      </trkpt>
      <trkpt lat="45.11278" lon="5.54797">
        <ele>1265</ele>
        <time>2012-04-17T21:46:17Z</time>
      </trkpt>
      <trkpt lat="45.11261" lon="5.54799">
        <ele>1265</ele>
        <time>2012-04-17T21:46:21Z</time>
      </trkpt>
      <trkpt lat="45.11246" lon="5.54801">
        <ele>1263</ele>
        <time>2012-04-17T21:46:25Z</time>
      </trkpt>
      <trkpt lat="45.11227" lon="5.54801">
        <ele>1263</ele>
        <time>2012-04-17T21:46:30Z</time>
      </trkpt>
      <trkpt lat="45.1121" lon="5.54801">
        <ele>1263</ele>
        <time>2012-04-17T21:46:34Z</time>
      </trkpt>
      <trkpt lat="45.11173" lon="5.54797">
        <ele>1264</ele>
        <time>2012-04-17T21:46:44Z</time>
      </trkpt>
      <trkpt lat="45.1116" lon="5.54792">
        <ele>1262</ele>
        <time>2012-04-17T21:46:47Z</time>
      </trkpt>
      <trkpt lat="45.1115" lon="5.5479">
        <ele>1261</ele>
        <time>2012-04-17T21:46:50Z</time>
      </trkpt>
      <trkpt lat="45.11143" lon="5.54788">
        <ele>1261</ele>
        <time>2012-04-17T21:46:51Z</time>
      </trkpt>
      <trkpt lat="45.11139" lon="5.54786">
        <ele>1261</ele>
        <time>2012-04-17T21:46:52Z</time>
      </trkpt>
      <trkpt lat="45.11122" lon="5.5478">
        <ele>1260</ele>
        <time>2012-04-17T21:46:56Z</time>
      </trkpt>
      <trkpt lat="45.11113" lon="5.54775">
        <ele>1259</ele>
        <time>2012-04-17T21:46:58Z</time>
      </trkpt>
      <trkpt lat="45.11109" lon="5.54775">
        <ele>1259</ele>
        <time>2012-04-17T21:46:59Z</time>
      </trkpt>
      <trkpt lat="45.11102" lon="5.54773">
        <ele>1258</ele>
        <time>2012-04-17T21:47:00Z</time>
      </trkpt>
      <trkpt lat="45.11092" lon="5.54773">
        <ele>1257</ele>
        <time>2012-04-17T21:47:02Z</time>
      </trkpt>
      <trkpt lat="45.11085" lon="5.54773">
        <ele>1257</ele>
        <time>2012-04-17T21:47:03Z</time>
      </trkpt>
      <trkpt lat="45.11081" lon="5.54775">
        <ele>1256</ele>
        <time>2012-04-17T21:47:04Z</time>
      </trkpt>
      <trkpt lat="45.11077" lon="5.54775">
        <ele>1256</ele>
        <time>2012-04-17T21:47:05Z</time>
      </trkpt>
      <trkpt lat="45.11068" lon="5.5478">
        <ele>1256</ele>
        <time>2012-04-17T21:47:07Z</time>
      </trkpt>
      <trkpt lat="45.11062" lon="5.5478">
        <ele>1256</ele>
        <time>2012-04-17T21:47:08Z</time>
      </trkpt>
      <trkpt lat="45.11057" lon="5.54784">
        <ele>1257</ele>
        <time>2012-04-17T21:47:09Z</time>
      </trkpt>
      <trkpt lat="45.11053" lon="5.54784">
        <ele>1257</ele>
        <time>2012-04-17T21:47:10Z</time>
      </trkpt>
      <trkpt lat="45.11049" lon="5.54786">
        <ele>1257</ele>
        <time>2012-04-17T21:47:11Z</time>
      </trkpt>
      <trkpt lat="45.11042" lon="5.54786">
        <ele>1257</ele>
        <time>2012-04-17T21:47:12Z</time>
      </trkpt>
      <trkpt lat="45.11038" lon="5.54788">
        <ele>1257</ele>
        <time>2012-04-17T21:47:13Z</time>
      </trkpt>
      <trkpt lat="45.11027" lon="5.54786">
        <ele>1257</ele>
        <time>2012-04-17T21:47:16Z</time>
      </trkpt>
      <trkpt lat="45.11021" lon="5.54784">
        <ele>1256</ele>
        <time>2012-04-17T21:47:17Z</time>
      </trkpt>
      <trkpt lat="45.1101" lon="5.54782">
        <ele>1256</ele>
        <time>2012-04-17T21:47:20Z</time>
      </trkpt>
      <trkpt lat="45.11006" lon="5.5478">
        <ele>1256</ele>
        <time>2012-04-17T21:47:21Z</time>
      </trkpt>
      <trkpt lat="45.10993" lon="5.54777">
        <ele>1253</ele>
        <time>2012-04-17T21:47:24Z</time>
      </trkpt>
      <trkpt lat="45.10974" lon="5.54775">
        <ele>1252</ele>
        <time>2012-04-17T21:47:29Z</time>
      </trkpt>
      <trkpt lat="45.10967" lon="5.54773">
        <ele>1252</ele>
        <time>2012-04-17T21:47:30Z</time>
      </trkpt>
      <trkpt lat="45.10961" lon="5.54773">
        <ele>1251</ele>
        <time>2012-04-17T21:47:31Z</time>
      </trkpt>
      <trkpt lat="45.10954" lon="5.54773">
        <ele>1251</ele>
        <time>2012-04-17T21:47:32Z</time>
      </trkpt>
      <trkpt lat="45.10948" lon="5.54773">
        <ele>1251</ele>
        <time>2012-04-17T21:47:33Z</time>
      </trkpt>
      <trkpt lat="45.10937" lon="5.54773">
        <ele>1250</ele>
        <time>2012-04-17T21:47:35Z</time>
      </trkpt>
      <trkpt lat="45.10931" lon="5.54773">
        <ele>1249</ele>
        <time>2012-04-17T21:47:36Z</time>
      </trkpt>
      <trkpt lat="45.10918" lon="5.54773">
        <ele>1249</ele>
        <time>2012-04-17T21:47:39Z</time>
      </trkpt>
      <trkpt lat="45.10905" lon="5.54773">
        <ele>1244</ele>
        <time>2012-04-17T21:47:42Z</time>
      </trkpt>
      <trkpt lat="45.10888" lon="5.54773">
        <ele>1244</ele>
        <time>2012-04-17T21:47:46Z</time>
      </trkpt>
      <trkpt lat="45.10884" lon="5.54771">
        <ele>1243</ele>
        <time>2012-04-17T21:47:47Z</time>
      </trkpt>
      <trkpt lat="45.10873" lon="5.54771">
        <ele>1243</ele>
        <time>2012-04-17T21:47:49Z</time>
      </trkpt>
      <trkpt lat="45.1086" lon="5.54769">
        <ele>1242</ele>
        <time>2012-04-17T21:47:52Z</time>
      </trkpt>
      <trkpt lat="45.10856" lon="5.54767">
        <ele>1242</ele>
        <time>2012-04-17T21:47:53Z</time>
      </trkpt>
      <trkpt lat="45.10849" lon="5.54765">
        <ele>1241</ele>
        <time>2012-04-17T21:47:54Z</time>
      </trkpt>
      <trkpt lat="45.10845" lon="5.54765">
        <ele>1241</ele>
        <time>2012-04-17T21:47:55Z</time>
      </trkpt>
      <trkpt lat="45.10841" lon="5.5476">
        <ele>1240</ele>
        <time>2012-04-17T21:47:56Z</time>
      </trkpt>
      <trkpt lat="45.10828" lon="5.54756">
        <ele>1238</ele>
        <time>2012-04-17T21:47:59Z</time>
      </trkpt>
      <trkpt lat="45.10815" lon="5.5475">
        <ele>1233</ele>
        <time>2012-04-17T21:48:02Z</time>
      </trkpt>
      <trkpt lat="45.10804" lon="5.54745">
        <ele>1231</ele>
        <time>2012-04-17T21:48:05Z</time>
      </trkpt>
      <trkpt lat="45.10774" lon="5.54741">
        <ele>1230</ele>
        <time>2012-04-17T21:48:13Z</time>
      </trkpt>
      <trkpt lat="45.10733" lon="5.5473">
        <ele>1228</ele>
        <time>2012-04-17T21:48:24Z</time>
      </trkpt>
      <trkpt lat="45.10736" lon="5.54769">
        <ele>1232</ele>
        <time>2012-04-17T21:48:31Z</time>
      </trkpt>
      <trkpt lat="45.10742" lon="5.54797">
        <ele>1232</ele>
        <time>2012-04-17T21:48:36Z</time>
      </trkpt>
      <trkpt lat="45.1077" lon="5.54853">
        <ele>1232</ele>
        <time>2012-04-17T21:48:49Z</time>
      </trkpt>
      <trkpt lat="45.10811" lon="5.5491">
        <ele>1229</ele>
        <time>2012-04-17T21:49:05Z</time>
      </trkpt>
      <trkpt lat="45.10869" lon="5.5499">
        <ele>1220</ele>
        <time>2012-04-17T21:49:27Z</time>
      </trkpt>
      <trkpt lat="45.10935" lon="5.55076">
        <ele>1208</ele>
        <time>2012-04-17T21:49:52Z</time>
      </trkpt>
      <trkpt lat="45.10991" lon="5.55114">
        <ele>1199</ele>
        <time>2012-04-17T21:50:09Z</time>
      </trkpt>
      <trkpt lat="45.1104" lon="5.55166">
        <ele>1202</ele>
        <time>2012-04-17T21:50:26Z</time>
      </trkpt>
      <trkpt lat="45.1104" lon="5.55172">
        <ele>1187</ele>
        <time>2012-04-17T21:50:27Z</time>
      </trkpt>
      <trkpt lat="45.11042" lon="5.55177">
        <ele>1187</ele>
        <time>2012-04-17T21:50:28Z</time>
      </trkpt>
      <trkpt lat="45.11045" lon="5.55181">
        <ele>1187</ele>
        <time>2012-04-17T21:50:29Z</time>
      </trkpt>
      <trkpt lat="45.11049" lon="5.55187">
        <ele>1187</ele>
        <time>2012-04-17T21:50:30Z</time>
      </trkpt>
      <trkpt lat="45.11051" lon="5.55192">
        <ele>1186</ele>
        <time>2012-04-17T21:50:31Z</time>
      </trkpt>
      <trkpt lat="45.11057" lon="5.55198">
        <ele>1186</ele>
        <time>2012-04-17T21:50:33Z</time>
      </trkpt>
      <trkpt lat="45.1107" lon="5.55215">
        <ele>1184</ele>
        <time>2012-04-17T21:50:37Z</time>
      </trkpt>
      <trkpt lat="45.11079" lon="5.55224">
        <ele>1184</ele>
        <time>2012-04-17T21:50:39Z</time>
      </trkpt>
      <trkpt lat="45.11087" lon="5.55241">
        <ele>1187</ele>
        <time>2012-04-17T21:50:43Z</time>
      </trkpt>
      <trkpt lat="45.111" lon="5.5526">
        <ele>1180</ele>
        <time>2012-04-17T21:50:48Z</time>
      </trkpt>
      <trkpt lat="45.11105" lon="5.55269">
        <ele>1179</ele>
        <time>2012-04-17T21:50:50Z</time>
      </trkpt>
      <trkpt lat="45.11111" lon="5.55277">
        <ele>1179</ele>
        <time>2012-04-17T21:50:52Z</time>
      </trkpt>
      <trkpt lat="45.11115" lon="5.55286">
        <ele>1178</ele>
        <time>2012-04-17T21:50:54Z</time>
      </trkpt>
      <trkpt lat="45.11128" lon="5.55305">
        <ele>1177</ele>
        <time>2012-04-17T21:50:59Z</time>
      </trkpt>
      <trkpt lat="45.11133" lon="5.55314">
        <ele>1177</ele>
        <time>2012-04-17T21:51:01Z</time>
      </trkpt>
      <trkpt lat="45.11143" lon="5.55331">
        <ele>1176</ele>
        <time>2012-04-17T21:51:05Z</time>
      </trkpt>
      <trkpt lat="45.11148" lon="5.5534">
        <ele>1166</ele>
        <time>2012-04-17T21:51:07Z</time>
      </trkpt>
      <trkpt lat="45.11158" lon="5.55355">
        <ele>1165</ele>
        <time>2012-04-17T21:51:11Z</time>
      </trkpt>
      <trkpt lat="45.11165" lon="5.55363">
        <ele>1163</ele>
        <time>2012-04-17T21:51:13Z</time>
      </trkpt>
      <trkpt lat="45.11169" lon="5.5537">
        <ele>1166</ele>
        <time>2012-04-17T21:51:14Z</time>
      </trkpt>
      <trkpt lat="45.11186" lon="5.55387">
        <ele>1163</ele>
        <time>2012-04-17T21:51:19Z</time>
      </trkpt>
      <trkpt lat="45.11194" lon="5.55393">
        <ele>1163</ele>
        <time>2012-04-17T21:51:21Z</time>
      </trkpt>
      <trkpt lat="45.11212" lon="5.55408">
        <ele>1162</ele>
        <time>2012-04-17T21:51:26Z</time>
      </trkpt>
      <trkpt lat="45.11225" lon="5.55421">
        <ele>1151</ele>
        <time>2012-04-17T21:51:30Z</time>
      </trkpt>
      <trkpt lat="45.11236" lon="5.55434">
        <ele>1151</ele>
        <time>2012-04-17T21:51:33Z</time>
      </trkpt>
      <trkpt lat="45.11242" lon="5.55443">
        <ele>1150</ele>
        <time>2012-04-17T21:51:35Z</time>
      </trkpt>
      <trkpt lat="45.11244" lon="5.55449">
        <ele>1149</ele>
        <time>2012-04-17T21:51:36Z</time>
      </trkpt>
      <trkpt lat="45.11246" lon="5.55453">
        <ele>1148</ele>
        <time>2012-04-17T21:51:37Z</time>
      </trkpt>
      <trkpt lat="45.11248" lon="5.5546">
        <ele>1147</ele>
        <time>2012-04-17T21:51:38Z</time>
      </trkpt>
      <trkpt lat="45.11248" lon="5.55466">
        <ele>1146</ele>
        <time>2012-04-17T21:51:39Z</time>
      </trkpt>
      <trkpt lat="45.11248" lon="5.55473">
        <ele>1145</ele>
        <time>2012-04-17T21:51:40Z</time>
      </trkpt>
      <trkpt lat="45.11246" lon="5.55479">
        <ele>1145</ele>
        <time>2012-04-17T21:51:41Z</time>
      </trkpt>
      <trkpt lat="45.11244" lon="5.55486">
        <ele>1144</ele>
        <time>2012-04-17T21:51:42Z</time>
      </trkpt>
      <trkpt lat="45.1124" lon="5.55492">
        <ele>1143</ele>
        <time>2012-04-17T21:51:43Z</time>
      </trkpt>
      <trkpt lat="45.11231" lon="5.55507">
        <ele>1137</ele>
        <time>2012-04-17T21:51:46Z</time>
      </trkpt>
      <trkpt lat="45.11227" lon="5.55513">
        <ele>1137</ele>
        <time>2012-04-17T21:51:47Z</time>
      </trkpt>
      <trkpt lat="45.1122" lon="5.55522">
        <ele>1136</ele>
        <time>2012-04-17T21:51:49Z</time>
      </trkpt>
      <trkpt lat="45.1121" lon="5.55537">
        <ele>1135</ele>
        <time>2012-04-17T21:51:53Z</time>
      </trkpt>
      <trkpt lat="45.11193" lon="5.55558">
        <ele>1134</ele>
        <time>2012-04-17T21:51:59Z</time>
      </trkpt>
      <trkpt lat="45.11184" lon="5.55565">
        <ele>1133</ele>
        <time>2012-04-17T21:52:01Z</time>
      </trkpt>
      <trkpt lat="45.11175" lon="5.55569">
        <ele>1132</ele>
        <time>2012-04-17T21:52:03Z</time>
      </trkpt>
      <trkpt lat="45.11167" lon="5.55574">
        <ele>1130</ele>
        <time>2012-04-17T21:52:05Z</time>
      </trkpt>
      <trkpt lat="45.11178" lon="5.5558">
        <ele>1131</ele>
        <time>2012-04-17T21:52:08Z</time>
      </trkpt>
      <trkpt lat="45.11184" lon="5.55584">
        <ele>1126</ele>
        <time>2012-04-17T21:52:09Z</time>
      </trkpt>
      <trkpt lat="45.11193" lon="5.55591">
        <ele>1126</ele>
        <time>2012-04-17T21:52:11Z</time>
      </trkpt>
      <trkpt lat="45.11201" lon="5.55595">
        <ele>1126</ele>
        <time>2012-04-17T21:52:13Z</time>
      </trkpt>
      <trkpt lat="45.11208" lon="5.55599">
        <ele>1126</ele>
        <time>2012-04-17T21:52:14Z</time>
      </trkpt>
      <trkpt lat="45.11218" lon="5.55608">
        <ele>1126</ele>
        <time>2012-04-17T21:52:17Z</time>
      </trkpt>
      <trkpt lat="45.11223" lon="5.55614">
        <ele>1125</ele>
        <time>2012-04-17T21:52:18Z</time>
      </trkpt>
      <trkpt lat="45.11227" lon="5.55619">
        <ele>1125</ele>
        <time>2012-04-17T21:52:19Z</time>
      </trkpt>
      <trkpt lat="45.11231" lon="5.55623">
        <ele>1125</ele>
        <time>2012-04-17T21:52:20Z</time>
      </trkpt>
      <trkpt lat="45.11233" lon="5.55629">
        <ele>1124</ele>
        <time>2012-04-17T21:52:21Z</time>
      </trkpt>
      <trkpt lat="45.11236" lon="5.55636">
        <ele>1124</ele>
        <time>2012-04-17T21:52:22Z</time>
      </trkpt>
      <trkpt lat="45.11238" lon="5.55642">
        <ele>1123</ele>
        <time>2012-04-17T21:52:23Z</time>
      </trkpt>
      <trkpt lat="45.1124" lon="5.55646">
        <ele>1123</ele>
        <time>2012-04-17T21:52:24Z</time>
      </trkpt>
      <trkpt lat="45.11242" lon="5.55651">
        <ele>1123</ele>
        <time>2012-04-17T21:52:25Z</time>
      </trkpt>
      <trkpt lat="45.11246" lon="5.55655">
        <ele>1122</ele>
        <time>2012-04-17T21:52:26Z</time>
      </trkpt>
      <trkpt lat="45.11268" lon="5.55651">
        <ele>1127</ele>
        <time>2012-04-17T21:52:32Z</time>
      </trkpt>
      <trkpt lat="45.11289" lon="5.55659">
        <ele>1128</ele>
        <time>2012-04-17T21:52:38Z</time>
      </trkpt>
      <trkpt lat="45.11291" lon="5.55666">
        <ele>1128</ele>
        <time>2012-04-17T21:52:39Z</time>
      </trkpt>
      <trkpt lat="45.11293" lon="5.5567">
        <ele>1124</ele>
        <time>2012-04-17T21:52:40Z</time>
      </trkpt>
      <trkpt lat="45.11298" lon="5.55679">
        <ele>1124</ele>
        <time>2012-04-17T21:52:42Z</time>
      </trkpt>
      <trkpt lat="45.11302" lon="5.55698">
        <ele>1124</ele>
        <time>2012-04-17T21:52:45Z</time>
      </trkpt>
      <trkpt lat="45.11311" lon="5.55724">
        <ele>1124</ele>
        <time>2012-04-17T21:52:50Z</time>
      </trkpt>
      <trkpt lat="45.11319" lon="5.55749">
        <ele>1124</ele>
        <time>2012-04-17T21:52:55Z</time>
      </trkpt>
      <trkpt lat="45.11328" lon="5.55767">
        <ele>1124</ele>
        <time>2012-04-17T21:52:59Z</time>
      </trkpt>
      <trkpt lat="45.11334" lon="5.55782">
        <ele>1130</ele>
        <time>2012-04-17T21:53:02Z</time>
      </trkpt>
      <trkpt lat="45.11343" lon="5.55799">
        <ele>1131</ele>
        <time>2012-04-17T21:53:06Z</time>
      </trkpt>
      <trkpt lat="45.11375" lon="5.55831">
        <ele>1132</ele>
        <time>2012-04-17T21:53:16Z</time>
      </trkpt>
      <trkpt lat="45.11414" lon="5.55852">
        <ele>1132</ele>
        <time>2012-04-17T21:53:27Z</time>
      </trkpt>
      <trkpt lat="45.11429" lon="5.55857">
        <ele>1132</ele>
        <time>2012-04-17T21:53:31Z</time>
      </trkpt>
      <trkpt lat="45.11433" lon="5.5587">
        <ele>1131</ele>
        <time>2012-04-17T21:53:33Z</time>
      </trkpt>
      <trkpt lat="45.11431" lon="5.55887">
        <ele>1131</ele>
        <time>2012-04-17T21:53:36Z</time>
      </trkpt>
      <trkpt lat="45.11426" lon="5.55913">
        <ele>1129</ele>
        <time>2012-04-17T21:53:41Z</time>
      </trkpt>
      <trkpt lat="45.11411" lon="5.55962">
        <ele>1126</ele>
        <time>2012-04-17T21:53:51Z</time>
      </trkpt>
      <trkpt lat="45.11403" lon="5.55977">
        <ele>1126</ele>
        <time>2012-04-17T21:53:54Z</time>
      </trkpt>
      <trkpt lat="45.11381" lon="5.55985">
        <ele>1126</ele>
        <time>2012-04-17T21:54:00Z</time>
      </trkpt>
      <trkpt lat="45.11323" lon="5.55988">
        <ele>1122</ele>
        <time>2012-04-17T21:54:16Z</time>
      </trkpt>
      <trkpt lat="45.1118" lon="5.56033">
        <ele>1118.8828</ele>
        <time>2012-04-17T21:54:56Z</time>
      </trkpt>
      <trkpt lat="45.11046" lon="5.56">
        <ele>1112.5781</ele>
        <time>2012-04-17T21:55:33Z</time>
      </trkpt>
      <trkpt lat="45.10935" lon="5.55947">
        <ele>1097.3906</ele>
        <time>2012-04-17T21:56:05Z</time>
      </trkpt>
      <trkpt lat="45.10873" lon="5.55915">
        <ele>1091.5429</ele>
        <time>2012-04-17T21:56:23Z</time>
      </trkpt>
      <trkpt lat="45.10581" lon="5.55923">
        <ele>1054.9375</ele>
        <time>2012-04-17T21:57:44Z</time>
      </trkpt>
      <trkpt lat="45.10577" lon="5.55921">
        <ele>1063</ele>
        <time>2012-04-17T21:57:45Z</time>
      </trkpt>
      <trkpt lat="45.1057" lon="5.55919">
        <ele>1061</ele>
        <time>2012-04-17T21:57:46Z</time>
      </trkpt>
      <trkpt lat="45.10566" lon="5.55919">
        <ele>1061</ele>
        <time>2012-04-17T21:57:47Z</time>
      </trkpt>
      <trkpt lat="45.1056" lon="5.55921">
        <ele>1060</ele>
        <time>2012-04-17T21:57:48Z</time>
      </trkpt>
      <trkpt lat="45.10545" lon="5.55923">
        <ele>1058</ele>
        <time>2012-04-17T21:57:52Z</time>
      </trkpt>
      <trkpt lat="45.10538" lon="5.55923">
        <ele>1057</ele>
        <time>2012-04-17T21:57:53Z</time>
      </trkpt>
      <trkpt lat="45.1053" lon="5.55925">
        <ele>1056</ele>
        <time>2012-04-17T21:57:55Z</time>
      </trkpt>
      <trkpt lat="45.10521" lon="5.55925">
        <ele>1055</ele>
        <time>2012-04-17T21:57:57Z</time>
      </trkpt>
      <trkpt lat="45.10515" lon="5.55923">
        <ele>1054</ele>
        <time>2012-04-17T21:57:58Z</time>
      </trkpt>
      <trkpt lat="45.10506" lon="5.55923">
        <ele>1053</ele>
        <time>2012-04-17T21:58:00Z</time>
      </trkpt>
      <trkpt lat="45.10497" lon="5.55925">
        <ele>1049</ele>
        <time>2012-04-17T21:58:02Z</time>
      </trkpt>
      <trkpt lat="45.10491" lon="5.55928">
        <ele>1048</ele>
        <time>2012-04-17T21:58:03Z</time>
      </trkpt>
      <trkpt lat="45.10484" lon="5.55928">
        <ele>1047</ele>
        <time>2012-04-17T21:58:04Z</time>
      </trkpt>
      <trkpt lat="45.10478" lon="5.5593">
        <ele>1046</ele>
        <time>2012-04-17T21:58:05Z</time>
      </trkpt>
      <trkpt lat="45.10459" lon="5.5593">
        <ele>1043</ele>
        <time>2012-04-17T21:58:10Z</time>
      </trkpt>
      <trkpt lat="45.10448" lon="5.55934">
        <ele>1042</ele>
        <time>2012-04-17T21:58:13Z</time>
      </trkpt>
      <trkpt lat="45.10435" lon="5.55934">
        <ele>1040</ele>
        <time>2012-04-17T21:58:16Z</time>
      </trkpt>
      <trkpt lat="45.10429" lon="5.55932">
        <ele>1040</ele>
        <time>2012-04-17T21:58:17Z</time>
      </trkpt>
      <trkpt lat="45.10424" lon="5.55932">
        <ele>1039</ele>
        <time>2012-04-17T21:58:18Z</time>
      </trkpt>
      <trkpt lat="45.10418" lon="5.5593">
        <ele>1039</ele>
        <time>2012-04-17T21:58:19Z</time>
      </trkpt>
      <trkpt lat="45.10412" lon="5.5593">
        <ele>1032</ele>
        <time>2012-04-17T21:58:20Z</time>
      </trkpt>
      <trkpt lat="45.10405" lon="5.5593">
        <ele>1031</ele>
        <time>2012-04-17T21:58:21Z</time>
      </trkpt>
      <trkpt lat="45.10401" lon="5.55928">
        <ele>1031</ele>
        <time>2012-04-17T21:58:22Z</time>
      </trkpt>
      <trkpt lat="45.10399" lon="5.55921">
        <ele>1031</ele>
        <time>2012-04-17T21:58:23Z</time>
      </trkpt>
      <trkpt lat="45.10397" lon="5.55917">
        <ele>1030</ele>
        <time>2012-04-17T21:58:24Z</time>
      </trkpt>
      <trkpt lat="45.10392" lon="5.55913">
        <ele>1029</ele>
        <time>2012-04-17T21:58:25Z</time>
      </trkpt>
      <trkpt lat="45.10386" lon="5.5591">
        <ele>1028</ele>
        <time>2012-04-17T21:58:26Z</time>
      </trkpt>
      <trkpt lat="45.10373" lon="5.55908">
        <ele>1026</ele>
        <time>2012-04-17T21:58:29Z</time>
      </trkpt>
      <trkpt lat="45.10366" lon="5.55908">
        <ele>1025</ele>
        <time>2012-04-17T21:58:30Z</time>
      </trkpt>
      <trkpt lat="45.1036" lon="5.55904">
        <ele>1024</ele>
        <time>2012-04-17T21:58:31Z</time>
      </trkpt>
      <trkpt lat="45.10358" lon="5.559">
        <ele>1024</ele>
        <time>2012-04-17T21:58:32Z</time>
      </trkpt>
      <trkpt lat="45.10358" lon="5.55893">
        <ele>1024</ele>
        <time>2012-04-17T21:58:33Z</time>
      </trkpt>
      <trkpt lat="45.1036" lon="5.55889">
        <ele>1024</ele>
        <time>2012-04-17T21:58:34Z</time>
      </trkpt>
      <trkpt lat="45.1036" lon="5.55885">
        <ele>1024</ele>
        <time>2012-04-17T21:58:34Z</time>
      </trkpt>
      <trkpt lat="45.10362" lon="5.5588">
        <ele>1024</ele>
        <time>2012-04-17T21:58:35Z</time>
      </trkpt>
      <trkpt lat="45.10366" lon="5.55878">
        <ele>1025</ele>
        <time>2012-04-17T21:58:36Z</time>
      </trkpt>
      <trkpt lat="45.10369" lon="5.55872">
        <ele>1025</ele>
        <time>2012-04-17T21:58:37Z</time>
      </trkpt>
      <trkpt lat="45.10371" lon="5.55867">
        <ele>1025</ele>
        <time>2012-04-17T21:58:38Z</time>
      </trkpt>
      <trkpt lat="45.10369" lon="5.55863">
        <ele>1024</ele>
        <time>2012-04-17T21:58:39Z</time>
      </trkpt>
      <trkpt lat="45.10362" lon="5.55861">
        <ele>1024</ele>
        <time>2012-04-17T21:58:40Z</time>
      </trkpt>
      <trkpt lat="45.10356" lon="5.55859">
        <ele>1023</ele>
        <time>2012-04-17T21:58:41Z</time>
      </trkpt>
      <trkpt lat="45.10351" lon="5.55857">
        <ele>1023</ele>
        <time>2012-04-17T21:58:42Z</time>
      </trkpt>
      <trkpt lat="45.10343" lon="5.55855">
        <ele>1022</ele>
        <time>2012-04-17T21:58:44Z</time>
      </trkpt>
      <trkpt lat="45.10334" lon="5.55855">
        <ele>1022</ele>
        <time>2012-04-17T21:58:46Z</time>
      </trkpt>
      <trkpt lat="45.10326" lon="5.55852">
        <ele>1018</ele>
        <time>2012-04-17T21:58:48Z</time>
      </trkpt>
      <trkpt lat="45.10315" lon="5.55848">
        <ele>1018</ele>
        <time>2012-04-17T21:58:51Z</time>
      </trkpt>
      <trkpt lat="45.103" lon="5.55848">
        <ele>1018</ele>
        <time>2012-04-17T21:58:55Z</time>
      </trkpt>
      <trkpt lat="45.10283" lon="5.55852">
        <ele>1018</ele>
        <time>2012-04-17T21:58:59Z</time>
      </trkpt>
      <trkpt lat="45.10268" lon="5.55876">
        <ele>1018</ele>
        <time>2012-04-17T21:59:05Z</time>
      </trkpt>
      <trkpt lat="45.10261" lon="5.55889">
        <ele>1017</ele>
        <time>2012-04-17T21:59:08Z</time>
      </trkpt>
      <trkpt lat="45.10259" lon="5.559">
        <ele>1017</ele>
        <time>2012-04-17T21:59:10Z</time>
      </trkpt>
      <trkpt lat="45.10253" lon="5.55913">
        <ele>1016</ele>
        <time>2012-04-17T21:59:13Z</time>
      </trkpt>
      <trkpt lat="45.10244" lon="5.55923">
        <ele>1013</ele>
        <time>2012-04-17T21:59:16Z</time>
      </trkpt>
      <trkpt lat="45.10233" lon="5.55936">
        <ele>1011</ele>
        <time>2012-04-17T21:59:19Z</time>
      </trkpt>
      <trkpt lat="45.10227" lon="5.55943">
        <ele>1011</ele>
        <time>2012-04-17T21:59:21Z</time>
      </trkpt>
      <trkpt lat="45.10221" lon="5.5594">
        <ele>1011</ele>
        <time>2012-04-17T21:59:22Z</time>
      </trkpt>
      <trkpt lat="45.10212" lon="5.5593">
        <ele>1011</ele>
        <time>2012-04-17T21:59:25Z</time>
      </trkpt>
      <trkpt lat="45.10203" lon="5.55923">
        <ele>1011</ele>
        <time>2012-04-17T21:59:27Z</time>
      </trkpt>
      <trkpt lat="45.10195" lon="5.55915">
        <ele>1015</ele>
        <time>2012-04-17T21:59:29Z</time>
      </trkpt>
      <trkpt lat="45.10191" lon="5.5591">
        <ele>1015</ele>
        <time>2012-04-17T21:59:30Z</time>
      </trkpt>
      <trkpt lat="45.10186" lon="5.55906">
        <ele>1015</ele>
        <time>2012-04-17T21:59:31Z</time>
      </trkpt>
      <trkpt lat="45.10182" lon="5.55891">
        <ele>1015</ele>
        <time>2012-04-17T21:59:34Z</time>
      </trkpt>
      <trkpt lat="45.1018" lon="5.55878">
        <ele>1016</ele>
        <time>2012-04-17T21:59:36Z</time>
      </trkpt>
      <trkpt lat="45.10178" lon="5.55874">
        <ele>1016</ele>
        <time>2012-04-17T21:59:37Z</time>
      </trkpt>
      <trkpt lat="45.10176" lon="5.55867">
        <ele>1016</ele>
        <time>2012-04-17T21:59:38Z</time>
      </trkpt>
      <trkpt lat="45.10176" lon="5.55861">
        <ele>1016</ele>
        <time>2012-04-17T21:59:39Z</time>
      </trkpt>
      <trkpt lat="45.10173" lon="5.55857">
        <ele>1016</ele>
        <time>2012-04-17T21:59:40Z</time>
      </trkpt>
      <trkpt lat="45.10171" lon="5.55852">
        <ele>1016</ele>
        <time>2012-04-17T21:59:41Z</time>
      </trkpt>
      <trkpt lat="45.10169" lon="5.55848">
        <ele>1015</ele>
        <time>2012-04-17T21:59:42Z</time>
      </trkpt>
      <trkpt lat="45.10165" lon="5.55842">
        <ele>1013</ele>
        <time>2012-04-17T21:59:43Z</time>
      </trkpt>
      <trkpt lat="45.1016" lon="5.55837">
        <ele>1013</ele>
        <time>2012-04-17T21:59:44Z</time>
      </trkpt>
      <trkpt lat="45.10156" lon="5.55833">
        <ele>1014</ele>
        <time>2012-04-17T21:59:45Z</time>
      </trkpt>
      <trkpt lat="45.10139" lon="5.55818">
        <ele>1014</ele>
        <time>2012-04-17T21:59:50Z</time>
      </trkpt>
      <trkpt lat="45.10133" lon="5.55812">
        <ele>1013</ele>
        <time>2012-04-17T21:59:52Z</time>
      </trkpt>
      <trkpt lat="45.10128" lon="5.55807">
        <ele>1013</ele>
        <time>2012-04-17T21:59:53Z</time>
      </trkpt>
      <trkpt lat="45.10122" lon="5.55805">
        <ele>1013</ele>
        <time>2012-04-17T21:59:54Z</time>
      </trkpt>
      <trkpt lat="45.10118" lon="5.55805">
        <ele>1013</ele>
        <time>2012-04-17T21:59:55Z</time>
      </trkpt>
      <trkpt lat="45.10113" lon="5.55803">
        <ele>1013</ele>
        <time>2012-04-17T21:59:56Z</time>
      </trkpt>
      <trkpt lat="45.10109" lon="5.55805">
        <ele>1013</ele>
        <time>2012-04-17T21:59:57Z</time>
      </trkpt>
      <trkpt lat="45.10105" lon="5.55805">
        <ele>1012</ele>
        <time>2012-04-17T21:59:58Z</time>
      </trkpt>
      <trkpt lat="45.10094" lon="5.55805">
        <ele>1012</ele>
        <time>2012-04-17T22:00:00Z</time>
      </trkpt>
      <trkpt lat="45.10079" lon="5.5581">
        <ele>1006</ele>
        <time>2012-04-17T22:00:04Z</time>
      </trkpt>
      <trkpt lat="45.10073" lon="5.55814">
        <ele>1006</ele>
        <time>2012-04-17T22:00:05Z</time>
      </trkpt>
      <trkpt lat="45.10064" lon="5.55818">
        <ele>1005</ele>
        <time>2012-04-17T22:00:07Z</time>
      </trkpt>
      <trkpt lat="45.1006" lon="5.55822">
        <ele>1005</ele>
        <time>2012-04-17T22:00:08Z</time>
      </trkpt>
      <trkpt lat="45.10053" lon="5.55827">
        <ele>1004</ele>
        <time>2012-04-17T22:00:09Z</time>
      </trkpt>
      <trkpt lat="45.10045" lon="5.55837">
        <ele>998</ele>
        <time>2012-04-17T22:00:12Z</time>
      </trkpt>
      <trkpt lat="45.1004" lon="5.55842">
        <ele>998</ele>
        <time>2012-04-17T22:00:13Z</time>
      </trkpt>
      <trkpt lat="45.10038" lon="5.55846">
        <ele>997</ele>
        <time>2012-04-17T22:00:14Z</time>
      </trkpt>
      <trkpt lat="45.10034" lon="5.55855">
        <ele>997</ele>
        <time>2012-04-17T22:00:16Z</time>
      </trkpt>
      <trkpt lat="45.10031" lon="5.55864">
        <ele>996</ele>
        <time>2012-04-17T22:00:18Z</time>
      </trkpt>
      <trkpt lat="45.10027" lon="5.55878">
        <ele>995</ele>
        <time>2012-04-17T22:00:20Z</time>
      </trkpt>
      <trkpt lat="45.10025" lon="5.55889">
        <ele>994</ele>
        <time>2012-04-17T22:00:22Z</time>
      </trkpt>
      <trkpt lat="45.10025" lon="5.55898">
        <ele>994</ele>
        <time>2012-04-17T22:00:23Z</time>
      </trkpt>
      <trkpt lat="45.10027" lon="5.5591">
        <ele>993</ele>
        <time>2012-04-17T22:00:25Z</time>
      </trkpt>
      <trkpt lat="45.1003" lon="5.55925">
        <ele>989</ele>
        <time>2012-04-17T22:00:28Z</time>
      </trkpt>
      <trkpt lat="45.10032" lon="5.5593">
        <ele>990</ele>
        <time>2012-04-17T22:00:29Z</time>
      </trkpt>
      <trkpt lat="45.10036" lon="5.55943">
        <ele>990</ele>
        <time>2012-04-17T22:00:31Z</time>
      </trkpt>
      <trkpt lat="45.10038" lon="5.5596">
        <ele>989</ele>
        <time>2012-04-17T22:00:34Z</time>
      </trkpt>
      <trkpt lat="45.10042" lon="5.55977">
        <ele>989</ele>
        <time>2012-04-17T22:00:37Z</time>
      </trkpt>
      <trkpt lat="45.10042" lon="5.55985">
        <ele>989</ele>
        <time>2012-04-17T22:00:38Z</time>
      </trkpt>
      <trkpt lat="45.10049" lon="5.55992">
        <ele>989</ele>
        <time>2012-04-17T22:00:40Z</time>
      </trkpt>
      <trkpt lat="45.10053" lon="5.55998">
        <ele>989</ele>
        <time>2012-04-17T22:00:41Z</time>
      </trkpt>
      <trkpt lat="45.10049" lon="5.56016">
        <ele>986</ele>
        <time>2012-04-17T22:00:44Z</time>
      </trkpt>
      <trkpt lat="45.10049" lon="5.56024">
        <ele>986</ele>
        <time>2012-04-17T22:00:45Z</time>
      </trkpt>
      <trkpt lat="45.10049" lon="5.56035">
        <ele>985</ele>
        <time>2012-04-17T22:00:47Z</time>
      </trkpt>
      <trkpt lat="45.10051" lon="5.56043">
        <ele>985</ele>
        <time>2012-04-17T22:00:48Z</time>
      </trkpt>
      <trkpt lat="45.10057" lon="5.56061">
        <ele>985</ele>
        <time>2012-04-17T22:00:51Z</time>
      </trkpt>
      <trkpt lat="45.10062" lon="5.56078">
        <ele>984</ele>
        <time>2012-04-17T22:00:54Z</time>
      </trkpt>
      <trkpt lat="45.10066" lon="5.56093">
        <ele>983</ele>
        <time>2012-04-17T22:00:57Z</time>
      </trkpt>
      <trkpt lat="45.10068" lon="5.56114">
        <ele>983</ele>
        <time>2012-04-17T22:01:01Z</time>
      </trkpt>
      <trkpt lat="45.1007" lon="5.56134">
        <ele>983</ele>
        <time>2012-04-17T22:01:04Z</time>
      </trkpt>
      <trkpt lat="45.1007" lon="5.56142">
        <ele>983</ele>
        <time>2012-04-17T22:01:05Z</time>
      </trkpt>
      <trkpt lat="45.1007" lon="5.56151">
        <ele>983</ele>
        <time>2012-04-17T22:01:06Z</time>
      </trkpt>
      <trkpt lat="45.10073" lon="5.56159">
        <ele>982</ele>
        <time>2012-04-17T22:01:07Z</time>
      </trkpt>
      <trkpt lat="45.10073" lon="5.5617">
        <ele>983</ele>
        <time>2012-04-17T22:01:09Z</time>
      </trkpt>
      <trkpt lat="45.10075" lon="5.56176">
        <ele>983</ele>
        <time>2012-04-17T22:01:10Z</time>
      </trkpt>
      <trkpt lat="45.10077" lon="5.56185">
        <ele>983</ele>
        <time>2012-04-17T22:01:11Z</time>
      </trkpt>
      <trkpt lat="45.10079" lon="5.56194">
        <ele>983</ele>
        <time>2012-04-17T22:01:12Z</time>
      </trkpt>
      <trkpt lat="45.10085" lon="5.56209">
        <ele>983</ele>
        <time>2012-04-17T22:01:15Z</time>
      </trkpt>
      <trkpt lat="45.10092" lon="5.56224">
        <ele>984</ele>
        <time>2012-04-17T22:01:18Z</time>
      </trkpt>
      <trkpt lat="45.10096" lon="5.56237">
        <ele>984</ele>
        <time>2012-04-17T22:01:20Z</time>
      </trkpt>
      <trkpt lat="45.10098" lon="5.56252">
        <ele>985</ele>
        <time>2012-04-17T22:01:23Z</time>
      </trkpt>
      <trkpt lat="45.101" lon="5.56271">
        <ele>985</ele>
        <time>2012-04-17T22:01:26Z</time>
      </trkpt>
      <trkpt lat="45.10098" lon="5.5629">
        <ele>985</ele>
        <time>2012-04-17T22:01:29Z</time>
      </trkpt>
      <trkpt lat="45.10098" lon="5.56307">
        <ele>985</ele>
        <time>2012-04-17T22:01:32Z</time>
      </trkpt>
      <trkpt lat="45.10098" lon="5.56322">
        <ele>986</ele>
        <time>2012-04-17T22:01:34Z</time>
      </trkpt>
      <trkpt lat="45.10098" lon="5.56346">
        <ele>986</ele>
        <time>2012-04-17T22:01:38Z</time>
      </trkpt>
      <trkpt lat="45.10098" lon="5.56352">
        <ele>987</ele>
        <time>2012-04-17T22:01:39Z</time>
      </trkpt>
      <trkpt lat="45.10098" lon="5.56359">
        <ele>987</ele>
        <time>2012-04-17T22:01:40Z</time>
      </trkpt>
      <trkpt lat="45.101" lon="5.5637">
        <ele>987</ele>
        <time>2012-04-17T22:01:42Z</time>
      </trkpt>
      <trkpt lat="45.10105" lon="5.56385">
        <ele>987</ele>
        <time>2012-04-17T22:01:45Z</time>
      </trkpt>
      <trkpt lat="45.10109" lon="5.56408">
        <ele>987</ele>
        <time>2012-04-17T22:01:49Z</time>
      </trkpt>
      <trkpt lat="45.10115" lon="5.56425">
        <ele>987</ele>
        <time>2012-04-17T22:01:52Z</time>
      </trkpt>
      <trkpt lat="45.10118" lon="5.56432">
        <ele>988</ele>
        <time>2012-04-17T22:01:53Z</time>
      </trkpt>
      <trkpt lat="45.1012" lon="5.56443">
        <ele>988</ele>
        <time>2012-04-17T22:01:55Z</time>
      </trkpt>
      <trkpt lat="45.1012" lon="5.5646">
        <ele>988</ele>
        <time>2012-04-17T22:01:58Z</time>
      </trkpt>
      <trkpt lat="45.10122" lon="5.56483">
        <ele>988</ele>
        <time>2012-04-17T22:02:02Z</time>
      </trkpt>
      <trkpt lat="45.10122" lon="5.56492">
        <ele>988</ele>
        <time>2012-04-17T22:02:03Z</time>
      </trkpt>
      <trkpt lat="45.10122" lon="5.56498">
        <ele>988</ele>
        <time>2012-04-17T22:02:04Z</time>
      </trkpt>
      <trkpt lat="45.1012" lon="5.56507">
        <ele>989</ele>
        <time>2012-04-17T22:02:05Z</time>
      </trkpt>
      <trkpt lat="45.1012" lon="5.56513">
        <ele>989</ele>
        <time>2012-04-17T22:02:06Z</time>
      </trkpt>
      <trkpt lat="45.10115" lon="5.56526">
        <ele>989</ele>
        <time>2012-04-17T22:02:08Z</time>
      </trkpt>
      <trkpt lat="45.10109" lon="5.56546">
        <ele>989</ele>
        <time>2012-04-17T22:02:12Z</time>
      </trkpt>
      <trkpt lat="45.10107" lon="5.56556">
        <ele>989</ele>
        <time>2012-04-17T22:02:14Z</time>
      </trkpt>
      <trkpt lat="45.10105" lon="5.56567">
        <ele>989</ele>
        <time>2012-04-17T22:02:16Z</time>
      </trkpt>
      <trkpt lat="45.10105" lon="5.56571">
        <ele>989</ele>
        <time>2012-04-17T22:02:16Z</time>
      </trkpt>
      <trkpt lat="45.10105" lon="5.5658">
        <ele>989</ele>
        <time>2012-04-17T22:02:17Z</time>
      </trkpt>
      <trkpt lat="45.10103" lon="5.56616">
        <ele>992</ele>
        <time>2012-04-17T22:02:24Z</time>
      </trkpt>
      <trkpt lat="45.10103" lon="5.56649">
        <ele>993</ele>
        <time>2012-04-17T22:02:30Z</time>
      </trkpt>
      <trkpt lat="45.101" lon="5.56666">
        <ele>993</ele>
        <time>2012-04-17T22:02:33Z</time>
      </trkpt>
      <trkpt lat="45.10103" lon="5.56696">
        <ele>997</ele>
        <time>2012-04-17T22:02:38Z</time>
      </trkpt>
      <trkpt lat="45.10103" lon="5.56711">
        <ele>997</ele>
        <time>2012-04-17T22:02:40Z</time>
      </trkpt>
      <trkpt lat="45.10103" lon="5.56728">
        <ele>998</ele>
        <time>2012-04-17T22:02:43Z</time>
      </trkpt>
      <trkpt lat="45.101" lon="5.56743">
        <ele>998</ele>
        <time>2012-04-17T22:02:46Z</time>
      </trkpt>
      <trkpt lat="45.101" lon="5.5676">
        <ele>1000</ele>
        <time>2012-04-17T22:02:49Z</time>
      </trkpt>
      <trkpt lat="45.10098" lon="5.56777">
        <ele>1001</ele>
        <time>2012-04-17T22:02:52Z</time>
      </trkpt>
      <trkpt lat="45.10092" lon="5.56816">
        <ele>1002</ele>
        <time>2012-04-17T22:02:59Z</time>
      </trkpt>
      <trkpt lat="45.10085" lon="5.5684">
        <ele>1002</ele>
        <time>2012-04-17T22:03:03Z</time>
      </trkpt>
      <trkpt lat="45.10085" lon="5.56846">
        <ele>1003</ele>
        <time>2012-04-17T22:03:04Z</time>
      </trkpt>
      <trkpt lat="45.10083" lon="5.56859">
        <ele>1001</ele>
        <time>2012-04-17T22:03:06Z</time>
      </trkpt>
      <trkpt lat="45.10081" lon="5.56878">
        <ele>1002</ele>
        <time>2012-04-17T22:03:09Z</time>
      </trkpt>
      <trkpt lat="45.10079" lon="5.56902">
        <ele>1004</ele>
        <time>2012-04-17T22:03:13Z</time>
      </trkpt>
      <trkpt lat="45.10079" lon="5.56917">
        <ele>1007</ele>
        <time>2012-04-17T22:03:15Z</time>
      </trkpt>
      <trkpt lat="45.10077" lon="5.56921">
        <ele>1006</ele>
        <time>2012-04-17T22:03:16Z</time>
      </trkpt>
      <trkpt lat="45.10075" lon="5.5694">
        <ele>1006</ele>
        <time>2012-04-17T22:03:19Z</time>
      </trkpt>
      <trkpt lat="45.1007" lon="5.56968">
        <ele>1006</ele>
        <time>2012-04-17T22:03:24Z</time>
      </trkpt>
      <trkpt lat="45.10062" lon="5.57022">
        <ele>1007</ele>
        <time>2012-04-17T22:03:34Z</time>
      </trkpt>
      <trkpt lat="45.1006" lon="5.57045">
        <ele>1007</ele>
        <time>2012-04-17T22:03:38Z</time>
      </trkpt>
      <trkpt lat="45.1006" lon="5.5705">
        <ele>1007</ele>
        <time>2012-04-17T22:03:38Z</time>
      </trkpt>
      <trkpt lat="45.10057" lon="5.57067">
        <ele>1006</ele>
        <time>2012-04-17T22:03:41Z</time>
      </trkpt>
      <trkpt lat="45.10055" lon="5.57082">
        <ele>1006</ele>
        <time>2012-04-17T22:03:44Z</time>
      </trkpt>
      <trkpt lat="45.10053" lon="5.5711">
        <ele>1005</ele>
        <time>2012-04-17T22:03:49Z</time>
      </trkpt>
      <trkpt lat="45.10049" lon="5.5714">
        <ele>1005</ele>
        <time>2012-04-17T22:03:55Z</time>
      </trkpt>
      <trkpt lat="45.10038" lon="5.57191">
        <ele>1004</ele>
        <time>2012-04-17T22:04:05Z</time>
      </trkpt>
      <trkpt lat="45.10034" lon="5.57219">
        <ele>1003</ele>
        <time>2012-04-17T22:04:10Z</time>
      </trkpt>
      <trkpt lat="45.10032" lon="5.57232">
        <ele>1003</ele>
        <time>2012-04-17T22:04:12Z</time>
      </trkpt>
      <trkpt lat="45.10025" lon="5.57271">
        <ele>1003</ele>
        <time>2012-04-17T22:04:19Z</time>
      </trkpt>
      <trkpt lat="45.10023" lon="5.57292">
        <ele>1003</ele>
        <time>2012-04-17T22:04:23Z</time>
      </trkpt>
      <trkpt lat="45.10023" lon="5.57307">
        <ele>1003</ele>
        <time>2012-04-17T22:04:25Z</time>
      </trkpt>
      <trkpt lat="45.10023" lon="5.57324">
        <ele>1003</ele>
        <time>2012-04-17T22:04:28Z</time>
      </trkpt>
      <trkpt lat="45.10023" lon="5.57346">
        <ele>1003</ele>
        <time>2012-04-17T22:04:32Z</time>
      </trkpt>
      <trkpt lat="45.10025" lon="5.57372">
        <ele>1003</ele>
        <time>2012-04-17T22:04:37Z</time>
      </trkpt>
      <trkpt lat="45.10025" lon="5.57378">
        <ele>1003</ele>
        <time>2012-04-17T22:04:38Z</time>
      </trkpt>
      <trkpt lat="45.10027" lon="5.57404">
        <ele>1003</ele>
        <time>2012-04-17T22:04:43Z</time>
      </trkpt>
      <trkpt lat="45.10034" lon="5.57453">
        <ele>1007</ele>
        <time>2012-04-17T22:04:52Z</time>
      </trkpt>
      <trkpt lat="45.1004" lon="5.57485">
        <ele>1008</ele>
        <time>2012-04-17T22:04:58Z</time>
      </trkpt>
      <trkpt lat="45.10045" lon="5.57507">
        <ele>1010</ele>
        <time>2012-04-17T22:05:02Z</time>
      </trkpt>
      <trkpt lat="45.10047" lon="5.57515">
        <ele>1010</ele>
        <time>2012-04-17T22:05:03Z</time>
      </trkpt>
      <trkpt lat="45.10047" lon="5.57524">
        <ele>1010</ele>
        <time>2012-04-17T22:05:04Z</time>
      </trkpt>
      <trkpt lat="45.10047" lon="5.57535">
        <ele>1010</ele>
        <time>2012-04-17T22:05:06Z</time>
      </trkpt>
      <trkpt lat="45.10045" lon="5.57548">
        <ele>1010</ele>
        <time>2012-04-17T22:05:08Z</time>
      </trkpt>
      <trkpt lat="45.10042" lon="5.57558">
        <ele>1010</ele>
        <time>2012-04-17T22:05:10Z</time>
      </trkpt>
      <trkpt lat="45.10034" lon="5.57578">
        <ele>1011</ele>
        <time>2012-04-17T22:05:14Z</time>
      </trkpt>
      <trkpt lat="45.10027" lon="5.57595">
        <ele>1012</ele>
        <time>2012-04-17T22:05:17Z</time>
      </trkpt>
      <trkpt lat="45.10021" lon="5.57608">
        <ele>1012</ele>
        <time>2012-04-17T22:05:20Z</time>
      </trkpt>
      <trkpt lat="45.10015" lon="5.57627">
        <ele>1012</ele>
        <time>2012-04-17T22:05:24Z</time>
      </trkpt>
      <trkpt lat="45.10008" lon="5.57651">
        <ele>1013</ele>
        <time>2012-04-17T22:05:28Z</time>
      </trkpt>
      <trkpt lat="45.10002" lon="5.57674">
        <ele>1014</ele>
        <time>2012-04-17T22:05:32Z</time>
      </trkpt>
      <trkpt lat="45.09993" lon="5.57704">
        <ele>1016</ele>
        <time>2012-04-17T22:05:38Z</time>
      </trkpt>
      <trkpt lat="45.0998" lon="5.57747">
        <ele>1017</ele>
        <time>2012-04-17T22:05:47Z</time>
      </trkpt>
      <trkpt lat="45.09967" lon="5.57794">
        <ele>1019</ele>
        <time>2012-04-17T22:05:56Z</time>
      </trkpt>
      <trkpt lat="45.09957" lon="5.57829">
        <ele>1020</ele>
        <time>2012-04-17T22:06:03Z</time>
      </trkpt>
      <trkpt lat="45.09948" lon="5.57854">
        <ele>1022</ele>
        <time>2012-04-17T22:06:08Z</time>
      </trkpt>
      <trkpt lat="45.09946" lon="5.57863">
        <ele>1023</ele>
        <time>2012-04-17T22:06:09Z</time>
      </trkpt>
      <trkpt lat="45.09944" lon="5.57872">
        <ele>1023</ele>
        <time>2012-04-17T22:06:10Z</time>
      </trkpt>
      <trkpt lat="45.09944" lon="5.57885">
        <ele>1023</ele>
        <time>2012-04-17T22:06:12Z</time>
      </trkpt>
      <trkpt lat="45.09944" lon="5.579">
        <ele>1024</ele>
        <time>2012-04-17T22:06:14Z</time>
      </trkpt>
      <trkpt lat="45.09942" lon="5.57951">
        <ele>1026</ele>
        <time>2012-04-17T22:06:24Z</time>
      </trkpt>
      <trkpt lat="45.09909" lon="5.5796">
        <ele>1025</ele>
        <time>2012-04-17T22:06:33Z</time>
      </trkpt>
      <trkpt lat="45.09899" lon="5.57964">
        <ele>1025</ele>
        <time>2012-04-17T22:06:36Z</time>
      </trkpt>
      <trkpt lat="45.0989" lon="5.57966">
        <ele>1025</ele>
        <time>2012-04-17T22:06:38Z</time>
      </trkpt>
      <trkpt lat="45.09888" lon="5.5797">
        <ele>1025</ele>
        <time>2012-04-17T22:06:39Z</time>
      </trkpt>
      <trkpt lat="45.09884" lon="5.57979">
        <ele>1025</ele>
        <time>2012-04-17T22:06:41Z</time>
      </trkpt>
      <trkpt lat="45.09879" lon="5.57994">
        <ele>1025</ele>
        <time>2012-04-17T22:06:44Z</time>
      </trkpt>
      <trkpt lat="45.09871" lon="5.58024">
        <ele>1028</ele>
        <time>2012-04-17T22:06:50Z</time>
      </trkpt>
      <trkpt lat="45.09869" lon="5.58041">
        <ele>1029</ele>
        <time>2012-04-17T22:06:53Z</time>
      </trkpt>
      <trkpt lat="45.09867" lon="5.58058">
        <ele>1030</ele>
        <time>2012-04-17T22:06:56Z</time>
      </trkpt>
      <trkpt lat="45.09864" lon="5.58075">
        <ele>1030</ele>
        <time>2012-04-17T22:06:59Z</time>
      </trkpt>
      <trkpt lat="45.09862" lon="5.58086">
        <ele>1034</ele>
        <time>2012-04-17T22:07:01Z</time>
      </trkpt>
      <trkpt lat="45.09858" lon="5.58101">
        <ele>1034</ele>
        <time>2012-04-17T22:07:04Z</time>
      </trkpt>
      <trkpt lat="45.09851" lon="5.58121">
        <ele>1034</ele>
        <time>2012-04-17T22:07:08Z</time>
      </trkpt>
      <trkpt lat="45.09847" lon="5.58138">
        <ele>1035</ele>
        <time>2012-04-17T22:07:11Z</time>
      </trkpt>
      <trkpt lat="45.09839" lon="5.58153">
        <ele>1035</ele>
        <time>2012-04-17T22:07:14Z</time>
      </trkpt>
      <trkpt lat="45.09832" lon="5.58168">
        <ele>1036</ele>
        <time>2012-04-17T22:07:17Z</time>
      </trkpt>
      <trkpt lat="45.09824" lon="5.58183">
        <ele>1037</ele>
        <time>2012-04-17T22:07:20Z</time>
      </trkpt>
      <trkpt lat="45.09819" lon="5.58193">
        <ele>1038</ele>
        <time>2012-04-17T22:07:22Z</time>
      </trkpt>
      <trkpt lat="45.09817" lon="5.582">
        <ele>1038</ele>
        <time>2012-04-17T22:07:23Z</time>
      </trkpt>
      <trkpt lat="45.09815" lon="5.58209">
        <ele>1039</ele>
        <time>2012-04-17T22:07:24Z</time>
      </trkpt>
      <trkpt lat="45.09817" lon="5.58215">
        <ele>1039</ele>
        <time>2012-04-17T22:07:25Z</time>
      </trkpt>
      <trkpt lat="45.09819" lon="5.58224">
        <ele>1040</ele>
        <time>2012-04-17T22:07:26Z</time>
      </trkpt>
      <trkpt lat="45.09828" lon="5.58236">
        <ele>1041</ele>
        <time>2012-04-17T22:07:29Z</time>
      </trkpt>
      <trkpt lat="45.09834" lon="5.58245">
        <ele>1042</ele>
        <time>2012-04-17T22:07:31Z</time>
      </trkpt>
      <trkpt lat="45.09843" lon="5.5826">
        <ele>1045</ele>
        <time>2012-04-17T22:07:34Z</time>
      </trkpt>
      <trkpt lat="45.09851" lon="5.58273">
        <ele>1046</ele>
        <time>2012-04-17T22:07:37Z</time>
      </trkpt>
      <trkpt lat="45.0986" lon="5.58286">
        <ele>1047</ele>
        <time>2012-04-17T22:07:40Z</time>
      </trkpt>
      <trkpt lat="45.09867" lon="5.58292">
        <ele>1047</ele>
        <time>2012-04-17T22:07:42Z</time>
      </trkpt>
      <trkpt lat="45.09879" lon="5.58303">
        <ele>1048</ele>
        <time>2012-04-17T22:07:46Z</time>
      </trkpt>
      <trkpt lat="45.0989" lon="5.58312">
        <ele>1048</ele>
        <time>2012-04-17T22:07:49Z</time>
      </trkpt>
      <trkpt lat="45.09903" lon="5.58318">
        <ele>1049</ele>
        <time>2012-04-17T22:07:52Z</time>
      </trkpt>
      <trkpt lat="45.09912" lon="5.58324">
        <ele>1050</ele>
        <time>2012-04-17T22:07:54Z</time>
      </trkpt>
      <trkpt lat="45.09918" lon="5.58331">
        <ele>1051</ele>
        <time>2012-04-17T22:07:56Z</time>
      </trkpt>
      <trkpt lat="45.09927" lon="5.58335">
        <ele>1053</ele>
        <time>2012-04-17T22:07:58Z</time>
      </trkpt>
      <trkpt lat="45.09931" lon="5.58341">
        <ele>1054</ele>
        <time>2012-04-17T22:07:59Z</time>
      </trkpt>
      <trkpt lat="45.09939" lon="5.58348">
        <ele>1055</ele>
        <time>2012-04-17T22:08:01Z</time>
      </trkpt>
      <trkpt lat="45.09944" lon="5.58354">
        <ele>1055</ele>
        <time>2012-04-17T22:08:02Z</time>
      </trkpt>
      <trkpt lat="45.09948" lon="5.58361">
        <ele>1056</ele>
        <time>2012-04-17T22:08:03Z</time>
      </trkpt>
      <trkpt lat="45.09954" lon="5.58376">
        <ele>1057</ele>
        <time>2012-04-17T22:08:06Z</time>
      </trkpt>
      <trkpt lat="45.09959" lon="5.58387">
        <ele>1057</ele>
        <time>2012-04-17T22:08:08Z</time>
      </trkpt>
      <trkpt lat="45.0997" lon="5.58408">
        <ele>1058</ele>
        <time>2012-04-17T22:08:13Z</time>
      </trkpt>
      <trkpt lat="45.0998" lon="5.5843">
        <ele>1065</ele>
        <time>2012-04-17T22:08:18Z</time>
      </trkpt>
      <trkpt lat="45.09987" lon="5.5844">
        <ele>1065</ele>
        <time>2012-04-17T22:08:20Z</time>
      </trkpt>
      <trkpt lat="45.09991" lon="5.58449">
        <ele>1066</ele>
        <time>2012-04-17T22:08:22Z</time>
      </trkpt>
      <trkpt lat="45.0998" lon="5.58455">
        <ele>1067</ele>
        <time>2012-04-17T22:08:25Z</time>
      </trkpt>
      <trkpt lat="45.09972" lon="5.58462">
        <ele>1068</ele>
        <time>2012-04-17T22:08:27Z</time>
      </trkpt>
      <trkpt lat="45.09957" lon="5.58466">
        <ele>1068</ele>
        <time>2012-04-17T22:08:31Z</time>
      </trkpt>
      <trkpt lat="45.09944" lon="5.58468">
        <ele>1068</ele>
        <time>2012-04-17T22:08:34Z</time>
      </trkpt>
      <trkpt lat="45.09933" lon="5.58468">
        <ele>1069</ele>
        <time>2012-04-17T22:08:36Z</time>
      </trkpt>
      <trkpt lat="45.09924" lon="5.58466">
        <ele>1069</ele>
        <time>2012-04-17T22:08:38Z</time>
      </trkpt>
      <trkpt lat="45.09914" lon="5.58462">
        <ele>1068</ele>
        <time>2012-04-17T22:08:41Z</time>
      </trkpt>
      <trkpt lat="45.09905" lon="5.5846">
        <ele>1068</ele>
        <time>2012-04-17T22:08:43Z</time>
      </trkpt>
      <trkpt lat="45.09899" lon="5.5846">
        <ele>1068</ele>
        <time>2012-04-17T22:08:44Z</time>
      </trkpt>
      <trkpt lat="45.09892" lon="5.5846">
        <ele>1067</ele>
        <time>2012-04-17T22:08:45Z</time>
      </trkpt>
      <trkpt lat="45.09886" lon="5.58464">
        <ele>1068</ele>
        <time>2012-04-17T22:08:46Z</time>
      </trkpt>
      <trkpt lat="45.09882" lon="5.58472">
        <ele>1068</ele>
        <time>2012-04-17T22:08:48Z</time>
      </trkpt>
      <trkpt lat="45.09877" lon="5.58479">
        <ele>1068</ele>
        <time>2012-04-17T22:08:49Z</time>
      </trkpt>
      <trkpt lat="45.09873" lon="5.5849">
        <ele>1068</ele>
        <time>2012-04-17T22:08:51Z</time>
      </trkpt>
      <trkpt lat="45.09873" lon="5.585">
        <ele>1074</ele>
        <time>2012-04-17T22:08:53Z</time>
      </trkpt>
      <trkpt lat="45.09871" lon="5.58513">
        <ele>1074</ele>
        <time>2012-04-17T22:08:55Z</time>
      </trkpt>
      <trkpt lat="45.09869" lon="5.58526">
        <ele>1075</ele>
        <time>2012-04-17T22:08:57Z</time>
      </trkpt>
      <trkpt lat="45.09869" lon="5.58539">
        <ele>1075</ele>
        <time>2012-04-17T22:08:59Z</time>
      </trkpt>
      <trkpt lat="45.09867" lon="5.58554">
        <ele>1076</ele>
        <time>2012-04-17T22:09:02Z</time>
      </trkpt>
      <trkpt lat="45.09869" lon="5.5856">
        <ele>1076</ele>
        <time>2012-04-17T22:09:03Z</time>
      </trkpt>
      <trkpt lat="45.09871" lon="5.58569">
        <ele>1077</ele>
        <time>2012-04-17T22:09:04Z</time>
      </trkpt>
      <trkpt lat="45.09873" lon="5.58573">
        <ele>1077</ele>
        <time>2012-04-17T22:09:05Z</time>
      </trkpt>
      <trkpt lat="45.09879" lon="5.58578">
        <ele>1078</ele>
        <time>2012-04-17T22:09:06Z</time>
      </trkpt>
      <trkpt lat="45.09884" lon="5.5858">
        <ele>1078</ele>
        <time>2012-04-17T22:09:07Z</time>
      </trkpt>
      <trkpt lat="45.09905" lon="5.5858">
        <ele>1081</ele>
        <time>2012-04-17T22:09:12Z</time>
      </trkpt>
      <trkpt lat="45.09912" lon="5.58582">
        <ele>1083</ele>
        <time>2012-04-17T22:09:13Z</time>
      </trkpt>
      <trkpt lat="45.09916" lon="5.58584">
        <ele>1085</ele>
        <time>2012-04-17T22:09:14Z</time>
      </trkpt>
      <trkpt lat="45.0992" lon="5.58588">
        <ele>1086</ele>
        <time>2012-04-17T22:09:15Z</time>
      </trkpt>
      <trkpt lat="45.09924" lon="5.5859">
        <ele>1087</ele>
        <time>2012-04-17T22:09:16Z</time>
      </trkpt>
      <trkpt lat="45.09927" lon="5.58595">
        <ele>1087</ele>
        <time>2012-04-17T22:09:17Z</time>
      </trkpt>
      <trkpt lat="45.09929" lon="5.58601">
        <ele>1088</ele>
        <time>2012-04-17T22:09:18Z</time>
      </trkpt>
      <trkpt lat="45.09931" lon="5.5861">
        <ele>1089</ele>
        <time>2012-04-17T22:09:19Z</time>
      </trkpt>
      <trkpt lat="45.09933" lon="5.58616">
        <ele>1089</ele>
        <time>2012-04-17T22:09:20Z</time>
      </trkpt>
      <trkpt lat="45.09937" lon="5.58627">
        <ele>1090</ele>
        <time>2012-04-17T22:09:22Z</time>
      </trkpt>
      <trkpt lat="45.09944" lon="5.58633">
        <ele>1091</ele>
        <time>2012-04-17T22:09:24Z</time>
      </trkpt>
      <trkpt lat="45.09948" lon="5.5864">
        <ele>1091</ele>
        <time>2012-04-17T22:09:25Z</time>
      </trkpt>
      <trkpt lat="45.09952" lon="5.58644">
        <ele>1092</ele>
        <time>2012-04-17T22:09:26Z</time>
      </trkpt>
      <trkpt lat="45.09959" lon="5.58648">
        <ele>1092</ele>
        <time>2012-04-17T22:09:27Z</time>
      </trkpt>
      <trkpt lat="45.09963" lon="5.58651">
        <ele>1092</ele>
        <time>2012-04-17T22:09:28Z</time>
      </trkpt>
      <trkpt lat="45.09972" lon="5.58653">
        <ele>1093</ele>
        <time>2012-04-17T22:09:30Z</time>
      </trkpt>
      <trkpt lat="45.09978" lon="5.58655">
        <ele>1093</ele>
        <time>2012-04-17T22:09:31Z</time>
      </trkpt>
      <trkpt lat="45.09987" lon="5.58657">
        <ele>1094</ele>
        <time>2012-04-17T22:09:33Z</time>
      </trkpt>
      <trkpt lat="45.09995" lon="5.58659">
        <ele>1096</ele>
        <time>2012-04-17T22:09:35Z</time>
      </trkpt>
      <trkpt lat="45.10004" lon="5.58659">
        <ele>1096</ele>
        <time>2012-04-17T22:09:37Z</time>
      </trkpt>
      <trkpt lat="45.10015" lon="5.58663">
        <ele>1096</ele>
        <time>2012-04-17T22:09:40Z</time>
      </trkpt>
      <trkpt lat="45.10021" lon="5.58668">
        <ele>1101</ele>
        <time>2012-04-17T22:09:41Z</time>
      </trkpt>
      <trkpt lat="45.10034" lon="5.58674">
        <ele>1102</ele>
        <time>2012-04-17T22:09:44Z</time>
      </trkpt>
      <trkpt lat="45.10038" lon="5.58678">
        <ele>1102</ele>
        <time>2012-04-17T22:09:45Z</time>
      </trkpt>
      <trkpt lat="45.10049" lon="5.58683">
        <ele>1103</ele>
        <time>2012-04-17T22:09:48Z</time>
      </trkpt>
      <trkpt lat="45.10055" lon="5.58685">
        <ele>1103</ele>
        <time>2012-04-17T22:09:49Z</time>
      </trkpt>
      <trkpt lat="45.10062" lon="5.58685">
        <ele>1102</ele>
        <time>2012-04-17T22:09:50Z</time>
      </trkpt>
      <trkpt lat="45.10066" lon="5.58685">
        <ele>1102</ele>
        <time>2012-04-17T22:09:51Z</time>
      </trkpt>
      <trkpt lat="45.10077" lon="5.58676">
        <ele>1101</ele>
        <time>2012-04-17T22:09:54Z</time>
      </trkpt>
      <trkpt lat="45.10083" lon="5.58672">
        <ele>1100</ele>
        <time>2012-04-17T22:09:55Z</time>
      </trkpt>
      <trkpt lat="45.1009" lon="5.5867">
        <ele>1100</ele>
        <time>2012-04-17T22:09:56Z</time>
      </trkpt>
      <trkpt lat="45.1009" lon="5.58676">
        <ele>1101</ele>
        <time>2012-04-17T22:09:57Z</time>
      </trkpt>
      <trkpt lat="45.10088" lon="5.58685">
        <ele>1102</ele>
        <time>2012-04-17T22:09:58Z</time>
      </trkpt>
      <trkpt lat="45.10083" lon="5.58698">
        <ele>1103</ele>
        <time>2012-04-17T22:10:00Z</time>
      </trkpt>
      <trkpt lat="45.10077" lon="5.58715">
        <ele>1105</ele>
        <time>2012-04-17T22:10:03Z</time>
      </trkpt>
      <trkpt lat="45.10075" lon="5.5873">
        <ele>1106</ele>
        <time>2012-04-17T22:10:06Z</time>
      </trkpt>
      <trkpt lat="45.1007" lon="5.58743">
        <ele>1107</ele>
        <time>2012-04-17T22:10:08Z</time>
      </trkpt>
      <trkpt lat="45.10062" lon="5.58758">
        <ele>1113</ele>
        <time>2012-04-17T22:10:11Z</time>
      </trkpt>
      <trkpt lat="45.1003" lon="5.58788">
        <ele>1116</ele>
        <time>2012-04-17T22:10:21Z</time>
      </trkpt>
      <trkpt lat="45.10021" lon="5.58792">
        <ele>1116</ele>
        <time>2012-04-17T22:10:23Z</time>
      </trkpt>
      <trkpt lat="45.1001" lon="5.58801">
        <ele>1118</ele>
        <time>2012-04-17T22:10:26Z</time>
      </trkpt>
      <trkpt lat="45.09993" lon="5.58831">
        <ele>1122</ele>
        <time>2012-04-17T22:10:33Z</time>
      </trkpt>
      <trkpt lat="45.09987" lon="5.58846">
        <ele>1129</ele>
        <time>2012-04-17T22:10:36Z</time>
      </trkpt>
      <trkpt lat="45.09989" lon="5.58857">
        <ele>1130</ele>
        <time>2012-04-17T22:10:38Z</time>
      </trkpt>
      <trkpt lat="45.09993" lon="5.58861">
        <ele>1131</ele>
        <time>2012-04-17T22:10:39Z</time>
      </trkpt>
      <trkpt lat="45.1001" lon="5.58867">
        <ele>1131</ele>
        <time>2012-04-17T22:10:43Z</time>
      </trkpt>
      <trkpt lat="45.10021" lon="5.58874">
        <ele>1131</ele>
        <time>2012-04-17T22:10:46Z</time>
      </trkpt>
      <trkpt lat="45.10034" lon="5.58891">
        <ele>1133</ele>
        <time>2012-04-17T22:10:50Z</time>
      </trkpt>
      <trkpt lat="45.10047" lon="5.58917">
        <ele>1134</ele>
        <time>2012-04-17T22:10:56Z</time>
      </trkpt>
      <trkpt lat="45.10053" lon="5.58934">
        <ele>1153</ele>
        <time>2012-04-17T22:10:59Z</time>
      </trkpt>
      <trkpt lat="45.1006" lon="5.58949">
        <ele>1155</ele>
        <time>2012-04-17T22:11:02Z</time>
      </trkpt>
      <trkpt lat="45.1007" lon="5.58953">
        <ele>1156</ele>
        <time>2012-04-17T22:11:05Z</time>
      </trkpt>
      <trkpt lat="45.10083" lon="5.58957">
        <ele>1157</ele>
        <time>2012-04-17T22:11:08Z</time>
      </trkpt>
      <trkpt lat="45.10096" lon="5.58957">
        <ele>1157</ele>
        <time>2012-04-17T22:11:11Z</time>
      </trkpt>
      <trkpt lat="45.10111" lon="5.58951">
        <ele>1155</ele>
        <time>2012-04-17T22:11:15Z</time>
      </trkpt>
      <trkpt lat="45.1013" lon="5.58942">
        <ele>1154</ele>
        <time>2012-04-17T22:11:20Z</time>
      </trkpt>
      <trkpt lat="45.10141" lon="5.58942">
        <ele>1154</ele>
        <time>2012-04-17T22:11:22Z</time>
      </trkpt>
      <trkpt lat="45.10158" lon="5.58945">
        <ele>1154</ele>
        <time>2012-04-17T22:11:26Z</time>
      </trkpt>
      <trkpt lat="45.10176" lon="5.58953">
        <ele>1156</ele>
        <time>2012-04-17T22:11:31Z</time>
      </trkpt>
      <trkpt lat="45.10201" lon="5.58962">
        <ele>1157</ele>
        <time>2012-04-17T22:11:38Z</time>
      </trkpt>
      <trkpt lat="45.10231" lon="5.5897">
        <ele>1159</ele>
        <time>2012-04-17T22:11:46Z</time>
      </trkpt>
      <trkpt lat="45.1027" lon="5.58981">
        <ele>1160</ele>
        <time>2012-04-17T22:11:56Z</time>
      </trkpt>
      <trkpt lat="45.10298" lon="5.5899">
        <ele>1160</ele>
        <time>2012-04-17T22:12:03Z</time>
      </trkpt>
      <trkpt lat="45.10313" lon="5.58992">
        <ele>1161</ele>
        <time>2012-04-17T22:12:07Z</time>
      </trkpt>
      <trkpt lat="45.10332" lon="5.58992">
        <ele>1166</ele>
        <time>2012-04-17T22:12:12Z</time>
      </trkpt>
      <trkpt lat="45.1036" lon="5.5899">
        <ele>1158</ele>
        <time>2012-04-17T22:12:19Z</time>
      </trkpt>
      <trkpt lat="45.10386" lon="5.58992">
        <ele>1156</ele>
        <time>2012-04-17T22:12:26Z</time>
      </trkpt>
      <trkpt lat="45.10407" lon="5.59002">
        <ele>1171</ele>
        <time>2012-04-17T22:12:32Z</time>
      </trkpt>
      <trkpt lat="45.1042" lon="5.59013">
        <ele>1169</ele>
        <time>2012-04-17T22:12:36Z</time>
      </trkpt>
      <trkpt lat="45.10436" lon="5.59023">
        <ele>1173</ele>
        <time>2012-04-17T22:12:40Z</time>
      </trkpt>
      <trkpt lat="45.10454" lon="5.59035">
        <ele>1175</ele>
        <time>2012-04-17T22:12:45Z</time>
      </trkpt>
      <trkpt lat="45.10478" lon="5.59056">
        <ele>1178</ele>
        <time>2012-04-17T22:12:52Z</time>
      </trkpt>
      <trkpt lat="45.10482" lon="5.59065">
        <ele>1179</ele>
        <time>2012-04-17T22:12:54Z</time>
      </trkpt>
      <trkpt lat="45.10489" lon="5.59069">
        <ele>1181</ele>
        <time>2012-04-17T22:12:55Z</time>
      </trkpt>
      <trkpt lat="45.105" lon="5.59071">
        <ele>1182</ele>
        <time>2012-04-17T22:12:58Z</time>
      </trkpt>
      <trkpt lat="45.10525" lon="5.59082">
        <ele>1175</ele>
        <time>2012-04-17T22:13:05Z</time>
      </trkpt>
      <trkpt lat="45.10551" lon="5.59099">
        <ele>1197</ele>
        <time>2012-04-17T22:13:12Z</time>
      </trkpt>
      <trkpt lat="45.10579" lon="5.59114">
        <ele>1198</ele>
        <time>2012-04-17T22:13:20Z</time>
      </trkpt>
      <trkpt lat="45.10609" lon="5.59133">
        <ele>1196</ele>
        <time>2012-04-17T22:13:29Z</time>
      </trkpt>
      <trkpt lat="45.10645" lon="5.59159">
        <ele>1199</ele>
        <time>2012-04-17T22:13:40Z</time>
      </trkpt>
      <trkpt lat="45.10673" lon="5.59185">
        <ele>1213</ele>
        <time>2012-04-17T22:13:49Z</time>
      </trkpt>
      <trkpt lat="45.10699" lon="5.59204">
        <ele>1218</ele>
        <time>2012-04-17T22:13:57Z</time>
      </trkpt>
      <trkpt lat="45.10706" lon="5.59211">
        <ele>1219</ele>
        <time>2012-04-17T22:13:59Z</time>
      </trkpt>
      <trkpt lat="45.10712" lon="5.59213">
        <ele>1219</ele>
        <time>2012-04-17T22:14:00Z</time>
      </trkpt>
      <trkpt lat="45.10718" lon="5.59215">
        <ele>1219</ele>
        <time>2012-04-17T22:14:01Z</time>
      </trkpt>
      <trkpt lat="45.10736" lon="5.59219">
        <ele>1220</ele>
        <time>2012-04-17T22:14:05Z</time>
      </trkpt>
      <trkpt lat="45.10757" lon="5.59228">
        <ele>1218</ele>
        <time>2012-04-17T22:14:11Z</time>
      </trkpt>
      <trkpt lat="45.10785" lon="5.59241">
        <ele>1217</ele>
        <time>2012-04-17T22:14:19Z</time>
      </trkpt>
      <trkpt lat="45.10817" lon="5.59262">
        <ele>1234</ele>
        <time>2012-04-17T22:14:28Z</time>
      </trkpt>
      <trkpt lat="45.10839" lon="5.59277">
        <ele>1233</ele>
        <time>2012-04-17T22:14:34Z</time>
      </trkpt>
      <trkpt lat="45.10854" lon="5.59294">
        <ele>1237</ele>
        <time>2012-04-17T22:14:39Z</time>
      </trkpt>
      <trkpt lat="45.10866" lon="5.59299">
        <ele>1238</ele>
        <time>2012-04-17T22:14:42Z</time>
      </trkpt>
      <trkpt lat="45.10886" lon="5.59307">
        <ele>1239</ele>
        <time>2012-04-17T22:14:47Z</time>
      </trkpt>
      <trkpt lat="45.10905" lon="5.59311">
        <ele>1240</ele>
        <time>2012-04-17T22:14:52Z</time>
      </trkpt>
      <trkpt lat="45.10931" lon="5.59316">
        <ele>1241</ele>
        <time>2012-04-17T22:14:59Z</time>
      </trkpt>
      <trkpt lat="45.10999" lon="5.5932">
        <ele>1247</ele>
        <time>2012-04-17T22:15:18Z</time>
      </trkpt>
      <trkpt lat="45.11038" lon="5.59322">
        <ele>1246</ele>
        <time>2012-04-17T22:15:28Z</time>
      </trkpt>
      <trkpt lat="45.11075" lon="5.59326">
        <ele>1253</ele>
        <time>2012-04-17T22:15:38Z</time>
      </trkpt>
      <trkpt lat="45.11113" lon="5.59333">
        <ele>1250</ele>
        <time>2012-04-17T22:15:48Z</time>
      </trkpt>
      <trkpt lat="45.11141" lon="5.59339">
        <ele>1271</ele>
        <time>2012-04-17T22:15:55Z</time>
      </trkpt>
      <trkpt lat="45.1116" lon="5.59346">
        <ele>1268</ele>
        <time>2012-04-17T22:16:00Z</time>
      </trkpt>
      <trkpt lat="45.11184" lon="5.59356">
        <ele>1269</ele>
        <time>2012-04-17T22:16:06Z</time>
      </trkpt>
      <trkpt lat="45.11212" lon="5.59372">
        <ele>1271</ele>
        <time>2012-04-17T22:16:14Z</time>
      </trkpt>
      <trkpt lat="45.11233" lon="5.59387">
        <ele>1273</ele>
        <time>2012-04-17T22:16:20Z</time>
      </trkpt>
      <trkpt lat="45.11257" lon="5.59408">
        <ele>1270</ele>
        <time>2012-04-17T22:16:27Z</time>
      </trkpt>
      <trkpt lat="45.11268" lon="5.59425">
        <ele>1274</ele>
        <time>2012-04-17T22:16:31Z</time>
      </trkpt>
      <trkpt lat="45.11272" lon="5.59436">
        <ele>1273</ele>
        <time>2012-04-17T22:16:33Z</time>
      </trkpt>
      <trkpt lat="45.11272" lon="5.59451">
        <ele>1273</ele>
        <time>2012-04-17T22:16:35Z</time>
      </trkpt>
      <trkpt lat="45.11263" lon="5.59494">
        <ele>1285</ele>
        <time>2012-04-17T22:16:43Z</time>
      </trkpt>
      <trkpt lat="45.11255" lon="5.5953">
        <ele>1283</ele>
        <time>2012-04-17T22:16:50Z</time>
      </trkpt>
      <trkpt lat="45.11244" lon="5.5955">
        <ele>1304</ele>
        <time>2012-04-17T22:16:54Z</time>
      </trkpt>
      <trkpt lat="45.11227" lon="5.59573">
        <ele>1304</ele>
        <time>2012-04-17T22:17:00Z</time>
      </trkpt>
      <trkpt lat="45.11197" lon="5.59614">
        <ele>1305</ele>
        <time>2012-04-17T22:17:11Z</time>
      </trkpt>
      <trkpt lat="45.11175" lon="5.59631">
        <ele>1307</ele>
        <time>2012-04-17T22:17:17Z</time>
      </trkpt>
      <trkpt lat="45.11163" lon="5.5964">
        <ele>1320</ele>
        <time>2012-04-17T22:17:20Z</time>
      </trkpt>
      <trkpt lat="45.11148" lon="5.59646">
        <ele>1321</ele>
        <time>2012-04-17T22:17:24Z</time>
      </trkpt>
      <trkpt lat="45.11135" lon="5.59661">
        <ele>1322</ele>
        <time>2012-04-17T22:17:28Z</time>
      </trkpt>
      <trkpt lat="45.11126" lon="5.59685">
        <ele>1324</ele>
        <time>2012-04-17T22:17:33Z</time>
      </trkpt>
      <trkpt lat="45.11126" lon="5.59711">
        <ele>1325</ele>
        <time>2012-04-17T22:17:38Z</time>
      </trkpt>
      <trkpt lat="45.11128" lon="5.59734">
        <ele>1325</ele>
        <time>2012-04-17T22:17:42Z</time>
      </trkpt>
      <trkpt lat="45.11137" lon="5.59749">
        <ele>1322</ele>
        <time>2012-04-17T22:17:45Z</time>
      </trkpt>
      <trkpt lat="45.11143" lon="5.59773">
        <ele>1325</ele>
        <time>2012-04-17T22:17:49Z</time>
      </trkpt>
      <trkpt lat="45.11145" lon="5.59794">
        <ele>1327</ele>
        <time>2012-04-17T22:17:53Z</time>
      </trkpt>
      <trkpt lat="45.11141" lon="5.59816">
        <ele>1327</ele>
        <time>2012-04-17T22:17:57Z</time>
      </trkpt>
      <trkpt lat="45.11137" lon="5.59841">
        <ele>1330</ele>
        <time>2012-04-17T22:18:02Z</time>
      </trkpt>
      <trkpt lat="45.11137" lon="5.59856">
        <ele>1330</ele>
        <time>2012-04-17T22:18:04Z</time>
      </trkpt>
      <trkpt lat="45.11139" lon="5.59878">
        <ele>1330</ele>
        <time>2012-04-17T22:18:08Z</time>
      </trkpt>
      <trkpt lat="45.11143" lon="5.59891">
        <ele>1329</ele>
        <time>2012-04-17T22:18:10Z</time>
      </trkpt>
      <trkpt lat="45.11141" lon="5.59904">
        <ele>1328</ele>
        <time>2012-04-17T22:18:12Z</time>
      </trkpt>
      <trkpt lat="45.11137" lon="5.59908">
        <ele>1329</ele>
        <time>2012-04-17T22:18:13Z</time>
      </trkpt>
      <trkpt lat="45.1113" lon="5.59908">
        <ele>1331</ele>
        <time>2012-04-17T22:18:14Z</time>
      </trkpt>
      <trkpt lat="45.11126" lon="5.59904">
        <ele>1332</ele>
        <time>2012-04-17T22:18:15Z</time>
      </trkpt>
      <trkpt lat="45.11124" lon="5.59897">
        <ele>1333</ele>
        <time>2012-04-17T22:18:16Z</time>
      </trkpt>
      <trkpt lat="45.11122" lon="5.59891">
        <ele>1334</ele>
        <time>2012-04-17T22:18:17Z</time>
      </trkpt>
      <trkpt lat="45.11122" lon="5.59878">
        <ele>1334</ele>
        <time>2012-04-17T22:18:19Z</time>
      </trkpt>
      <trkpt lat="45.11122" lon="5.59861">
        <ele>1334</ele>
        <time>2012-04-17T22:18:22Z</time>
      </trkpt>
      <trkpt lat="45.11122" lon="5.59833">
        <ele>1333</ele>
        <time>2012-04-17T22:18:27Z</time>
      </trkpt>
      <trkpt lat="45.11122" lon="5.59814">
        <ele>1332</ele>
        <time>2012-04-17T22:18:30Z</time>
      </trkpt>
      <trkpt lat="45.11115" lon="5.59801">
        <ele>1333</ele>
        <time>2012-04-17T22:18:33Z</time>
      </trkpt>
      <trkpt lat="45.11102" lon="5.59781">
        <ele>1334</ele>
        <time>2012-04-17T22:18:38Z</time>
      </trkpt>
      <trkpt lat="45.1109" lon="5.5976">
        <ele>1338</ele>
        <time>2012-04-17T22:18:43Z</time>
      </trkpt>
      <trkpt lat="45.11079" lon="5.59738">
        <ele>1345</ele>
        <time>2012-04-17T22:18:48Z</time>
      </trkpt>
      <trkpt lat="45.11064" lon="5.59715">
        <ele>1347</ele>
        <time>2012-04-17T22:18:54Z</time>
      </trkpt>
      <trkpt lat="45.1104" lon="5.59689">
        <ele>1348</ele>
        <time>2012-04-17T22:19:02Z</time>
      </trkpt>
      <trkpt lat="45.11014" lon="5.59672">
        <ele>1349</ele>
        <time>2012-04-17T22:19:09Z</time>
      </trkpt>
      <trkpt lat="45.10989" lon="5.59665">
        <ele>1347</ele>
        <time>2012-04-17T22:19:16Z</time>
      </trkpt>
      <trkpt lat="45.10961" lon="5.59663">
        <ele>1346</ele>
        <time>2012-04-17T22:19:23Z</time>
      </trkpt>
      <trkpt lat="45.10935" lon="5.59663">
        <ele>1350</ele>
        <time>2012-04-17T22:19:30Z</time>
      </trkpt>
      <trkpt lat="45.10907" lon="5.59661">
        <ele>1356</ele>
        <time>2012-04-17T22:19:37Z</time>
      </trkpt>
      <trkpt lat="45.10875" lon="5.59657">
        <ele>1354</ele>
        <time>2012-04-17T22:19:45Z</time>
      </trkpt>
      <trkpt lat="45.10836" lon="5.5965">
        <ele>1360</ele>
        <time>2012-04-17T22:19:55Z</time>
      </trkpt>
      <trkpt lat="45.10809" lon="5.59648">
        <ele>1360</ele>
        <time>2012-04-17T22:20:02Z</time>
      </trkpt>
      <trkpt lat="45.10781" lon="5.59648">
        <ele>1360</ele>
        <time>2012-04-17T22:20:09Z</time>
      </trkpt>
      <trkpt lat="45.10753" lon="5.59648">
        <ele>1364</ele>
        <time>2012-04-17T22:20:16Z</time>
      </trkpt>
      <trkpt lat="45.10727" lon="5.59653">
        <ele>1366</ele>
        <time>2012-04-17T22:20:23Z</time>
      </trkpt>
      <trkpt lat="45.10714" lon="5.59655">
        <ele>1366</ele>
        <time>2012-04-17T22:20:26Z</time>
      </trkpt>
      <trkpt lat="45.1068" lon="5.59659">
        <ele>1372</ele>
        <time>2012-04-17T22:20:35Z</time>
      </trkpt>
      <trkpt lat="45.10645" lon="5.59659">
        <ele>1376</ele>
        <time>2012-04-17T22:20:44Z</time>
      </trkpt>
      <trkpt lat="45.10611" lon="5.59657">
        <ele>1378</ele>
        <time>2012-04-17T22:20:53Z</time>
      </trkpt>
      <trkpt lat="45.10585" lon="5.59655">
        <ele>1384</ele>
        <time>2012-04-17T22:21:00Z</time>
      </trkpt>
      <trkpt lat="45.10553" lon="5.59648">
        <ele>1382</ele>
        <time>2012-04-17T22:21:09Z</time>
      </trkpt>
      <trkpt lat="45.10521" lon="5.59644">
        <ele>1384</ele>
        <time>2012-04-17T22:21:17Z</time>
      </trkpt>
      <trkpt lat="45.10497" lon="5.59644">
        <ele>1389</ele>
        <time>2012-04-17T22:21:23Z</time>
      </trkpt>
      <trkpt lat="45.10472" lon="5.59644">
        <ele>1388</ele>
        <time>2012-04-17T22:21:30Z</time>
      </trkpt>
      <trkpt lat="45.10405" lon="5.59657">
        <ele>1401</ele>
        <time>2012-04-17T22:21:48Z</time>
      </trkpt>
      <trkpt lat="45.10392" lon="5.59655">
        <ele>1400</ele>
        <time>2012-04-17T22:21:51Z</time>
      </trkpt>
      <trkpt lat="45.10366" lon="5.5965">
        <ele>1401</ele>
        <time>2012-04-17T22:21:58Z</time>
      </trkpt>
      <trkpt lat="45.10354" lon="5.59648">
        <ele>1403</ele>
        <time>2012-04-17T22:22:01Z</time>
      </trkpt>
      <trkpt lat="45.10343" lon="5.59646">
        <ele>1405</ele>
        <time>2012-04-17T22:22:04Z</time>
      </trkpt>
      <trkpt lat="45.10321" lon="5.5964">
        <ele>1411</ele>
        <time>2012-04-17T22:22:10Z</time>
      </trkpt>
      <trkpt lat="45.10294" lon="5.59638">
        <ele>1412</ele>
        <time>2012-04-17T22:22:17Z</time>
      </trkpt>
      <trkpt lat="45.1027" lon="5.59638">
        <ele>1415</ele>
        <time>2012-04-17T22:22:23Z</time>
      </trkpt>
      <trkpt lat="45.10253" lon="5.59635">
        <ele>1416</ele>
        <time>2012-04-17T22:22:27Z</time>
      </trkpt>
      <trkpt lat="45.10238" lon="5.59629">
        <ele>1422</ele>
        <time>2012-04-17T22:22:31Z</time>
      </trkpt>
      <trkpt lat="45.10221" lon="5.5962">
        <ele>1421</ele>
        <time>2012-04-17T22:22:36Z</time>
      </trkpt>
      <trkpt lat="45.1021" lon="5.59612">
        <ele>1421</ele>
        <time>2012-04-17T22:22:39Z</time>
      </trkpt>
      <trkpt lat="45.10197" lon="5.59601">
        <ele>1420</ele>
        <time>2012-04-17T22:22:43Z</time>
      </trkpt>
      <trkpt lat="45.10184" lon="5.59595">
        <ele>1420</ele>
        <time>2012-04-17T22:22:46Z</time>
      </trkpt>
      <trkpt lat="45.10173" lon="5.59592">
        <ele>1419</ele>
        <time>2012-04-17T22:22:49Z</time>
      </trkpt>
      <trkpt lat="45.10169" lon="5.5959">
        <ele>1419</ele>
        <time>2012-04-17T22:22:50Z</time>
      </trkpt>
      <trkpt lat="45.10156" lon="5.59597">
        <ele>1423</ele>
        <time>2012-04-17T22:22:53Z</time>
      </trkpt>
      <trkpt lat="45.10148" lon="5.59605">
        <ele>1424</ele>
        <time>2012-04-17T22:22:55Z</time>
      </trkpt>
      <trkpt lat="45.10137" lon="5.59618">
        <ele>1426</ele>
        <time>2012-04-17T22:22:58Z</time>
      </trkpt>
      <trkpt lat="45.1013" lon="5.59631">
        <ele>1427</ele>
        <time>2012-04-17T22:23:01Z</time>
      </trkpt>
      <trkpt lat="45.10126" lon="5.59648">
        <ele>1428</ele>
        <time>2012-04-17T22:23:04Z</time>
      </trkpt>
      <trkpt lat="45.10122" lon="5.59663">
        <ele>1429</ele>
        <time>2012-04-17T22:23:07Z</time>
      </trkpt>
      <trkpt lat="45.10115" lon="5.59674">
        <ele>1436</ele>
        <time>2012-04-17T22:23:09Z</time>
      </trkpt>
      <trkpt lat="45.10105" lon="5.59685">
        <ele>1436</ele>
        <time>2012-04-17T22:23:12Z</time>
      </trkpt>
      <trkpt lat="45.10088" lon="5.59698">
        <ele>1436</ele>
        <time>2012-04-17T22:23:17Z</time>
      </trkpt>
      <trkpt lat="45.1007" lon="5.59711">
        <ele>1438</ele>
        <time>2012-04-17T22:23:22Z</time>
      </trkpt>
      <trkpt lat="45.10057" lon="5.59715">
        <ele>1439</ele>
        <time>2012-04-17T22:23:25Z</time>
      </trkpt>
      <trkpt lat="45.10049" lon="5.59711">
        <ele>1439</ele>
        <time>2012-04-17T22:23:27Z</time>
      </trkpt>
      <trkpt lat="45.10034" lon="5.59691">
        <ele>1438</ele>
        <time>2012-04-17T22:23:32Z</time>
      </trkpt>
      <trkpt lat="45.10025" lon="5.59678">
        <ele>1438</ele>
        <time>2012-04-17T22:23:35Z</time>
      </trkpt>
      <trkpt lat="45.10015" lon="5.59665">
        <ele>1433</ele>
        <time>2012-04-17T22:23:38Z</time>
      </trkpt>
      <trkpt lat="45.10002" lon="5.59655">
        <ele>1433</ele>
        <time>2012-04-17T22:23:42Z</time>
      </trkpt>
      <trkpt lat="45.09995" lon="5.59646">
        <ele>1431</ele>
        <time>2012-04-17T22:23:44Z</time>
      </trkpt>
      <trkpt lat="45.09982" lon="5.59635">
        <ele>1429</ele>
        <time>2012-04-17T22:23:48Z</time>
      </trkpt>
      <trkpt lat="45.0997" lon="5.59629">
        <ele>1428</ele>
        <time>2012-04-17T22:23:51Z</time>
      </trkpt>
      <trkpt lat="45.09957" lon="5.59627">
        <ele>1428</ele>
        <time>2012-04-17T22:23:54Z</time>
      </trkpt>
      <trkpt lat="45.09942" lon="5.5962">
        <ele>1427</ele>
        <time>2012-04-17T22:23:58Z</time>
      </trkpt>
      <trkpt lat="45.09929" lon="5.59605">
        <ele>1426</ele>
        <time>2012-04-17T22:24:02Z</time>
      </trkpt>
      <trkpt lat="45.0992" lon="5.59595">
        <ele>1425</ele>
        <time>2012-04-17T22:24:05Z</time>
      </trkpt>
      <trkpt lat="45.09916" lon="5.59582">
        <ele>1423</ele>
        <time>2012-04-17T22:24:07Z</time>
      </trkpt>
      <trkpt lat="45.09914" lon="5.59573">
        <ele>1419</ele>
        <time>2012-04-17T22:24:08Z</time>
      </trkpt>
      <trkpt lat="45.09909" lon="5.5956">
        <ele>1414</ele>
        <time>2012-04-17T22:24:10Z</time>
      </trkpt>
      <trkpt lat="45.09903" lon="5.59547">
        <ele>1411</ele>
        <time>2012-04-17T22:24:13Z</time>
      </trkpt>
      <trkpt lat="45.09894" lon="5.59545">
        <ele>1410</ele>
        <time>2012-04-17T22:24:15Z</time>
      </trkpt>
      <trkpt lat="45.09886" lon="5.59545">
        <ele>1410</ele>
        <time>2012-04-17T22:24:17Z</time>
      </trkpt>
      <trkpt lat="45.09871" lon="5.59558">
        <ele>1411</ele>
        <time>2012-04-17T22:24:21Z</time>
      </trkpt>
      <trkpt lat="45.09854" lon="5.59582">
        <ele>1412</ele>
        <time>2012-04-17T22:24:27Z</time>
      </trkpt>
      <trkpt lat="45.09843" lon="5.59603">
        <ele>1419</ele>
        <time>2012-04-17T22:24:32Z</time>
      </trkpt>
      <trkpt lat="45.09832" lon="5.59633">
        <ele>1414</ele>
        <time>2012-04-17T22:24:38Z</time>
      </trkpt>
      <trkpt lat="45.09828" lon="5.59653">
        <ele>1416</ele>
        <time>2012-04-17T22:24:41Z</time>
      </trkpt>
      <trkpt lat="45.09826" lon="5.59681">
        <ele>1421</ele>
        <time>2012-04-17T22:24:46Z</time>
      </trkpt>
      <trkpt lat="45.09826" lon="5.59693">
        <ele>1422</ele>
        <time>2012-04-17T22:24:48Z</time>
      </trkpt>
      <trkpt lat="45.09821" lon="5.597">
        <ele>1423</ele>
        <time>2012-04-17T22:24:49Z</time>
      </trkpt>
      <trkpt lat="45.09815" lon="5.59702">
        <ele>1423</ele>
        <time>2012-04-17T22:24:50Z</time>
      </trkpt>
      <trkpt lat="45.09796" lon="5.59702">
        <ele>1422</ele>
        <time>2012-04-17T22:24:55Z</time>
      </trkpt>
      <trkpt lat="45.09766" lon="5.59702">
        <ele>1420</ele>
        <time>2012-04-17T22:25:03Z</time>
      </trkpt>
      <trkpt lat="45.09744" lon="5.59702">
        <ele>1416</ele>
        <time>2012-04-17T22:25:08Z</time>
      </trkpt>
      <trkpt lat="45.09729" lon="5.59702">
        <ele>1416</ele>
        <time>2012-04-17T22:25:12Z</time>
      </trkpt>
      <trkpt lat="45.09723" lon="5.597">
        <ele>1416</ele>
        <time>2012-04-17T22:25:13Z</time>
      </trkpt>
      <trkpt lat="45.09714" lon="5.59698">
        <ele>1416</ele>
        <time>2012-04-17T22:25:15Z</time>
      </trkpt>
      <trkpt lat="45.09708" lon="5.59691">
        <ele>1415</ele>
        <time>2012-04-17T22:25:17Z</time>
      </trkpt>
      <trkpt lat="45.09693" lon="5.59683">
        <ele>1414</ele>
        <time>2012-04-17T22:25:21Z</time>
      </trkpt>
      <trkpt lat="45.09648" lon="5.59663">
        <ele>1404</ele>
        <time>2012-04-17T22:25:34Z</time>
      </trkpt>
      <trkpt lat="45.09635" lon="5.59659">
        <ele>1404</ele>
        <time>2012-04-17T22:25:37Z</time>
      </trkpt>
      <trkpt lat="45.09626" lon="5.59659">
        <ele>1404</ele>
        <time>2012-04-17T22:25:39Z</time>
      </trkpt>
      <trkpt lat="45.09618" lon="5.59659">
        <ele>1404</ele>
        <time>2012-04-17T22:25:41Z</time>
      </trkpt>
      <trkpt lat="45.09596" lon="5.59665">
        <ele>1406</ele>
        <time>2012-04-17T22:25:47Z</time>
      </trkpt>
      <trkpt lat="45.09583" lon="5.59668">
        <ele>1408</ele>
        <time>2012-04-17T22:25:50Z</time>
      </trkpt>
      <trkpt lat="45.0957" lon="5.59665">
        <ele>1406</ele>
        <time>2012-04-17T22:25:53Z</time>
      </trkpt>
      <trkpt lat="45.09555" lon="5.59659">
        <ele>1405</ele>
        <time>2012-04-17T22:25:57Z</time>
      </trkpt>
      <trkpt lat="45.09547" lon="5.59653">
        <ele>1405</ele>
        <time>2012-04-17T22:25:59Z</time>
      </trkpt>
      <trkpt lat="45.0953" lon="5.59635">
        <ele>1404</ele>
        <time>2012-04-17T22:26:04Z</time>
      </trkpt>
      <trkpt lat="45.09515" lon="5.59623">
        <ele>1404</ele>
        <time>2012-04-17T22:26:08Z</time>
      </trkpt>
      <trkpt lat="45.09504" lon="5.59618">
        <ele>1403</ele>
        <time>2012-04-17T22:26:11Z</time>
      </trkpt>
      <trkpt lat="45.09497" lon="5.59616">
        <ele>1406</ele>
        <time>2012-04-17T22:26:12Z</time>
      </trkpt>
      <trkpt lat="45.09485" lon="5.59616">
        <ele>1406</ele>
        <time>2012-04-17T22:26:15Z</time>
      </trkpt>
      <trkpt lat="45.09472" lon="5.59618">
        <ele>1407</ele>
        <time>2012-04-17T22:26:18Z</time>
      </trkpt>
      <trkpt lat="45.09463" lon="5.59618">
        <ele>1407</ele>
        <time>2012-04-17T22:26:20Z</time>
      </trkpt>
      <trkpt lat="45.09452" lon="5.59614">
        <ele>1408</ele>
        <time>2012-04-17T22:26:23Z</time>
      </trkpt>
      <trkpt lat="45.09448" lon="5.59605">
        <ele>1407</ele>
        <time>2012-04-17T22:26:25Z</time>
      </trkpt>
      <trkpt lat="45.09444" lon="5.59593">
        <ele>1407</ele>
        <time>2012-04-17T22:26:27Z</time>
      </trkpt>
      <trkpt lat="45.0944" lon="5.59565">
        <ele>1400</ele>
        <time>2012-04-17T22:26:32Z</time>
      </trkpt>
      <trkpt lat="45.09435" lon="5.59537">
        <ele>1398</ele>
        <time>2012-04-17T22:26:37Z</time>
      </trkpt>
      <trkpt lat="45.09433" lon="5.59524">
        <ele>1397</ele>
        <time>2012-04-17T22:26:39Z</time>
      </trkpt>
      <trkpt lat="45.09427" lon="5.59509">
        <ele>1395</ele>
        <time>2012-04-17T22:26:42Z</time>
      </trkpt>
      <trkpt lat="45.09414" lon="5.59487">
        <ele>1392</ele>
        <time>2012-04-17T22:26:47Z</time>
      </trkpt>
      <trkpt lat="45.09397" lon="5.59477">
        <ele>1390</ele>
        <time>2012-04-17T22:26:52Z</time>
      </trkpt>
      <trkpt lat="45.09377" lon="5.59468">
        <ele>1390</ele>
        <time>2012-04-17T22:26:57Z</time>
      </trkpt>
      <trkpt lat="45.09362" lon="5.59468">
        <ele>1390</ele>
        <time>2012-04-17T22:27:01Z</time>
      </trkpt>
      <trkpt lat="45.09347" lon="5.59472">
        <ele>1391</ele>
        <time>2012-04-17T22:27:05Z</time>
      </trkpt>
      <trkpt lat="45.09315" lon="5.59485">
        <ele>1394</ele>
        <time>2012-04-17T22:27:14Z</time>
      </trkpt>
      <trkpt lat="45.09291" lon="5.59498">
        <ele>1393</ele>
        <time>2012-04-17T22:27:21Z</time>
      </trkpt>
      <trkpt lat="45.09274" lon="5.59505">
        <ele>1403</ele>
        <time>2012-04-17T22:27:25Z</time>
      </trkpt>
      <trkpt lat="45.09257" lon="5.59509">
        <ele>1401</ele>
        <time>2012-04-17T22:27:29Z</time>
      </trkpt>
      <trkpt lat="45.09244" lon="5.59511">
        <ele>1401</ele>
        <time>2012-04-17T22:27:32Z</time>
      </trkpt>
      <trkpt lat="45.09234" lon="5.59513">
        <ele>1403</ele>
        <time>2012-04-17T22:27:35Z</time>
      </trkpt>
      <trkpt lat="45.09221" lon="5.59513">
        <ele>1403</ele>
        <time>2012-04-17T22:27:38Z</time>
      </trkpt>
      <trkpt lat="45.09197" lon="5.59509">
        <ele>1403</ele>
        <time>2012-04-17T22:27:44Z</time>
      </trkpt>
      <trkpt lat="45.09186" lon="5.59511">
        <ele>1403</ele>
        <time>2012-04-17T22:27:47Z</time>
      </trkpt>
      <trkpt lat="45.09158" lon="5.59526">
        <ele>1406</ele>
        <time>2012-04-17T22:27:55Z</time>
      </trkpt>
      <trkpt lat="45.09141" lon="5.59532">
        <ele>1407</ele>
        <time>2012-04-17T22:27:59Z</time>
      </trkpt>
      <trkpt lat="45.09126" lon="5.59539">
        <ele>1408</ele>
        <time>2012-04-17T22:28:03Z</time>
      </trkpt>
      <trkpt lat="45.09113" lon="5.59539">
        <ele>1409</ele>
        <time>2012-04-17T22:28:06Z</time>
      </trkpt>
      <trkpt lat="45.09103" lon="5.59539">
        <ele>1409</ele>
        <time>2012-04-17T22:28:08Z</time>
      </trkpt>
      <trkpt lat="45.09092" lon="5.5953">
        <ele>1409</ele>
        <time>2012-04-17T22:28:11Z</time>
      </trkpt>
      <trkpt lat="45.09066" lon="5.5952">
        <ele>1411</ele>
        <time>2012-04-17T22:28:18Z</time>
      </trkpt>
      <trkpt lat="45.09051" lon="5.59513">
        <ele>1412</ele>
        <time>2012-04-17T22:28:22Z</time>
      </trkpt>
      <trkpt lat="45.09038" lon="5.59505">
        <ele>1412</ele>
        <time>2012-04-17T22:28:25Z</time>
      </trkpt>
      <trkpt lat="45.09019" lon="5.5949">
        <ele>1406</ele>
        <time>2012-04-17T22:28:31Z</time>
      </trkpt>
      <trkpt lat="45.08995" lon="5.5947">
        <ele>1405</ele>
        <time>2012-04-17T22:28:38Z</time>
      </trkpt>
      <trkpt lat="45.08957" lon="5.59436">
        <ele>1402</ele>
        <time>2012-04-17T22:28:50Z</time>
      </trkpt>
      <trkpt lat="45.08946" lon="5.59429">
        <ele>1402</ele>
        <time>2012-04-17T22:28:53Z</time>
      </trkpt>
      <trkpt lat="45.08937" lon="5.59427">
        <ele>1402</ele>
        <time>2012-04-17T22:28:55Z</time>
      </trkpt>
      <trkpt lat="45.08929" lon="5.59434">
        <ele>1402</ele>
        <time>2012-04-17T22:28:57Z</time>
      </trkpt>
      <trkpt lat="45.08905" lon="5.59444">
        <ele>1404</ele>
        <time>2012-04-17T22:29:03Z</time>
      </trkpt>
      <trkpt lat="45.08873" lon="5.59466">
        <ele>1405</ele>
        <time>2012-04-17T22:29:12Z</time>
      </trkpt>
      <trkpt lat="45.08847" lon="5.59479">
        <ele>1405</ele>
        <time>2012-04-17T22:29:19Z</time>
      </trkpt>
      <trkpt lat="45.08826" lon="5.59494">
        <ele>1403</ele>
        <time>2012-04-17T22:29:25Z</time>
      </trkpt>
      <trkpt lat="45.08811" lon="5.595">
        <ele>1406</ele>
        <time>2012-04-17T22:29:29Z</time>
      </trkpt>
      <trkpt lat="45.08798" lon="5.59505">
        <ele>1406</ele>
        <time>2012-04-17T22:29:32Z</time>
      </trkpt>
      <trkpt lat="45.08774" lon="5.59507">
        <ele>1404</ele>
        <time>2012-04-17T22:29:38Z</time>
      </trkpt>
      <trkpt lat="45.08759" lon="5.595">
        <ele>1400</ele>
        <time>2012-04-17T22:29:42Z</time>
      </trkpt>
      <trkpt lat="45.08742" lon="5.5949">
        <ele>1394</ele>
        <time>2012-04-17T22:29:47Z</time>
      </trkpt>
      <trkpt lat="45.08721" lon="5.59477">
        <ele>1391</ele>
        <time>2012-04-17T22:29:53Z</time>
      </trkpt>
      <trkpt lat="45.08717" lon="5.59473">
        <ele>1390</ele>
        <time>2012-04-17T22:29:54Z</time>
      </trkpt>
      <trkpt lat="45.08699" lon="5.59457">
        <ele>1388</ele>
        <time>2012-04-17T22:29:59Z</time>
      </trkpt>
      <trkpt lat="45.08688" lon="5.59444">
        <ele>1387</ele>
        <time>2012-04-17T22:30:02Z</time>
      </trkpt>
      <trkpt lat="45.08684" lon="5.59434">
        <ele>1385</ele>
        <time>2012-04-17T22:30:04Z</time>
      </trkpt>
      <trkpt lat="45.08682" lon="5.59423">
        <ele>1384</ele>
        <time>2012-04-17T22:30:06Z</time>
      </trkpt>
      <trkpt lat="45.08682" lon="5.5941">
        <ele>1377</ele>
        <time>2012-04-17T22:30:08Z</time>
      </trkpt>
      <trkpt lat="45.0868" lon="5.59402">
        <ele>1377</ele>
        <time>2012-04-17T22:30:09Z</time>
      </trkpt>
      <trkpt lat="45.0868" lon="5.59397">
        <ele>1376</ele>
        <time>2012-04-17T22:30:09Z</time>
      </trkpt>
      <trkpt lat="45.08676" lon="5.59395">
        <ele>1376</ele>
        <time>2012-04-17T22:30:10Z</time>
      </trkpt>
      <trkpt lat="45.08671" lon="5.59397">
        <ele>1376</ele>
        <time>2012-04-17T22:30:11Z</time>
      </trkpt>
      <trkpt lat="45.08661" lon="5.59419">
        <ele>1379</ele>
        <time>2012-04-17T22:30:16Z</time>
      </trkpt>
      <trkpt lat="45.08652" lon="5.59438">
        <ele>1380</ele>
        <time>2012-04-17T22:30:20Z</time>
      </trkpt>
      <trkpt lat="45.08646" lon="5.59449">
        <ele>1380</ele>
        <time>2012-04-17T22:30:22Z</time>
      </trkpt>
      <trkpt lat="45.08637" lon="5.59464">
        <ele>1381</ele>
        <time>2012-04-17T22:30:25Z</time>
      </trkpt>
      <trkpt lat="45.08633" lon="5.59475">
        <ele>1382</ele>
        <time>2012-04-17T22:30:27Z</time>
      </trkpt>
      <trkpt lat="45.08633" lon="5.59483">
        <ele>1383</ele>
        <time>2012-04-17T22:30:28Z</time>
      </trkpt>
      <trkpt lat="45.08637" lon="5.59494">
        <ele>1384</ele>
        <time>2012-04-17T22:30:30Z</time>
      </trkpt>
      <trkpt lat="45.08643" lon="5.59505">
        <ele>1390</ele>
        <time>2012-04-17T22:30:32Z</time>
      </trkpt>
      <trkpt lat="45.08648" lon="5.59513">
        <ele>1390</ele>
        <time>2012-04-17T22:30:34Z</time>
      </trkpt>
      <trkpt lat="45.08652" lon="5.59524">
        <ele>1390</ele>
        <time>2012-04-17T22:30:36Z</time>
      </trkpt>
      <trkpt lat="45.08646" lon="5.59543">
        <ele>1391</ele>
        <time>2012-04-17T22:30:40Z</time>
      </trkpt>
      <trkpt lat="45.08639" lon="5.59565">
        <ele>1392</ele>
        <time>2012-04-17T22:30:44Z</time>
      </trkpt>
      <trkpt lat="45.08639" lon="5.5958">
        <ele>1392</ele>
        <time>2012-04-17T22:30:46Z</time>
      </trkpt>
      <trkpt lat="45.08639" lon="5.5959">
        <ele>1396</ele>
        <time>2012-04-17T22:30:48Z</time>
      </trkpt>
      <trkpt lat="45.08631" lon="5.59593">
        <ele>1395</ele>
        <time>2012-04-17T22:30:50Z</time>
      </trkpt>
      <trkpt lat="45.08616" lon="5.59603">
        <ele>1394</ele>
        <time>2012-04-17T22:30:54Z</time>
      </trkpt>
      <trkpt lat="45.08605" lon="5.59614">
        <ele>1393</ele>
        <time>2012-04-17T22:30:57Z</time>
      </trkpt>
      <trkpt lat="45.0859" lon="5.59642">
        <ele>1393</ele>
        <time>2012-04-17T22:31:03Z</time>
      </trkpt>
      <trkpt lat="45.08579" lon="5.59681">
        <ele>1387</ele>
        <time>2012-04-17T22:31:11Z</time>
      </trkpt>
      <trkpt lat="45.08575" lon="5.59693">
        <ele>1386</ele>
        <time>2012-04-17T22:31:13Z</time>
      </trkpt>
      <trkpt lat="45.0857" lon="5.597">
        <ele>1386</ele>
        <time>2012-04-17T22:31:14Z</time>
      </trkpt>
      <trkpt lat="45.08564" lon="5.597">
        <ele>1386</ele>
        <time>2012-04-17T22:31:15Z</time>
      </trkpt>
      <trkpt lat="45.08553" lon="5.59698">
        <ele>1384</ele>
        <time>2012-04-17T22:31:18Z</time>
      </trkpt>
      <trkpt lat="45.0854" lon="5.59696">
        <ele>1382</ele>
        <time>2012-04-17T22:31:21Z</time>
      </trkpt>
      <trkpt lat="45.08532" lon="5.59696">
        <ele>1381</ele>
        <time>2012-04-17T22:31:23Z</time>
      </trkpt>
      <trkpt lat="45.08519" lon="5.59698">
        <ele>1379</ele>
        <time>2012-04-17T22:31:26Z</time>
      </trkpt>
      <trkpt lat="45.08489" lon="5.59708">
        <ele>1364</ele>
        <time>2012-04-17T22:31:34Z</time>
      </trkpt>
      <trkpt lat="45.08485" lon="5.59713">
        <ele>1365</ele>
        <time>2012-04-17T22:31:35Z</time>
      </trkpt>
      <trkpt lat="45.0848" lon="5.59723">
        <ele>1366</ele>
        <time>2012-04-17T22:31:37Z</time>
      </trkpt>
      <trkpt lat="45.08476" lon="5.59738">
        <ele>1367</ele>
        <time>2012-04-17T22:31:40Z</time>
      </trkpt>
      <trkpt lat="45.08285" lon="5.59807">
        <ele>1347.6562</ele>
        <time>2012-04-17T22:32:34Z</time>
      </trkpt>
      <trkpt lat="45.08281" lon="5.59801">
        <ele>1348</ele>
        <time>2012-04-17T22:32:35Z</time>
      </trkpt>
      <trkpt lat="45.08268" lon="5.59781">
        <ele>1344</ele>
        <time>2012-04-17T22:32:40Z</time>
      </trkpt>
      <trkpt lat="45.08255" lon="5.5976">
        <ele>1338</ele>
        <time>2012-04-17T22:32:45Z</time>
      </trkpt>
      <trkpt lat="45.08238" lon="5.59738">
        <ele>1330</ele>
        <time>2012-04-17T22:32:51Z</time>
      </trkpt>
      <trkpt lat="45.08214" lon="5.59706">
        <ele>1327</ele>
        <time>2012-04-17T22:33:00Z</time>
      </trkpt>
      <trkpt lat="45.08191" lon="5.59683">
        <ele>1324</ele>
        <time>2012-04-17T22:33:08Z</time>
      </trkpt>
      <trkpt lat="45.08171" lon="5.59668">
        <ele>1320</ele>
        <time>2012-04-17T22:33:14Z</time>
      </trkpt>
      <trkpt lat="45.08141" lon="5.59648">
        <ele>1317</ele>
        <time>2012-04-17T22:33:23Z</time>
      </trkpt>
      <trkpt lat="45.08118" lon="5.59642">
        <ele>1317</ele>
        <time>2012-04-17T22:33:29Z</time>
      </trkpt>
      <trkpt lat="45.08105" lon="5.59638">
        <ele>1318</ele>
        <time>2012-04-17T22:33:32Z</time>
      </trkpt>
      <trkpt lat="45.08075" lon="5.5962">
        <ele>1320</ele>
        <time>2012-04-17T22:33:41Z</time>
      </trkpt>
      <trkpt lat="45.0806" lon="5.5961">
        <ele>1320</ele>
        <time>2012-04-17T22:33:45Z</time>
      </trkpt>
      <trkpt lat="45.0804" lon="5.59597">
        <ele>1320</ele>
        <time>2012-04-17T22:33:50Z</time>
      </trkpt>
      <trkpt lat="45.08017" lon="5.59582">
        <ele>1314</ele>
        <time>2012-04-17T22:33:57Z</time>
      </trkpt>
      <trkpt lat="45.08002" lon="5.59578">
        <ele>1315</ele>
        <time>2012-04-17T22:34:01Z</time>
      </trkpt>
      <trkpt lat="45.07993" lon="5.59571">
        <ele>1313</ele>
        <time>2012-04-17T22:34:03Z</time>
      </trkpt>
      <trkpt lat="45.07976" lon="5.59552">
        <ele>1311</ele>
        <time>2012-04-17T22:34:09Z</time>
      </trkpt>
      <trkpt lat="45.07963" lon="5.59535">
        <ele>1309</ele>
        <time>2012-04-17T22:34:13Z</time>
      </trkpt>
      <trkpt lat="45.07955" lon="5.5953">
        <ele>1309</ele>
        <time>2012-04-17T22:34:15Z</time>
      </trkpt>
      <trkpt lat="45.07952" lon="5.59522">
        <ele>1308</ele>
        <time>2012-04-17T22:34:16Z</time>
      </trkpt>
      <trkpt lat="45.07948" lon="5.59498">
        <ele>1299</ele>
        <time>2012-04-17T22:34:20Z</time>
      </trkpt>
      <trkpt lat="45.07946" lon="5.59483">
        <ele>1299</ele>
        <time>2012-04-17T22:34:23Z</time>
      </trkpt>
      <trkpt lat="45.07942" lon="5.59475">
        <ele>1298</ele>
        <time>2012-04-17T22:34:25Z</time>
      </trkpt>
      <trkpt lat="45.07937" lon="5.5947">
        <ele>1298</ele>
        <time>2012-04-17T22:34:26Z</time>
      </trkpt>
      <trkpt lat="45.0792" lon="5.59462">
        <ele>1297</ele>
        <time>2012-04-17T22:34:31Z</time>
      </trkpt>
      <trkpt lat="45.07914" lon="5.59457">
        <ele>1295</ele>
        <time>2012-04-17T22:34:32Z</time>
      </trkpt>
      <trkpt lat="45.0791" lon="5.59449">
        <ele>1294</ele>
        <time>2012-04-17T22:34:34Z</time>
      </trkpt>
      <trkpt lat="45.07905" lon="5.59429">
        <ele>1293</ele>
        <time>2012-04-17T22:34:37Z</time>
      </trkpt>
      <trkpt lat="45.07892" lon="5.59408">
        <ele>1289</ele>
        <time>2012-04-17T22:34:42Z</time>
      </trkpt>
      <trkpt lat="45.07884" lon="5.59395">
        <ele>1288</ele>
        <time>2012-04-17T22:34:45Z</time>
      </trkpt>
      <trkpt lat="45.07884" lon="5.59382">
        <ele>1288</ele>
        <time>2012-04-17T22:34:47Z</time>
      </trkpt>
      <trkpt lat="45.07873" lon="5.59369">
        <ele>1288</ele>
        <time>2012-04-17T22:34:50Z</time>
      </trkpt>
      <trkpt lat="45.07865" lon="5.59363">
        <ele>1287</ele>
        <time>2012-04-17T22:34:52Z</time>
      </trkpt>
      <trkpt lat="45.07852" lon="5.59363">
        <ele>1287</ele>
        <time>2012-04-17T22:34:55Z</time>
      </trkpt>
      <trkpt lat="45.0783" lon="5.59356">
        <ele>1285</ele>
        <time>2012-04-17T22:35:01Z</time>
      </trkpt>
      <trkpt lat="45.07811" lon="5.59341">
        <ele>1284</ele>
        <time>2012-04-17T22:35:07Z</time>
      </trkpt>
      <trkpt lat="45.07802" lon="5.59329">
        <ele>1281</ele>
        <time>2012-04-17T22:35:10Z</time>
      </trkpt>
      <trkpt lat="45.07796" lon="5.59318">
        <ele>1280</ele>
        <time>2012-04-17T22:35:12Z</time>
      </trkpt>
      <trkpt lat="45.07794" lon="5.59296">
        <ele>1280</ele>
        <time>2012-04-17T22:35:16Z</time>
      </trkpt>
      <trkpt lat="45.07792" lon="5.59279">
        <ele>1280</ele>
        <time>2012-04-17T22:35:19Z</time>
      </trkpt>
      <trkpt lat="45.07787" lon="5.5926">
        <ele>1279</ele>
        <time>2012-04-17T22:35:22Z</time>
      </trkpt>
      <trkpt lat="45.07781" lon="5.59243">
        <ele>1277</ele>
        <time>2012-04-17T22:35:25Z</time>
      </trkpt>
      <trkpt lat="45.07783" lon="5.59223">
        <ele>1277</ele>
        <time>2012-04-17T22:35:28Z</time>
      </trkpt>
      <trkpt lat="45.07781" lon="5.59211">
        <ele>1277</ele>
        <time>2012-04-17T22:35:30Z</time>
      </trkpt>
      <trkpt lat="45.07779" lon="5.592">
        <ele>1277</ele>
        <time>2012-04-17T22:35:32Z</time>
      </trkpt>
      <trkpt lat="45.07774" lon="5.59181">
        <ele>1276</ele>
        <time>2012-04-17T22:35:35Z</time>
      </trkpt>
      <trkpt lat="45.07768" lon="5.59163">
        <ele>1274</ele>
        <time>2012-04-17T22:35:38Z</time>
      </trkpt>
      <trkpt lat="45.07764" lon="5.5914">
        <ele>1274</ele>
        <time>2012-04-17T22:35:42Z</time>
      </trkpt>
      <trkpt lat="45.07755" lon="5.59116">
        <ele>1273</ele>
        <time>2012-04-17T22:35:47Z</time>
      </trkpt>
      <trkpt lat="45.07749" lon="5.59105">
        <ele>1273</ele>
        <time>2012-04-17T22:35:49Z</time>
      </trkpt>
      <trkpt lat="45.07746" lon="5.59095">
        <ele>1272</ele>
        <time>2012-04-17T22:35:51Z</time>
      </trkpt>
      <trkpt lat="45.0774" lon="5.59073">
        <ele>1271</ele>
        <time>2012-04-17T22:35:55Z</time>
      </trkpt>
      <trkpt lat="45.07729" lon="5.59058">
        <ele>1271</ele>
        <time>2012-04-17T22:35:59Z</time>
      </trkpt>
      <trkpt lat="45.07723" lon="5.59043">
        <ele>1270</ele>
        <time>2012-04-17T22:36:02Z</time>
      </trkpt>
      <trkpt lat="45.07719" lon="5.59024">
        <ele>1270</ele>
        <time>2012-04-17T22:36:05Z</time>
      </trkpt>
      <trkpt lat="45.07716" lon="5.59011">
        <ele>1269</ele>
        <time>2012-04-17T22:36:07Z</time>
      </trkpt>
      <trkpt lat="45.07714" lon="5.59">
        <ele>1269</ele>
        <time>2012-04-17T22:36:09Z</time>
      </trkpt>
      <trkpt lat="45.07706" lon="5.58977">
        <ele>1265</ele>
        <time>2012-04-17T22:36:14Z</time>
      </trkpt>
      <trkpt lat="45.07695" lon="5.58947">
        <ele>1264</ele>
        <time>2012-04-17T22:36:20Z</time>
      </trkpt>
      <trkpt lat="45.07689" lon="5.58923">
        <ele>1263</ele>
        <time>2012-04-17T22:36:24Z</time>
      </trkpt>
      <trkpt lat="45.07682" lon="5.58906">
        <ele>1258</ele>
        <time>2012-04-17T22:36:27Z</time>
      </trkpt>
      <trkpt lat="45.07678" lon="5.58893">
        <ele>1257</ele>
        <time>2012-04-17T22:36:29Z</time>
      </trkpt>
      <trkpt lat="45.07678" lon="5.58869">
        <ele>1256</ele>
        <time>2012-04-17T22:36:33Z</time>
      </trkpt>
      <trkpt lat="45.0768" lon="5.58859">
        <ele>1255</ele>
        <time>2012-04-17T22:36:35Z</time>
      </trkpt>
      <trkpt lat="45.07682" lon="5.58852">
        <ele>1254</ele>
        <time>2012-04-17T22:36:36Z</time>
      </trkpt>
      <trkpt lat="45.0768" lon="5.58844">
        <ele>1253</ele>
        <time>2012-04-17T22:36:37Z</time>
      </trkpt>
      <trkpt lat="45.07678" lon="5.58829">
        <ele>1249</ele>
        <time>2012-04-17T22:36:40Z</time>
      </trkpt>
      <trkpt lat="45.07674" lon="5.58809">
        <ele>1249</ele>
        <time>2012-04-17T22:36:43Z</time>
      </trkpt>
      <trkpt lat="45.07669" lon="5.58796">
        <ele>1248</ele>
        <time>2012-04-17T22:36:45Z</time>
      </trkpt>
      <trkpt lat="45.07661" lon="5.58781">
        <ele>1249</ele>
        <time>2012-04-17T22:36:48Z</time>
      </trkpt>
      <trkpt lat="45.0765" lon="5.5876">
        <ele>1248</ele>
        <time>2012-04-17T22:36:53Z</time>
      </trkpt>
      <trkpt lat="45.07643" lon="5.58739">
        <ele>1247</ele>
        <time>2012-04-17T22:36:57Z</time>
      </trkpt>
      <trkpt lat="45.07641" lon="5.58719">
        <ele>1247</ele>
        <time>2012-04-17T22:37:00Z</time>
      </trkpt>
      <trkpt lat="45.07639" lon="5.58696">
        <ele>1247</ele>
        <time>2012-04-17T22:37:04Z</time>
      </trkpt>
      <trkpt lat="45.07637" lon="5.58683">
        <ele>1247</ele>
        <time>2012-04-17T22:37:06Z</time>
      </trkpt>
      <trkpt lat="45.07635" lon="5.58672">
        <ele>1246</ele>
        <time>2012-04-17T22:37:08Z</time>
      </trkpt>
      <trkpt lat="45.07631" lon="5.58663">
        <ele>1246</ele>
        <time>2012-04-17T22:37:10Z</time>
      </trkpt>
      <trkpt lat="45.07626" lon="5.58655">
        <ele>1246</ele>
        <time>2012-04-17T22:37:12Z</time>
      </trkpt>
      <trkpt lat="45.07622" lon="5.58644">
        <ele>1246</ele>
        <time>2012-04-17T22:37:14Z</time>
      </trkpt>
      <trkpt lat="45.07618" lon="5.58629">
        <ele>1246</ele>
        <time>2012-04-17T22:37:17Z</time>
      </trkpt>
      <trkpt lat="45.07616" lon="5.5862">
        <ele>1246</ele>
        <time>2012-04-17T22:37:18Z</time>
      </trkpt>
      <trkpt lat="45.07611" lon="5.58612">
        <ele>1245</ele>
        <time>2012-04-17T22:37:20Z</time>
      </trkpt>
      <trkpt lat="45.07603" lon="5.5859">
        <ele>1244</ele>
        <time>2012-04-17T22:37:24Z</time>
      </trkpt>
      <trkpt lat="45.07598" lon="5.5858">
        <ele>1242</ele>
        <time>2012-04-17T22:37:26Z</time>
      </trkpt>
      <trkpt lat="45.07594" lon="5.58569">
        <ele>1242</ele>
        <time>2012-04-17T22:37:28Z</time>
      </trkpt>
      <trkpt lat="45.07592" lon="5.5856">
        <ele>1241</ele>
        <time>2012-04-17T22:37:29Z</time>
      </trkpt>
      <trkpt lat="45.0759" lon="5.58556">
        <ele>1241</ele>
        <time>2012-04-17T22:37:30Z</time>
      </trkpt>
      <trkpt lat="45.07588" lon="5.58552">
        <ele>1241</ele>
        <time>2012-04-17T22:37:31Z</time>
      </trkpt>
      <trkpt lat="45.07581" lon="5.58548">
        <ele>1242</ele>
        <time>2012-04-17T22:37:32Z</time>
      </trkpt>
      <trkpt lat="45.07575" lon="5.58539">
        <ele>1241</ele>
        <time>2012-04-17T22:37:34Z</time>
      </trkpt>
      <trkpt lat="45.07571" lon="5.58533">
        <ele>1241</ele>
        <time>2012-04-17T22:37:35Z</time>
      </trkpt>
      <trkpt lat="45.07562" lon="5.58522">
        <ele>1240</ele>
        <time>2012-04-17T22:37:38Z</time>
      </trkpt>
      <trkpt lat="45.07556" lon="5.58515">
        <ele>1240</ele>
        <time>2012-04-17T22:37:40Z</time>
      </trkpt>
      <trkpt lat="45.07543" lon="5.58505">
        <ele>1241</ele>
        <time>2012-04-17T22:37:44Z</time>
      </trkpt>
      <trkpt lat="45.07536" lon="5.585">
        <ele>1241</ele>
        <time>2012-04-17T22:37:45Z</time>
      </trkpt>
      <trkpt lat="45.0753" lon="5.58494">
        <ele>1233</ele>
        <time>2012-04-17T22:37:47Z</time>
      </trkpt>
      <trkpt lat="45.07525" lon="5.5849">
        <ele>1233</ele>
        <time>2012-04-17T22:37:48Z</time>
      </trkpt>
      <trkpt lat="45.07521" lon="5.58485">
        <ele>1233</ele>
        <time>2012-04-17T22:37:49Z</time>
      </trkpt>
      <trkpt lat="45.07515" lon="5.58481">
        <ele>1233</ele>
        <time>2012-04-17T22:37:50Z</time>
      </trkpt>
      <trkpt lat="45.0751" lon="5.58472">
        <ele>1232</ele>
        <time>2012-04-17T22:37:52Z</time>
      </trkpt>
      <trkpt lat="45.07504" lon="5.58464">
        <ele>1231</ele>
        <time>2012-04-17T22:37:54Z</time>
      </trkpt>
      <trkpt lat="45.07493" lon="5.58447">
        <ele>1229</ele>
        <time>2012-04-17T22:37:58Z</time>
      </trkpt>
      <trkpt lat="45.07485" lon="5.5843">
        <ele>1227</ele>
        <time>2012-04-17T22:38:02Z</time>
      </trkpt>
      <trkpt lat="45.07478" lon="5.58421">
        <ele>1227</ele>
        <time>2012-04-17T22:38:04Z</time>
      </trkpt>
      <trkpt lat="45.07474" lon="5.58414">
        <ele>1221</ele>
        <time>2012-04-17T22:38:05Z</time>
      </trkpt>
      <trkpt lat="45.07465" lon="5.58399">
        <ele>1221</ele>
        <time>2012-04-17T22:38:08Z</time>
      </trkpt>
      <trkpt lat="45.07461" lon="5.58391">
        <ele>1220</ele>
        <time>2012-04-17T22:38:10Z</time>
      </trkpt>
      <trkpt lat="45.07455" lon="5.58382">
        <ele>1220</ele>
        <time>2012-04-17T22:38:12Z</time>
      </trkpt>
      <trkpt lat="45.07448" lon="5.58372">
        <ele>1219</ele>
        <time>2012-04-17T22:38:14Z</time>
      </trkpt>
      <trkpt lat="45.07442" lon="5.58363">
        <ele>1219</ele>
        <time>2012-04-17T22:38:16Z</time>
      </trkpt>
      <trkpt lat="45.07435" lon="5.58354">
        <ele>1218</ele>
        <time>2012-04-17T22:38:18Z</time>
      </trkpt>
      <trkpt lat="45.07431" lon="5.58348">
        <ele>1217</ele>
        <time>2012-04-17T22:38:19Z</time>
      </trkpt>
      <trkpt lat="45.07425" lon="5.58346">
        <ele>1216</ele>
        <time>2012-04-17T22:38:20Z</time>
      </trkpt>
      <trkpt lat="45.07412" lon="5.58335">
        <ele>1214</ele>
        <time>2012-04-17T22:38:24Z</time>
      </trkpt>
      <trkpt lat="45.07407" lon="5.58329">
        <ele>1214</ele>
        <time>2012-04-17T22:38:25Z</time>
      </trkpt>
      <trkpt lat="45.07403" lon="5.58324">
        <ele>1214</ele>
        <time>2012-04-17T22:38:26Z</time>
      </trkpt>
      <trkpt lat="45.07397" lon="5.58318">
        <ele>1214</ele>
        <time>2012-04-17T22:38:28Z</time>
      </trkpt>
      <trkpt lat="45.07392" lon="5.58312">
        <ele>1214</ele>
        <time>2012-04-17T22:38:29Z</time>
      </trkpt>
      <trkpt lat="45.07388" lon="5.58305">
        <ele>1214</ele>
        <time>2012-04-17T22:38:30Z</time>
      </trkpt>
      <trkpt lat="45.07382" lon="5.58296">
        <ele>1214</ele>
        <time>2012-04-17T22:38:32Z</time>
      </trkpt>
      <trkpt lat="45.07377" lon="5.5829">
        <ele>1214</ele>
        <time>2012-04-17T22:38:33Z</time>
      </trkpt>
      <trkpt lat="45.07371" lon="5.58284">
        <ele>1214</ele>
        <time>2012-04-17T22:38:35Z</time>
      </trkpt>
      <trkpt lat="45.07369" lon="5.58275">
        <ele>1214</ele>
        <time>2012-04-17T22:38:36Z</time>
      </trkpt>
      <trkpt lat="45.07345" lon="5.5823">
        <ele>1210</ele>
        <time>2012-04-17T22:38:47Z</time>
      </trkpt>
      <trkpt lat="45.07337" lon="5.58206">
        <ele>1208</ele>
        <time>2012-04-17T22:38:52Z</time>
      </trkpt>
      <trkpt lat="45.0733" lon="5.58191">
        <ele>1209</ele>
        <time>2012-04-17T22:38:55Z</time>
      </trkpt>
      <trkpt lat="45.07322" lon="5.58172">
        <ele>1207</ele>
        <time>2012-04-17T22:38:59Z</time>
      </trkpt>
      <trkpt lat="45.07315" lon="5.58157">
        <ele>1202</ele>
        <time>2012-04-17T22:39:02Z</time>
      </trkpt>
      <trkpt lat="45.07307" lon="5.58144">
        <ele>1201</ele>
        <time>2012-04-17T22:39:05Z</time>
      </trkpt>
      <trkpt lat="45.073" lon="5.58129">
        <ele>1200</ele>
        <time>2012-04-17T22:39:08Z</time>
      </trkpt>
      <trkpt lat="45.07294" lon="5.58118">
        <ele>1199</ele>
        <time>2012-04-17T22:39:10Z</time>
      </trkpt>
      <trkpt lat="45.07289" lon="5.58112">
        <ele>1199</ele>
        <time>2012-04-17T22:39:11Z</time>
      </trkpt>
      <trkpt lat="45.07285" lon="5.58106">
        <ele>1198</ele>
        <time>2012-04-17T22:39:12Z</time>
      </trkpt>
      <trkpt lat="45.07281" lon="5.58099">
        <ele>1198</ele>
        <time>2012-04-17T22:39:13Z</time>
      </trkpt>
      <trkpt lat="45.07274" lon="5.58095">
        <ele>1198</ele>
        <time>2012-04-17T22:39:14Z</time>
      </trkpt>
      <trkpt lat="45.07272" lon="5.58088">
        <ele>1197</ele>
        <time>2012-04-17T22:39:15Z</time>
      </trkpt>
      <trkpt lat="45.0727" lon="5.58082">
        <ele>1191</ele>
        <time>2012-04-17T22:39:16Z</time>
      </trkpt>
      <trkpt lat="45.07268" lon="5.58075">
        <ele>1191</ele>
        <time>2012-04-17T22:39:17Z</time>
      </trkpt>
      <trkpt lat="45.0727" lon="5.58065">
        <ele>1189</ele>
        <time>2012-04-17T22:39:19Z</time>
      </trkpt>
      <trkpt lat="45.07274" lon="5.58048">
        <ele>1188</ele>
        <time>2012-04-17T22:39:22Z</time>
      </trkpt>
      <trkpt lat="45.07287" lon="5.58022">
        <ele>1186</ele>
        <time>2012-04-17T22:39:28Z</time>
      </trkpt>
      <trkpt lat="45.07294" lon="5.58003">
        <ele>1185</ele>
        <time>2012-04-17T22:39:32Z</time>
      </trkpt>
      <trkpt lat="45.073" lon="5.57979">
        <ele>1179</ele>
        <time>2012-04-17T22:39:36Z</time>
      </trkpt>
      <trkpt lat="45.07304" lon="5.57962">
        <ele>1178</ele>
        <time>2012-04-17T22:39:39Z</time>
      </trkpt>
      <trkpt lat="45.07307" lon="5.57947">
        <ele>1177</ele>
        <time>2012-04-17T22:39:42Z</time>
      </trkpt>
      <trkpt lat="45.07309" lon="5.57927">
        <ele>1176</ele>
        <time>2012-04-17T22:39:45Z</time>
      </trkpt>
      <trkpt lat="45.07304" lon="5.57927">
        <ele>1176</ele>
        <time>2012-04-17T22:39:46Z</time>
      </trkpt>
      <trkpt lat="45.07296" lon="5.57925">
        <ele>1177</ele>
        <time>2012-04-17T22:39:48Z</time>
      </trkpt>
      <trkpt lat="45.07289" lon="5.57921">
        <ele>1177</ele>
        <time>2012-04-17T22:39:49Z</time>
      </trkpt>
      <trkpt lat="45.07287" lon="5.57917">
        <ele>1177</ele>
        <time>2012-04-17T22:39:50Z</time>
      </trkpt>
      <trkpt lat="45.07281" lon="5.5791">
        <ele>1172</ele>
        <time>2012-04-17T22:39:52Z</time>
      </trkpt>
      <trkpt lat="45.07274" lon="5.57906">
        <ele>1173</ele>
        <time>2012-04-17T22:39:53Z</time>
      </trkpt>
      <trkpt lat="45.07264" lon="5.57902">
        <ele>1173</ele>
        <time>2012-04-17T22:39:56Z</time>
      </trkpt>
      <trkpt lat="45.07249" lon="5.57897">
        <ele>1176</ele>
        <time>2012-04-17T22:40:00Z</time>
      </trkpt>
      <trkpt lat="45.07236" lon="5.57893">
        <ele>1176</ele>
        <time>2012-04-17T22:40:03Z</time>
      </trkpt>
      <trkpt lat="45.0721" lon="5.57884">
        <ele>1176</ele>
        <time>2012-04-17T22:40:10Z</time>
      </trkpt>
      <trkpt lat="45.07204" lon="5.57882">
        <ele>1176</ele>
        <time>2012-04-17T22:40:11Z</time>
      </trkpt>
      <trkpt lat="45.07208" lon="5.57766">
        <ele>1154.9296</ele>
        <time>2012-04-17T22:40:33Z</time>
      </trkpt>
      <trkpt lat="45.07172" lon="5.57668">
        <ele>1139.2148</ele>
        <time>2012-04-17T22:40:54Z</time>
      </trkpt>
      <trkpt lat="45.07185" lon="5.57621">
        <ele>1131.4101</ele>
        <time>2012-04-17T22:41:03Z</time>
      </trkpt>
      <trkpt lat="45.0716" lon="5.57582">
        <ele>1126.7265</ele>
        <time>2012-04-17T22:41:13Z</time>
      </trkpt>
      <trkpt lat="45.07201" lon="5.57567">
        <ele>1122.8359</ele>
        <time>2012-04-17T22:41:24Z</time>
      </trkpt>
      <trkpt lat="45.07264" lon="5.57494">
        <ele>1104.1406</ele>
        <time>2012-04-17T22:41:46Z</time>
      </trkpt>
      <trkpt lat="45.07248" lon="5.57437">
        <ele>1092.8632</ele>
        <time>2012-04-17T22:41:57Z</time>
      </trkpt>
    </trkseg>
  </trk>
</gpx>